<?xml version="1.0" encoding="UTF-8" standalone="no" ?>
<gpx xmlns="http://www.topografix.com/GPX/1/1" xmlns:xsi="http://www.w3.org/2001/XMLSchema-instance" xsi:schemaLocation="http://www.topografix.com/GPX/1/1 http://www.topografix.com/GPX/1/1/gpx.xsd" version="1.1" creator="VisuGPX - https://www.visugpx.com">
  <metadata>
    <name>Aveizieux Vélo</name>
  </metadata>
  <trk>
    <name><![CDATA[Aveizieux Vélo]]></name>
    <trkseg>
      <trkpt lat="45.57747" lon="4.37975">
        <ele>640.40002441406</ele>
        <time>2021-03-06T13:39:44.000Z</time>
      </trkpt>
      <trkpt lat="45.57747" lon="4.3797">
        <ele>640.40002441406</ele>
        <time>2021-03-06T13:39:45.000Z</time>
      </trkpt>
      <trkpt lat="45.57748" lon="4.37963">
        <ele>640.40002441406</ele>
        <time>2021-03-06T13:39:46.000Z</time>
      </trkpt>
      <trkpt lat="45.57749" lon="4.37946">
        <ele>640.20001220703</ele>
        <time>2021-03-06T13:39:48.000Z</time>
      </trkpt>
      <trkpt lat="45.57752" lon="4.37902">
        <ele>639.59997558594</ele>
        <time>2021-03-06T13:39:52.000Z</time>
      </trkpt>
      <trkpt lat="45.57753" lon="4.3789">
        <ele>639.40002441406</ele>
        <time>2021-03-06T13:39:53.000Z</time>
      </trkpt>
      <trkpt lat="45.5776" lon="4.37865">
        <ele>638.79998779297</ele>
        <time>2021-03-06T13:39:55.000Z</time>
      </trkpt>
      <trkpt lat="45.57764" lon="4.37855">
        <ele>638.40002441406</ele>
        <time>2021-03-06T13:39:56.000Z</time>
      </trkpt>
      <trkpt lat="45.57771" lon="4.3784">
        <ele>637.79998779297</ele>
        <time>2021-03-06T13:39:57.000Z</time>
      </trkpt>
      <trkpt lat="45.57786" lon="4.37814">
        <ele>636.20001220703</ele>
        <time>2021-03-06T13:39:59.000Z</time>
      </trkpt>
      <trkpt lat="45.57801" lon="4.37787">
        <ele>634.79998779297</ele>
        <time>2021-03-06T13:40:01.000Z</time>
      </trkpt>
      <trkpt lat="45.57808" lon="4.37772">
        <ele>634.20001220703</ele>
        <time>2021-03-06T13:40:02.000Z</time>
      </trkpt>
      <trkpt lat="45.57821" lon="4.37743">
        <ele>632.79998779297</ele>
        <time>2021-03-06T13:40:04.000Z</time>
      </trkpt>
      <trkpt lat="45.5783" lon="4.37725">
        <ele>631.59997558594</ele>
        <time>2021-03-06T13:40:05.000Z</time>
      </trkpt>
      <trkpt lat="45.57844" lon="4.37698">
        <ele>630.59997558594</ele>
        <time>2021-03-06T13:40:07.000Z</time>
      </trkpt>
      <trkpt lat="45.57853" lon="4.37685">
        <ele>629.40002441406</ele>
        <time>2021-03-06T13:40:08.000Z</time>
      </trkpt>
      <trkpt lat="45.57862" lon="4.37674">
        <ele>628.20001220703</ele>
        <time>2021-03-06T13:40:09.000Z</time>
      </trkpt>
      <trkpt lat="45.57882" lon="4.37656">
        <ele>627</ele>
        <time>2021-03-06T13:40:11.000Z</time>
      </trkpt>
      <trkpt lat="45.57903" lon="4.3764">
        <ele>625.59997558594</ele>
        <time>2021-03-06T13:40:13.000Z</time>
      </trkpt>
      <trkpt lat="45.57923" lon="4.37625">
        <ele>625</ele>
        <time>2021-03-06T13:40:15.000Z</time>
      </trkpt>
      <trkpt lat="45.57934" lon="4.37618">
        <ele>624.20001220703</ele>
        <time>2021-03-06T13:40:16.000Z</time>
      </trkpt>
      <trkpt lat="45.57952" lon="4.37605">
        <ele>622.79998779297</ele>
        <time>2021-03-06T13:40:18.000Z</time>
      </trkpt>
      <trkpt lat="45.57972" lon="4.37591">
        <ele>621.79998779297</ele>
        <time>2021-03-06T13:40:20.000Z</time>
      </trkpt>
      <trkpt lat="45.57981" lon="4.37585">
        <ele>621.20001220703</ele>
        <time>2021-03-06T13:40:21.000Z</time>
      </trkpt>
      <trkpt lat="45.57992" lon="4.3758">
        <ele>620.59997558594</ele>
        <time>2021-03-06T13:40:22.000Z</time>
      </trkpt>
      <trkpt lat="45.58002" lon="4.37574">
        <ele>620</ele>
        <time>2021-03-06T13:40:23.000Z</time>
      </trkpt>
      <trkpt lat="45.58012" lon="4.37568">
        <ele>619.40002441406</ele>
        <time>2021-03-06T13:40:24.000Z</time>
      </trkpt>
      <trkpt lat="45.58022" lon="4.3756">
        <ele>618.59997558594</ele>
        <time>2021-03-06T13:40:25.000Z</time>
      </trkpt>
      <trkpt lat="45.58032" lon="4.3755">
        <ele>618.20001220703</ele>
        <time>2021-03-06T13:40:26.000Z</time>
      </trkpt>
      <trkpt lat="45.58041" lon="4.37539">
        <ele>617.79998779297</ele>
        <time>2021-03-06T13:40:27.000Z</time>
      </trkpt>
      <trkpt lat="45.58049" lon="4.37526">
        <ele>617.40002441406</ele>
        <time>2021-03-06T13:40:28.000Z</time>
      </trkpt>
      <trkpt lat="45.58057" lon="4.37512">
        <ele>617</ele>
        <time>2021-03-06T13:40:29.000Z</time>
      </trkpt>
      <trkpt lat="45.58065" lon="4.37499">
        <ele>616.79998779297</ele>
        <time>2021-03-06T13:40:30.000Z</time>
      </trkpt>
      <trkpt lat="45.58091" lon="4.37459">
        <ele>615.79998779297</ele>
        <time>2021-03-06T13:40:33.000Z</time>
      </trkpt>
      <trkpt lat="45.58117" lon="4.37418">
        <ele>614.40002441406</ele>
        <time>2021-03-06T13:40:36.000Z</time>
      </trkpt>
      <trkpt lat="45.58126" lon="4.37405">
        <ele>613.79998779297</ele>
        <time>2021-03-06T13:40:37.000Z</time>
      </trkpt>
      <trkpt lat="45.58134" lon="4.37391">
        <ele>613.20001220703</ele>
        <time>2021-03-06T13:40:38.000Z</time>
      </trkpt>
      <trkpt lat="45.5814" lon="4.37377">
        <ele>612.40002441406</ele>
        <time>2021-03-06T13:40:39.000Z</time>
      </trkpt>
      <trkpt lat="45.58145" lon="4.37362">
        <ele>611.40002441406</ele>
        <time>2021-03-06T13:40:40.000Z</time>
      </trkpt>
      <trkpt lat="45.58146" lon="4.37347">
        <ele>611</ele>
        <time>2021-03-06T13:40:41.000Z</time>
      </trkpt>
      <trkpt lat="45.58144" lon="4.37333">
        <ele>610.79998779297</ele>
        <time>2021-03-06T13:40:42.000Z</time>
      </trkpt>
      <trkpt lat="45.58134" lon="4.37277">
        <ele>611.20001220703</ele>
        <time>2021-03-06T13:40:46.000Z</time>
      </trkpt>
      <trkpt lat="45.5813" lon="4.37249">
        <ele>611.40002441406</ele>
        <time>2021-03-06T13:40:48.000Z</time>
      </trkpt>
      <trkpt lat="45.58128" lon="4.37223">
        <ele>611.40002441406</ele>
        <time>2021-03-06T13:40:50.000Z</time>
      </trkpt>
      <trkpt lat="45.58128" lon="4.37211">
        <ele>611.40002441406</ele>
        <time>2021-03-06T13:40:51.000Z</time>
      </trkpt>
      <trkpt lat="45.5813" lon="4.372">
        <ele>611.40002441406</ele>
        <time>2021-03-06T13:40:52.000Z</time>
      </trkpt>
      <trkpt lat="45.58132" lon="4.37189">
        <ele>610.79998779297</ele>
        <time>2021-03-06T13:40:53.000Z</time>
      </trkpt>
      <trkpt lat="45.58135" lon="4.37178">
        <ele>610.40002441406</ele>
        <time>2021-03-06T13:40:54.000Z</time>
      </trkpt>
      <trkpt lat="45.58138" lon="4.37168">
        <ele>609.59997558594</ele>
        <time>2021-03-06T13:40:55.000Z</time>
      </trkpt>
      <trkpt lat="45.58141" lon="4.37161">
        <ele>609.20001220703</ele>
        <time>2021-03-06T13:40:56.000Z</time>
      </trkpt>
      <trkpt lat="45.58154" lon="4.37137">
        <ele>608.40002441406</ele>
        <time>2021-03-06T13:40:59.000Z</time>
      </trkpt>
      <trkpt lat="45.58157" lon="4.37128">
        <ele>608.20001220703</ele>
        <time>2021-03-06T13:41:00.000Z</time>
      </trkpt>
      <trkpt lat="45.5816" lon="4.37119">
        <ele>608</ele>
        <time>2021-03-06T13:41:01.000Z</time>
      </trkpt>
      <trkpt lat="45.58168" lon="4.37097">
        <ele>607.59997558594</ele>
        <time>2021-03-06T13:41:03.000Z</time>
      </trkpt>
      <trkpt lat="45.5818" lon="4.3706">
        <ele>606.79998779297</ele>
        <time>2021-03-06T13:41:06.000Z</time>
      </trkpt>
      <trkpt lat="45.58184" lon="4.37034">
        <ele>605.59997558594</ele>
        <time>2021-03-06T13:41:08.000Z</time>
      </trkpt>
      <trkpt lat="45.58184" lon="4.37023">
        <ele>605.20001220703</ele>
        <time>2021-03-06T13:41:09.000Z</time>
      </trkpt>
      <trkpt lat="45.58183" lon="4.37015">
        <ele>605.20001220703</ele>
        <time>2021-03-06T13:41:10.000Z</time>
      </trkpt>
      <trkpt lat="45.58182" lon="4.37009">
        <ele>605</ele>
        <time>2021-03-06T13:41:11.000Z</time>
      </trkpt>
      <trkpt lat="45.58186" lon="4.36998">
        <ele>604.59997558594</ele>
        <time>2021-03-06T13:41:13.000Z</time>
      </trkpt>
      <trkpt lat="45.58191" lon="4.36995">
        <ele>604.40002441406</ele>
        <time>2021-03-06T13:41:14.000Z</time>
      </trkpt>
      <trkpt lat="45.58206" lon="4.36986">
        <ele>604.20001220703</ele>
        <time>2021-03-06T13:41:17.000Z</time>
      </trkpt>
      <trkpt lat="45.58221" lon="4.36975">
        <ele>603.59997558594</ele>
        <time>2021-03-06T13:41:19.000Z</time>
      </trkpt>
      <trkpt lat="45.58229" lon="4.3697">
        <ele>603.40002441406</ele>
        <time>2021-03-06T13:41:20.000Z</time>
      </trkpt>
      <trkpt lat="45.58236" lon="4.36965">
        <ele>603</ele>
        <time>2021-03-06T13:41:21.000Z</time>
      </trkpt>
      <trkpt lat="45.58275" lon="4.36941">
        <ele>601.79998779297</ele>
        <time>2021-03-06T13:41:25.000Z</time>
      </trkpt>
      <trkpt lat="45.58283" lon="4.36935">
        <ele>601.40002441406</ele>
        <time>2021-03-06T13:41:26.000Z</time>
      </trkpt>
      <trkpt lat="45.58306" lon="4.36922">
        <ele>600.59997558594</ele>
        <time>2021-03-06T13:41:28.000Z</time>
      </trkpt>
      <trkpt lat="45.58328" lon="4.36911">
        <ele>599.40002441406</ele>
        <time>2021-03-06T13:41:30.000Z</time>
      </trkpt>
      <trkpt lat="45.58351" lon="4.36902">
        <ele>598.79998779297</ele>
        <time>2021-03-06T13:41:32.000Z</time>
      </trkpt>
      <trkpt lat="45.58362" lon="4.36898">
        <ele>598.20001220703</ele>
        <time>2021-03-06T13:41:33.000Z</time>
      </trkpt>
      <trkpt lat="45.58397" lon="4.36885">
        <ele>597.20001220703</ele>
        <time>2021-03-06T13:41:36.000Z</time>
      </trkpt>
      <trkpt lat="45.58408" lon="4.36881">
        <ele>597</ele>
        <time>2021-03-06T13:41:37.000Z</time>
      </trkpt>
      <trkpt lat="45.58441" lon="4.3687">
        <ele>596.20001220703</ele>
        <time>2021-03-06T13:41:40.000Z</time>
      </trkpt>
      <trkpt lat="45.58452" lon="4.36868">
        <ele>596</ele>
        <time>2021-03-06T13:41:41.000Z</time>
      </trkpt>
      <trkpt lat="45.58483" lon="4.36864">
        <ele>595</ele>
        <time>2021-03-06T13:41:44.000Z</time>
      </trkpt>
      <trkpt lat="45.58494" lon="4.36865">
        <ele>594.79998779297</ele>
        <time>2021-03-06T13:41:45.000Z</time>
      </trkpt>
      <trkpt lat="45.58504" lon="4.36866">
        <ele>594.40002441406</ele>
        <time>2021-03-06T13:41:46.000Z</time>
      </trkpt>
      <trkpt lat="45.58525" lon="4.36868">
        <ele>593.59997558594</ele>
        <time>2021-03-06T13:41:48.000Z</time>
      </trkpt>
      <trkpt lat="45.58547" lon="4.3687">
        <ele>593.20001220703</ele>
        <time>2021-03-06T13:41:50.000Z</time>
      </trkpt>
      <trkpt lat="45.58569" lon="4.36873">
        <ele>592.40002441406</ele>
        <time>2021-03-06T13:41:52.000Z</time>
      </trkpt>
      <trkpt lat="45.58602" lon="4.3688">
        <ele>591.40002441406</ele>
        <time>2021-03-06T13:41:55.000Z</time>
      </trkpt>
      <trkpt lat="45.58612" lon="4.36884">
        <ele>591</ele>
        <time>2021-03-06T13:41:56.000Z</time>
      </trkpt>
      <trkpt lat="45.58629" lon="4.36903">
        <ele>589.79998779297</ele>
        <time>2021-03-06T13:41:58.000Z</time>
      </trkpt>
      <trkpt lat="45.58639" lon="4.36931">
        <ele>588.40002441406</ele>
        <time>2021-03-06T13:42:00.000Z</time>
      </trkpt>
      <trkpt lat="45.58641" lon="4.36963">
        <ele>587</ele>
        <time>2021-03-06T13:42:02.000Z</time>
      </trkpt>
      <trkpt lat="45.58643" lon="4.36996">
        <ele>585.79998779297</ele>
        <time>2021-03-06T13:42:04.000Z</time>
      </trkpt>
      <trkpt lat="45.58643" lon="4.37013">
        <ele>585.40002441406</ele>
        <time>2021-03-06T13:42:05.000Z</time>
      </trkpt>
      <trkpt lat="45.58647" lon="4.37065">
        <ele>584.40002441406</ele>
        <time>2021-03-06T13:42:08.000Z</time>
      </trkpt>
      <trkpt lat="45.5865" lon="4.37081">
        <ele>584.20001220703</ele>
        <time>2021-03-06T13:42:09.000Z</time>
      </trkpt>
      <trkpt lat="45.58655" lon="4.37097">
        <ele>583.59997558594</ele>
        <time>2021-03-06T13:42:10.000Z</time>
      </trkpt>
      <trkpt lat="45.5866" lon="4.37112">
        <ele>583</ele>
        <time>2021-03-06T13:42:11.000Z</time>
      </trkpt>
      <trkpt lat="45.58674" lon="4.3714">
        <ele>581.79998779297</ele>
        <time>2021-03-06T13:42:13.000Z</time>
      </trkpt>
      <trkpt lat="45.58682" lon="4.37152">
        <ele>581.59997558594</ele>
        <time>2021-03-06T13:42:14.000Z</time>
      </trkpt>
      <trkpt lat="45.58691" lon="4.37163">
        <ele>580.59997558594</ele>
        <time>2021-03-06T13:42:15.000Z</time>
      </trkpt>
      <trkpt lat="45.58702" lon="4.37173">
        <ele>580</ele>
        <time>2021-03-06T13:42:16.000Z</time>
      </trkpt>
      <trkpt lat="45.58712" lon="4.37179">
        <ele>579.40002441406</ele>
        <time>2021-03-06T13:42:17.000Z</time>
      </trkpt>
      <trkpt lat="45.58723" lon="4.37183">
        <ele>578.79998779297</ele>
        <time>2021-03-06T13:42:18.000Z</time>
      </trkpt>
      <trkpt lat="45.58734" lon="4.37185">
        <ele>578</ele>
        <time>2021-03-06T13:42:19.000Z</time>
      </trkpt>
      <trkpt lat="45.58756" lon="4.37185">
        <ele>577</ele>
        <time>2021-03-06T13:42:21.000Z</time>
      </trkpt>
      <trkpt lat="45.58788" lon="4.37183">
        <ele>576.20001220703</ele>
        <time>2021-03-06T13:42:24.000Z</time>
      </trkpt>
      <trkpt lat="45.58798" lon="4.37181">
        <ele>575.79998779297</ele>
        <time>2021-03-06T13:42:25.000Z</time>
      </trkpt>
      <trkpt lat="45.58818" lon="4.37176">
        <ele>574.59997558594</ele>
        <time>2021-03-06T13:42:27.000Z</time>
      </trkpt>
      <trkpt lat="45.58833" lon="4.37173">
        <ele>573.20001220703</ele>
        <time>2021-03-06T13:42:29.000Z</time>
      </trkpt>
      <trkpt lat="45.58837" lon="4.37171">
        <ele>572.59997558594</ele>
        <time>2021-03-06T13:42:30.000Z</time>
      </trkpt>
      <trkpt lat="45.58842" lon="4.37164">
        <ele>572.20001220703</ele>
        <time>2021-03-06T13:42:32.000Z</time>
      </trkpt>
      <trkpt lat="45.58843" lon="4.37149">
        <ele>571.79998779297</ele>
        <time>2021-03-06T13:42:34.000Z</time>
      </trkpt>
      <trkpt lat="45.58842" lon="4.3714">
        <ele>571.79998779297</ele>
        <time>2021-03-06T13:42:35.000Z</time>
      </trkpt>
      <trkpt lat="45.58839" lon="4.37085">
        <ele>571.40002441406</ele>
        <time>2021-03-06T13:42:40.000Z</time>
      </trkpt>
      <trkpt lat="45.58838" lon="4.37019">
        <ele>571.40002441406</ele>
        <time>2021-03-06T13:42:45.000Z</time>
      </trkpt>
      <trkpt lat="45.58851" lon="4.36964">
        <ele>571.40002441406</ele>
        <time>2021-03-06T13:42:49.000Z</time>
      </trkpt>
      <trkpt lat="45.58865" lon="4.36923">
        <ele>571</ele>
        <time>2021-03-06T13:42:52.000Z</time>
      </trkpt>
      <trkpt lat="45.58884" lon="4.36867">
        <ele>569.79998779297</ele>
        <time>2021-03-06T13:42:56.000Z</time>
      </trkpt>
      <trkpt lat="45.58888" lon="4.36852">
        <ele>569.79998779297</ele>
        <time>2021-03-06T13:42:57.000Z</time>
      </trkpt>
      <trkpt lat="45.58891" lon="4.36821">
        <ele>569</ele>
        <time>2021-03-06T13:42:59.000Z</time>
      </trkpt>
      <trkpt lat="45.58891" lon="4.36805">
        <ele>568.59997558594</ele>
        <time>2021-03-06T13:43:00.000Z</time>
      </trkpt>
      <trkpt lat="45.5889" lon="4.36789">
        <ele>568.40002441406</ele>
        <time>2021-03-06T13:43:01.000Z</time>
      </trkpt>
      <trkpt lat="45.58886" lon="4.36757">
        <ele>567.40002441406</ele>
        <time>2021-03-06T13:43:03.000Z</time>
      </trkpt>
      <trkpt lat="45.58881" lon="4.36724">
        <ele>566.79998779297</ele>
        <time>2021-03-06T13:43:05.000Z</time>
      </trkpt>
      <trkpt lat="45.58871" lon="4.36676">
        <ele>566</ele>
        <time>2021-03-06T13:43:08.000Z</time>
      </trkpt>
      <trkpt lat="45.58868" lon="4.3666">
        <ele>565.79998779297</ele>
        <time>2021-03-06T13:43:09.000Z</time>
      </trkpt>
      <trkpt lat="45.58855" lon="4.36613">
        <ele>565</ele>
        <time>2021-03-06T13:43:12.000Z</time>
      </trkpt>
      <trkpt lat="45.58839" lon="4.36568">
        <ele>564.20001220703</ele>
        <time>2021-03-06T13:43:15.000Z</time>
      </trkpt>
      <trkpt lat="45.58833" lon="4.36554">
        <ele>563.40002441406</ele>
        <time>2021-03-06T13:43:16.000Z</time>
      </trkpt>
      <trkpt lat="45.58819" lon="4.36525">
        <ele>562</ele>
        <time>2021-03-06T13:43:18.000Z</time>
      </trkpt>
      <trkpt lat="45.58814" lon="4.3651">
        <ele>561.79998779297</ele>
        <time>2021-03-06T13:43:19.000Z</time>
      </trkpt>
      <trkpt lat="45.58809" lon="4.36494">
        <ele>561.59997558594</ele>
        <time>2021-03-06T13:43:20.000Z</time>
      </trkpt>
      <trkpt lat="45.58807" lon="4.36478">
        <ele>561.40002441406</ele>
        <time>2021-03-06T13:43:21.000Z</time>
      </trkpt>
      <trkpt lat="45.58804" lon="4.36447">
        <ele>561.40002441406</ele>
        <time>2021-03-06T13:43:23.000Z</time>
      </trkpt>
      <trkpt lat="45.58797" lon="4.36403">
        <ele>561.59997558594</ele>
        <time>2021-03-06T13:43:26.000Z</time>
      </trkpt>
      <trkpt lat="45.58794" lon="4.36388">
        <ele>561.59997558594</ele>
        <time>2021-03-06T13:43:27.000Z</time>
      </trkpt>
      <trkpt lat="45.58776" lon="4.36303">
        <ele>561.40002441406</ele>
        <time>2021-03-06T13:43:33.000Z</time>
      </trkpt>
      <trkpt lat="45.58772" lon="4.3629">
        <ele>561.40002441406</ele>
        <time>2021-03-06T13:43:34.000Z</time>
      </trkpt>
      <trkpt lat="45.58762" lon="4.36264">
        <ele>561</ele>
        <time>2021-03-06T13:43:36.000Z</time>
      </trkpt>
      <trkpt lat="45.58744" lon="4.36208">
        <ele>560</ele>
        <time>2021-03-06T13:43:40.000Z</time>
      </trkpt>
      <trkpt lat="45.58743" lon="4.36193">
        <ele>559.79998779297</ele>
        <time>2021-03-06T13:43:41.000Z</time>
      </trkpt>
      <trkpt lat="45.58742" lon="4.36178">
        <ele>559.79998779297</ele>
        <time>2021-03-06T13:43:42.000Z</time>
      </trkpt>
      <trkpt lat="45.58744" lon="4.36163">
        <ele>559.59997558594</ele>
        <time>2021-03-06T13:43:43.000Z</time>
      </trkpt>
      <trkpt lat="45.58749" lon="4.36149">
        <ele>559.40002441406</ele>
        <time>2021-03-06T13:43:44.000Z</time>
      </trkpt>
      <trkpt lat="45.58756" lon="4.36137">
        <ele>559.20001220703</ele>
        <time>2021-03-06T13:43:45.000Z</time>
      </trkpt>
      <trkpt lat="45.58765" lon="4.36127">
        <ele>559</ele>
        <time>2021-03-06T13:43:46.000Z</time>
      </trkpt>
      <trkpt lat="45.58784" lon="4.36111">
        <ele>558.79998779297</ele>
        <time>2021-03-06T13:43:48.000Z</time>
      </trkpt>
      <trkpt lat="45.58802" lon="4.36095">
        <ele>558.40002441406</ele>
        <time>2021-03-06T13:43:50.000Z</time>
      </trkpt>
      <trkpt lat="45.58839" lon="4.36063">
        <ele>557.79998779297</ele>
        <time>2021-03-06T13:43:54.000Z</time>
      </trkpt>
      <trkpt lat="45.58857" lon="4.36049">
        <ele>557.59997558594</ele>
        <time>2021-03-06T13:43:56.000Z</time>
      </trkpt>
      <trkpt lat="45.58908" lon="4.36004">
        <ele>557</ele>
        <time>2021-03-06T13:44:02.000Z</time>
      </trkpt>
      <trkpt lat="45.58925" lon="4.35989">
        <ele>556.59997558594</ele>
        <time>2021-03-06T13:44:04.000Z</time>
      </trkpt>
      <trkpt lat="45.58948" lon="4.35961">
        <ele>556.40002441406</ele>
        <time>2021-03-06T13:44:07.000Z</time>
      </trkpt>
      <trkpt lat="45.58954" lon="4.3595">
        <ele>556</ele>
        <time>2021-03-06T13:44:08.000Z</time>
      </trkpt>
      <trkpt lat="45.58959" lon="4.35937">
        <ele>555.79998779297</ele>
        <time>2021-03-06T13:44:09.000Z</time>
      </trkpt>
      <trkpt lat="45.58964" lon="4.35909">
        <ele>555.20001220703</ele>
        <time>2021-03-06T13:44:11.000Z</time>
      </trkpt>
      <trkpt lat="45.58962" lon="4.35881">
        <ele>554.59997558594</ele>
        <time>2021-03-06T13:44:13.000Z</time>
      </trkpt>
      <trkpt lat="45.58959" lon="4.35867">
        <ele>554.20001220703</ele>
        <time>2021-03-06T13:44:14.000Z</time>
      </trkpt>
      <trkpt lat="45.58953" lon="4.35853">
        <ele>553.79998779297</ele>
        <time>2021-03-06T13:44:15.000Z</time>
      </trkpt>
      <trkpt lat="45.5894" lon="4.35828">
        <ele>553</ele>
        <time>2021-03-06T13:44:17.000Z</time>
      </trkpt>
      <trkpt lat="45.58932" lon="4.35816">
        <ele>552.79998779297</ele>
        <time>2021-03-06T13:44:18.000Z</time>
      </trkpt>
      <trkpt lat="45.58914" lon="4.35798">
        <ele>551.79998779297</ele>
        <time>2021-03-06T13:44:20.000Z</time>
      </trkpt>
      <trkpt lat="45.58904" lon="4.35789">
        <ele>551.40002441406</ele>
        <time>2021-03-06T13:44:21.000Z</time>
      </trkpt>
      <trkpt lat="45.58883" lon="4.35777">
        <ele>550.40002441406</ele>
        <time>2021-03-06T13:44:23.000Z</time>
      </trkpt>
      <trkpt lat="45.58872" lon="4.35772">
        <ele>550.20001220703</ele>
        <time>2021-03-06T13:44:24.000Z</time>
      </trkpt>
      <trkpt lat="45.58861" lon="4.3577">
        <ele>550</ele>
        <time>2021-03-06T13:44:25.000Z</time>
      </trkpt>
      <trkpt lat="45.58838" lon="4.35771">
        <ele>549.20001220703</ele>
        <time>2021-03-06T13:44:27.000Z</time>
      </trkpt>
      <trkpt lat="45.58827" lon="4.35773">
        <ele>549</ele>
        <time>2021-03-06T13:44:28.000Z</time>
      </trkpt>
      <trkpt lat="45.58782" lon="4.35773">
        <ele>547.79998779297</ele>
        <time>2021-03-06T13:44:32.000Z</time>
      </trkpt>
      <trkpt lat="45.58759" lon="4.35762">
        <ele>547.59997558594</ele>
        <time>2021-03-06T13:44:34.000Z</time>
      </trkpt>
      <trkpt lat="45.58749" lon="4.35752">
        <ele>546.79998779297</ele>
        <time>2021-03-06T13:44:35.000Z</time>
      </trkpt>
      <trkpt lat="45.58741" lon="4.3574">
        <ele>546.20001220703</ele>
        <time>2021-03-06T13:44:36.000Z</time>
      </trkpt>
      <trkpt lat="45.58734" lon="4.35726">
        <ele>545.79998779297</ele>
        <time>2021-03-06T13:44:37.000Z</time>
      </trkpt>
      <trkpt lat="45.5873" lon="4.3571">
        <ele>545.40002441406</ele>
        <time>2021-03-06T13:44:38.000Z</time>
      </trkpt>
      <trkpt lat="45.58728" lon="4.35693">
        <ele>545</ele>
        <time>2021-03-06T13:44:39.000Z</time>
      </trkpt>
      <trkpt lat="45.58729" lon="4.35676">
        <ele>544.59997558594</ele>
        <time>2021-03-06T13:44:40.000Z</time>
      </trkpt>
      <trkpt lat="45.58735" lon="4.3566">
        <ele>544</ele>
        <time>2021-03-06T13:44:41.000Z</time>
      </trkpt>
      <trkpt lat="45.58742" lon="4.35646">
        <ele>543.79998779297</ele>
        <time>2021-03-06T13:44:42.000Z</time>
      </trkpt>
      <trkpt lat="45.58758" lon="4.3562">
        <ele>543.20001220703</ele>
        <time>2021-03-06T13:44:44.000Z</time>
      </trkpt>
      <trkpt lat="45.58767" lon="4.35608">
        <ele>542.79998779297</ele>
        <time>2021-03-06T13:44:45.000Z</time>
      </trkpt>
      <trkpt lat="45.58786" lon="4.35582">
        <ele>541</ele>
        <time>2021-03-06T13:44:47.000Z</time>
      </trkpt>
      <trkpt lat="45.58805" lon="4.35563">
        <ele>540</ele>
        <time>2021-03-06T13:44:49.000Z</time>
      </trkpt>
      <trkpt lat="45.58825" lon="4.35542">
        <ele>538.79998779297</ele>
        <time>2021-03-06T13:44:51.000Z</time>
      </trkpt>
      <trkpt lat="45.58836" lon="4.35532">
        <ele>538</ele>
        <time>2021-03-06T13:44:52.000Z</time>
      </trkpt>
      <trkpt lat="45.58846" lon="4.35522">
        <ele>537.20001220703</ele>
        <time>2021-03-06T13:44:53.000Z</time>
      </trkpt>
      <trkpt lat="45.58857" lon="4.35512">
        <ele>536</ele>
        <time>2021-03-06T13:44:54.000Z</time>
      </trkpt>
      <trkpt lat="45.58878" lon="4.35486">
        <ele>535</ele>
        <time>2021-03-06T13:44:56.000Z</time>
      </trkpt>
      <trkpt lat="45.58886" lon="4.35475">
        <ele>533.79998779297</ele>
        <time>2021-03-06T13:44:57.000Z</time>
      </trkpt>
      <trkpt lat="45.58894" lon="4.35462">
        <ele>532.79998779297</ele>
        <time>2021-03-06T13:44:58.000Z</time>
      </trkpt>
      <trkpt lat="45.58901" lon="4.35447">
        <ele>531.79998779297</ele>
        <time>2021-03-06T13:44:59.000Z</time>
      </trkpt>
      <trkpt lat="45.58906" lon="4.3543">
        <ele>530.79998779297</ele>
        <time>2021-03-06T13:45:00.000Z</time>
      </trkpt>
      <trkpt lat="45.5891" lon="4.35413">
        <ele>530</ele>
        <time>2021-03-06T13:45:01.000Z</time>
      </trkpt>
      <trkpt lat="45.58912" lon="4.35395">
        <ele>529</ele>
        <time>2021-03-06T13:45:02.000Z</time>
      </trkpt>
      <trkpt lat="45.58913" lon="4.35378">
        <ele>528.20001220703</ele>
        <time>2021-03-06T13:45:03.000Z</time>
      </trkpt>
      <trkpt lat="45.58911" lon="4.35361">
        <ele>527.20001220703</ele>
        <time>2021-03-06T13:45:04.000Z</time>
      </trkpt>
      <trkpt lat="45.58907" lon="4.35345">
        <ele>526.40002441406</ele>
        <time>2021-03-06T13:45:05.000Z</time>
      </trkpt>
      <trkpt lat="45.589" lon="4.35329">
        <ele>525.20001220703</ele>
        <time>2021-03-06T13:45:06.000Z</time>
      </trkpt>
      <trkpt lat="45.58892" lon="4.35316">
        <ele>524.40002441406</ele>
        <time>2021-03-06T13:45:07.000Z</time>
      </trkpt>
      <trkpt lat="45.58883" lon="4.35303">
        <ele>523.40002441406</ele>
        <time>2021-03-06T13:45:08.000Z</time>
      </trkpt>
      <trkpt lat="45.58863" lon="4.35278">
        <ele>521.59997558594</ele>
        <time>2021-03-06T13:45:10.000Z</time>
      </trkpt>
      <trkpt lat="45.58854" lon="4.35266">
        <ele>520.59997558594</ele>
        <time>2021-03-06T13:45:11.000Z</time>
      </trkpt>
      <trkpt lat="45.58844" lon="4.35255">
        <ele>520</ele>
        <time>2021-03-06T13:45:12.000Z</time>
      </trkpt>
      <trkpt lat="45.58833" lon="4.35247">
        <ele>519.40002441406</ele>
        <time>2021-03-06T13:45:13.000Z</time>
      </trkpt>
      <trkpt lat="45.58821" lon="4.3524">
        <ele>519</ele>
        <time>2021-03-06T13:45:14.000Z</time>
      </trkpt>
      <trkpt lat="45.58809" lon="4.35234">
        <ele>518.40002441406</ele>
        <time>2021-03-06T13:45:15.000Z</time>
      </trkpt>
      <trkpt lat="45.58786" lon="4.35223">
        <ele>516.59997558594</ele>
        <time>2021-03-06T13:45:17.000Z</time>
      </trkpt>
      <trkpt lat="45.58774" lon="4.35216">
        <ele>515.40002441406</ele>
        <time>2021-03-06T13:45:18.000Z</time>
      </trkpt>
      <trkpt lat="45.58767" lon="4.35208">
        <ele>514.40002441406</ele>
        <time>2021-03-06T13:45:19.000Z</time>
      </trkpt>
      <trkpt lat="45.58761" lon="4.35198">
        <ele>513.59997558594</ele>
        <time>2021-03-06T13:45:20.000Z</time>
      </trkpt>
      <trkpt lat="45.58759" lon="4.35186">
        <ele>512.79998779297</ele>
        <time>2021-03-06T13:45:21.000Z</time>
      </trkpt>
      <trkpt lat="45.58762" lon="4.35175">
        <ele>511.39999389648</ele>
        <time>2021-03-06T13:45:22.000Z</time>
      </trkpt>
      <trkpt lat="45.58768" lon="4.35166">
        <ele>510.79998779297</ele>
        <time>2021-03-06T13:45:23.000Z</time>
      </trkpt>
      <trkpt lat="45.58776" lon="4.3516">
        <ele>510.20001220703</ele>
        <time>2021-03-06T13:45:24.000Z</time>
      </trkpt>
      <trkpt lat="45.58793" lon="4.35155">
        <ele>509.39999389648</ele>
        <time>2021-03-06T13:45:26.000Z</time>
      </trkpt>
      <trkpt lat="45.58803" lon="4.35153">
        <ele>509.20001220703</ele>
        <time>2021-03-06T13:45:27.000Z</time>
      </trkpt>
      <trkpt lat="45.58834" lon="4.35149">
        <ele>508.20001220703</ele>
        <time>2021-03-06T13:45:30.000Z</time>
      </trkpt>
      <trkpt lat="45.58857" lon="4.35146">
        <ele>506.60000610352</ele>
        <time>2021-03-06T13:45:32.000Z</time>
      </trkpt>
      <trkpt lat="45.58881" lon="4.35144">
        <ele>505.60000610352</ele>
        <time>2021-03-06T13:45:34.000Z</time>
      </trkpt>
      <trkpt lat="45.58906" lon="4.35141">
        <ele>504.20001220703</ele>
        <time>2021-03-06T13:45:36.000Z</time>
      </trkpt>
      <trkpt lat="45.58932" lon="4.35138">
        <ele>502.60000610352</ele>
        <time>2021-03-06T13:45:38.000Z</time>
      </trkpt>
      <trkpt lat="45.58957" lon="4.35133">
        <ele>501.20001220703</ele>
        <time>2021-03-06T13:45:40.000Z</time>
      </trkpt>
      <trkpt lat="45.58981" lon="4.35127">
        <ele>499.60000610352</ele>
        <time>2021-03-06T13:45:42.000Z</time>
      </trkpt>
      <trkpt lat="45.59007" lon="4.35121">
        <ele>497.60000610352</ele>
        <time>2021-03-06T13:45:44.000Z</time>
      </trkpt>
      <trkpt lat="45.59029" lon="4.35117">
        <ele>496</ele>
        <time>2021-03-06T13:45:46.000Z</time>
      </trkpt>
      <trkpt lat="45.59041" lon="4.35115">
        <ele>494.79998779297</ele>
        <time>2021-03-06T13:45:47.000Z</time>
      </trkpt>
      <trkpt lat="45.59052" lon="4.35112">
        <ele>494.20001220703</ele>
        <time>2021-03-06T13:45:48.000Z</time>
      </trkpt>
      <trkpt lat="45.59064" lon="4.35106">
        <ele>493.79998779297</ele>
        <time>2021-03-06T13:45:49.000Z</time>
      </trkpt>
      <trkpt lat="45.59076" lon="4.351">
        <ele>492.60000610352</ele>
        <time>2021-03-06T13:45:50.000Z</time>
      </trkpt>
      <trkpt lat="45.59097" lon="4.35081">
        <ele>491.39999389648</ele>
        <time>2021-03-06T13:45:52.000Z</time>
      </trkpt>
      <trkpt lat="45.59116" lon="4.3506">
        <ele>490</ele>
        <time>2021-03-06T13:45:54.000Z</time>
      </trkpt>
      <trkpt lat="45.59125" lon="4.35049">
        <ele>488.79998779297</ele>
        <time>2021-03-06T13:45:55.000Z</time>
      </trkpt>
      <trkpt lat="45.59144" lon="4.35025">
        <ele>487.39999389648</ele>
        <time>2021-03-06T13:45:57.000Z</time>
      </trkpt>
      <trkpt lat="45.59161" lon="4.34998">
        <ele>486</ele>
        <time>2021-03-06T13:45:59.000Z</time>
      </trkpt>
      <trkpt lat="45.59167" lon="4.34983">
        <ele>485.60000610352</ele>
        <time>2021-03-06T13:46:00.000Z</time>
      </trkpt>
      <trkpt lat="45.59171" lon="4.34965">
        <ele>484.39999389648</ele>
        <time>2021-03-06T13:46:01.000Z</time>
      </trkpt>
      <trkpt lat="45.59172" lon="4.34945">
        <ele>483.60000610352</ele>
        <time>2021-03-06T13:46:02.000Z</time>
      </trkpt>
      <trkpt lat="45.59172" lon="4.34925">
        <ele>483</ele>
        <time>2021-03-06T13:46:03.000Z</time>
      </trkpt>
      <trkpt lat="45.5917" lon="4.34903">
        <ele>481.60000610352</ele>
        <time>2021-03-06T13:46:04.000Z</time>
      </trkpt>
      <trkpt lat="45.59167" lon="4.34883">
        <ele>481</ele>
        <time>2021-03-06T13:46:05.000Z</time>
      </trkpt>
      <trkpt lat="45.59165" lon="4.34862">
        <ele>479.60000610352</ele>
        <time>2021-03-06T13:46:06.000Z</time>
      </trkpt>
      <trkpt lat="45.59163" lon="4.34842">
        <ele>478</ele>
        <time>2021-03-06T13:46:07.000Z</time>
      </trkpt>
      <trkpt lat="45.59164" lon="4.34823">
        <ele>477.20001220703</ele>
        <time>2021-03-06T13:46:08.000Z</time>
      </trkpt>
      <trkpt lat="45.59166" lon="4.34804">
        <ele>476.39999389648</ele>
        <time>2021-03-06T13:46:09.000Z</time>
      </trkpt>
      <trkpt lat="45.59171" lon="4.34785">
        <ele>474.60000610352</ele>
        <time>2021-03-06T13:46:10.000Z</time>
      </trkpt>
      <trkpt lat="45.59179" lon="4.34766">
        <ele>473.20001220703</ele>
        <time>2021-03-06T13:46:11.000Z</time>
      </trkpt>
      <trkpt lat="45.59194" lon="4.34731">
        <ele>471.39999389648</ele>
        <time>2021-03-06T13:46:13.000Z</time>
      </trkpt>
      <trkpt lat="45.59198" lon="4.34712">
        <ele>470.20001220703</ele>
        <time>2021-03-06T13:46:14.000Z</time>
      </trkpt>
      <trkpt lat="45.59201" lon="4.34692">
        <ele>469.39999389648</ele>
        <time>2021-03-06T13:46:15.000Z</time>
      </trkpt>
      <trkpt lat="45.59202" lon="4.34672">
        <ele>468</ele>
        <time>2021-03-06T13:46:16.000Z</time>
      </trkpt>
      <trkpt lat="45.59204" lon="4.34634">
        <ele>466.39999389648</ele>
        <time>2021-03-06T13:46:18.000Z</time>
      </trkpt>
      <trkpt lat="45.59216" lon="4.34598">
        <ele>464.79998779297</ele>
        <time>2021-03-06T13:46:20.000Z</time>
      </trkpt>
      <trkpt lat="45.59224" lon="4.34582">
        <ele>463.79998779297</ele>
        <time>2021-03-06T13:46:21.000Z</time>
      </trkpt>
      <trkpt lat="45.59234" lon="4.34564">
        <ele>462.79998779297</ele>
        <time>2021-03-06T13:46:22.000Z</time>
      </trkpt>
      <trkpt lat="45.59241" lon="4.34551">
        <ele>461.79998779297</ele>
        <time>2021-03-06T13:46:23.000Z</time>
      </trkpt>
      <trkpt lat="45.59246" lon="4.34535">
        <ele>461.20001220703</ele>
        <time>2021-03-06T13:46:24.000Z</time>
      </trkpt>
      <trkpt lat="45.59249" lon="4.34522">
        <ele>460.39999389648</ele>
        <time>2021-03-06T13:46:25.000Z</time>
      </trkpt>
      <trkpt lat="45.59251" lon="4.34504">
        <ele>459.39999389648</ele>
        <time>2021-03-06T13:46:26.000Z</time>
      </trkpt>
      <trkpt lat="45.59252" lon="4.34487">
        <ele>458.60000610352</ele>
        <time>2021-03-06T13:46:27.000Z</time>
      </trkpt>
      <trkpt lat="45.59252" lon="4.34469">
        <ele>457.60000610352</ele>
        <time>2021-03-06T13:46:28.000Z</time>
      </trkpt>
      <trkpt lat="45.59252" lon="4.34449">
        <ele>456</ele>
        <time>2021-03-06T13:46:29.000Z</time>
      </trkpt>
      <trkpt lat="45.59252" lon="4.34435">
        <ele>454.60000610352</ele>
        <time>2021-03-06T13:46:30.000Z</time>
      </trkpt>
      <trkpt lat="45.59252" lon="4.34414">
        <ele>453.60000610352</ele>
        <time>2021-03-06T13:46:31.000Z</time>
      </trkpt>
      <trkpt lat="45.59252" lon="4.34397">
        <ele>452.20001220703</ele>
        <time>2021-03-06T13:46:32.000Z</time>
      </trkpt>
      <trkpt lat="45.59251" lon="4.34384">
        <ele>451.20001220703</ele>
        <time>2021-03-06T13:46:33.000Z</time>
      </trkpt>
      <trkpt lat="45.5925" lon="4.34368">
        <ele>450.20001220703</ele>
        <time>2021-03-06T13:46:34.000Z</time>
      </trkpt>
      <trkpt lat="45.5925" lon="4.34351">
        <ele>449.20001220703</ele>
        <time>2021-03-06T13:46:35.000Z</time>
      </trkpt>
      <trkpt lat="45.59249" lon="4.34334">
        <ele>448.20001220703</ele>
        <time>2021-03-06T13:46:36.000Z</time>
      </trkpt>
      <trkpt lat="45.59247" lon="4.34317">
        <ele>447.39999389648</ele>
        <time>2021-03-06T13:46:37.000Z</time>
      </trkpt>
      <trkpt lat="45.59244" lon="4.34301">
        <ele>446.39999389648</ele>
        <time>2021-03-06T13:46:38.000Z</time>
      </trkpt>
      <trkpt lat="45.59239" lon="4.34285">
        <ele>445.39999389648</ele>
        <time>2021-03-06T13:46:39.000Z</time>
      </trkpt>
      <trkpt lat="45.59234" lon="4.34271">
        <ele>444.60000610352</ele>
        <time>2021-03-06T13:46:40.000Z</time>
      </trkpt>
      <trkpt lat="45.59227" lon="4.34257">
        <ele>443.20001220703</ele>
        <time>2021-03-06T13:46:41.000Z</time>
      </trkpt>
      <trkpt lat="45.59211" lon="4.34232">
        <ele>442</ele>
        <time>2021-03-06T13:46:43.000Z</time>
      </trkpt>
      <trkpt lat="45.59194" lon="4.34208">
        <ele>440.20001220703</ele>
        <time>2021-03-06T13:46:45.000Z</time>
      </trkpt>
      <trkpt lat="45.59185" lon="4.34195">
        <ele>439.20001220703</ele>
        <time>2021-03-06T13:46:46.000Z</time>
      </trkpt>
      <trkpt lat="45.59168" lon="4.34164">
        <ele>437</ele>
        <time>2021-03-06T13:46:48.000Z</time>
      </trkpt>
      <trkpt lat="45.59163" lon="4.3415">
        <ele>435.79998779297</ele>
        <time>2021-03-06T13:46:49.000Z</time>
      </trkpt>
      <trkpt lat="45.59158" lon="4.34133">
        <ele>434.79998779297</ele>
        <time>2021-03-06T13:46:50.000Z</time>
      </trkpt>
      <trkpt lat="45.59154" lon="4.34114">
        <ele>433.79998779297</ele>
        <time>2021-03-06T13:46:51.000Z</time>
      </trkpt>
      <trkpt lat="45.59145" lon="4.34076">
        <ele>431.39999389648</ele>
        <time>2021-03-06T13:46:53.000Z</time>
      </trkpt>
      <trkpt lat="45.59134" lon="4.34039">
        <ele>430</ele>
        <time>2021-03-06T13:46:55.000Z</time>
      </trkpt>
      <trkpt lat="45.59126" lon="4.34021">
        <ele>429</ele>
        <time>2021-03-06T13:46:56.000Z</time>
      </trkpt>
      <trkpt lat="45.59117" lon="4.34005">
        <ele>427.79998779297</ele>
        <time>2021-03-06T13:46:57.000Z</time>
      </trkpt>
      <trkpt lat="45.59096" lon="4.33972">
        <ele>426.20001220703</ele>
        <time>2021-03-06T13:46:59.000Z</time>
      </trkpt>
      <trkpt lat="45.59075" lon="4.3394">
        <ele>424</ele>
        <time>2021-03-06T13:47:01.000Z</time>
      </trkpt>
      <trkpt lat="45.59054" lon="4.33908">
        <ele>422.60000610352</ele>
        <time>2021-03-06T13:47:03.000Z</time>
      </trkpt>
      <trkpt lat="45.59034" lon="4.33877">
        <ele>421.39999389648</ele>
        <time>2021-03-06T13:47:05.000Z</time>
      </trkpt>
      <trkpt lat="45.59024" lon="4.33863">
        <ele>420.79998779297</ele>
        <time>2021-03-06T13:47:06.000Z</time>
      </trkpt>
      <trkpt lat="45.59014" lon="4.33848">
        <ele>420</ele>
        <time>2021-03-06T13:47:07.000Z</time>
      </trkpt>
      <trkpt lat="45.59004" lon="4.33834">
        <ele>419</ele>
        <time>2021-03-06T13:47:08.000Z</time>
      </trkpt>
      <trkpt lat="45.58983" lon="4.33807">
        <ele>417.60000610352</ele>
        <time>2021-03-06T13:47:10.000Z</time>
      </trkpt>
      <trkpt lat="45.58962" lon="4.33782">
        <ele>416.79998779297</ele>
        <time>2021-03-06T13:47:12.000Z</time>
      </trkpt>
      <trkpt lat="45.5895" lon="4.33772">
        <ele>416.39999389648</ele>
        <time>2021-03-06T13:47:13.000Z</time>
      </trkpt>
      <trkpt lat="45.58928" lon="4.33751">
        <ele>415.20001220703</ele>
        <time>2021-03-06T13:47:15.000Z</time>
      </trkpt>
      <trkpt lat="45.58918" lon="4.33739">
        <ele>414.39999389648</ele>
        <time>2021-03-06T13:47:16.000Z</time>
      </trkpt>
      <trkpt lat="45.5891" lon="4.33725">
        <ele>414</ele>
        <time>2021-03-06T13:47:17.000Z</time>
      </trkpt>
      <trkpt lat="45.58904" lon="4.3371">
        <ele>413.20001220703</ele>
        <time>2021-03-06T13:47:18.000Z</time>
      </trkpt>
      <trkpt lat="45.58899" lon="4.33694">
        <ele>412.60000610352</ele>
        <time>2021-03-06T13:47:19.000Z</time>
      </trkpt>
      <trkpt lat="45.58893" lon="4.33662">
        <ele>411.79998779297</ele>
        <time>2021-03-06T13:47:21.000Z</time>
      </trkpt>
      <trkpt lat="45.58889" lon="4.33632">
        <ele>411.60000610352</ele>
        <time>2021-03-06T13:47:23.000Z</time>
      </trkpt>
      <trkpt lat="45.58882" lon="4.33604">
        <ele>411.39999389648</ele>
        <time>2021-03-06T13:47:25.000Z</time>
      </trkpt>
      <trkpt lat="45.58872" lon="4.3358">
        <ele>411.60000610352</ele>
        <time>2021-03-06T13:47:27.000Z</time>
      </trkpt>
      <trkpt lat="45.58861" lon="4.33558">
        <ele>412</ele>
        <time>2021-03-06T13:47:29.000Z</time>
      </trkpt>
      <trkpt lat="45.58849" lon="4.33538">
        <ele>412.20001220703</ele>
        <time>2021-03-06T13:47:31.000Z</time>
      </trkpt>
      <trkpt lat="45.58834" lon="4.33522">
        <ele>412.20001220703</ele>
        <time>2021-03-06T13:47:33.000Z</time>
      </trkpt>
      <trkpt lat="45.58785" lon="4.33486">
        <ele>411.60000610352</ele>
        <time>2021-03-06T13:47:39.000Z</time>
      </trkpt>
      <trkpt lat="45.58769" lon="4.33473">
        <ele>411.39999389648</ele>
        <time>2021-03-06T13:47:41.000Z</time>
      </trkpt>
      <trkpt lat="45.58755" lon="4.33456">
        <ele>411.39999389648</ele>
        <time>2021-03-06T13:47:43.000Z</time>
      </trkpt>
      <trkpt lat="45.58745" lon="4.33435">
        <ele>411.39999389648</ele>
        <time>2021-03-06T13:47:45.000Z</time>
      </trkpt>
      <trkpt lat="45.58743" lon="4.33423">
        <ele>411.39999389648</ele>
        <time>2021-03-06T13:47:46.000Z</time>
      </trkpt>
      <trkpt lat="45.58741" lon="4.33411">
        <ele>411.20001220703</ele>
        <time>2021-03-06T13:47:47.000Z</time>
      </trkpt>
      <trkpt lat="45.5874" lon="4.33385">
        <ele>411</ele>
        <time>2021-03-06T13:47:49.000Z</time>
      </trkpt>
      <trkpt lat="45.58744" lon="4.33359">
        <ele>410.60000610352</ele>
        <time>2021-03-06T13:47:51.000Z</time>
      </trkpt>
      <trkpt lat="45.58753" lon="4.3332">
        <ele>409.79998779297</ele>
        <time>2021-03-06T13:47:54.000Z</time>
      </trkpt>
      <trkpt lat="45.58756" lon="4.33308">
        <ele>409.39999389648</ele>
        <time>2021-03-06T13:47:55.000Z</time>
      </trkpt>
      <trkpt lat="45.58758" lon="4.33295">
        <ele>409</ele>
        <time>2021-03-06T13:47:56.000Z</time>
      </trkpt>
      <trkpt lat="45.58758" lon="4.33269">
        <ele>408.39999389648</ele>
        <time>2021-03-06T13:47:58.000Z</time>
      </trkpt>
      <trkpt lat="45.58756" lon="4.33255">
        <ele>408.39999389648</ele>
        <time>2021-03-06T13:47:59.000Z</time>
      </trkpt>
      <trkpt lat="45.58748" lon="4.33199">
        <ele>407.20001220703</ele>
        <time>2021-03-06T13:48:03.000Z</time>
      </trkpt>
      <trkpt lat="45.58731" lon="4.33116">
        <ele>406.20001220703</ele>
        <time>2021-03-06T13:48:09.000Z</time>
      </trkpt>
      <trkpt lat="45.58726" lon="4.33103">
        <ele>406.20001220703</ele>
        <time>2021-03-06T13:48:10.000Z</time>
      </trkpt>
      <trkpt lat="45.58694" lon="4.33028">
        <ele>405.60000610352</ele>
        <time>2021-03-06T13:48:16.000Z</time>
      </trkpt>
      <trkpt lat="45.58675" lon="4.32992">
        <ele>405.20001220703</ele>
        <time>2021-03-06T13:48:19.000Z</time>
      </trkpt>
      <trkpt lat="45.58654" lon="4.32957">
        <ele>404.79998779297</ele>
        <time>2021-03-06T13:48:22.000Z</time>
      </trkpt>
      <trkpt lat="45.58627" lon="4.32908">
        <ele>404.20001220703</ele>
        <time>2021-03-06T13:48:26.000Z</time>
      </trkpt>
      <trkpt lat="45.58623" lon="4.32894">
        <ele>404</ele>
        <time>2021-03-06T13:48:27.000Z</time>
      </trkpt>
      <trkpt lat="45.5862" lon="4.32879">
        <ele>404</ele>
        <time>2021-03-06T13:48:28.000Z</time>
      </trkpt>
      <trkpt lat="45.58619" lon="4.32846">
        <ele>403.60000610352</ele>
        <time>2021-03-06T13:48:30.000Z</time>
      </trkpt>
      <trkpt lat="45.5862" lon="4.3283">
        <ele>402.79998779297</ele>
        <time>2021-03-06T13:48:31.000Z</time>
      </trkpt>
      <trkpt lat="45.58622" lon="4.32797">
        <ele>401.60000610352</ele>
        <time>2021-03-06T13:48:33.000Z</time>
      </trkpt>
      <trkpt lat="45.58625" lon="4.3278">
        <ele>401.20001220703</ele>
        <time>2021-03-06T13:48:34.000Z</time>
      </trkpt>
      <trkpt lat="45.58636" lon="4.32747">
        <ele>400</ele>
        <time>2021-03-06T13:48:36.000Z</time>
      </trkpt>
      <trkpt lat="45.58643" lon="4.32732">
        <ele>399.39999389648</ele>
        <time>2021-03-06T13:48:37.000Z</time>
      </trkpt>
      <trkpt lat="45.5865" lon="4.32718">
        <ele>398.79998779297</ele>
        <time>2021-03-06T13:48:38.000Z</time>
      </trkpt>
      <trkpt lat="45.58665" lon="4.3269">
        <ele>397.39999389648</ele>
        <time>2021-03-06T13:48:40.000Z</time>
      </trkpt>
      <trkpt lat="45.58689" lon="4.3265">
        <ele>396</ele>
        <time>2021-03-06T13:48:43.000Z</time>
      </trkpt>
      <trkpt lat="45.58705" lon="4.32626">
        <ele>394.60000610352</ele>
        <time>2021-03-06T13:48:45.000Z</time>
      </trkpt>
      <trkpt lat="45.58724" lon="4.32608">
        <ele>393.79998779297</ele>
        <time>2021-03-06T13:48:47.000Z</time>
      </trkpt>
      <trkpt lat="45.58733" lon="4.326">
        <ele>393.60000610352</ele>
        <time>2021-03-06T13:48:48.000Z</time>
      </trkpt>
      <trkpt lat="45.5876" lon="4.32574">
        <ele>393.20001220703</ele>
        <time>2021-03-06T13:48:51.000Z</time>
      </trkpt>
      <trkpt lat="45.58766" lon="4.32562">
        <ele>393</ele>
        <time>2021-03-06T13:48:52.000Z</time>
      </trkpt>
      <trkpt lat="45.5877" lon="4.3255">
        <ele>393.20001220703</ele>
        <time>2021-03-06T13:48:53.000Z</time>
      </trkpt>
      <trkpt lat="45.58772" lon="4.32536">
        <ele>393.60000610352</ele>
        <time>2021-03-06T13:48:54.000Z</time>
      </trkpt>
      <trkpt lat="45.58772" lon="4.32486">
        <ele>394.20001220703</ele>
        <time>2021-03-06T13:48:58.000Z</time>
      </trkpt>
      <trkpt lat="45.58773" lon="4.32451">
        <ele>394.60000610352</ele>
        <time>2021-03-06T13:49:01.000Z</time>
      </trkpt>
      <trkpt lat="45.58773" lon="4.3244">
        <ele>395</ele>
        <time>2021-03-06T13:49:02.000Z</time>
      </trkpt>
      <trkpt lat="45.58772" lon="4.32429">
        <ele>395.39999389648</ele>
        <time>2021-03-06T13:49:03.000Z</time>
      </trkpt>
      <trkpt lat="45.58771" lon="4.32419">
        <ele>395.79998779297</ele>
        <time>2021-03-06T13:49:04.000Z</time>
      </trkpt>
      <trkpt lat="45.58766" lon="4.32387">
        <ele>396.79998779297</ele>
        <time>2021-03-06T13:49:07.000Z</time>
      </trkpt>
      <trkpt lat="45.5876" lon="4.32359">
        <ele>398.20001220703</ele>
        <time>2021-03-06T13:49:10.000Z</time>
      </trkpt>
      <trkpt lat="45.58759" lon="4.3234">
        <ele>398.60000610352</ele>
        <time>2021-03-06T13:49:12.000Z</time>
      </trkpt>
      <trkpt lat="45.5876" lon="4.32331">
        <ele>399.20001220703</ele>
        <time>2021-03-06T13:49:13.000Z</time>
      </trkpt>
      <trkpt lat="45.58762" lon="4.32305">
        <ele>400.39999389648</ele>
        <time>2021-03-06T13:49:16.000Z</time>
      </trkpt>
      <trkpt lat="45.58764" lon="4.32297">
        <ele>400.79998779297</ele>
        <time>2021-03-06T13:49:17.000Z</time>
      </trkpt>
      <trkpt lat="45.58767" lon="4.3228">
        <ele>401.60000610352</ele>
        <time>2021-03-06T13:49:19.000Z</time>
      </trkpt>
      <trkpt lat="45.58771" lon="4.32254">
        <ele>402.79998779297</ele>
        <time>2021-03-06T13:49:22.000Z</time>
      </trkpt>
      <trkpt lat="45.58776" lon="4.3223">
        <ele>404</ele>
        <time>2021-03-06T13:49:25.000Z</time>
      </trkpt>
      <trkpt lat="45.58785" lon="4.32209">
        <ele>405.20001220703</ele>
        <time>2021-03-06T13:49:28.000Z</time>
      </trkpt>
      <trkpt lat="45.58789" lon="4.32202">
        <ele>405.39999389648</ele>
        <time>2021-03-06T13:49:29.000Z</time>
      </trkpt>
      <trkpt lat="45.58793" lon="4.32195">
        <ele>405.60000610352</ele>
        <time>2021-03-06T13:49:30.000Z</time>
      </trkpt>
      <trkpt lat="45.58804" lon="4.32175">
        <ele>406.39999389648</ele>
        <time>2021-03-06T13:49:33.000Z</time>
      </trkpt>
      <trkpt lat="45.58821" lon="4.32147">
        <ele>407</ele>
        <time>2021-03-06T13:49:37.000Z</time>
      </trkpt>
      <trkpt lat="45.58834" lon="4.32123">
        <ele>407.39999389648</ele>
        <time>2021-03-06T13:49:40.000Z</time>
      </trkpt>
      <trkpt lat="45.58843" lon="4.32109">
        <ele>407.60000610352</ele>
        <time>2021-03-06T13:49:42.000Z</time>
      </trkpt>
      <trkpt lat="45.58847" lon="4.32101">
        <ele>407.60000610352</ele>
        <time>2021-03-06T13:49:43.000Z</time>
      </trkpt>
      <trkpt lat="45.58872" lon="4.32059">
        <ele>407.79998779297</ele>
        <time>2021-03-06T13:49:48.000Z</time>
      </trkpt>
      <trkpt lat="45.58875" lon="4.32049">
        <ele>407.79998779297</ele>
        <time>2021-03-06T13:49:49.000Z</time>
      </trkpt>
      <trkpt lat="45.58878" lon="4.32038">
        <ele>407.79998779297</ele>
        <time>2021-03-06T13:49:50.000Z</time>
      </trkpt>
      <trkpt lat="45.5888" lon="4.32014">
        <ele>407.79998779297</ele>
        <time>2021-03-06T13:49:52.000Z</time>
      </trkpt>
      <trkpt lat="45.58879" lon="4.32003">
        <ele>407.79998779297</ele>
        <time>2021-03-06T13:49:53.000Z</time>
      </trkpt>
      <trkpt lat="45.58878" lon="4.31991">
        <ele>408</ele>
        <time>2021-03-06T13:49:54.000Z</time>
      </trkpt>
      <trkpt lat="45.58871" lon="4.31959">
        <ele>408</ele>
        <time>2021-03-06T13:49:57.000Z</time>
      </trkpt>
      <trkpt lat="45.58858" lon="4.31906">
        <ele>408.39999389648</ele>
        <time>2021-03-06T13:50:02.000Z</time>
      </trkpt>
      <trkpt lat="45.58854" lon="4.31885">
        <ele>409</ele>
        <time>2021-03-06T13:50:04.000Z</time>
      </trkpt>
      <trkpt lat="45.58847" lon="4.31848">
        <ele>409.79998779297</ele>
        <time>2021-03-06T13:50:08.000Z</time>
      </trkpt>
      <trkpt lat="45.58847" lon="4.3184">
        <ele>410</ele>
        <time>2021-03-06T13:50:09.000Z</time>
      </trkpt>
      <trkpt lat="45.58848" lon="4.31834">
        <ele>410.39999389648</ele>
        <time>2021-03-06T13:50:10.000Z</time>
      </trkpt>
      <trkpt lat="45.5885" lon="4.31829">
        <ele>410.79998779297</ele>
        <time>2021-03-06T13:50:11.000Z</time>
      </trkpt>
      <trkpt lat="45.58853" lon="4.31825">
        <ele>411.20001220703</ele>
        <time>2021-03-06T13:50:12.000Z</time>
      </trkpt>
      <trkpt lat="45.58854" lon="4.31818">
        <ele>411.60000610352</ele>
        <time>2021-03-06T13:50:13.000Z</time>
      </trkpt>
      <trkpt lat="45.58854" lon="4.31803">
        <ele>412</ele>
        <time>2021-03-06T13:50:15.000Z</time>
      </trkpt>
      <trkpt lat="45.58852" lon="4.31786">
        <ele>412</ele>
        <time>2021-03-06T13:50:17.000Z</time>
      </trkpt>
      <trkpt lat="45.58853" lon="4.31767">
        <ele>411.60000610352</ele>
        <time>2021-03-06T13:50:19.000Z</time>
      </trkpt>
      <trkpt lat="45.58856" lon="4.31726">
        <ele>410.60000610352</ele>
        <time>2021-03-06T13:50:23.000Z</time>
      </trkpt>
      <trkpt lat="45.58857" lon="4.31704">
        <ele>410</ele>
        <time>2021-03-06T13:50:25.000Z</time>
      </trkpt>
      <trkpt lat="45.58859" lon="4.31692">
        <ele>409.60000610352</ele>
        <time>2021-03-06T13:50:26.000Z</time>
      </trkpt>
      <trkpt lat="45.58861" lon="4.31679">
        <ele>409.39999389648</ele>
        <time>2021-03-06T13:50:27.000Z</time>
      </trkpt>
      <trkpt lat="45.58866" lon="4.31668">
        <ele>408.60000610352</ele>
        <time>2021-03-06T13:50:28.000Z</time>
      </trkpt>
      <trkpt lat="45.58871" lon="4.31656">
        <ele>407.60000610352</ele>
        <time>2021-03-06T13:50:29.000Z</time>
      </trkpt>
      <trkpt lat="45.58885" lon="4.31632">
        <ele>405.79998779297</ele>
        <time>2021-03-06T13:50:31.000Z</time>
      </trkpt>
      <trkpt lat="45.58894" lon="4.31622">
        <ele>404.79998779297</ele>
        <time>2021-03-06T13:50:32.000Z</time>
      </trkpt>
      <trkpt lat="45.58903" lon="4.31613">
        <ele>403.79998779297</ele>
        <time>2021-03-06T13:50:33.000Z</time>
      </trkpt>
      <trkpt lat="45.58922" lon="4.316">
        <ele>402.39999389648</ele>
        <time>2021-03-06T13:50:35.000Z</time>
      </trkpt>
      <trkpt lat="45.58939" lon="4.3159">
        <ele>400.79998779297</ele>
        <time>2021-03-06T13:50:37.000Z</time>
      </trkpt>
      <trkpt lat="45.58956" lon="4.31582">
        <ele>400.39999389648</ele>
        <time>2021-03-06T13:50:39.000Z</time>
      </trkpt>
      <trkpt lat="45.58987" lon="4.31584">
        <ele>402</ele>
        <time>2021-03-06T13:50:43.000Z</time>
      </trkpt>
      <trkpt lat="45.58994" lon="4.31585">
        <ele>402.39999389648</ele>
        <time>2021-03-06T13:50:44.000Z</time>
      </trkpt>
      <trkpt lat="45.59001" lon="4.31586">
        <ele>403</ele>
        <time>2021-03-06T13:50:45.000Z</time>
      </trkpt>
      <trkpt lat="45.59014" lon="4.31588">
        <ele>404</ele>
        <time>2021-03-06T13:50:47.000Z</time>
      </trkpt>
      <trkpt lat="45.59025" lon="4.31592">
        <ele>405.60000610352</ele>
        <time>2021-03-06T13:50:49.000Z</time>
      </trkpt>
      <trkpt lat="45.59041" lon="4.31601">
        <ele>406.79998779297</ele>
        <time>2021-03-06T13:50:52.000Z</time>
      </trkpt>
      <trkpt lat="45.59051" lon="4.31607">
        <ele>408</ele>
        <time>2021-03-06T13:50:54.000Z</time>
      </trkpt>
      <trkpt lat="45.59065" lon="4.31615">
        <ele>409.39999389648</ele>
        <time>2021-03-06T13:50:57.000Z</time>
      </trkpt>
      <trkpt lat="45.5907" lon="4.31617">
        <ele>410</ele>
        <time>2021-03-06T13:50:58.000Z</time>
      </trkpt>
      <trkpt lat="45.5908" lon="4.31621">
        <ele>411</ele>
        <time>2021-03-06T13:51:00.000Z</time>
      </trkpt>
      <trkpt lat="45.59084" lon="4.31622">
        <ele>411.39999389648</ele>
        <time>2021-03-06T13:51:01.000Z</time>
      </trkpt>
      <trkpt lat="45.59093" lon="4.31624">
        <ele>412.20001220703</ele>
        <time>2021-03-06T13:51:03.000Z</time>
      </trkpt>
      <trkpt lat="45.59102" lon="4.31626">
        <ele>413.20001220703</ele>
        <time>2021-03-06T13:51:05.000Z</time>
      </trkpt>
      <trkpt lat="45.59115" lon="4.31629">
        <ele>414.79998779297</ele>
        <time>2021-03-06T13:51:08.000Z</time>
      </trkpt>
      <trkpt lat="45.59119" lon="4.31629">
        <ele>415.20001220703</ele>
        <time>2021-03-06T13:51:09.000Z</time>
      </trkpt>
      <trkpt lat="45.59128" lon="4.31629">
        <ele>416</ele>
        <time>2021-03-06T13:51:11.000Z</time>
      </trkpt>
      <trkpt lat="45.59143" lon="4.3163">
        <ele>417.20001220703</ele>
        <time>2021-03-06T13:51:14.000Z</time>
      </trkpt>
      <trkpt lat="45.59157" lon="4.31638">
        <ele>418.60000610352</ele>
        <time>2021-03-06T13:51:17.000Z</time>
      </trkpt>
      <trkpt lat="45.59161" lon="4.31642">
        <ele>419</ele>
        <time>2021-03-06T13:51:18.000Z</time>
      </trkpt>
      <trkpt lat="45.5917" lon="4.31647">
        <ele>419.79998779297</ele>
        <time>2021-03-06T13:51:20.000Z</time>
      </trkpt>
      <trkpt lat="45.59179" lon="4.31651">
        <ele>420.39999389648</ele>
        <time>2021-03-06T13:51:22.000Z</time>
      </trkpt>
      <trkpt lat="45.59184" lon="4.31651">
        <ele>421</ele>
        <time>2021-03-06T13:51:23.000Z</time>
      </trkpt>
      <trkpt lat="45.59192" lon="4.31657">
        <ele>421.60000610352</ele>
        <time>2021-03-06T13:51:25.000Z</time>
      </trkpt>
      <trkpt lat="45.59197" lon="4.3166">
        <ele>422</ele>
        <time>2021-03-06T13:51:26.000Z</time>
      </trkpt>
      <trkpt lat="45.59202" lon="4.31661">
        <ele>422.39999389648</ele>
        <time>2021-03-06T13:51:27.000Z</time>
      </trkpt>
      <trkpt lat="45.59207" lon="4.31661">
        <ele>423.20001220703</ele>
        <time>2021-03-06T13:51:28.000Z</time>
      </trkpt>
      <trkpt lat="45.5922" lon="4.3166">
        <ele>424.39999389648</ele>
        <time>2021-03-06T13:51:31.000Z</time>
      </trkpt>
      <trkpt lat="45.59229" lon="4.31661">
        <ele>425.20001220703</ele>
        <time>2021-03-06T13:51:33.000Z</time>
      </trkpt>
      <trkpt lat="45.59234" lon="4.31666">
        <ele>425.60000610352</ele>
        <time>2021-03-06T13:51:34.000Z</time>
      </trkpt>
      <trkpt lat="45.59238" lon="4.31669">
        <ele>426</ele>
        <time>2021-03-06T13:51:35.000Z</time>
      </trkpt>
      <trkpt lat="45.59242" lon="4.31669">
        <ele>426.39999389648</ele>
        <time>2021-03-06T13:51:36.000Z</time>
      </trkpt>
      <trkpt lat="45.59253" lon="4.31662">
        <ele>426.79998779297</ele>
        <time>2021-03-06T13:51:38.000Z</time>
      </trkpt>
      <trkpt lat="45.59259" lon="4.31657">
        <ele>427</ele>
        <time>2021-03-06T13:51:39.000Z</time>
      </trkpt>
      <trkpt lat="45.59277" lon="4.31643">
        <ele>427.39999389648</ele>
        <time>2021-03-06T13:51:42.000Z</time>
      </trkpt>
      <trkpt lat="45.5929" lon="4.31633">
        <ele>427.79998779297</ele>
        <time>2021-03-06T13:51:44.000Z</time>
      </trkpt>
      <trkpt lat="45.59303" lon="4.31628">
        <ele>428</ele>
        <time>2021-03-06T13:51:46.000Z</time>
      </trkpt>
      <trkpt lat="45.59322" lon="4.31624">
        <ele>428.20001220703</ele>
        <time>2021-03-06T13:51:49.000Z</time>
      </trkpt>
      <trkpt lat="45.59369" lon="4.31604">
        <ele>428.79998779297</ele>
        <time>2021-03-06T13:51:56.000Z</time>
      </trkpt>
      <trkpt lat="45.59394" lon="4.31591">
        <ele>429</ele>
        <time>2021-03-06T13:52:00.000Z</time>
      </trkpt>
      <trkpt lat="45.59425" lon="4.31582">
        <ele>429</ele>
        <time>2021-03-06T13:52:04.000Z</time>
      </trkpt>
      <trkpt lat="45.59462" lon="4.31566">
        <ele>428.60000610352</ele>
        <time>2021-03-06T13:52:09.000Z</time>
      </trkpt>
      <trkpt lat="45.59468" lon="4.31565">
        <ele>428.60000610352</ele>
        <time>2021-03-06T13:52:10.000Z</time>
      </trkpt>
      <trkpt lat="45.59477" lon="4.31563">
        <ele>428.60000610352</ele>
        <time>2021-03-06T13:52:11.000Z</time>
      </trkpt>
      <trkpt lat="45.59503" lon="4.31553">
        <ele>428.39999389648</ele>
        <time>2021-03-06T13:52:14.000Z</time>
      </trkpt>
      <trkpt lat="45.59564" lon="4.31529">
        <ele>428.20001220703</ele>
        <time>2021-03-06T13:52:21.000Z</time>
      </trkpt>
      <trkpt lat="45.59608" lon="4.31516">
        <ele>428</ele>
        <time>2021-03-06T13:52:26.000Z</time>
      </trkpt>
      <trkpt lat="45.59617" lon="4.31513">
        <ele>427.79998779297</ele>
        <time>2021-03-06T13:52:27.000Z</time>
      </trkpt>
      <trkpt lat="45.59626" lon="4.31509">
        <ele>427.60000610352</ele>
        <time>2021-03-06T13:52:28.000Z</time>
      </trkpt>
      <trkpt lat="45.59664" lon="4.31493">
        <ele>426.79998779297</ele>
        <time>2021-03-06T13:52:32.000Z</time>
      </trkpt>
      <trkpt lat="45.59671" lon="4.3149">
        <ele>426.60000610352</ele>
        <time>2021-03-06T13:52:33.000Z</time>
      </trkpt>
      <trkpt lat="45.59727" lon="4.31467">
        <ele>425.79998779297</ele>
        <time>2021-03-06T13:52:39.000Z</time>
      </trkpt>
      <trkpt lat="45.59745" lon="4.31461">
        <ele>425.60000610352</ele>
        <time>2021-03-06T13:52:41.000Z</time>
      </trkpt>
      <trkpt lat="45.59792" lon="4.31442">
        <ele>424.20001220703</ele>
        <time>2021-03-06T13:52:46.000Z</time>
      </trkpt>
      <trkpt lat="45.59807" lon="4.31436">
        <ele>424</ele>
        <time>2021-03-06T13:52:48.000Z</time>
      </trkpt>
      <trkpt lat="45.5986" lon="4.31416">
        <ele>423.79998779297</ele>
        <time>2021-03-06T13:52:54.000Z</time>
      </trkpt>
      <trkpt lat="45.59869" lon="4.31412">
        <ele>423.79998779297</ele>
        <time>2021-03-06T13:52:55.000Z</time>
      </trkpt>
      <trkpt lat="45.59923" lon="4.31391">
        <ele>423.60000610352</ele>
        <time>2021-03-06T13:53:01.000Z</time>
      </trkpt>
      <trkpt lat="45.59978" lon="4.31378">
        <ele>423.60000610352</ele>
        <time>2021-03-06T13:53:07.000Z</time>
      </trkpt>
      <trkpt lat="45.60022" lon="4.31374">
        <ele>423.60000610352</ele>
        <time>2021-03-06T13:53:12.000Z</time>
      </trkpt>
      <trkpt lat="45.60031" lon="4.31373">
        <ele>423.60000610352</ele>
        <time>2021-03-06T13:53:13.000Z</time>
      </trkpt>
      <trkpt lat="45.60056" lon="4.31372">
        <ele>423.60000610352</ele>
        <time>2021-03-06T13:53:16.000Z</time>
      </trkpt>
      <trkpt lat="45.60073" lon="4.31374">
        <ele>423.79998779297</ele>
        <time>2021-03-06T13:53:18.000Z</time>
      </trkpt>
      <trkpt lat="45.6013" lon="4.31382">
        <ele>424.20001220703</ele>
        <time>2021-03-06T13:53:25.000Z</time>
      </trkpt>
      <trkpt lat="45.60138" lon="4.31383">
        <ele>424.20001220703</ele>
        <time>2021-03-06T13:53:26.000Z</time>
      </trkpt>
      <trkpt lat="45.60195" lon="4.31385">
        <ele>424.20001220703</ele>
        <time>2021-03-06T13:53:33.000Z</time>
      </trkpt>
      <trkpt lat="45.60238" lon="4.31385">
        <ele>424</ele>
        <time>2021-03-06T13:53:38.000Z</time>
      </trkpt>
      <trkpt lat="45.6028" lon="4.31387">
        <ele>423.20001220703</ele>
        <time>2021-03-06T13:53:43.000Z</time>
      </trkpt>
      <trkpt lat="45.60287" lon="4.31389">
        <ele>423.20001220703</ele>
        <time>2021-03-06T13:53:44.000Z</time>
      </trkpt>
      <trkpt lat="45.60293" lon="4.31395">
        <ele>423</ele>
        <time>2021-03-06T13:53:45.000Z</time>
      </trkpt>
      <trkpt lat="45.60299" lon="4.31401">
        <ele>423</ele>
        <time>2021-03-06T13:53:46.000Z</time>
      </trkpt>
      <trkpt lat="45.60309" lon="4.31407">
        <ele>422.79998779297</ele>
        <time>2021-03-06T13:53:48.000Z</time>
      </trkpt>
      <trkpt lat="45.60325" lon="4.31387">
        <ele>422.60000610352</ele>
        <time>2021-03-06T13:53:51.000Z</time>
      </trkpt>
      <trkpt lat="45.6034" lon="4.31376">
        <ele>422.39999389648</ele>
        <time>2021-03-06T13:53:53.000Z</time>
      </trkpt>
      <trkpt lat="45.60349" lon="4.31373">
        <ele>422.20001220703</ele>
        <time>2021-03-06T13:53:54.000Z</time>
      </trkpt>
      <trkpt lat="45.60357" lon="4.31371">
        <ele>422</ele>
        <time>2021-03-06T13:53:55.000Z</time>
      </trkpt>
      <trkpt lat="45.60403" lon="4.31355">
        <ele>421.20001220703</ele>
        <time>2021-03-06T13:54:00.000Z</time>
      </trkpt>
      <trkpt lat="45.60422" lon="4.31349">
        <ele>420.79998779297</ele>
        <time>2021-03-06T13:54:02.000Z</time>
      </trkpt>
      <trkpt lat="45.6047" lon="4.31332">
        <ele>420.20001220703</ele>
        <time>2021-03-06T13:54:07.000Z</time>
      </trkpt>
      <trkpt lat="45.60499" lon="4.31326">
        <ele>419.60000610352</ele>
        <time>2021-03-06T13:54:10.000Z</time>
      </trkpt>
      <trkpt lat="45.60538" lon="4.31316">
        <ele>418.60000610352</ele>
        <time>2021-03-06T13:54:14.000Z</time>
      </trkpt>
      <trkpt lat="45.60595" lon="4.31305">
        <ele>418</ele>
        <time>2021-03-06T13:54:20.000Z</time>
      </trkpt>
      <trkpt lat="45.60614" lon="4.31301">
        <ele>417.60000610352</ele>
        <time>2021-03-06T13:54:22.000Z</time>
      </trkpt>
      <trkpt lat="45.6067" lon="4.3129">
        <ele>416.79998779297</ele>
        <time>2021-03-06T13:54:28.000Z</time>
      </trkpt>
      <trkpt lat="45.6068" lon="4.31288">
        <ele>416.60000610352</ele>
        <time>2021-03-06T13:54:29.000Z</time>
      </trkpt>
      <trkpt lat="45.60698" lon="4.31284">
        <ele>416.39999389648</ele>
        <time>2021-03-06T13:54:31.000Z</time>
      </trkpt>
      <trkpt lat="45.60753" lon="4.31272">
        <ele>415.60000610352</ele>
        <time>2021-03-06T13:54:37.000Z</time>
      </trkpt>
      <trkpt lat="45.60791" lon="4.31264">
        <ele>415.20001220703</ele>
        <time>2021-03-06T13:54:41.000Z</time>
      </trkpt>
      <trkpt lat="45.60845" lon="4.31249">
        <ele>414.79998779297</ele>
        <time>2021-03-06T13:54:47.000Z</time>
      </trkpt>
      <trkpt lat="45.60853" lon="4.31245">
        <ele>414.39999389648</ele>
        <time>2021-03-06T13:54:48.000Z</time>
      </trkpt>
      <trkpt lat="45.60862" lon="4.31242">
        <ele>414</ele>
        <time>2021-03-06T13:54:49.000Z</time>
      </trkpt>
      <trkpt lat="45.60889" lon="4.31231">
        <ele>413.39999389648</ele>
        <time>2021-03-06T13:54:52.000Z</time>
      </trkpt>
      <trkpt lat="45.60934" lon="4.31213">
        <ele>412.79998779297</ele>
        <time>2021-03-06T13:54:57.000Z</time>
      </trkpt>
      <trkpt lat="45.6097" lon="4.31198">
        <ele>412.39999389648</ele>
        <time>2021-03-06T13:55:01.000Z</time>
      </trkpt>
      <trkpt lat="45.61017" lon="4.31179">
        <ele>411.60000610352</ele>
        <time>2021-03-06T13:55:06.000Z</time>
      </trkpt>
      <trkpt lat="45.61036" lon="4.31171">
        <ele>411.20001220703</ele>
        <time>2021-03-06T13:55:08.000Z</time>
      </trkpt>
      <trkpt lat="45.61091" lon="4.31147">
        <ele>410.20001220703</ele>
        <time>2021-03-06T13:55:14.000Z</time>
      </trkpt>
      <trkpt lat="45.611" lon="4.31143">
        <ele>410.20001220703</ele>
        <time>2021-03-06T13:55:15.000Z</time>
      </trkpt>
      <trkpt lat="45.61109" lon="4.31139">
        <ele>410.20001220703</ele>
        <time>2021-03-06T13:55:16.000Z</time>
      </trkpt>
      <trkpt lat="45.61161" lon="4.31117">
        <ele>409.60000610352</ele>
        <time>2021-03-06T13:55:22.000Z</time>
      </trkpt>
      <trkpt lat="45.61187" lon="4.31106">
        <ele>409.20001220703</ele>
        <time>2021-03-06T13:55:25.000Z</time>
      </trkpt>
      <trkpt lat="45.61195" lon="4.31102">
        <ele>409.20001220703</ele>
        <time>2021-03-06T13:55:26.000Z</time>
      </trkpt>
      <trkpt lat="45.61255" lon="4.31076">
        <ele>408.79998779297</ele>
        <time>2021-03-06T13:55:33.000Z</time>
      </trkpt>
      <trkpt lat="45.61272" lon="4.31069">
        <ele>408.79998779297</ele>
        <time>2021-03-06T13:55:35.000Z</time>
      </trkpt>
      <trkpt lat="45.61314" lon="4.31051">
        <ele>408.20001220703</ele>
        <time>2021-03-06T13:55:40.000Z</time>
      </trkpt>
      <trkpt lat="45.61357" lon="4.31033">
        <ele>408</ele>
        <time>2021-03-06T13:55:45.000Z</time>
      </trkpt>
      <trkpt lat="45.61415" lon="4.31008">
        <ele>407.79998779297</ele>
        <time>2021-03-06T13:55:52.000Z</time>
      </trkpt>
      <trkpt lat="45.6144" lon="4.30998">
        <ele>407.60000610352</ele>
        <time>2021-03-06T13:55:55.000Z</time>
      </trkpt>
      <trkpt lat="45.61497" lon="4.30972">
        <ele>407.39999389648</ele>
        <time>2021-03-06T13:56:02.000Z</time>
      </trkpt>
      <trkpt lat="45.61512" lon="4.30963">
        <ele>407.39999389648</ele>
        <time>2021-03-06T13:56:04.000Z</time>
      </trkpt>
      <trkpt lat="45.61566" lon="4.30929">
        <ele>407.20001220703</ele>
        <time>2021-03-06T13:56:11.000Z</time>
      </trkpt>
      <trkpt lat="45.61574" lon="4.30924">
        <ele>407</ele>
        <time>2021-03-06T13:56:12.000Z</time>
      </trkpt>
      <trkpt lat="45.61581" lon="4.30919">
        <ele>407</ele>
        <time>2021-03-06T13:56:13.000Z</time>
      </trkpt>
      <trkpt lat="45.61636" lon="4.30883">
        <ele>406.79998779297</ele>
        <time>2021-03-06T13:56:20.000Z</time>
      </trkpt>
      <trkpt lat="45.61669" lon="4.30862">
        <ele>405.79998779297</ele>
        <time>2021-03-06T13:56:24.000Z</time>
      </trkpt>
      <trkpt lat="45.61718" lon="4.3083">
        <ele>404.79998779297</ele>
        <time>2021-03-06T13:56:30.000Z</time>
      </trkpt>
      <trkpt lat="45.61768" lon="4.30798">
        <ele>404.20001220703</ele>
        <time>2021-03-06T13:56:36.000Z</time>
      </trkpt>
      <trkpt lat="45.61777" lon="4.30792">
        <ele>404</ele>
        <time>2021-03-06T13:56:37.000Z</time>
      </trkpt>
      <trkpt lat="45.61785" lon="4.30787">
        <ele>403.60000610352</ele>
        <time>2021-03-06T13:56:38.000Z</time>
      </trkpt>
      <trkpt lat="45.61837" lon="4.30757">
        <ele>402.79998779297</ele>
        <time>2021-03-06T13:56:44.000Z</time>
      </trkpt>
      <trkpt lat="45.61846" lon="4.30753">
        <ele>402.79998779297</ele>
        <time>2021-03-06T13:56:45.000Z</time>
      </trkpt>
      <trkpt lat="45.6189" lon="4.30747">
        <ele>402.60000610352</ele>
        <time>2021-03-06T13:56:50.000Z</time>
      </trkpt>
      <trkpt lat="45.61899" lon="4.30747">
        <ele>402.60000610352</ele>
        <time>2021-03-06T13:56:51.000Z</time>
      </trkpt>
      <trkpt lat="45.6195" lon="4.30749">
        <ele>402.60000610352</ele>
        <time>2021-03-06T13:56:57.000Z</time>
      </trkpt>
      <trkpt lat="45.62008" lon="4.3075">
        <ele>403</ele>
        <time>2021-03-06T13:57:04.000Z</time>
      </trkpt>
      <trkpt lat="45.62067" lon="4.30751">
        <ele>403.60000610352</ele>
        <time>2021-03-06T13:57:11.000Z</time>
      </trkpt>
      <trkpt lat="45.62075" lon="4.30751">
        <ele>403.60000610352</ele>
        <time>2021-03-06T13:57:12.000Z</time>
      </trkpt>
      <trkpt lat="45.62092" lon="4.30752">
        <ele>403.79998779297</ele>
        <time>2021-03-06T13:57:14.000Z</time>
      </trkpt>
      <trkpt lat="45.62133" lon="4.30753">
        <ele>404.79998779297</ele>
        <time>2021-03-06T13:57:19.000Z</time>
      </trkpt>
      <trkpt lat="45.62163" lon="4.30754">
        <ele>405.39999389648</ele>
        <time>2021-03-06T13:57:23.000Z</time>
      </trkpt>
      <trkpt lat="45.62214" lon="4.30755">
        <ele>404.60000610352</ele>
        <time>2021-03-06T13:57:30.000Z</time>
      </trkpt>
      <trkpt lat="45.6227" lon="4.30756">
        <ele>405.39999389648</ele>
        <time>2021-03-06T13:57:38.000Z</time>
      </trkpt>
      <trkpt lat="45.62277" lon="4.30756">
        <ele>405.39999389648</ele>
        <time>2021-03-06T13:57:39.000Z</time>
      </trkpt>
      <trkpt lat="45.62318" lon="4.30753">
        <ele>405.79998779297</ele>
        <time>2021-03-06T13:57:45.000Z</time>
      </trkpt>
      <trkpt lat="45.62325" lon="4.30751">
        <ele>406</ele>
        <time>2021-03-06T13:57:46.000Z</time>
      </trkpt>
      <trkpt lat="45.62365" lon="4.30733">
        <ele>406.60000610352</ele>
        <time>2021-03-06T13:57:52.000Z</time>
      </trkpt>
      <trkpt lat="45.62413" lon="4.30706">
        <ele>407</ele>
        <time>2021-03-06T13:57:59.000Z</time>
      </trkpt>
      <trkpt lat="45.62435" lon="4.30694">
        <ele>407.20001220703</ele>
        <time>2021-03-06T13:58:02.000Z</time>
      </trkpt>
      <trkpt lat="45.6249" lon="4.30664">
        <ele>407.20001220703</ele>
        <time>2021-03-06T13:58:09.000Z</time>
      </trkpt>
      <trkpt lat="45.62498" lon="4.30659">
        <ele>407.20001220703</ele>
        <time>2021-03-06T13:58:10.000Z</time>
      </trkpt>
      <trkpt lat="45.62555" lon="4.30625">
        <ele>407.39999389648</ele>
        <time>2021-03-06T13:58:17.000Z</time>
      </trkpt>
      <trkpt lat="45.62571" lon="4.30614">
        <ele>407.20001220703</ele>
        <time>2021-03-06T13:58:19.000Z</time>
      </trkpt>
      <trkpt lat="45.62626" lon="4.30573">
        <ele>406.60000610352</ele>
        <time>2021-03-06T13:58:26.000Z</time>
      </trkpt>
      <trkpt lat="45.62672" lon="4.30538">
        <ele>406.60000610352</ele>
        <time>2021-03-06T13:58:32.000Z</time>
      </trkpt>
      <trkpt lat="45.62723" lon="4.305">
        <ele>406.20001220703</ele>
        <time>2021-03-06T13:58:39.000Z</time>
      </trkpt>
      <trkpt lat="45.6273" lon="4.30495">
        <ele>406.20001220703</ele>
        <time>2021-03-06T13:58:40.000Z</time>
      </trkpt>
      <trkpt lat="45.62745" lon="4.30484">
        <ele>406</ele>
        <time>2021-03-06T13:58:42.000Z</time>
      </trkpt>
      <trkpt lat="45.62781" lon="4.30457">
        <ele>405.60000610352</ele>
        <time>2021-03-06T13:58:47.000Z</time>
      </trkpt>
      <trkpt lat="45.62834" lon="4.30417">
        <ele>405.60000610352</ele>
        <time>2021-03-06T13:58:54.000Z</time>
      </trkpt>
      <trkpt lat="45.6285" lon="4.30405">
        <ele>405.60000610352</ele>
        <time>2021-03-06T13:58:56.000Z</time>
      </trkpt>
      <trkpt lat="45.62898" lon="4.3037">
        <ele>405</ele>
        <time>2021-03-06T13:59:02.000Z</time>
      </trkpt>
      <trkpt lat="45.62906" lon="4.30363">
        <ele>404.60000610352</ele>
        <time>2021-03-06T13:59:03.000Z</time>
      </trkpt>
      <trkpt lat="45.62947" lon="4.30332">
        <ele>403.79998779297</ele>
        <time>2021-03-06T13:59:08.000Z</time>
      </trkpt>
      <trkpt lat="45.62981" lon="4.30307">
        <ele>403.60000610352</ele>
        <time>2021-03-06T13:59:12.000Z</time>
      </trkpt>
      <trkpt lat="45.6303" lon="4.30271">
        <ele>403</ele>
        <time>2021-03-06T13:59:18.000Z</time>
      </trkpt>
      <trkpt lat="45.63046" lon="4.30259">
        <ele>402.79998779297</ele>
        <time>2021-03-06T13:59:20.000Z</time>
      </trkpt>
      <trkpt lat="45.63078" lon="4.30236">
        <ele>402.39999389648</ele>
        <time>2021-03-06T13:59:24.000Z</time>
      </trkpt>
      <trkpt lat="45.6313" lon="4.30211">
        <ele>402</ele>
        <time>2021-03-06T13:59:30.000Z</time>
      </trkpt>
      <trkpt lat="45.63173" lon="4.302">
        <ele>401.79998779297</ele>
        <time>2021-03-06T13:59:35.000Z</time>
      </trkpt>
      <trkpt lat="45.63182" lon="4.30198">
        <ele>401.60000610352</ele>
        <time>2021-03-06T13:59:36.000Z</time>
      </trkpt>
      <trkpt lat="45.63242" lon="4.30187">
        <ele>401</ele>
        <time>2021-03-06T13:59:43.000Z</time>
      </trkpt>
      <trkpt lat="45.63259" lon="4.30184">
        <ele>401</ele>
        <time>2021-03-06T13:59:45.000Z</time>
      </trkpt>
      <trkpt lat="45.63276" lon="4.30181">
        <ele>400.79998779297</ele>
        <time>2021-03-06T13:59:47.000Z</time>
      </trkpt>
      <trkpt lat="45.63292" lon="4.30177">
        <ele>400.79998779297</ele>
        <time>2021-03-06T13:59:49.000Z</time>
      </trkpt>
      <trkpt lat="45.63324" lon="4.30173">
        <ele>400.60000610352</ele>
        <time>2021-03-06T13:59:53.000Z</time>
      </trkpt>
      <trkpt lat="45.63379" lon="4.30163">
        <ele>400.39999389648</ele>
        <time>2021-03-06T14:00:00.000Z</time>
      </trkpt>
      <trkpt lat="45.63403" lon="4.30159">
        <ele>400.60000610352</ele>
        <time>2021-03-06T14:00:03.000Z</time>
      </trkpt>
      <trkpt lat="45.6346" lon="4.30149">
        <ele>401</ele>
        <time>2021-03-06T14:00:10.000Z</time>
      </trkpt>
      <trkpt lat="45.63485" lon="4.30145">
        <ele>401</ele>
        <time>2021-03-06T14:00:13.000Z</time>
      </trkpt>
      <trkpt lat="45.63541" lon="4.30136">
        <ele>401.39999389648</ele>
        <time>2021-03-06T14:00:20.000Z</time>
      </trkpt>
      <trkpt lat="45.63558" lon="4.30134">
        <ele>401.39999389648</ele>
        <time>2021-03-06T14:00:22.000Z</time>
      </trkpt>
      <trkpt lat="45.63609" lon="4.30122">
        <ele>401.20001220703</ele>
        <time>2021-03-06T14:00:28.000Z</time>
      </trkpt>
      <trkpt lat="45.63617" lon="4.30118">
        <ele>401.20001220703</ele>
        <time>2021-03-06T14:00:29.000Z</time>
      </trkpt>
      <trkpt lat="45.63661" lon="4.30091">
        <ele>399.79998779297</ele>
        <time>2021-03-06T14:00:34.000Z</time>
      </trkpt>
      <trkpt lat="45.63679" lon="4.30079">
        <ele>399.60000610352</ele>
        <time>2021-03-06T14:00:36.000Z</time>
      </trkpt>
      <trkpt lat="45.63714" lon="4.30054">
        <ele>399</ele>
        <time>2021-03-06T14:00:40.000Z</time>
      </trkpt>
      <trkpt lat="45.63757" lon="4.30025">
        <ele>398.79998779297</ele>
        <time>2021-03-06T14:00:45.000Z</time>
      </trkpt>
      <trkpt lat="45.63806" lon="4.2999">
        <ele>399</ele>
        <time>2021-03-06T14:00:51.000Z</time>
      </trkpt>
      <trkpt lat="45.63814" lon="4.29984">
        <ele>399</ele>
        <time>2021-03-06T14:00:52.000Z</time>
      </trkpt>
      <trkpt lat="45.63841" lon="4.29972">
        <ele>398.60000610352</ele>
        <time>2021-03-06T14:00:55.000Z</time>
      </trkpt>
      <trkpt lat="45.63859" lon="4.29968">
        <ele>398.39999389648</ele>
        <time>2021-03-06T14:00:57.000Z</time>
      </trkpt>
      <trkpt lat="45.63913" lon="4.29963">
        <ele>398.60000610352</ele>
        <time>2021-03-06T14:01:03.000Z</time>
      </trkpt>
      <trkpt lat="45.63931" lon="4.29961">
        <ele>398.60000610352</ele>
        <time>2021-03-06T14:01:05.000Z</time>
      </trkpt>
      <trkpt lat="45.63949" lon="4.29956">
        <ele>398.39999389648</ele>
        <time>2021-03-06T14:01:07.000Z</time>
      </trkpt>
      <trkpt lat="45.63975" lon="4.29945">
        <ele>398</ele>
        <time>2021-03-06T14:01:10.000Z</time>
      </trkpt>
      <trkpt lat="45.64029" lon="4.29918">
        <ele>397.60000610352</ele>
        <time>2021-03-06T14:01:16.000Z</time>
      </trkpt>
      <trkpt lat="45.64036" lon="4.29915">
        <ele>397.39999389648</ele>
        <time>2021-03-06T14:01:17.000Z</time>
      </trkpt>
      <trkpt lat="45.64053" lon="4.29906">
        <ele>396.79998779297</ele>
        <time>2021-03-06T14:01:19.000Z</time>
      </trkpt>
      <trkpt lat="45.6407" lon="4.29897">
        <ele>396.20001220703</ele>
        <time>2021-03-06T14:01:21.000Z</time>
      </trkpt>
      <trkpt lat="45.64121" lon="4.29871">
        <ele>395.60000610352</ele>
        <time>2021-03-06T14:01:27.000Z</time>
      </trkpt>
      <trkpt lat="45.64164" lon="4.29854">
        <ele>395.20001220703</ele>
        <time>2021-03-06T14:01:32.000Z</time>
      </trkpt>
      <trkpt lat="45.64173" lon="4.29852">
        <ele>395.20001220703</ele>
        <time>2021-03-06T14:01:33.000Z</time>
      </trkpt>
      <trkpt lat="45.64226" lon="4.29848">
        <ele>394.79998779297</ele>
        <time>2021-03-06T14:01:39.000Z</time>
      </trkpt>
      <trkpt lat="45.64268" lon="4.29847">
        <ele>394.39999389648</ele>
        <time>2021-03-06T14:01:44.000Z</time>
      </trkpt>
      <trkpt lat="45.64316" lon="4.29845">
        <ele>394.39999389648</ele>
        <time>2021-03-06T14:01:50.000Z</time>
      </trkpt>
      <trkpt lat="45.64375" lon="4.29833">
        <ele>394</ele>
        <time>2021-03-06T14:01:57.000Z</time>
      </trkpt>
      <trkpt lat="45.64437" lon="4.29824">
        <ele>394</ele>
        <time>2021-03-06T14:02:04.000Z</time>
      </trkpt>
      <trkpt lat="45.64454" lon="4.29819">
        <ele>394.20001220703</ele>
        <time>2021-03-06T14:02:06.000Z</time>
      </trkpt>
      <trkpt lat="45.64471" lon="4.29808">
        <ele>394.39999389648</ele>
        <time>2021-03-06T14:02:08.000Z</time>
      </trkpt>
      <trkpt lat="45.64515" lon="4.29761">
        <ele>394.60000610352</ele>
        <time>2021-03-06T14:02:14.000Z</time>
      </trkpt>
      <trkpt lat="45.64564" lon="4.29712">
        <ele>394.79998779297</ele>
        <time>2021-03-06T14:02:21.000Z</time>
      </trkpt>
      <trkpt lat="45.64577" lon="4.297">
        <ele>395.20001220703</ele>
        <time>2021-03-06T14:02:23.000Z</time>
      </trkpt>
      <trkpt lat="45.64595" lon="4.29682">
        <ele>395.79998779297</ele>
        <time>2021-03-06T14:02:26.000Z</time>
      </trkpt>
      <trkpt lat="45.646" lon="4.29676">
        <ele>396</ele>
        <time>2021-03-06T14:02:27.000Z</time>
      </trkpt>
      <trkpt lat="45.64608" lon="4.29659">
        <ele>396.20001220703</ele>
        <time>2021-03-06T14:02:29.000Z</time>
      </trkpt>
      <trkpt lat="45.64627" lon="4.29605">
        <ele>396</ele>
        <time>2021-03-06T14:02:34.000Z</time>
      </trkpt>
      <trkpt lat="45.64632" lon="4.29594">
        <ele>395.60000610352</ele>
        <time>2021-03-06T14:02:35.000Z</time>
      </trkpt>
      <trkpt lat="45.64644" lon="4.29576">
        <ele>395</ele>
        <time>2021-03-06T14:02:37.000Z</time>
      </trkpt>
      <trkpt lat="45.6466" lon="4.29563">
        <ele>395</ele>
        <time>2021-03-06T14:02:40.000Z</time>
      </trkpt>
      <trkpt lat="45.64663" lon="4.29561">
        <ele>395.20001220703</ele>
        <time>2021-03-06T14:02:42.000Z</time>
      </trkpt>
      <trkpt lat="45.64663" lon="4.29561">
        <ele>395.39999389648</ele>
        <time>2021-03-06T14:02:43.000Z</time>
      </trkpt>
      <trkpt lat="45.64665" lon="4.29559">
        <ele>395.60000610352</ele>
        <time>2021-03-06T14:02:45.000Z</time>
      </trkpt>
      <trkpt lat="45.64668" lon="4.29553">
        <ele>395.60000610352</ele>
        <time>2021-03-06T14:02:47.000Z</time>
      </trkpt>
      <trkpt lat="45.64669" lon="4.29543">
        <ele>395.79998779297</ele>
        <time>2021-03-06T14:02:49.000Z</time>
      </trkpt>
      <trkpt lat="45.64673" lon="4.29538">
        <ele>395.60000610352</ele>
        <time>2021-03-06T14:02:50.000Z</time>
      </trkpt>
      <trkpt lat="45.64678" lon="4.29534">
        <ele>395.79998779297</ele>
        <time>2021-03-06T14:02:51.000Z</time>
      </trkpt>
      <trkpt lat="45.64689" lon="4.29527">
        <ele>395.60000610352</ele>
        <time>2021-03-06T14:02:53.000Z</time>
      </trkpt>
      <trkpt lat="45.64724" lon="4.29505">
        <ele>395.39999389648</ele>
        <time>2021-03-06T14:02:59.000Z</time>
      </trkpt>
      <trkpt lat="45.64775" lon="4.29472">
        <ele>395.39999389648</ele>
        <time>2021-03-06T14:03:06.000Z</time>
      </trkpt>
      <trkpt lat="45.64831" lon="4.29444">
        <ele>394.60000610352</ele>
        <time>2021-03-06T14:03:13.000Z</time>
      </trkpt>
      <trkpt lat="45.64884" lon="4.29432">
        <ele>394</ele>
        <time>2021-03-06T14:03:19.000Z</time>
      </trkpt>
      <trkpt lat="45.6494" lon="4.2943">
        <ele>392.79998779297</ele>
        <time>2021-03-06T14:03:25.000Z</time>
      </trkpt>
      <trkpt lat="45.64959" lon="4.29429">
        <ele>392.20001220703</ele>
        <time>2021-03-06T14:03:27.000Z</time>
      </trkpt>
      <trkpt lat="45.64978" lon="4.29429">
        <ele>391.39999389648</ele>
        <time>2021-03-06T14:03:29.000Z</time>
      </trkpt>
      <trkpt lat="45.65034" lon="4.29427">
        <ele>390.39999389648</ele>
        <time>2021-03-06T14:03:35.000Z</time>
      </trkpt>
      <trkpt lat="45.65043" lon="4.29426">
        <ele>390</ele>
        <time>2021-03-06T14:03:36.000Z</time>
      </trkpt>
      <trkpt lat="45.65079" lon="4.29425">
        <ele>389.39999389648</ele>
        <time>2021-03-06T14:03:40.000Z</time>
      </trkpt>
      <trkpt lat="45.65132" lon="4.29423">
        <ele>388.79998779297</ele>
        <time>2021-03-06T14:03:46.000Z</time>
      </trkpt>
      <trkpt lat="45.65158" lon="4.29422">
        <ele>388.39999389648</ele>
        <time>2021-03-06T14:03:49.000Z</time>
      </trkpt>
      <trkpt lat="45.65194" lon="4.29417">
        <ele>388.20001220703</ele>
        <time>2021-03-06T14:03:53.000Z</time>
      </trkpt>
      <trkpt lat="45.65247" lon="4.29398">
        <ele>387.79998779297</ele>
        <time>2021-03-06T14:03:59.000Z</time>
      </trkpt>
      <trkpt lat="45.65299" lon="4.29377">
        <ele>387.39999389648</ele>
        <time>2021-03-06T14:04:05.000Z</time>
      </trkpt>
      <trkpt lat="45.65307" lon="4.29373">
        <ele>387.39999389648</ele>
        <time>2021-03-06T14:04:06.000Z</time>
      </trkpt>
      <trkpt lat="45.65315" lon="4.29369">
        <ele>387.20001220703</ele>
        <time>2021-03-06T14:04:07.000Z</time>
      </trkpt>
      <trkpt lat="45.65372" lon="4.29347">
        <ele>387.20001220703</ele>
        <time>2021-03-06T14:04:14.000Z</time>
      </trkpt>
      <trkpt lat="45.6538" lon="4.29343">
        <ele>387</ele>
        <time>2021-03-06T14:04:15.000Z</time>
      </trkpt>
      <trkpt lat="45.65438" lon="4.29329">
        <ele>386.60000610352</ele>
        <time>2021-03-06T14:04:22.000Z</time>
      </trkpt>
      <trkpt lat="45.65483" lon="4.29324">
        <ele>386.20001220703</ele>
        <time>2021-03-06T14:04:27.000Z</time>
      </trkpt>
      <trkpt lat="45.655" lon="4.29323">
        <ele>386</ele>
        <time>2021-03-06T14:04:29.000Z</time>
      </trkpt>
      <trkpt lat="45.65555" lon="4.29324">
        <ele>385</ele>
        <time>2021-03-06T14:04:35.000Z</time>
      </trkpt>
      <trkpt lat="45.65564" lon="4.29324">
        <ele>385</ele>
        <time>2021-03-06T14:04:36.000Z</time>
      </trkpt>
      <trkpt lat="45.65618" lon="4.29317">
        <ele>384.79998779297</ele>
        <time>2021-03-06T14:04:42.000Z</time>
      </trkpt>
      <trkpt lat="45.65627" lon="4.29314">
        <ele>384.79998779297</ele>
        <time>2021-03-06T14:04:43.000Z</time>
      </trkpt>
      <trkpt lat="45.65677" lon="4.293">
        <ele>384.39999389648</ele>
        <time>2021-03-06T14:04:49.000Z</time>
      </trkpt>
      <trkpt lat="45.65726" lon="4.29285">
        <ele>384</ele>
        <time>2021-03-06T14:04:55.000Z</time>
      </trkpt>
      <trkpt lat="45.65758" lon="4.29273">
        <ele>383.60000610352</ele>
        <time>2021-03-06T14:04:59.000Z</time>
      </trkpt>
      <trkpt lat="45.65796" lon="4.29247">
        <ele>383</ele>
        <time>2021-03-06T14:05:04.000Z</time>
      </trkpt>
      <trkpt lat="45.65801" lon="4.29242">
        <ele>383</ele>
        <time>2021-03-06T14:05:05.000Z</time>
      </trkpt>
      <trkpt lat="45.65849" lon="4.29199">
        <ele>382</ele>
        <time>2021-03-06T14:05:11.000Z</time>
      </trkpt>
      <trkpt lat="45.65857" lon="4.29192">
        <ele>381.79998779297</ele>
        <time>2021-03-06T14:05:12.000Z</time>
      </trkpt>
      <trkpt lat="45.65909" lon="4.29149">
        <ele>380.60000610352</ele>
        <time>2021-03-06T14:05:18.000Z</time>
      </trkpt>
      <trkpt lat="45.65918" lon="4.29144">
        <ele>380.39999389648</ele>
        <time>2021-03-06T14:05:19.000Z</time>
      </trkpt>
      <trkpt lat="45.65947" lon="4.29134">
        <ele>379.60000610352</ele>
        <time>2021-03-06T14:05:22.000Z</time>
      </trkpt>
      <trkpt lat="45.65996" lon="4.29132">
        <ele>378.79998779297</ele>
        <time>2021-03-06T14:05:27.000Z</time>
      </trkpt>
      <trkpt lat="45.66041" lon="4.29145">
        <ele>379.20001220703</ele>
        <time>2021-03-06T14:05:32.000Z</time>
      </trkpt>
      <trkpt lat="45.66091" lon="4.29159">
        <ele>379.60000610352</ele>
        <time>2021-03-06T14:05:38.000Z</time>
      </trkpt>
      <trkpt lat="45.6615" lon="4.29173">
        <ele>379.60000610352</ele>
        <time>2021-03-06T14:05:45.000Z</time>
      </trkpt>
      <trkpt lat="45.66159" lon="4.29175">
        <ele>379.60000610352</ele>
        <time>2021-03-06T14:05:46.000Z</time>
      </trkpt>
      <trkpt lat="45.66218" lon="4.29189">
        <ele>379.39999389648</ele>
        <time>2021-03-06T14:05:53.000Z</time>
      </trkpt>
      <trkpt lat="45.66243" lon="4.29195">
        <ele>379.39999389648</ele>
        <time>2021-03-06T14:05:56.000Z</time>
      </trkpt>
      <trkpt lat="45.663" lon="4.29211">
        <ele>379.79998779297</ele>
        <time>2021-03-06T14:06:03.000Z</time>
      </trkpt>
      <trkpt lat="45.66317" lon="4.29215">
        <ele>379.79998779297</ele>
        <time>2021-03-06T14:06:05.000Z</time>
      </trkpt>
      <trkpt lat="45.66372" lon="4.29229">
        <ele>380.20001220703</ele>
        <time>2021-03-06T14:06:12.000Z</time>
      </trkpt>
      <trkpt lat="45.66382" lon="4.29231">
        <ele>380.20001220703</ele>
        <time>2021-03-06T14:06:13.000Z</time>
      </trkpt>
      <trkpt lat="45.66414" lon="4.29239">
        <ele>380.60000610352</ele>
        <time>2021-03-06T14:06:17.000Z</time>
      </trkpt>
      <trkpt lat="45.66465" lon="4.29248">
        <ele>380.79998779297</ele>
        <time>2021-03-06T14:06:23.000Z</time>
      </trkpt>
      <trkpt lat="45.66526" lon="4.29259">
        <ele>380.60000610352</ele>
        <time>2021-03-06T14:06:30.000Z</time>
      </trkpt>
      <trkpt lat="45.66544" lon="4.29263">
        <ele>380.39999389648</ele>
        <time>2021-03-06T14:06:32.000Z</time>
      </trkpt>
      <trkpt lat="45.66605" lon="4.29274">
        <ele>379.60000610352</ele>
        <time>2021-03-06T14:06:39.000Z</time>
      </trkpt>
      <trkpt lat="45.66614" lon="4.29276">
        <ele>379.60000610352</ele>
        <time>2021-03-06T14:06:40.000Z</time>
      </trkpt>
      <trkpt lat="45.66641" lon="4.2928">
        <ele>379.39999389648</ele>
        <time>2021-03-06T14:06:43.000Z</time>
      </trkpt>
      <trkpt lat="45.66695" lon="4.29289">
        <ele>378.60000610352</ele>
        <time>2021-03-06T14:06:49.000Z</time>
      </trkpt>
      <trkpt lat="45.66722" lon="4.29294">
        <ele>378.20001220703</ele>
        <time>2021-03-06T14:06:52.000Z</time>
      </trkpt>
      <trkpt lat="45.66776" lon="4.29303">
        <ele>377.60000610352</ele>
        <time>2021-03-06T14:06:58.000Z</time>
      </trkpt>
      <trkpt lat="45.66803" lon="4.29309">
        <ele>377.60000610352</ele>
        <time>2021-03-06T14:07:01.000Z</time>
      </trkpt>
      <trkpt lat="45.66847" lon="4.29327">
        <ele>377.20001220703</ele>
        <time>2021-03-06T14:07:06.000Z</time>
      </trkpt>
      <trkpt lat="45.66856" lon="4.29333">
        <ele>377.20001220703</ele>
        <time>2021-03-06T14:07:07.000Z</time>
      </trkpt>
      <trkpt lat="45.66872" lon="4.29344">
        <ele>377.20001220703</ele>
        <time>2021-03-06T14:07:09.000Z</time>
      </trkpt>
      <trkpt lat="45.66879" lon="4.2935">
        <ele>377.20001220703</ele>
        <time>2021-03-06T14:07:10.000Z</time>
      </trkpt>
      <trkpt lat="45.66903" lon="4.29367">
        <ele>377.39999389648</ele>
        <time>2021-03-06T14:07:13.000Z</time>
      </trkpt>
      <trkpt lat="45.66919" lon="4.29375">
        <ele>377.39999389648</ele>
        <time>2021-03-06T14:07:15.000Z</time>
      </trkpt>
      <trkpt lat="45.66963" lon="4.29383">
        <ele>377.39999389648</ele>
        <time>2021-03-06T14:07:20.000Z</time>
      </trkpt>
      <trkpt lat="45.67009" lon="4.29377">
        <ele>377</ele>
        <time>2021-03-06T14:07:25.000Z</time>
      </trkpt>
      <trkpt lat="45.67056" lon="4.29372">
        <ele>376.39999389648</ele>
        <time>2021-03-06T14:07:30.000Z</time>
      </trkpt>
      <trkpt lat="45.67066" lon="4.29371">
        <ele>376.39999389648</ele>
        <time>2021-03-06T14:07:31.000Z</time>
      </trkpt>
      <trkpt lat="45.67123" lon="4.29379">
        <ele>375.60000610352</ele>
        <time>2021-03-06T14:07:37.000Z</time>
      </trkpt>
      <trkpt lat="45.67142" lon="4.29383">
        <ele>375.39999389648</ele>
        <time>2021-03-06T14:07:39.000Z</time>
      </trkpt>
      <trkpt lat="45.67187" lon="4.29396">
        <ele>375.39999389648</ele>
        <time>2021-03-06T14:07:44.000Z</time>
      </trkpt>
      <trkpt lat="45.67221" lon="4.29408">
        <ele>375.39999389648</ele>
        <time>2021-03-06T14:07:48.000Z</time>
      </trkpt>
      <trkpt lat="45.67255" lon="4.29422">
        <ele>374.79998779297</ele>
        <time>2021-03-06T14:07:53.000Z</time>
      </trkpt>
      <trkpt lat="45.67283" lon="4.2943">
        <ele>374.39999389648</ele>
        <time>2021-03-06T14:07:57.000Z</time>
      </trkpt>
      <trkpt lat="45.67299" lon="4.29435">
        <ele>374.39999389648</ele>
        <time>2021-03-06T14:07:59.000Z</time>
      </trkpt>
      <trkpt lat="45.6734" lon="4.29444">
        <ele>374.79998779297</ele>
        <time>2021-03-06T14:08:04.000Z</time>
      </trkpt>
      <trkpt lat="45.67398" lon="4.29445">
        <ele>375.39999389648</ele>
        <time>2021-03-06T14:08:11.000Z</time>
      </trkpt>
      <trkpt lat="45.67407" lon="4.29444">
        <ele>375.39999389648</ele>
        <time>2021-03-06T14:08:12.000Z</time>
      </trkpt>
      <trkpt lat="45.67416" lon="4.29444">
        <ele>375.60000610352</ele>
        <time>2021-03-06T14:08:13.000Z</time>
      </trkpt>
      <trkpt lat="45.67456" lon="4.29446">
        <ele>376.60000610352</ele>
        <time>2021-03-06T14:08:18.000Z</time>
      </trkpt>
      <trkpt lat="45.67463" lon="4.29446">
        <ele>376.79998779297</ele>
        <time>2021-03-06T14:08:19.000Z</time>
      </trkpt>
      <trkpt lat="45.67477" lon="4.29446">
        <ele>377.60000610352</ele>
        <time>2021-03-06T14:08:21.000Z</time>
      </trkpt>
      <trkpt lat="45.67491" lon="4.29445">
        <ele>378.39999389648</ele>
        <time>2021-03-06T14:08:23.000Z</time>
      </trkpt>
      <trkpt lat="45.67497" lon="4.29444">
        <ele>378.79998779297</ele>
        <time>2021-03-06T14:08:24.000Z</time>
      </trkpt>
      <trkpt lat="45.67515" lon="4.29442">
        <ele>379.79998779297</ele>
        <time>2021-03-06T14:08:27.000Z</time>
      </trkpt>
      <trkpt lat="45.67531" lon="4.29441">
        <ele>381.20001220703</ele>
        <time>2021-03-06T14:08:30.000Z</time>
      </trkpt>
      <trkpt lat="45.67548" lon="4.2944">
        <ele>382.20001220703</ele>
        <time>2021-03-06T14:08:33.000Z</time>
      </trkpt>
      <trkpt lat="45.67553" lon="4.29441">
        <ele>382.60000610352</ele>
        <time>2021-03-06T14:08:34.000Z</time>
      </trkpt>
      <trkpt lat="45.67563" lon="4.29441">
        <ele>383.39999389648</ele>
        <time>2021-03-06T14:08:36.000Z</time>
      </trkpt>
      <trkpt lat="45.67568" lon="4.29442">
        <ele>383.60000610352</ele>
        <time>2021-03-06T14:08:37.000Z</time>
      </trkpt>
      <trkpt lat="45.67579" lon="4.29444">
        <ele>384.39999389648</ele>
        <time>2021-03-06T14:08:39.000Z</time>
      </trkpt>
      <trkpt lat="45.67599" lon="4.2945">
        <ele>385.60000610352</ele>
        <time>2021-03-06T14:08:43.000Z</time>
      </trkpt>
      <trkpt lat="45.67604" lon="4.29452">
        <ele>386</ele>
        <time>2021-03-06T14:08:44.000Z</time>
      </trkpt>
      <trkpt lat="45.67621" lon="4.29457">
        <ele>386.79998779297</ele>
        <time>2021-03-06T14:08:47.000Z</time>
      </trkpt>
      <trkpt lat="45.67639" lon="4.29465">
        <ele>387.20001220703</ele>
        <time>2021-03-06T14:08:50.000Z</time>
      </trkpt>
      <trkpt lat="45.67683" lon="4.29482">
        <ele>388</ele>
        <time>2021-03-06T14:08:57.000Z</time>
      </trkpt>
      <trkpt lat="45.67702" lon="4.2949">
        <ele>388.20001220703</ele>
        <time>2021-03-06T14:09:00.000Z</time>
      </trkpt>
      <trkpt lat="45.6774" lon="4.29508">
        <ele>389</ele>
        <time>2021-03-06T14:09:06.000Z</time>
      </trkpt>
      <trkpt lat="45.67753" lon="4.29517">
        <ele>389.20001220703</ele>
        <time>2021-03-06T14:09:08.000Z</time>
      </trkpt>
      <trkpt lat="45.67787" lon="4.29552">
        <ele>389.79998779297</ele>
        <time>2021-03-06T14:09:14.000Z</time>
      </trkpt>
      <trkpt lat="45.67798" lon="4.29564">
        <ele>390.20001220703</ele>
        <time>2021-03-06T14:09:16.000Z</time>
      </trkpt>
      <trkpt lat="45.67828" lon="4.29599">
        <ele>391.20001220703</ele>
        <time>2021-03-06T14:09:22.000Z</time>
      </trkpt>
      <trkpt lat="45.67858" lon="4.29635">
        <ele>392.39999389648</ele>
        <time>2021-03-06T14:09:28.000Z</time>
      </trkpt>
      <trkpt lat="45.67863" lon="4.29641">
        <ele>392.60000610352</ele>
        <time>2021-03-06T14:09:29.000Z</time>
      </trkpt>
      <trkpt lat="45.67883" lon="4.29665">
        <ele>393.60000610352</ele>
        <time>2021-03-06T14:09:33.000Z</time>
      </trkpt>
      <trkpt lat="45.67897" lon="4.29683">
        <ele>394.20001220703</ele>
        <time>2021-03-06T14:09:36.000Z</time>
      </trkpt>
      <trkpt lat="45.67907" lon="4.29694">
        <ele>394.79998779297</ele>
        <time>2021-03-06T14:09:38.000Z</time>
      </trkpt>
      <trkpt lat="45.67927" lon="4.29716">
        <ele>396</ele>
        <time>2021-03-06T14:09:42.000Z</time>
      </trkpt>
      <trkpt lat="45.67932" lon="4.29721">
        <ele>396.20001220703</ele>
        <time>2021-03-06T14:09:43.000Z</time>
      </trkpt>
      <trkpt lat="45.67978" lon="4.29754">
        <ele>396.60000610352</ele>
        <time>2021-03-06T14:09:51.000Z</time>
      </trkpt>
      <trkpt lat="45.68029" lon="4.29783">
        <ele>396</ele>
        <time>2021-03-06T14:09:59.000Z</time>
      </trkpt>
      <trkpt lat="45.68035" lon="4.29787">
        <ele>396</ele>
        <time>2021-03-06T14:10:00.000Z</time>
      </trkpt>
      <trkpt lat="45.68092" lon="4.29821">
        <ele>395.39999389648</ele>
        <time>2021-03-06T14:10:08.000Z</time>
      </trkpt>
      <trkpt lat="45.68099" lon="4.29825">
        <ele>395.39999389648</ele>
        <time>2021-03-06T14:10:09.000Z</time>
      </trkpt>
      <trkpt lat="45.68151" lon="4.29856">
        <ele>395.20001220703</ele>
        <time>2021-03-06T14:10:16.000Z</time>
      </trkpt>
      <trkpt lat="45.68165" lon="4.29865">
        <ele>395.20001220703</ele>
        <time>2021-03-06T14:10:18.000Z</time>
      </trkpt>
      <trkpt lat="45.68215" lon="4.29896">
        <ele>395.60000610352</ele>
        <time>2021-03-06T14:10:25.000Z</time>
      </trkpt>
      <trkpt lat="45.68244" lon="4.29913">
        <ele>395.79998779297</ele>
        <time>2021-03-06T14:10:29.000Z</time>
      </trkpt>
      <trkpt lat="45.68299" lon="4.29943">
        <ele>396</ele>
        <time>2021-03-06T14:10:37.000Z</time>
      </trkpt>
      <trkpt lat="45.68354" lon="4.29969">
        <ele>396.79998779297</ele>
        <time>2021-03-06T14:10:45.000Z</time>
      </trkpt>
      <trkpt lat="45.68361" lon="4.29972">
        <ele>396.79998779297</ele>
        <time>2021-03-06T14:10:46.000Z</time>
      </trkpt>
      <trkpt lat="45.68381" lon="4.29981">
        <ele>397</ele>
        <time>2021-03-06T14:10:49.000Z</time>
      </trkpt>
      <trkpt lat="45.68412" lon="4.29995">
        <ele>397.79998779297</ele>
        <time>2021-03-06T14:10:54.000Z</time>
      </trkpt>
      <trkpt lat="45.68425" lon="4.30002">
        <ele>398.20001220703</ele>
        <time>2021-03-06T14:10:56.000Z</time>
      </trkpt>
      <trkpt lat="45.6845" lon="4.30013">
        <ele>399</ele>
        <time>2021-03-06T14:11:00.000Z</time>
      </trkpt>
      <trkpt lat="45.68457" lon="4.30016">
        <ele>399.20001220703</ele>
        <time>2021-03-06T14:11:01.000Z</time>
      </trkpt>
      <trkpt lat="45.68486" lon="4.30029">
        <ele>400.60000610352</ele>
        <time>2021-03-06T14:11:06.000Z</time>
      </trkpt>
      <trkpt lat="45.68492" lon="4.30032">
        <ele>400.79998779297</ele>
        <time>2021-03-06T14:11:07.000Z</time>
      </trkpt>
      <trkpt lat="45.68516" lon="4.30042">
        <ele>401.60000610352</ele>
        <time>2021-03-06T14:11:11.000Z</time>
      </trkpt>
      <trkpt lat="45.68534" lon="4.3005">
        <ele>402.20001220703</ele>
        <time>2021-03-06T14:11:14.000Z</time>
      </trkpt>
      <trkpt lat="45.68552" lon="4.30059">
        <ele>402.79998779297</ele>
        <time>2021-03-06T14:11:17.000Z</time>
      </trkpt>
      <trkpt lat="45.6857" lon="4.30068">
        <ele>404</ele>
        <time>2021-03-06T14:11:20.000Z</time>
      </trkpt>
      <trkpt lat="45.68576" lon="4.3007">
        <ele>404.39999389648</ele>
        <time>2021-03-06T14:11:21.000Z</time>
      </trkpt>
      <trkpt lat="45.68599" lon="4.30083">
        <ele>405.20001220703</ele>
        <time>2021-03-06T14:11:25.000Z</time>
      </trkpt>
      <trkpt lat="45.68623" lon="4.30098">
        <ele>405.39999389648</ele>
        <time>2021-03-06T14:11:29.000Z</time>
      </trkpt>
      <trkpt lat="45.68666" lon="4.30128">
        <ele>405.20001220703</ele>
        <time>2021-03-06T14:11:36.000Z</time>
      </trkpt>
      <trkpt lat="45.68714" lon="4.30158">
        <ele>405.20001220703</ele>
        <time>2021-03-06T14:11:43.000Z</time>
      </trkpt>
      <trkpt lat="45.68771" lon="4.30188">
        <ele>406</ele>
        <time>2021-03-06T14:11:51.000Z</time>
      </trkpt>
      <trkpt lat="45.68784" lon="4.30196">
        <ele>406.39999389648</ele>
        <time>2021-03-06T14:11:53.000Z</time>
      </trkpt>
      <trkpt lat="45.68839" lon="4.30226">
        <ele>407</ele>
        <time>2021-03-06T14:12:01.000Z</time>
      </trkpt>
      <trkpt lat="45.68845" lon="4.30229">
        <ele>407</ele>
        <time>2021-03-06T14:12:02.000Z</time>
      </trkpt>
      <trkpt lat="45.68903" lon="4.30256">
        <ele>407.20001220703</ele>
        <time>2021-03-06T14:12:10.000Z</time>
      </trkpt>
      <trkpt lat="45.68911" lon="4.30258">
        <ele>407.39999389648</ele>
        <time>2021-03-06T14:12:11.000Z</time>
      </trkpt>
      <trkpt lat="45.68968" lon="4.30276">
        <ele>408.60000610352</ele>
        <time>2021-03-06T14:12:19.000Z</time>
      </trkpt>
      <trkpt lat="45.68975" lon="4.30278">
        <ele>409.20001220703</ele>
        <time>2021-03-06T14:12:20.000Z</time>
      </trkpt>
      <trkpt lat="45.68982" lon="4.3028">
        <ele>409.60000610352</ele>
        <time>2021-03-06T14:12:21.000Z</time>
      </trkpt>
      <trkpt lat="45.69007" lon="4.30285">
        <ele>410.79998779297</ele>
        <time>2021-03-06T14:12:25.000Z</time>
      </trkpt>
      <trkpt lat="45.69033" lon="4.30288">
        <ele>411.79998779297</ele>
        <time>2021-03-06T14:12:29.000Z</time>
      </trkpt>
      <trkpt lat="45.69051" lon="4.3029">
        <ele>412.60000610352</ele>
        <time>2021-03-06T14:12:32.000Z</time>
      </trkpt>
      <trkpt lat="45.69058" lon="4.30291">
        <ele>412.79998779297</ele>
        <time>2021-03-06T14:12:33.000Z</time>
      </trkpt>
      <trkpt lat="45.69101" lon="4.30296">
        <ele>413</ele>
        <time>2021-03-06T14:12:39.000Z</time>
      </trkpt>
      <trkpt lat="45.69141" lon="4.30301">
        <ele>412.79998779297</ele>
        <time>2021-03-06T14:12:44.000Z</time>
      </trkpt>
      <trkpt lat="45.69199" lon="4.30306">
        <ele>412</ele>
        <time>2021-03-06T14:12:51.000Z</time>
      </trkpt>
      <trkpt lat="45.69208" lon="4.30307">
        <ele>411.79998779297</ele>
        <time>2021-03-06T14:12:52.000Z</time>
      </trkpt>
      <trkpt lat="45.69261" lon="4.30313">
        <ele>410.60000610352</ele>
        <time>2021-03-06T14:12:58.000Z</time>
      </trkpt>
      <trkpt lat="45.69299" lon="4.30316">
        <ele>409.79998779297</ele>
        <time>2021-03-06T14:13:02.000Z</time>
      </trkpt>
      <trkpt lat="45.69317" lon="4.30319">
        <ele>409.60000610352</ele>
        <time>2021-03-06T14:13:04.000Z</time>
      </trkpt>
      <trkpt lat="45.69365" lon="4.30325">
        <ele>409.60000610352</ele>
        <time>2021-03-06T14:13:09.000Z</time>
      </trkpt>
      <trkpt lat="45.69426" lon="4.30333">
        <ele>410</ele>
        <time>2021-03-06T14:13:16.000Z</time>
      </trkpt>
      <trkpt lat="45.69476" lon="4.30332">
        <ele>410.20001220703</ele>
        <time>2021-03-06T14:13:22.000Z</time>
      </trkpt>
      <trkpt lat="45.69513" lon="4.30318">
        <ele>410</ele>
        <time>2021-03-06T14:13:26.000Z</time>
      </trkpt>
      <trkpt lat="45.6956" lon="4.30286">
        <ele>408.20001220703</ele>
        <time>2021-03-06T14:13:31.000Z</time>
      </trkpt>
      <trkpt lat="45.6959" lon="4.30263">
        <ele>407</ele>
        <time>2021-03-06T14:13:34.000Z</time>
      </trkpt>
      <trkpt lat="45.69617" lon="4.30242">
        <ele>405.79998779297</ele>
        <time>2021-03-06T14:13:37.000Z</time>
      </trkpt>
      <trkpt lat="45.69639" lon="4.30224">
        <ele>405.20001220703</ele>
        <time>2021-03-06T14:13:39.000Z</time>
      </trkpt>
      <trkpt lat="45.69649" lon="4.30217">
        <ele>404.60000610352</ele>
        <time>2021-03-06T14:13:40.000Z</time>
      </trkpt>
      <trkpt lat="45.69676" lon="4.30195">
        <ele>403.39999389648</ele>
        <time>2021-03-06T14:13:43.000Z</time>
      </trkpt>
      <trkpt lat="45.69698" lon="4.30178">
        <ele>402.20001220703</ele>
        <time>2021-03-06T14:13:45.000Z</time>
      </trkpt>
      <trkpt lat="45.69716" lon="4.30164">
        <ele>401.39999389648</ele>
        <time>2021-03-06T14:13:47.000Z</time>
      </trkpt>
      <trkpt lat="45.69726" lon="4.30157">
        <ele>401.20001220703</ele>
        <time>2021-03-06T14:13:48.000Z</time>
      </trkpt>
      <trkpt lat="45.6975" lon="4.30144">
        <ele>400</ele>
        <time>2021-03-06T14:13:50.000Z</time>
      </trkpt>
      <trkpt lat="45.6978" lon="4.3013">
        <ele>398.39999389648</ele>
        <time>2021-03-06T14:13:53.000Z</time>
      </trkpt>
      <trkpt lat="45.69824" lon="4.30117">
        <ele>397.39999389648</ele>
        <time>2021-03-06T14:13:57.000Z</time>
      </trkpt>
      <trkpt lat="45.69845" lon="4.30113">
        <ele>397</ele>
        <time>2021-03-06T14:13:59.000Z</time>
      </trkpt>
      <trkpt lat="45.69889" lon="4.30111">
        <ele>396.39999389648</ele>
        <time>2021-03-06T14:14:03.000Z</time>
      </trkpt>
      <trkpt lat="45.69917" lon="4.30111">
        <ele>396.20001220703</ele>
        <time>2021-03-06T14:14:06.000Z</time>
      </trkpt>
      <trkpt lat="45.69968" lon="4.30111">
        <ele>395.20001220703</ele>
        <time>2021-03-06T14:14:11.000Z</time>
      </trkpt>
      <trkpt lat="45.69985" lon="4.30111">
        <ele>395</ele>
        <time>2021-03-06T14:14:13.000Z</time>
      </trkpt>
      <trkpt lat="45.70045" lon="4.30111">
        <ele>394</ele>
        <time>2021-03-06T14:14:19.000Z</time>
      </trkpt>
      <trkpt lat="45.70058" lon="4.3011">
        <ele>393.39999389648</ele>
        <time>2021-03-06T14:14:20.000Z</time>
      </trkpt>
      <trkpt lat="45.70079" lon="4.30111">
        <ele>392.79998779297</ele>
        <time>2021-03-06T14:14:22.000Z</time>
      </trkpt>
      <trkpt lat="45.701" lon="4.30111">
        <ele>392.20001220703</ele>
        <time>2021-03-06T14:14:24.000Z</time>
      </trkpt>
      <trkpt lat="45.70111" lon="4.30111">
        <ele>391.79998779297</ele>
        <time>2021-03-06T14:14:25.000Z</time>
      </trkpt>
      <trkpt lat="45.70156" lon="4.3011">
        <ele>390.79998779297</ele>
        <time>2021-03-06T14:14:29.000Z</time>
      </trkpt>
      <trkpt lat="45.70179" lon="4.30109">
        <ele>389.60000610352</ele>
        <time>2021-03-06T14:14:31.000Z</time>
      </trkpt>
      <trkpt lat="45.70188" lon="4.30108">
        <ele>388.79998779297</ele>
        <time>2021-03-06T14:14:32.000Z</time>
      </trkpt>
      <trkpt lat="45.70199" lon="4.30107">
        <ele>388.39999389648</ele>
        <time>2021-03-06T14:14:33.000Z</time>
      </trkpt>
      <trkpt lat="45.70245" lon="4.30103">
        <ele>387.39999389648</ele>
        <time>2021-03-06T14:14:37.000Z</time>
      </trkpt>
      <trkpt lat="45.70288" lon="4.301">
        <ele>386.60000610352</ele>
        <time>2021-03-06T14:14:41.000Z</time>
      </trkpt>
      <trkpt lat="45.70345" lon="4.30096">
        <ele>386.39999389648</ele>
        <time>2021-03-06T14:14:47.000Z</time>
      </trkpt>
      <trkpt lat="45.70376" lon="4.30094">
        <ele>386.20001220703</ele>
        <time>2021-03-06T14:14:50.000Z</time>
      </trkpt>
      <trkpt lat="45.70424" lon="4.3009">
        <ele>385.60000610352</ele>
        <time>2021-03-06T14:14:55.000Z</time>
      </trkpt>
      <trkpt lat="45.70482" lon="4.30082">
        <ele>385</ele>
        <time>2021-03-06T14:15:01.000Z</time>
      </trkpt>
      <trkpt lat="45.70499" lon="4.30077">
        <ele>384.60000610352</ele>
        <time>2021-03-06T14:15:03.000Z</time>
      </trkpt>
      <trkpt lat="45.7054" lon="4.30063">
        <ele>384</ele>
        <time>2021-03-06T14:15:07.000Z</time>
      </trkpt>
      <trkpt lat="45.70597" lon="4.30042">
        <ele>383.20001220703</ele>
        <time>2021-03-06T14:15:13.000Z</time>
      </trkpt>
      <trkpt lat="45.70616" lon="4.30036">
        <ele>382.79998779297</ele>
        <time>2021-03-06T14:15:15.000Z</time>
      </trkpt>
      <trkpt lat="45.70664" lon="4.30019">
        <ele>381.79998779297</ele>
        <time>2021-03-06T14:15:20.000Z</time>
      </trkpt>
      <trkpt lat="45.70712" lon="4.30001">
        <ele>380.79998779297</ele>
        <time>2021-03-06T14:15:25.000Z</time>
      </trkpt>
      <trkpt lat="45.7072" lon="4.29998">
        <ele>380.60000610352</ele>
        <time>2021-03-06T14:15:26.000Z</time>
      </trkpt>
      <trkpt lat="45.70781" lon="4.29978">
        <ele>379.79998779297</ele>
        <time>2021-03-06T14:15:32.000Z</time>
      </trkpt>
      <trkpt lat="45.70791" lon="4.29975">
        <ele>379.79998779297</ele>
        <time>2021-03-06T14:15:33.000Z</time>
      </trkpt>
      <trkpt lat="45.70821" lon="4.29964">
        <ele>379.39999389648</ele>
        <time>2021-03-06T14:15:36.000Z</time>
      </trkpt>
      <trkpt lat="45.70877" lon="4.29945">
        <ele>378.60000610352</ele>
        <time>2021-03-06T14:15:42.000Z</time>
      </trkpt>
      <trkpt lat="45.70897" lon="4.29939">
        <ele>378.60000610352</ele>
        <time>2021-03-06T14:15:44.000Z</time>
      </trkpt>
      <trkpt lat="45.70951" lon="4.29919">
        <ele>379.20001220703</ele>
        <time>2021-03-06T14:15:50.000Z</time>
      </trkpt>
      <trkpt lat="45.70976" lon="4.29909">
        <ele>379.39999389648</ele>
        <time>2021-03-06T14:15:53.000Z</time>
      </trkpt>
      <trkpt lat="45.71034" lon="4.29886">
        <ele>379.79998779297</ele>
        <time>2021-03-06T14:16:00.000Z</time>
      </trkpt>
      <trkpt lat="45.71083" lon="4.29868">
        <ele>380.60000610352</ele>
        <time>2021-03-06T14:16:06.000Z</time>
      </trkpt>
      <trkpt lat="45.71124" lon="4.29854">
        <ele>381</ele>
        <time>2021-03-06T14:16:11.000Z</time>
      </trkpt>
      <trkpt lat="45.71179" lon="4.29834">
        <ele>381</ele>
        <time>2021-03-06T14:16:18.000Z</time>
      </trkpt>
      <trkpt lat="45.71195" lon="4.29827">
        <ele>381.39999389648</ele>
        <time>2021-03-06T14:16:20.000Z</time>
      </trkpt>
      <trkpt lat="45.71201" lon="4.29824">
        <ele>381.60000610352</ele>
        <time>2021-03-06T14:16:21.000Z</time>
      </trkpt>
      <trkpt lat="45.71258" lon="4.29792">
        <ele>381.79998779297</ele>
        <time>2021-03-06T14:16:28.000Z</time>
      </trkpt>
      <trkpt lat="45.71266" lon="4.29787">
        <ele>381.79998779297</ele>
        <time>2021-03-06T14:16:29.000Z</time>
      </trkpt>
      <trkpt lat="45.71322" lon="4.2975">
        <ele>382.20001220703</ele>
        <time>2021-03-06T14:16:36.000Z</time>
      </trkpt>
      <trkpt lat="45.71377" lon="4.29715">
        <ele>382.39999389648</ele>
        <time>2021-03-06T14:16:43.000Z</time>
      </trkpt>
      <trkpt lat="45.71401" lon="4.29701">
        <ele>382.39999389648</ele>
        <time>2021-03-06T14:16:46.000Z</time>
      </trkpt>
      <trkpt lat="45.71442" lon="4.29682">
        <ele>382.79998779297</ele>
        <time>2021-03-06T14:16:51.000Z</time>
      </trkpt>
      <trkpt lat="45.71472" lon="4.29668">
        <ele>383.60000610352</ele>
        <time>2021-03-06T14:16:55.000Z</time>
      </trkpt>
      <trkpt lat="45.7153" lon="4.29642">
        <ele>383.20001220703</ele>
        <time>2021-03-06T14:17:02.000Z</time>
      </trkpt>
      <trkpt lat="45.71545" lon="4.29635">
        <ele>383</ele>
        <time>2021-03-06T14:17:04.000Z</time>
      </trkpt>
      <trkpt lat="45.71604" lon="4.29607">
        <ele>383.20001220703</ele>
        <time>2021-03-06T14:17:11.000Z</time>
      </trkpt>
      <trkpt lat="45.71619" lon="4.296">
        <ele>383.39999389648</ele>
        <time>2021-03-06T14:17:13.000Z</time>
      </trkpt>
      <trkpt lat="45.71669" lon="4.29577">
        <ele>383.79998779297</ele>
        <time>2021-03-06T14:17:19.000Z</time>
      </trkpt>
      <trkpt lat="45.71691" lon="4.29567">
        <ele>384.20001220703</ele>
        <time>2021-03-06T14:17:22.000Z</time>
      </trkpt>
      <trkpt lat="45.71749" lon="4.2954">
        <ele>384.60000610352</ele>
        <time>2021-03-06T14:17:29.000Z</time>
      </trkpt>
      <trkpt lat="45.71765" lon="4.29532">
        <ele>384.39999389648</ele>
        <time>2021-03-06T14:17:31.000Z</time>
      </trkpt>
      <trkpt lat="45.71823" lon="4.29504">
        <ele>384.79998779297</ele>
        <time>2021-03-06T14:17:38.000Z</time>
      </trkpt>
      <trkpt lat="45.71832" lon="4.295">
        <ele>384.79998779297</ele>
        <time>2021-03-06T14:17:39.000Z</time>
      </trkpt>
      <trkpt lat="45.71889" lon="4.29474">
        <ele>385</ele>
        <time>2021-03-06T14:17:46.000Z</time>
      </trkpt>
      <trkpt lat="45.71946" lon="4.29447">
        <ele>385.39999389648</ele>
        <time>2021-03-06T14:17:53.000Z</time>
      </trkpt>
      <trkpt lat="45.71954" lon="4.29443">
        <ele>385.60000610352</ele>
        <time>2021-03-06T14:17:54.000Z</time>
      </trkpt>
      <trkpt lat="45.71969" lon="4.29435">
        <ele>386</ele>
        <time>2021-03-06T14:17:56.000Z</time>
      </trkpt>
      <trkpt lat="45.72023" lon="4.29411">
        <ele>386.60000610352</ele>
        <time>2021-03-06T14:18:03.000Z</time>
      </trkpt>
      <trkpt lat="45.72054" lon="4.29396">
        <ele>387</ele>
        <time>2021-03-06T14:18:07.000Z</time>
      </trkpt>
      <trkpt lat="45.7211" lon="4.29369">
        <ele>386.79998779297</ele>
        <time>2021-03-06T14:18:14.000Z</time>
      </trkpt>
      <trkpt lat="45.72167" lon="4.29342">
        <ele>386.79998779297</ele>
        <time>2021-03-06T14:18:21.000Z</time>
      </trkpt>
      <trkpt lat="45.72191" lon="4.29331">
        <ele>386.79998779297</ele>
        <time>2021-03-06T14:18:24.000Z</time>
      </trkpt>
      <trkpt lat="45.72247" lon="4.29305">
        <ele>387.39999389648</ele>
        <time>2021-03-06T14:18:31.000Z</time>
      </trkpt>
      <trkpt lat="45.72279" lon="4.29291">
        <ele>387.79998779297</ele>
        <time>2021-03-06T14:18:35.000Z</time>
      </trkpt>
      <trkpt lat="45.72334" lon="4.29265">
        <ele>388</ele>
        <time>2021-03-06T14:18:42.000Z</time>
      </trkpt>
      <trkpt lat="45.72342" lon="4.29261">
        <ele>388</ele>
        <time>2021-03-06T14:18:43.000Z</time>
      </trkpt>
      <trkpt lat="45.72397" lon="4.29235">
        <ele>389</ele>
        <time>2021-03-06T14:18:50.000Z</time>
      </trkpt>
      <trkpt lat="45.72405" lon="4.29232">
        <ele>389</ele>
        <time>2021-03-06T14:18:51.000Z</time>
      </trkpt>
      <trkpt lat="45.72413" lon="4.29228">
        <ele>389.20001220703</ele>
        <time>2021-03-06T14:18:52.000Z</time>
      </trkpt>
      <trkpt lat="45.7247" lon="4.29202">
        <ele>389.79998779297</ele>
        <time>2021-03-06T14:18:59.000Z</time>
      </trkpt>
      <trkpt lat="45.72494" lon="4.29191">
        <ele>389.79998779297</ele>
        <time>2021-03-06T14:19:02.000Z</time>
      </trkpt>
      <trkpt lat="45.72526" lon="4.29175">
        <ele>389.79998779297</ele>
        <time>2021-03-06T14:19:06.000Z</time>
      </trkpt>
      <trkpt lat="45.72566" lon="4.29156">
        <ele>390</ele>
        <time>2021-03-06T14:19:11.000Z</time>
      </trkpt>
      <trkpt lat="45.72623" lon="4.29129">
        <ele>390</ele>
        <time>2021-03-06T14:19:18.000Z</time>
      </trkpt>
      <trkpt lat="45.72657" lon="4.29112">
        <ele>390.20001220703</ele>
        <time>2021-03-06T14:19:22.000Z</time>
      </trkpt>
      <trkpt lat="45.72672" lon="4.29105">
        <ele>390.20001220703</ele>
        <time>2021-03-06T14:19:24.000Z</time>
      </trkpt>
      <trkpt lat="45.72728" lon="4.29077">
        <ele>390</ele>
        <time>2021-03-06T14:19:31.000Z</time>
      </trkpt>
      <trkpt lat="45.72737" lon="4.29073">
        <ele>390</ele>
        <time>2021-03-06T14:19:32.000Z</time>
      </trkpt>
      <trkpt lat="45.72792" lon="4.29048">
        <ele>390</ele>
        <time>2021-03-06T14:19:39.000Z</time>
      </trkpt>
      <trkpt lat="45.7281" lon="4.2904">
        <ele>390</ele>
        <time>2021-03-06T14:19:41.000Z</time>
      </trkpt>
      <trkpt lat="45.72867" lon="4.29014">
        <ele>389.20001220703</ele>
        <time>2021-03-06T14:19:48.000Z</time>
      </trkpt>
      <trkpt lat="45.72876" lon="4.2901">
        <ele>389.20001220703</ele>
        <time>2021-03-06T14:19:49.000Z</time>
      </trkpt>
      <trkpt lat="45.72935" lon="4.28981">
        <ele>389.39999389648</ele>
        <time>2021-03-06T14:19:56.000Z</time>
      </trkpt>
      <trkpt lat="45.7299" lon="4.28956">
        <ele>389.60000610352</ele>
        <time>2021-03-06T14:20:02.000Z</time>
      </trkpt>
      <trkpt lat="45.73005" lon="4.2895">
        <ele>389.60000610352</ele>
        <time>2021-03-06T14:20:04.000Z</time>
      </trkpt>
      <trkpt lat="45.73065" lon="4.28921">
        <ele>389.39999389648</ele>
        <time>2021-03-06T14:20:11.000Z</time>
      </trkpt>
      <trkpt lat="45.73072" lon="4.28918">
        <ele>389.39999389648</ele>
        <time>2021-03-06T14:20:12.000Z</time>
      </trkpt>
      <trkpt lat="45.73131" lon="4.2889">
        <ele>389.20001220703</ele>
        <time>2021-03-06T14:20:19.000Z</time>
      </trkpt>
      <trkpt lat="45.73139" lon="4.28886">
        <ele>389</ele>
        <time>2021-03-06T14:20:20.000Z</time>
      </trkpt>
      <trkpt lat="45.73146" lon="4.2888">
        <ele>388.79998779297</ele>
        <time>2021-03-06T14:20:21.000Z</time>
      </trkpt>
      <trkpt lat="45.73166" lon="4.2886">
        <ele>388.39999389648</ele>
        <time>2021-03-06T14:20:24.000Z</time>
      </trkpt>
      <trkpt lat="45.7318" lon="4.28846">
        <ele>387.79998779297</ele>
        <time>2021-03-06T14:20:26.000Z</time>
      </trkpt>
      <trkpt lat="45.73193" lon="4.28839">
        <ele>387.39999389648</ele>
        <time>2021-03-06T14:20:28.000Z</time>
      </trkpt>
      <trkpt lat="45.73205" lon="4.28841">
        <ele>387.20001220703</ele>
        <time>2021-03-06T14:20:30.000Z</time>
      </trkpt>
      <trkpt lat="45.73208" lon="4.28843">
        <ele>387.20001220703</ele>
        <time>2021-03-06T14:20:31.000Z</time>
      </trkpt>
      <trkpt lat="45.73213" lon="4.28845">
        <ele>387.20001220703</ele>
        <time>2021-03-06T14:20:32.000Z</time>
      </trkpt>
      <trkpt lat="45.73234" lon="4.28847">
        <ele>387</ele>
        <time>2021-03-06T14:20:35.000Z</time>
      </trkpt>
      <trkpt lat="45.73266" lon="4.28848">
        <ele>386.60000610352</ele>
        <time>2021-03-06T14:20:39.000Z</time>
      </trkpt>
      <trkpt lat="45.73274" lon="4.28848">
        <ele>386</ele>
        <time>2021-03-06T14:20:40.000Z</time>
      </trkpt>
      <trkpt lat="45.73283" lon="4.28848">
        <ele>385.60000610352</ele>
        <time>2021-03-06T14:20:41.000Z</time>
      </trkpt>
      <trkpt lat="45.73304" lon="4.28847">
        <ele>384.60000610352</ele>
        <time>2021-03-06T14:20:43.000Z</time>
      </trkpt>
      <trkpt lat="45.73315" lon="4.28847">
        <ele>384</ele>
        <time>2021-03-06T14:20:44.000Z</time>
      </trkpt>
      <trkpt lat="45.73323" lon="4.28846">
        <ele>383.20001220703</ele>
        <time>2021-03-06T14:20:45.000Z</time>
      </trkpt>
      <trkpt lat="45.73336" lon="4.28845">
        <ele>382.20001220703</ele>
        <time>2021-03-06T14:20:46.000Z</time>
      </trkpt>
      <trkpt lat="45.73347" lon="4.28844">
        <ele>381.39999389648</ele>
        <time>2021-03-06T14:20:47.000Z</time>
      </trkpt>
      <trkpt lat="45.73367" lon="4.28843">
        <ele>380</ele>
        <time>2021-03-06T14:20:49.000Z</time>
      </trkpt>
      <trkpt lat="45.73394" lon="4.28841">
        <ele>378.20001220703</ele>
        <time>2021-03-06T14:20:51.000Z</time>
      </trkpt>
      <trkpt lat="45.73406" lon="4.28841">
        <ele>377.60000610352</ele>
        <time>2021-03-06T14:20:52.000Z</time>
      </trkpt>
      <trkpt lat="45.73419" lon="4.2884">
        <ele>376.60000610352</ele>
        <time>2021-03-06T14:20:53.000Z</time>
      </trkpt>
      <trkpt lat="45.73444" lon="4.28838">
        <ele>374.39999389648</ele>
        <time>2021-03-06T14:20:55.000Z</time>
      </trkpt>
      <trkpt lat="45.73457" lon="4.28838">
        <ele>373.20001220703</ele>
        <time>2021-03-06T14:20:56.000Z</time>
      </trkpt>
      <trkpt lat="45.73467" lon="4.28837">
        <ele>372.20001220703</ele>
        <time>2021-03-06T14:20:57.000Z</time>
      </trkpt>
      <trkpt lat="45.73493" lon="4.28836">
        <ele>370.39999389648</ele>
        <time>2021-03-06T14:20:59.000Z</time>
      </trkpt>
      <trkpt lat="45.73508" lon="4.28835">
        <ele>369.79998779297</ele>
        <time>2021-03-06T14:21:00.000Z</time>
      </trkpt>
      <trkpt lat="45.73521" lon="4.28833">
        <ele>368.79998779297</ele>
        <time>2021-03-06T14:21:01.000Z</time>
      </trkpt>
      <trkpt lat="45.73544" lon="4.28829">
        <ele>367.20001220703</ele>
        <time>2021-03-06T14:21:03.000Z</time>
      </trkpt>
      <trkpt lat="45.73571" lon="4.28827">
        <ele>365.60000610352</ele>
        <time>2021-03-06T14:21:05.000Z</time>
      </trkpt>
      <trkpt lat="45.73593" lon="4.28828">
        <ele>364.39999389648</ele>
        <time>2021-03-06T14:21:07.000Z</time>
      </trkpt>
      <trkpt lat="45.73617" lon="4.28827">
        <ele>363.60000610352</ele>
        <time>2021-03-06T14:21:09.000Z</time>
      </trkpt>
      <trkpt lat="45.73626" lon="4.28826">
        <ele>363.20001220703</ele>
        <time>2021-03-06T14:21:10.000Z</time>
      </trkpt>
      <trkpt lat="45.73646" lon="4.28824">
        <ele>362.20001220703</ele>
        <time>2021-03-06T14:21:12.000Z</time>
      </trkpt>
      <trkpt lat="45.73664" lon="4.28823">
        <ele>361</ele>
        <time>2021-03-06T14:21:14.000Z</time>
      </trkpt>
      <trkpt lat="45.73676" lon="4.28823">
        <ele>359.60000610352</ele>
        <time>2021-03-06T14:21:16.000Z</time>
      </trkpt>
      <trkpt lat="45.73692" lon="4.28823">
        <ele>358.79998779297</ele>
        <time>2021-03-06T14:21:18.000Z</time>
      </trkpt>
      <trkpt lat="45.737" lon="4.28823">
        <ele>358.39999389648</ele>
        <time>2021-03-06T14:21:19.000Z</time>
      </trkpt>
      <trkpt lat="45.73733" lon="4.28828">
        <ele>358</ele>
        <time>2021-03-06T14:21:23.000Z</time>
      </trkpt>
      <trkpt lat="45.73748" lon="4.28833">
        <ele>358</ele>
        <time>2021-03-06T14:21:25.000Z</time>
      </trkpt>
      <trkpt lat="45.73765" lon="4.28844">
        <ele>358</ele>
        <time>2021-03-06T14:21:27.000Z</time>
      </trkpt>
      <trkpt lat="45.73784" lon="4.28857">
        <ele>358</ele>
        <time>2021-03-06T14:21:30.000Z</time>
      </trkpt>
      <trkpt lat="45.73793" lon="4.2886">
        <ele>358</ele>
        <time>2021-03-06T14:21:31.000Z</time>
      </trkpt>
      <trkpt lat="45.738" lon="4.28861">
        <ele>357.79998779297</ele>
        <time>2021-03-06T14:21:32.000Z</time>
      </trkpt>
      <trkpt lat="45.73816" lon="4.28857">
        <ele>357.39999389648</ele>
        <time>2021-03-06T14:21:34.000Z</time>
      </trkpt>
      <trkpt lat="45.73855" lon="4.28835">
        <ele>356.60000610352</ele>
        <time>2021-03-06T14:21:39.000Z</time>
      </trkpt>
      <trkpt lat="45.73889" lon="4.28815">
        <ele>356.60000610352</ele>
        <time>2021-03-06T14:21:43.000Z</time>
      </trkpt>
      <trkpt lat="45.73905" lon="4.28809">
        <ele>357</ele>
        <time>2021-03-06T14:21:45.000Z</time>
      </trkpt>
      <trkpt lat="45.73912" lon="4.28806">
        <ele>357.39999389648</ele>
        <time>2021-03-06T14:21:46.000Z</time>
      </trkpt>
      <trkpt lat="45.73924" lon="4.28794">
        <ele>358.20001220703</ele>
        <time>2021-03-06T14:21:48.000Z</time>
      </trkpt>
      <trkpt lat="45.73933" lon="4.28774">
        <ele>358.60000610352</ele>
        <time>2021-03-06T14:21:50.000Z</time>
      </trkpt>
      <trkpt lat="45.73936" lon="4.28763">
        <ele>359</ele>
        <time>2021-03-06T14:21:51.000Z</time>
      </trkpt>
      <trkpt lat="45.73944" lon="4.2873">
        <ele>359.79998779297</ele>
        <time>2021-03-06T14:21:54.000Z</time>
      </trkpt>
      <trkpt lat="45.73952" lon="4.28709">
        <ele>360.39999389648</ele>
        <time>2021-03-06T14:21:56.000Z</time>
      </trkpt>
      <trkpt lat="45.73956" lon="4.28701">
        <ele>360.60000610352</ele>
        <time>2021-03-06T14:21:57.000Z</time>
      </trkpt>
      <trkpt lat="45.73968" lon="4.28683">
        <ele>361.20001220703</ele>
        <time>2021-03-06T14:21:59.000Z</time>
      </trkpt>
      <trkpt lat="45.7398" lon="4.28673">
        <ele>361.79998779297</ele>
        <time>2021-03-06T14:22:01.000Z</time>
      </trkpt>
      <trkpt lat="45.73987" lon="4.28668">
        <ele>362.20001220703</ele>
        <time>2021-03-06T14:22:02.000Z</time>
      </trkpt>
      <trkpt lat="45.73999" lon="4.2866">
        <ele>363.20001220703</ele>
        <time>2021-03-06T14:22:04.000Z</time>
      </trkpt>
      <trkpt lat="45.74011" lon="4.28653">
        <ele>364.60000610352</ele>
        <time>2021-03-06T14:22:06.000Z</time>
      </trkpt>
      <trkpt lat="45.74027" lon="4.28643">
        <ele>365.79998779297</ele>
        <time>2021-03-06T14:22:09.000Z</time>
      </trkpt>
      <trkpt lat="45.74035" lon="4.28638">
        <ele>366.60000610352</ele>
        <time>2021-03-06T14:22:11.000Z</time>
      </trkpt>
      <trkpt lat="45.74041" lon="4.28634">
        <ele>367</ele>
        <time>2021-03-06T14:22:12.000Z</time>
      </trkpt>
      <trkpt lat="45.74045" lon="4.28631">
        <ele>367.39999389648</ele>
        <time>2021-03-06T14:22:13.000Z</time>
      </trkpt>
      <trkpt lat="45.74055" lon="4.28629">
        <ele>368</ele>
        <time>2021-03-06T14:22:15.000Z</time>
      </trkpt>
      <trkpt lat="45.74059" lon="4.28629">
        <ele>368.39999389648</ele>
        <time>2021-03-06T14:22:16.000Z</time>
      </trkpt>
      <trkpt lat="45.74064" lon="4.28628">
        <ele>368.79998779297</ele>
        <time>2021-03-06T14:22:17.000Z</time>
      </trkpt>
      <trkpt lat="45.74068" lon="4.28627">
        <ele>369.20001220703</ele>
        <time>2021-03-06T14:22:19.000Z</time>
      </trkpt>
      <trkpt lat="45.74068" lon="4.28626">
        <ele>369.20001220703</ele>
        <time>2021-03-06T14:22:20.000Z</time>
      </trkpt>
      <trkpt lat="45.74069" lon="4.28627">
        <ele>369.39999389648</ele>
        <time>2021-03-06T14:22:23.000Z</time>
      </trkpt>
      <trkpt lat="45.74071" lon="4.28628">
        <ele>369.39999389648</ele>
        <time>2021-03-06T14:22:24.000Z</time>
      </trkpt>
      <trkpt lat="45.74072" lon="4.28627">
        <ele>369.39999389648</ele>
        <time>2021-03-06T14:22:25.000Z</time>
      </trkpt>
      <trkpt lat="45.74082" lon="4.28615">
        <ele>369.60000610352</ele>
        <time>2021-03-06T14:22:29.000Z</time>
      </trkpt>
      <trkpt lat="45.74088" lon="4.28589">
        <ele>369.39999389648</ele>
        <time>2021-03-06T14:22:32.000Z</time>
      </trkpt>
      <trkpt lat="45.74097" lon="4.28532">
        <ele>368.20001220703</ele>
        <time>2021-03-06T14:22:37.000Z</time>
      </trkpt>
      <trkpt lat="45.74102" lon="4.28492">
        <ele>367</ele>
        <time>2021-03-06T14:22:40.000Z</time>
      </trkpt>
      <trkpt lat="45.74106" lon="4.28463">
        <ele>366.39999389648</ele>
        <time>2021-03-06T14:22:42.000Z</time>
      </trkpt>
      <trkpt lat="45.74108" lon="4.28451">
        <ele>366</ele>
        <time>2021-03-06T14:22:43.000Z</time>
      </trkpt>
      <trkpt lat="45.74114" lon="4.284">
        <ele>364.79998779297</ele>
        <time>2021-03-06T14:22:46.000Z</time>
      </trkpt>
      <trkpt lat="45.74119" lon="4.2837">
        <ele>364</ele>
        <time>2021-03-06T14:22:48.000Z</time>
      </trkpt>
      <trkpt lat="45.74121" lon="4.28351">
        <ele>363.60000610352</ele>
        <time>2021-03-06T14:22:49.000Z</time>
      </trkpt>
      <trkpt lat="45.7413" lon="4.28288">
        <ele>362</ele>
        <time>2021-03-06T14:22:53.000Z</time>
      </trkpt>
      <trkpt lat="45.74136" lon="4.28238">
        <ele>360.79998779297</ele>
        <time>2021-03-06T14:22:56.000Z</time>
      </trkpt>
      <trkpt lat="45.7414" lon="4.28205">
        <ele>360.20001220703</ele>
        <time>2021-03-06T14:22:58.000Z</time>
      </trkpt>
      <trkpt lat="45.74145" lon="4.28173">
        <ele>359.60000610352</ele>
        <time>2021-03-06T14:23:00.000Z</time>
      </trkpt>
      <trkpt lat="45.74153" lon="4.28124">
        <ele>358.39999389648</ele>
        <time>2021-03-06T14:23:03.000Z</time>
      </trkpt>
      <trkpt lat="45.74157" lon="4.28108">
        <ele>357.79998779297</ele>
        <time>2021-03-06T14:23:04.000Z</time>
      </trkpt>
      <trkpt lat="45.74165" lon="4.28078">
        <ele>357.20001220703</ele>
        <time>2021-03-06T14:23:06.000Z</time>
      </trkpt>
      <trkpt lat="45.74184" lon="4.28019">
        <ele>356.39999389648</ele>
        <time>2021-03-06T14:23:10.000Z</time>
      </trkpt>
      <trkpt lat="45.74188" lon="4.28005">
        <ele>356.20001220703</ele>
        <time>2021-03-06T14:23:11.000Z</time>
      </trkpt>
      <trkpt lat="45.74214" lon="4.27933">
        <ele>355</ele>
        <time>2021-03-06T14:23:16.000Z</time>
      </trkpt>
      <trkpt lat="45.74219" lon="4.2792">
        <ele>355</ele>
        <time>2021-03-06T14:23:17.000Z</time>
      </trkpt>
      <trkpt lat="45.74237" lon="4.27851">
        <ele>354.60000610352</ele>
        <time>2021-03-06T14:23:22.000Z</time>
      </trkpt>
      <trkpt lat="45.74251" lon="4.27796">
        <ele>354.20001220703</ele>
        <time>2021-03-06T14:23:26.000Z</time>
      </trkpt>
      <trkpt lat="45.7426" lon="4.27773">
        <ele>354</ele>
        <time>2021-03-06T14:23:28.000Z</time>
      </trkpt>
      <trkpt lat="45.74267" lon="4.27761">
        <ele>354</ele>
        <time>2021-03-06T14:23:29.000Z</time>
      </trkpt>
      <trkpt lat="45.74283" lon="4.27738">
        <ele>354</ele>
        <time>2021-03-06T14:23:31.000Z</time>
      </trkpt>
      <trkpt lat="45.74291" lon="4.27729">
        <ele>354</ele>
        <time>2021-03-06T14:23:32.000Z</time>
      </trkpt>
      <trkpt lat="45.74341" lon="4.27685">
        <ele>354</ele>
        <time>2021-03-06T14:23:38.000Z</time>
      </trkpt>
      <trkpt lat="45.7435" lon="4.27678">
        <ele>354</ele>
        <time>2021-03-06T14:23:39.000Z</time>
      </trkpt>
      <trkpt lat="45.74397" lon="4.2764">
        <ele>352.79998779297</ele>
        <time>2021-03-06T14:23:44.000Z</time>
      </trkpt>
      <trkpt lat="45.74434" lon="4.2761">
        <ele>352.20001220703</ele>
        <time>2021-03-06T14:23:48.000Z</time>
      </trkpt>
      <trkpt lat="45.74452" lon="4.27595">
        <ele>351.60000610352</ele>
        <time>2021-03-06T14:23:50.000Z</time>
      </trkpt>
      <trkpt lat="45.7448" lon="4.27573">
        <ele>350.60000610352</ele>
        <time>2021-03-06T14:23:53.000Z</time>
      </trkpt>
      <trkpt lat="45.74507" lon="4.27552">
        <ele>349.39999389648</ele>
        <time>2021-03-06T14:23:56.000Z</time>
      </trkpt>
      <trkpt lat="45.74528" lon="4.27537">
        <ele>349.20001220703</ele>
        <time>2021-03-06T14:23:58.000Z</time>
      </trkpt>
      <trkpt lat="45.74583" lon="4.27501">
        <ele>348.79998779297</ele>
        <time>2021-03-06T14:24:04.000Z</time>
      </trkpt>
      <trkpt lat="45.74601" lon="4.27489">
        <ele>348.39999389648</ele>
        <time>2021-03-06T14:24:06.000Z</time>
      </trkpt>
      <trkpt lat="45.74651" lon="4.27457">
        <ele>348.20001220703</ele>
        <time>2021-03-06T14:24:12.000Z</time>
      </trkpt>
      <trkpt lat="45.74666" lon="4.27447">
        <ele>348.39999389648</ele>
        <time>2021-03-06T14:24:14.000Z</time>
      </trkpt>
      <trkpt lat="45.74722" lon="4.27411">
        <ele>349.20001220703</ele>
        <time>2021-03-06T14:24:21.000Z</time>
      </trkpt>
      <trkpt lat="45.74728" lon="4.27407">
        <ele>349.39999389648</ele>
        <time>2021-03-06T14:24:22.000Z</time>
      </trkpt>
      <trkpt lat="45.74735" lon="4.27402">
        <ele>349.60000610352</ele>
        <time>2021-03-06T14:24:23.000Z</time>
      </trkpt>
      <trkpt lat="45.74771" lon="4.27379">
        <ele>350.60000610352</ele>
        <time>2021-03-06T14:24:28.000Z</time>
      </trkpt>
      <trkpt lat="45.74786" lon="4.27369">
        <ele>351.20001220703</ele>
        <time>2021-03-06T14:24:30.000Z</time>
      </trkpt>
      <trkpt lat="45.74799" lon="4.27361">
        <ele>351.79998779297</ele>
        <time>2021-03-06T14:24:32.000Z</time>
      </trkpt>
      <trkpt lat="45.74833" lon="4.27338">
        <ele>353</ele>
        <time>2021-03-06T14:24:37.000Z</time>
      </trkpt>
      <trkpt lat="45.74855" lon="4.27324">
        <ele>353.60000610352</ele>
        <time>2021-03-06T14:24:40.000Z</time>
      </trkpt>
      <trkpt lat="45.7486" lon="4.2732">
        <ele>354.20001220703</ele>
        <time>2021-03-06T14:24:41.000Z</time>
      </trkpt>
      <trkpt lat="45.74894" lon="4.27298">
        <ele>355.20001220703</ele>
        <time>2021-03-06T14:24:46.000Z</time>
      </trkpt>
      <trkpt lat="45.74931" lon="4.27274">
        <ele>356.39999389648</ele>
        <time>2021-03-06T14:24:51.000Z</time>
      </trkpt>
      <trkpt lat="45.74962" lon="4.27251">
        <ele>357.39999389648</ele>
        <time>2021-03-06T14:24:56.000Z</time>
      </trkpt>
      <trkpt lat="45.75006" lon="4.2721">
        <ele>358.20001220703</ele>
        <time>2021-03-06T14:25:03.000Z</time>
      </trkpt>
      <trkpt lat="45.75012" lon="4.27204">
        <ele>358.39999389648</ele>
        <time>2021-03-06T14:25:04.000Z</time>
      </trkpt>
      <trkpt lat="45.75054" lon="4.27158">
        <ele>359.39999389648</ele>
        <time>2021-03-06T14:25:11.000Z</time>
      </trkpt>
      <trkpt lat="45.75065" lon="4.27147">
        <ele>359.60000610352</ele>
        <time>2021-03-06T14:25:13.000Z</time>
      </trkpt>
      <trkpt lat="45.75079" lon="4.27135">
        <ele>360</ele>
        <time>2021-03-06T14:25:15.000Z</time>
      </trkpt>
      <trkpt lat="45.75086" lon="4.2713">
        <ele>360.60000610352</ele>
        <time>2021-03-06T14:25:16.000Z</time>
      </trkpt>
      <trkpt lat="45.75111" lon="4.27114">
        <ele>361.60000610352</ele>
        <time>2021-03-06T14:25:20.000Z</time>
      </trkpt>
      <trkpt lat="45.75151" lon="4.27098">
        <ele>362.79998779297</ele>
        <time>2021-03-06T14:25:26.000Z</time>
      </trkpt>
      <trkpt lat="45.75167" lon="4.27093">
        <ele>363</ele>
        <time>2021-03-06T14:25:28.000Z</time>
      </trkpt>
      <trkpt lat="45.75204" lon="4.27085">
        <ele>363.79998779297</ele>
        <time>2021-03-06T14:25:33.000Z</time>
      </trkpt>
      <trkpt lat="45.75217" lon="4.27081">
        <ele>363.79998779297</ele>
        <time>2021-03-06T14:25:35.000Z</time>
      </trkpt>
      <trkpt lat="45.75271" lon="4.27064">
        <ele>364.79998779297</ele>
        <time>2021-03-06T14:25:42.000Z</time>
      </trkpt>
      <trkpt lat="45.75333" lon="4.27042">
        <ele>365.39999389648</ele>
        <time>2021-03-06T14:25:50.000Z</time>
      </trkpt>
      <trkpt lat="45.75364" lon="4.27032">
        <ele>366</ele>
        <time>2021-03-06T14:25:54.000Z</time>
      </trkpt>
      <trkpt lat="45.7541" lon="4.27015">
        <ele>367</ele>
        <time>2021-03-06T14:26:00.000Z</time>
      </trkpt>
      <trkpt lat="45.75446" lon="4.27002">
        <ele>368</ele>
        <time>2021-03-06T14:26:05.000Z</time>
      </trkpt>
      <trkpt lat="45.75466" lon="4.26995">
        <ele>368.79998779297</ele>
        <time>2021-03-06T14:26:08.000Z</time>
      </trkpt>
      <trkpt lat="45.75493" lon="4.26985">
        <ele>369.20001220703</ele>
        <time>2021-03-06T14:26:12.000Z</time>
      </trkpt>
      <trkpt lat="45.75524" lon="4.26974">
        <ele>369.79998779297</ele>
        <time>2021-03-06T14:26:17.000Z</time>
      </trkpt>
      <trkpt lat="45.75538" lon="4.2697">
        <ele>370.39999389648</ele>
        <time>2021-03-06T14:26:19.000Z</time>
      </trkpt>
      <trkpt lat="45.75568" lon="4.26961">
        <ele>371.39999389648</ele>
        <time>2021-03-06T14:26:24.000Z</time>
      </trkpt>
      <trkpt lat="45.75574" lon="4.26959">
        <ele>371.60000610352</ele>
        <time>2021-03-06T14:26:25.000Z</time>
      </trkpt>
      <trkpt lat="45.75599" lon="4.26954">
        <ele>372.39999389648</ele>
        <time>2021-03-06T14:26:29.000Z</time>
      </trkpt>
      <trkpt lat="45.75631" lon="4.2695">
        <ele>373.60000610352</ele>
        <time>2021-03-06T14:26:34.000Z</time>
      </trkpt>
      <trkpt lat="45.75662" lon="4.26947">
        <ele>374.79998779297</ele>
        <time>2021-03-06T14:26:39.000Z</time>
      </trkpt>
      <trkpt lat="45.75673" lon="4.26946">
        <ele>375</ele>
        <time>2021-03-06T14:26:41.000Z</time>
      </trkpt>
      <trkpt lat="45.75705" lon="4.2694">
        <ele>376</ele>
        <time>2021-03-06T14:26:46.000Z</time>
      </trkpt>
      <trkpt lat="45.75724" lon="4.26933">
        <ele>376.39999389648</ele>
        <time>2021-03-06T14:26:49.000Z</time>
      </trkpt>
      <trkpt lat="45.75741" lon="4.26926">
        <ele>377</ele>
        <time>2021-03-06T14:26:52.000Z</time>
      </trkpt>
      <trkpt lat="45.7576" lon="4.26919">
        <ele>377.60000610352</ele>
        <time>2021-03-06T14:26:55.000Z</time>
      </trkpt>
      <trkpt lat="45.75778" lon="4.2691">
        <ele>378</ele>
        <time>2021-03-06T14:26:58.000Z</time>
      </trkpt>
      <trkpt lat="45.75816" lon="4.26894">
        <ele>379.20001220703</ele>
        <time>2021-03-06T14:27:04.000Z</time>
      </trkpt>
      <trkpt lat="45.75842" lon="4.26883">
        <ele>380</ele>
        <time>2021-03-06T14:27:08.000Z</time>
      </trkpt>
      <trkpt lat="45.75849" lon="4.2688">
        <ele>380.20001220703</ele>
        <time>2021-03-06T14:27:09.000Z</time>
      </trkpt>
      <trkpt lat="45.75895" lon="4.26861">
        <ele>381.39999389648</ele>
        <time>2021-03-06T14:27:16.000Z</time>
      </trkpt>
      <trkpt lat="45.75929" lon="4.26847">
        <ele>382.39999389648</ele>
        <time>2021-03-06T14:27:21.000Z</time>
      </trkpt>
      <trkpt lat="45.75949" lon="4.26839">
        <ele>382.79998779297</ele>
        <time>2021-03-06T14:27:24.000Z</time>
      </trkpt>
      <trkpt lat="45.75975" lon="4.26829">
        <ele>383.39999389648</ele>
        <time>2021-03-06T14:27:28.000Z</time>
      </trkpt>
      <trkpt lat="45.75995" lon="4.26824">
        <ele>383.79998779297</ele>
        <time>2021-03-06T14:27:31.000Z</time>
      </trkpt>
      <trkpt lat="45.76015" lon="4.26822">
        <ele>384.60000610352</ele>
        <time>2021-03-06T14:27:34.000Z</time>
      </trkpt>
      <trkpt lat="45.76035" lon="4.26822">
        <ele>385.39999389648</ele>
        <time>2021-03-06T14:27:37.000Z</time>
      </trkpt>
      <trkpt lat="45.76041" lon="4.26823">
        <ele>385.79998779297</ele>
        <time>2021-03-06T14:27:38.000Z</time>
      </trkpt>
      <trkpt lat="45.76047" lon="4.26824">
        <ele>386</ele>
        <time>2021-03-06T14:27:39.000Z</time>
      </trkpt>
      <trkpt lat="45.76059" lon="4.26825">
        <ele>386.60000610352</ele>
        <time>2021-03-06T14:27:41.000Z</time>
      </trkpt>
      <trkpt lat="45.76064" lon="4.26825">
        <ele>386.79998779297</ele>
        <time>2021-03-06T14:27:42.000Z</time>
      </trkpt>
      <trkpt lat="45.76089" lon="4.26828">
        <ele>388.20001220703</ele>
        <time>2021-03-06T14:27:46.000Z</time>
      </trkpt>
      <trkpt lat="45.76106" lon="4.26831">
        <ele>388.79998779297</ele>
        <time>2021-03-06T14:27:49.000Z</time>
      </trkpt>
      <trkpt lat="45.76117" lon="4.26832">
        <ele>389.39999389648</ele>
        <time>2021-03-06T14:27:51.000Z</time>
      </trkpt>
      <trkpt lat="45.76134" lon="4.26831">
        <ele>390.39999389648</ele>
        <time>2021-03-06T14:27:54.000Z</time>
      </trkpt>
      <trkpt lat="45.7614" lon="4.26831">
        <ele>390.79998779297</ele>
        <time>2021-03-06T14:27:55.000Z</time>
      </trkpt>
      <trkpt lat="45.76157" lon="4.26827">
        <ele>391.60000610352</ele>
        <time>2021-03-06T14:27:58.000Z</time>
      </trkpt>
      <trkpt lat="45.76181" lon="4.2682">
        <ele>392.39999389648</ele>
        <time>2021-03-06T14:28:02.000Z</time>
      </trkpt>
      <trkpt lat="45.76186" lon="4.26818">
        <ele>392.39999389648</ele>
        <time>2021-03-06T14:28:03.000Z</time>
      </trkpt>
      <trkpt lat="45.76198" lon="4.26812">
        <ele>392.79998779297</ele>
        <time>2021-03-06T14:28:05.000Z</time>
      </trkpt>
      <trkpt lat="45.7623" lon="4.26795">
        <ele>393.20001220703</ele>
        <time>2021-03-06T14:28:10.000Z</time>
      </trkpt>
      <trkpt lat="45.76272" lon="4.26774">
        <ele>393.20001220703</ele>
        <time>2021-03-06T14:28:16.000Z</time>
      </trkpt>
      <trkpt lat="45.76326" lon="4.26736">
        <ele>393.60000610352</ele>
        <time>2021-03-06T14:28:24.000Z</time>
      </trkpt>
      <trkpt lat="45.76332" lon="4.2673">
        <ele>393.79998779297</ele>
        <time>2021-03-06T14:28:25.000Z</time>
      </trkpt>
      <trkpt lat="45.76354" lon="4.26702">
        <ele>394.20001220703</ele>
        <time>2021-03-06T14:28:29.000Z</time>
      </trkpt>
      <trkpt lat="45.76382" lon="4.26668">
        <ele>395.20001220703</ele>
        <time>2021-03-06T14:28:34.000Z</time>
      </trkpt>
      <trkpt lat="45.76394" lon="4.26656">
        <ele>395.39999389648</ele>
        <time>2021-03-06T14:28:36.000Z</time>
      </trkpt>
      <trkpt lat="45.76439" lon="4.26613">
        <ele>396.20001220703</ele>
        <time>2021-03-06T14:28:43.000Z</time>
      </trkpt>
      <trkpt lat="45.76446" lon="4.26606">
        <ele>396.20001220703</ele>
        <time>2021-03-06T14:28:44.000Z</time>
      </trkpt>
      <trkpt lat="45.76471" lon="4.26575">
        <ele>396.39999389648</ele>
        <time>2021-03-06T14:28:48.000Z</time>
      </trkpt>
      <trkpt lat="45.76491" lon="4.26551">
        <ele>396</ele>
        <time>2021-03-06T14:28:51.000Z</time>
      </trkpt>
      <trkpt lat="45.76513" lon="4.26525">
        <ele>395.79998779297</ele>
        <time>2021-03-06T14:28:54.000Z</time>
      </trkpt>
      <trkpt lat="45.76535" lon="4.26498">
        <ele>395.20001220703</ele>
        <time>2021-03-06T14:28:57.000Z</time>
      </trkpt>
      <trkpt lat="45.76566" lon="4.2646">
        <ele>394.20001220703</ele>
        <time>2021-03-06T14:29:01.000Z</time>
      </trkpt>
      <trkpt lat="45.76574" lon="4.2645">
        <ele>394</ele>
        <time>2021-03-06T14:29:02.000Z</time>
      </trkpt>
      <trkpt lat="45.76606" lon="4.2641">
        <ele>393</ele>
        <time>2021-03-06T14:29:06.000Z</time>
      </trkpt>
      <trkpt lat="45.76631" lon="4.26382">
        <ele>392.79998779297</ele>
        <time>2021-03-06T14:29:09.000Z</time>
      </trkpt>
      <trkpt lat="45.76671" lon="4.26342">
        <ele>393.39999389648</ele>
        <time>2021-03-06T14:29:14.000Z</time>
      </trkpt>
      <trkpt lat="45.76716" lon="4.26301">
        <ele>393.79998779297</ele>
        <time>2021-03-06T14:29:20.000Z</time>
      </trkpt>
      <trkpt lat="45.76731" lon="4.26287">
        <ele>394</ele>
        <time>2021-03-06T14:29:22.000Z</time>
      </trkpt>
      <trkpt lat="45.76781" lon="4.2624">
        <ele>394.39999389648</ele>
        <time>2021-03-06T14:29:29.000Z</time>
      </trkpt>
      <trkpt lat="45.76832" lon="4.26192">
        <ele>394.39999389648</ele>
        <time>2021-03-06T14:29:36.000Z</time>
      </trkpt>
      <trkpt lat="45.76846" lon="4.2618">
        <ele>394.20001220703</ele>
        <time>2021-03-06T14:29:38.000Z</time>
      </trkpt>
      <trkpt lat="45.76895" lon="4.26144">
        <ele>393.79998779297</ele>
        <time>2021-03-06T14:29:44.000Z</time>
      </trkpt>
      <trkpt lat="45.76903" lon="4.26138">
        <ele>393.79998779297</ele>
        <time>2021-03-06T14:29:45.000Z</time>
      </trkpt>
      <trkpt lat="45.76945" lon="4.26109">
        <ele>392.79998779297</ele>
        <time>2021-03-06T14:29:50.000Z</time>
      </trkpt>
      <trkpt lat="45.76962" lon="4.26097">
        <ele>392.60000610352</ele>
        <time>2021-03-06T14:29:52.000Z</time>
      </trkpt>
      <trkpt lat="45.77016" lon="4.26068">
        <ele>392</ele>
        <time>2021-03-06T14:29:58.000Z</time>
      </trkpt>
      <trkpt lat="45.77026" lon="4.26065">
        <ele>391.79998779297</ele>
        <time>2021-03-06T14:29:59.000Z</time>
      </trkpt>
      <trkpt lat="45.77065" lon="4.26054">
        <ele>390.60000610352</ele>
        <time>2021-03-06T14:30:03.000Z</time>
      </trkpt>
      <trkpt lat="45.77106" lon="4.26041">
        <ele>389.39999389648</ele>
        <time>2021-03-06T14:30:07.000Z</time>
      </trkpt>
      <trkpt lat="45.77137" lon="4.26027">
        <ele>388.20001220703</ele>
        <time>2021-03-06T14:30:10.000Z</time>
      </trkpt>
      <trkpt lat="45.77166" lon="4.26011">
        <ele>387.79998779297</ele>
        <time>2021-03-06T14:30:13.000Z</time>
      </trkpt>
      <trkpt lat="45.77207" lon="4.2598">
        <ele>388</ele>
        <time>2021-03-06T14:30:18.000Z</time>
      </trkpt>
      <trkpt lat="45.7725" lon="4.25946">
        <ele>389.39999389648</ele>
        <time>2021-03-06T14:30:24.000Z</time>
      </trkpt>
      <trkpt lat="45.77258" lon="4.25942">
        <ele>389.39999389648</ele>
        <time>2021-03-06T14:30:25.000Z</time>
      </trkpt>
      <trkpt lat="45.77313" lon="4.25902">
        <ele>389</ele>
        <time>2021-03-06T14:30:32.000Z</time>
      </trkpt>
      <trkpt lat="45.77322" lon="4.25896">
        <ele>389</ele>
        <time>2021-03-06T14:30:33.000Z</time>
      </trkpt>
      <trkpt lat="45.7737" lon="4.25852">
        <ele>388.60000610352</ele>
        <time>2021-03-06T14:30:39.000Z</time>
      </trkpt>
      <trkpt lat="45.77379" lon="4.25844">
        <ele>388.60000610352</ele>
        <time>2021-03-06T14:30:40.000Z</time>
      </trkpt>
      <trkpt lat="45.77425" lon="4.25801">
        <ele>388.79998779297</ele>
        <time>2021-03-06T14:30:46.000Z</time>
      </trkpt>
      <trkpt lat="45.77462" lon="4.25766">
        <ele>389.20001220703</ele>
        <time>2021-03-06T14:30:51.000Z</time>
      </trkpt>
      <trkpt lat="45.77508" lon="4.25725">
        <ele>389.20001220703</ele>
        <time>2021-03-06T14:30:57.000Z</time>
      </trkpt>
      <trkpt lat="45.77539" lon="4.25698">
        <ele>388.79998779297</ele>
        <time>2021-03-06T14:31:01.000Z</time>
      </trkpt>
      <trkpt lat="45.77585" lon="4.25656">
        <ele>388.39999389648</ele>
        <time>2021-03-06T14:31:07.000Z</time>
      </trkpt>
      <trkpt lat="45.77623" lon="4.25619">
        <ele>387.60000610352</ele>
        <time>2021-03-06T14:31:12.000Z</time>
      </trkpt>
      <trkpt lat="45.77647" lon="4.25597">
        <ele>387.39999389648</ele>
        <time>2021-03-06T14:31:15.000Z</time>
      </trkpt>
      <trkpt lat="45.77695" lon="4.25553">
        <ele>387</ele>
        <time>2021-03-06T14:31:21.000Z</time>
      </trkpt>
      <trkpt lat="45.7771" lon="4.25539">
        <ele>387</ele>
        <time>2021-03-06T14:31:23.000Z</time>
      </trkpt>
      <trkpt lat="45.77756" lon="4.25495">
        <ele>386.60000610352</ele>
        <time>2021-03-06T14:31:29.000Z</time>
      </trkpt>
      <trkpt lat="45.77771" lon="4.25482">
        <ele>386.39999389648</ele>
        <time>2021-03-06T14:31:31.000Z</time>
      </trkpt>
      <trkpt lat="45.77786" lon="4.2547">
        <ele>385.79998779297</ele>
        <time>2021-03-06T14:31:33.000Z</time>
      </trkpt>
      <trkpt lat="45.778" lon="4.2546">
        <ele>385</ele>
        <time>2021-03-06T14:31:35.000Z</time>
      </trkpt>
      <trkpt lat="45.77815" lon="4.25453">
        <ele>384.39999389648</ele>
        <time>2021-03-06T14:31:37.000Z</time>
      </trkpt>
      <trkpt lat="45.77822" lon="4.25453">
        <ele>384.20001220703</ele>
        <time>2021-03-06T14:31:38.000Z</time>
      </trkpt>
      <trkpt lat="45.77828" lon="4.25453">
        <ele>384</ele>
        <time>2021-03-06T14:31:39.000Z</time>
      </trkpt>
      <trkpt lat="45.77835" lon="4.25452">
        <ele>383.79998779297</ele>
        <time>2021-03-06T14:31:40.000Z</time>
      </trkpt>
      <trkpt lat="45.77845" lon="4.25444">
        <ele>383.60000610352</ele>
        <time>2021-03-06T14:31:42.000Z</time>
      </trkpt>
      <trkpt lat="45.77853" lon="4.25418">
        <ele>383.20001220703</ele>
        <time>2021-03-06T14:31:45.000Z</time>
      </trkpt>
      <trkpt lat="45.77863" lon="4.254">
        <ele>382.79998779297</ele>
        <time>2021-03-06T14:31:47.000Z</time>
      </trkpt>
      <trkpt lat="45.77869" lon="4.25391">
        <ele>382.60000610352</ele>
        <time>2021-03-06T14:31:48.000Z</time>
      </trkpt>
      <trkpt lat="45.77881" lon="4.25372">
        <ele>381.39999389648</ele>
        <time>2021-03-06T14:31:50.000Z</time>
      </trkpt>
      <trkpt lat="45.77891" lon="4.2535">
        <ele>380.60000610352</ele>
        <time>2021-03-06T14:31:52.000Z</time>
      </trkpt>
      <trkpt lat="45.77898" lon="4.25325">
        <ele>380.39999389648</ele>
        <time>2021-03-06T14:31:54.000Z</time>
      </trkpt>
      <trkpt lat="45.77901" lon="4.25313">
        <ele>380.20001220703</ele>
        <time>2021-03-06T14:31:55.000Z</time>
      </trkpt>
      <trkpt lat="45.77906" lon="4.25303">
        <ele>380.20001220703</ele>
        <time>2021-03-06T14:31:56.000Z</time>
      </trkpt>
      <trkpt lat="45.77913" lon="4.25294">
        <ele>380</ele>
        <time>2021-03-06T14:31:57.000Z</time>
      </trkpt>
      <trkpt lat="45.77926" lon="4.25275">
        <ele>379.60000610352</ele>
        <time>2021-03-06T14:31:59.000Z</time>
      </trkpt>
      <trkpt lat="45.77932" lon="4.25265">
        <ele>379.39999389648</ele>
        <time>2021-03-06T14:32:00.000Z</time>
      </trkpt>
      <trkpt lat="45.77937" lon="4.25254">
        <ele>379</ele>
        <time>2021-03-06T14:32:01.000Z</time>
      </trkpt>
      <trkpt lat="45.77945" lon="4.25232">
        <ele>378.39999389648</ele>
        <time>2021-03-06T14:32:03.000Z</time>
      </trkpt>
      <trkpt lat="45.77955" lon="4.25194">
        <ele>378</ele>
        <time>2021-03-06T14:32:06.000Z</time>
      </trkpt>
      <trkpt lat="45.77966" lon="4.25156">
        <ele>377.20001220703</ele>
        <time>2021-03-06T14:32:09.000Z</time>
      </trkpt>
      <trkpt lat="45.77972" lon="4.2513">
        <ele>376.60000610352</ele>
        <time>2021-03-06T14:32:11.000Z</time>
      </trkpt>
      <trkpt lat="45.77988" lon="4.25077">
        <ele>375.60000610352</ele>
        <time>2021-03-06T14:32:15.000Z</time>
      </trkpt>
      <trkpt lat="45.77994" lon="4.25053">
        <ele>374.79998779297</ele>
        <time>2021-03-06T14:32:17.000Z</time>
      </trkpt>
      <trkpt lat="45.77997" lon="4.25041">
        <ele>374.39999389648</ele>
        <time>2021-03-06T14:32:18.000Z</time>
      </trkpt>
      <trkpt lat="45.78008" lon="4.25006">
        <ele>373.20001220703</ele>
        <time>2021-03-06T14:32:21.000Z</time>
      </trkpt>
      <trkpt lat="45.78019" lon="4.24981">
        <ele>372.79998779297</ele>
        <time>2021-03-06T14:32:23.000Z</time>
      </trkpt>
      <trkpt lat="45.7803" lon="4.24955">
        <ele>372.20001220703</ele>
        <time>2021-03-06T14:32:25.000Z</time>
      </trkpt>
      <trkpt lat="45.78051" lon="4.24914">
        <ele>371.20001220703</ele>
        <time>2021-03-06T14:32:28.000Z</time>
      </trkpt>
      <trkpt lat="45.78058" lon="4.249">
        <ele>370.60000610352</ele>
        <time>2021-03-06T14:32:29.000Z</time>
      </trkpt>
      <trkpt lat="45.78079" lon="4.24859">
        <ele>369.60000610352</ele>
        <time>2021-03-06T14:32:32.000Z</time>
      </trkpt>
      <trkpt lat="45.781" lon="4.24818">
        <ele>368.79998779297</ele>
        <time>2021-03-06T14:32:35.000Z</time>
      </trkpt>
      <trkpt lat="45.78114" lon="4.24792">
        <ele>368.60000610352</ele>
        <time>2021-03-06T14:32:37.000Z</time>
      </trkpt>
      <trkpt lat="45.78121" lon="4.2478">
        <ele>368.60000610352</ele>
        <time>2021-03-06T14:32:38.000Z</time>
      </trkpt>
      <trkpt lat="45.78129" lon="4.2477">
        <ele>368.39999389648</ele>
        <time>2021-03-06T14:32:39.000Z</time>
      </trkpt>
      <trkpt lat="45.78164" lon="4.24736">
        <ele>368.39999389648</ele>
        <time>2021-03-06T14:32:43.000Z</time>
      </trkpt>
      <trkpt lat="45.78212" lon="4.24695">
        <ele>368.60000610352</ele>
        <time>2021-03-06T14:32:49.000Z</time>
      </trkpt>
      <trkpt lat="45.78259" lon="4.24651">
        <ele>368.20001220703</ele>
        <time>2021-03-06T14:32:55.000Z</time>
      </trkpt>
      <trkpt lat="45.78282" lon="4.24625">
        <ele>367.39999389648</ele>
        <time>2021-03-06T14:32:58.000Z</time>
      </trkpt>
      <trkpt lat="45.78305" lon="4.24597">
        <ele>366.39999389648</ele>
        <time>2021-03-06T14:33:01.000Z</time>
      </trkpt>
      <trkpt lat="45.78312" lon="4.24588">
        <ele>366.20001220703</ele>
        <time>2021-03-06T14:33:02.000Z</time>
      </trkpt>
      <trkpt lat="45.78328" lon="4.24569">
        <ele>365.39999389648</ele>
        <time>2021-03-06T14:33:04.000Z</time>
      </trkpt>
      <trkpt lat="45.78359" lon="4.24532">
        <ele>363.79998779297</ele>
        <time>2021-03-06T14:33:08.000Z</time>
      </trkpt>
      <trkpt lat="45.78392" lon="4.24498">
        <ele>362.60000610352</ele>
        <time>2021-03-06T14:33:12.000Z</time>
      </trkpt>
      <trkpt lat="45.78419" lon="4.24475">
        <ele>361.20001220703</ele>
        <time>2021-03-06T14:33:15.000Z</time>
      </trkpt>
      <trkpt lat="45.78438" lon="4.24462">
        <ele>360.20001220703</ele>
        <time>2021-03-06T14:33:17.000Z</time>
      </trkpt>
      <trkpt lat="45.78458" lon="4.2445">
        <ele>358.79998779297</ele>
        <time>2021-03-06T14:33:19.000Z</time>
      </trkpt>
      <trkpt lat="45.78488" lon="4.24431">
        <ele>357.60000610352</ele>
        <time>2021-03-06T14:33:22.000Z</time>
      </trkpt>
      <trkpt lat="45.78497" lon="4.24423">
        <ele>357.39999389648</ele>
        <time>2021-03-06T14:33:23.000Z</time>
      </trkpt>
      <trkpt lat="45.7853" lon="4.24388">
        <ele>356.60000610352</ele>
        <time>2021-03-06T14:33:27.000Z</time>
      </trkpt>
      <trkpt lat="45.78537" lon="4.24379">
        <ele>356.60000610352</ele>
        <time>2021-03-06T14:33:28.000Z</time>
      </trkpt>
      <trkpt lat="45.7857" lon="4.24331">
        <ele>356.79998779297</ele>
        <time>2021-03-06T14:33:33.000Z</time>
      </trkpt>
      <trkpt lat="45.786" lon="4.24287">
        <ele>357.20001220703</ele>
        <time>2021-03-06T14:33:38.000Z</time>
      </trkpt>
      <trkpt lat="45.78624" lon="4.24256">
        <ele>357.79998779297</ele>
        <time>2021-03-06T14:33:42.000Z</time>
      </trkpt>
      <trkpt lat="45.78643" lon="4.24234">
        <ele>358</ele>
        <time>2021-03-06T14:33:45.000Z</time>
      </trkpt>
      <trkpt lat="45.78663" lon="4.24215">
        <ele>358.79998779297</ele>
        <time>2021-03-06T14:33:48.000Z</time>
      </trkpt>
      <trkpt lat="45.78691" lon="4.24194">
        <ele>359.60000610352</ele>
        <time>2021-03-06T14:33:52.000Z</time>
      </trkpt>
      <trkpt lat="45.78706" lon="4.24184">
        <ele>359.79998779297</ele>
        <time>2021-03-06T14:33:54.000Z</time>
      </trkpt>
      <trkpt lat="45.78758" lon="4.24151">
        <ele>360</ele>
        <time>2021-03-06T14:34:01.000Z</time>
      </trkpt>
      <trkpt lat="45.78815" lon="4.24121">
        <ele>359.60000610352</ele>
        <time>2021-03-06T14:34:08.000Z</time>
      </trkpt>
      <trkpt lat="45.78851" lon="4.24109">
        <ele>359</ele>
        <time>2021-03-06T14:34:12.000Z</time>
      </trkpt>
      <trkpt lat="45.7886" lon="4.24109">
        <ele>359</ele>
        <time>2021-03-06T14:34:13.000Z</time>
      </trkpt>
      <trkpt lat="45.78888" lon="4.24111">
        <ele>358.60000610352</ele>
        <time>2021-03-06T14:34:16.000Z</time>
      </trkpt>
      <trkpt lat="45.78942" lon="4.24113">
        <ele>358.79998779297</ele>
        <time>2021-03-06T14:34:22.000Z</time>
      </trkpt>
      <trkpt lat="45.78949" lon="4.24113">
        <ele>359</ele>
        <time>2021-03-06T14:34:23.000Z</time>
      </trkpt>
      <trkpt lat="45.78966" lon="4.24111">
        <ele>359</ele>
        <time>2021-03-06T14:34:25.000Z</time>
      </trkpt>
      <trkpt lat="45.78982" lon="4.24106">
        <ele>359.20001220703</ele>
        <time>2021-03-06T14:34:27.000Z</time>
      </trkpt>
      <trkpt lat="45.79034" lon="4.24082">
        <ele>359.79998779297</ele>
        <time>2021-03-06T14:34:34.000Z</time>
      </trkpt>
      <trkpt lat="45.79041" lon="4.24078">
        <ele>359.79998779297</ele>
        <time>2021-03-06T14:34:35.000Z</time>
      </trkpt>
      <trkpt lat="45.79081" lon="4.24049">
        <ele>360.79998779297</ele>
        <time>2021-03-06T14:34:41.000Z</time>
      </trkpt>
      <trkpt lat="45.7911" lon="4.24014">
        <ele>361.79998779297</ele>
        <time>2021-03-06T14:34:46.000Z</time>
      </trkpt>
      <trkpt lat="45.79115" lon="4.24006">
        <ele>362</ele>
        <time>2021-03-06T14:34:47.000Z</time>
      </trkpt>
      <trkpt lat="45.79154" lon="4.2395">
        <ele>361.79998779297</ele>
        <time>2021-03-06T14:34:54.000Z</time>
      </trkpt>
      <trkpt lat="45.79166" lon="4.23933">
        <ele>361.79998779297</ele>
        <time>2021-03-06T14:34:56.000Z</time>
      </trkpt>
      <trkpt lat="45.79209" lon="4.23871">
        <ele>362</ele>
        <time>2021-03-06T14:35:03.000Z</time>
      </trkpt>
      <trkpt lat="45.79253" lon="4.23809">
        <ele>362</ele>
        <time>2021-03-06T14:35:10.000Z</time>
      </trkpt>
      <trkpt lat="45.79272" lon="4.23781">
        <ele>361.60000610352</ele>
        <time>2021-03-06T14:35:13.000Z</time>
      </trkpt>
      <trkpt lat="45.79313" lon="4.23727">
        <ele>360.79998779297</ele>
        <time>2021-03-06T14:35:19.000Z</time>
      </trkpt>
      <trkpt lat="45.7932" lon="4.23717">
        <ele>360.79998779297</ele>
        <time>2021-03-06T14:35:20.000Z</time>
      </trkpt>
      <trkpt lat="45.79326" lon="4.23708">
        <ele>360.79998779297</ele>
        <time>2021-03-06T14:35:21.000Z</time>
      </trkpt>
      <trkpt lat="45.7934" lon="4.23691">
        <ele>360.79998779297</ele>
        <time>2021-03-06T14:35:23.000Z</time>
      </trkpt>
      <trkpt lat="45.79386" lon="4.23631">
        <ele>360.60000610352</ele>
        <time>2021-03-06T14:35:30.000Z</time>
      </trkpt>
      <trkpt lat="45.79421" lon="4.23594">
        <ele>360.39999389648</ele>
        <time>2021-03-06T14:35:35.000Z</time>
      </trkpt>
      <trkpt lat="45.79429" lon="4.23588">
        <ele>360.20001220703</ele>
        <time>2021-03-06T14:35:36.000Z</time>
      </trkpt>
      <trkpt lat="45.79478" lon="4.23562">
        <ele>360</ele>
        <time>2021-03-06T14:35:42.000Z</time>
      </trkpt>
      <trkpt lat="45.79532" lon="4.23538">
        <ele>360</ele>
        <time>2021-03-06T14:35:49.000Z</time>
      </trkpt>
      <trkpt lat="45.79586" lon="4.23517">
        <ele>360.39999389648</ele>
        <time>2021-03-06T14:35:56.000Z</time>
      </trkpt>
      <trkpt lat="45.79602" lon="4.2351">
        <ele>360.39999389648</ele>
        <time>2021-03-06T14:35:58.000Z</time>
      </trkpt>
      <trkpt lat="45.79658" lon="4.23477">
        <ele>361.39999389648</ele>
        <time>2021-03-06T14:36:05.000Z</time>
      </trkpt>
      <trkpt lat="45.79672" lon="4.23468">
        <ele>361.39999389648</ele>
        <time>2021-03-06T14:36:07.000Z</time>
      </trkpt>
      <trkpt lat="45.79686" lon="4.23456">
        <ele>361.39999389648</ele>
        <time>2021-03-06T14:36:09.000Z</time>
      </trkpt>
      <trkpt lat="45.79691" lon="4.23448">
        <ele>361.20001220703</ele>
        <time>2021-03-06T14:36:10.000Z</time>
      </trkpt>
      <trkpt lat="45.79696" lon="4.23439">
        <ele>361</ele>
        <time>2021-03-06T14:36:11.000Z</time>
      </trkpt>
      <trkpt lat="45.79702" lon="4.23418">
        <ele>360.79998779297</ele>
        <time>2021-03-06T14:36:13.000Z</time>
      </trkpt>
      <trkpt lat="45.79714" lon="4.23369">
        <ele>359.79998779297</ele>
        <time>2021-03-06T14:36:17.000Z</time>
      </trkpt>
      <trkpt lat="45.79717" lon="4.23356">
        <ele>359.60000610352</ele>
        <time>2021-03-06T14:36:18.000Z</time>
      </trkpt>
      <trkpt lat="45.79726" lon="4.23295">
        <ele>359</ele>
        <time>2021-03-06T14:36:23.000Z</time>
      </trkpt>
      <trkpt lat="45.7973" lon="4.23274">
        <ele>358.60000610352</ele>
        <time>2021-03-06T14:36:25.000Z</time>
      </trkpt>
      <trkpt lat="45.79733" lon="4.23265">
        <ele>358.39999389648</ele>
        <time>2021-03-06T14:36:26.000Z</time>
      </trkpt>
      <trkpt lat="45.79739" lon="4.2326">
        <ele>358.20001220703</ele>
        <time>2021-03-06T14:36:27.000Z</time>
      </trkpt>
      <trkpt lat="45.79751" lon="4.23253">
        <ele>358.20001220703</ele>
        <time>2021-03-06T14:36:29.000Z</time>
      </trkpt>
      <trkpt lat="45.79788" lon="4.2324">
        <ele>358.79998779297</ele>
        <time>2021-03-06T14:36:34.000Z</time>
      </trkpt>
      <trkpt lat="45.79811" lon="4.23231">
        <ele>359</ele>
        <time>2021-03-06T14:36:38.000Z</time>
      </trkpt>
      <trkpt lat="45.79814" lon="4.2323">
        <ele>359</ele>
        <time>2021-03-06T14:36:39.000Z</time>
      </trkpt>
      <trkpt lat="45.79825" lon="4.23228">
        <ele>359.20001220703</ele>
        <time>2021-03-06T14:36:43.000Z</time>
      </trkpt>
      <trkpt lat="45.79828" lon="4.23229">
        <ele>359.20001220703</ele>
        <time>2021-03-06T14:36:44.000Z</time>
      </trkpt>
      <trkpt lat="45.79831" lon="4.23231">
        <ele>359.39999389648</ele>
        <time>2021-03-06T14:36:47.000Z</time>
      </trkpt>
      <trkpt lat="45.79834" lon="4.23234">
        <ele>359.60000610352</ele>
        <time>2021-03-06T14:36:52.000Z</time>
      </trkpt>
      <trkpt lat="45.79836" lon="4.23233">
        <ele>359.60000610352</ele>
        <time>2021-03-06T14:36:53.000Z</time>
      </trkpt>
      <trkpt lat="45.79842" lon="4.23219">
        <ele>359.79998779297</ele>
        <time>2021-03-06T14:36:57.000Z</time>
      </trkpt>
      <trkpt lat="45.79846" lon="4.23209">
        <ele>360</ele>
        <time>2021-03-06T14:36:59.000Z</time>
      </trkpt>
      <trkpt lat="45.79852" lon="4.23199">
        <ele>360.20001220703</ele>
        <time>2021-03-06T14:37:01.000Z</time>
      </trkpt>
      <trkpt lat="45.79856" lon="4.23194">
        <ele>360.39999389648</ele>
        <time>2021-03-06T14:37:02.000Z</time>
      </trkpt>
      <trkpt lat="45.79865" lon="4.23184">
        <ele>360.60000610352</ele>
        <time>2021-03-06T14:37:04.000Z</time>
      </trkpt>
      <trkpt lat="45.7987" lon="4.23178">
        <ele>360.60000610352</ele>
        <time>2021-03-06T14:37:05.000Z</time>
      </trkpt>
      <trkpt lat="45.79881" lon="4.23165">
        <ele>360.79998779297</ele>
        <time>2021-03-06T14:37:07.000Z</time>
      </trkpt>
      <trkpt lat="45.79919" lon="4.23123">
        <ele>361</ele>
        <time>2021-03-06T14:37:13.000Z</time>
      </trkpt>
      <trkpt lat="45.79931" lon="4.23108">
        <ele>361</ele>
        <time>2021-03-06T14:37:15.000Z</time>
      </trkpt>
      <trkpt lat="45.7994" lon="4.23089">
        <ele>360.60000610352</ele>
        <time>2021-03-06T14:37:17.000Z</time>
      </trkpt>
      <trkpt lat="45.79951" lon="4.23041">
        <ele>360</ele>
        <time>2021-03-06T14:37:21.000Z</time>
      </trkpt>
      <trkpt lat="45.79961" lon="4.2302">
        <ele>359.60000610352</ele>
        <time>2021-03-06T14:37:23.000Z</time>
      </trkpt>
      <trkpt lat="45.79968" lon="4.23013">
        <ele>359.39999389648</ele>
        <time>2021-03-06T14:37:24.000Z</time>
      </trkpt>
      <trkpt lat="45.80007" lon="4.22983">
        <ele>359.39999389648</ele>
        <time>2021-03-06T14:37:29.000Z</time>
      </trkpt>
      <trkpt lat="45.80051" lon="4.22939">
        <ele>359.20001220703</ele>
        <time>2021-03-06T14:37:35.000Z</time>
      </trkpt>
      <trkpt lat="45.80057" lon="4.22929">
        <ele>359.20001220703</ele>
        <time>2021-03-06T14:37:36.000Z</time>
      </trkpt>
      <trkpt lat="45.80074" lon="4.22896">
        <ele>358.60000610352</ele>
        <time>2021-03-06T14:37:39.000Z</time>
      </trkpt>
      <trkpt lat="45.80108" lon="4.22832">
        <ele>357.39999389648</ele>
        <time>2021-03-06T14:37:45.000Z</time>
      </trkpt>
      <trkpt lat="45.80145" lon="4.22772">
        <ele>357.39999389648</ele>
        <time>2021-03-06T14:37:51.000Z</time>
      </trkpt>
      <trkpt lat="45.80159" lon="4.22755">
        <ele>357</ele>
        <time>2021-03-06T14:37:53.000Z</time>
      </trkpt>
      <trkpt lat="45.80194" lon="4.22719">
        <ele>356.39999389648</ele>
        <time>2021-03-06T14:37:58.000Z</time>
      </trkpt>
      <trkpt lat="45.802" lon="4.22713">
        <ele>356.20001220703</ele>
        <time>2021-03-06T14:37:59.000Z</time>
      </trkpt>
      <trkpt lat="45.80245" lon="4.22677">
        <ele>355.79998779297</ele>
        <time>2021-03-06T14:38:05.000Z</time>
      </trkpt>
      <trkpt lat="45.80293" lon="4.22654">
        <ele>356.20001220703</ele>
        <time>2021-03-06T14:38:11.000Z</time>
      </trkpt>
      <trkpt lat="45.80349" lon="4.2263">
        <ele>356.20001220703</ele>
        <time>2021-03-06T14:38:18.000Z</time>
      </trkpt>
      <trkpt lat="45.80357" lon="4.22627">
        <ele>356.20001220703</ele>
        <time>2021-03-06T14:38:19.000Z</time>
      </trkpt>
      <trkpt lat="45.80411" lon="4.22603">
        <ele>357</ele>
        <time>2021-03-06T14:38:26.000Z</time>
      </trkpt>
      <trkpt lat="45.80426" lon="4.22593">
        <ele>357.60000610352</ele>
        <time>2021-03-06T14:38:28.000Z</time>
      </trkpt>
      <trkpt lat="45.8044" lon="4.2258">
        <ele>357.79998779297</ele>
        <time>2021-03-06T14:38:30.000Z</time>
      </trkpt>
      <trkpt lat="45.80486" lon="4.22534">
        <ele>358</ele>
        <time>2021-03-06T14:38:37.000Z</time>
      </trkpt>
      <trkpt lat="45.80493" lon="4.22528">
        <ele>358</ele>
        <time>2021-03-06T14:38:38.000Z</time>
      </trkpt>
      <trkpt lat="45.80534" lon="4.22494">
        <ele>358.79998779297</ele>
        <time>2021-03-06T14:38:44.000Z</time>
      </trkpt>
      <trkpt lat="45.80582" lon="4.22457">
        <ele>359.39999389648</ele>
        <time>2021-03-06T14:38:51.000Z</time>
      </trkpt>
      <trkpt lat="45.80595" lon="4.22446">
        <ele>359.79998779297</ele>
        <time>2021-03-06T14:38:53.000Z</time>
      </trkpt>
      <trkpt lat="45.80601" lon="4.2244">
        <ele>360</ele>
        <time>2021-03-06T14:38:54.000Z</time>
      </trkpt>
      <trkpt lat="45.80648" lon="4.2239">
        <ele>360.79998779297</ele>
        <time>2021-03-06T14:39:02.000Z</time>
      </trkpt>
      <trkpt lat="45.80654" lon="4.22384">
        <ele>360.79998779297</ele>
        <time>2021-03-06T14:39:03.000Z</time>
      </trkpt>
      <trkpt lat="45.80697" lon="4.22336">
        <ele>361</ele>
        <time>2021-03-06T14:39:10.000Z</time>
      </trkpt>
      <trkpt lat="45.80709" lon="4.22321">
        <ele>361.20001220703</ele>
        <time>2021-03-06T14:39:12.000Z</time>
      </trkpt>
      <trkpt lat="45.8074" lon="4.2227">
        <ele>361</ele>
        <time>2021-03-06T14:39:18.000Z</time>
      </trkpt>
      <trkpt lat="45.8078" lon="4.2221">
        <ele>360.60000610352</ele>
        <time>2021-03-06T14:39:25.000Z</time>
      </trkpt>
      <trkpt lat="45.80828" lon="4.22159">
        <ele>360.20001220703</ele>
        <time>2021-03-06T14:39:32.000Z</time>
      </trkpt>
      <trkpt lat="45.80842" lon="4.22144">
        <ele>360.20001220703</ele>
        <time>2021-03-06T14:39:34.000Z</time>
      </trkpt>
      <trkpt lat="45.80891" lon="4.22092">
        <ele>360.20001220703</ele>
        <time>2021-03-06T14:39:41.000Z</time>
      </trkpt>
      <trkpt lat="45.80912" lon="4.22069">
        <ele>360</ele>
        <time>2021-03-06T14:39:44.000Z</time>
      </trkpt>
      <trkpt lat="45.80947" lon="4.22015">
        <ele>359.60000610352</ele>
        <time>2021-03-06T14:39:50.000Z</time>
      </trkpt>
      <trkpt lat="45.80984" lon="4.2195">
        <ele>359.60000610352</ele>
        <time>2021-03-06T14:39:57.000Z</time>
      </trkpt>
      <trkpt lat="45.8102" lon="4.21885">
        <ele>360.20001220703</ele>
        <time>2021-03-06T14:40:04.000Z</time>
      </trkpt>
      <trkpt lat="45.81037" lon="4.21847">
        <ele>360.39999389648</ele>
        <time>2021-03-06T14:40:08.000Z</time>
      </trkpt>
      <trkpt lat="45.81043" lon="4.21826">
        <ele>360.39999389648</ele>
        <time>2021-03-06T14:40:10.000Z</time>
      </trkpt>
      <trkpt lat="45.81069" lon="4.21749">
        <ele>359.79998779297</ele>
        <time>2021-03-06T14:40:17.000Z</time>
      </trkpt>
      <trkpt lat="45.81098" lon="4.217">
        <ele>359.20001220703</ele>
        <time>2021-03-06T14:40:22.000Z</time>
      </trkpt>
      <trkpt lat="45.81112" lon="4.21682">
        <ele>358.60000610352</ele>
        <time>2021-03-06T14:40:24.000Z</time>
      </trkpt>
      <trkpt lat="45.81149" lon="4.21641">
        <ele>357.60000610352</ele>
        <time>2021-03-06T14:40:29.000Z</time>
      </trkpt>
      <trkpt lat="45.81173" lon="4.21621">
        <ele>356.79998779297</ele>
        <time>2021-03-06T14:40:32.000Z</time>
      </trkpt>
      <trkpt lat="45.81191" lon="4.21609">
        <ele>356.39999389648</ele>
        <time>2021-03-06T14:40:34.000Z</time>
      </trkpt>
      <trkpt lat="45.81217" lon="4.21589">
        <ele>355.60000610352</ele>
        <time>2021-03-06T14:40:37.000Z</time>
      </trkpt>
      <trkpt lat="45.81225" lon="4.2158">
        <ele>355.20001220703</ele>
        <time>2021-03-06T14:40:38.000Z</time>
      </trkpt>
      <trkpt lat="45.81233" lon="4.21571">
        <ele>355</ele>
        <time>2021-03-06T14:40:39.000Z</time>
      </trkpt>
      <trkpt lat="45.8126" lon="4.21527">
        <ele>354</ele>
        <time>2021-03-06T14:40:43.000Z</time>
      </trkpt>
      <trkpt lat="45.8127" lon="4.21502">
        <ele>353.79998779297</ele>
        <time>2021-03-06T14:40:45.000Z</time>
      </trkpt>
      <trkpt lat="45.81278" lon="4.21475">
        <ele>353.79998779297</ele>
        <time>2021-03-06T14:40:47.000Z</time>
      </trkpt>
      <trkpt lat="45.81293" lon="4.21421">
        <ele>353</ele>
        <time>2021-03-06T14:40:51.000Z</time>
      </trkpt>
      <trkpt lat="45.81308" lon="4.21368">
        <ele>352</ele>
        <time>2021-03-06T14:40:55.000Z</time>
      </trkpt>
      <trkpt lat="45.81312" lon="4.21355">
        <ele>351.79998779297</ele>
        <time>2021-03-06T14:40:56.000Z</time>
      </trkpt>
      <trkpt lat="45.81335" lon="4.21275">
        <ele>351</ele>
        <time>2021-03-06T14:41:02.000Z</time>
      </trkpt>
      <trkpt lat="45.81343" lon="4.21249">
        <ele>350.79998779297</ele>
        <time>2021-03-06T14:41:04.000Z</time>
      </trkpt>
      <trkpt lat="45.81347" lon="4.21236">
        <ele>350.60000610352</ele>
        <time>2021-03-06T14:41:05.000Z</time>
      </trkpt>
      <trkpt lat="45.81362" lon="4.21182">
        <ele>349.79998779297</ele>
        <time>2021-03-06T14:41:09.000Z</time>
      </trkpt>
      <trkpt lat="45.81387" lon="4.21101">
        <ele>349</ele>
        <time>2021-03-06T14:41:15.000Z</time>
      </trkpt>
      <trkpt lat="45.81394" lon="4.21074">
        <ele>348.79998779297</ele>
        <time>2021-03-06T14:41:17.000Z</time>
      </trkpt>
      <trkpt lat="45.81418" lon="4.20993">
        <ele>348</ele>
        <time>2021-03-06T14:41:23.000Z</time>
      </trkpt>
      <trkpt lat="45.81426" lon="4.20967">
        <ele>347.39999389648</ele>
        <time>2021-03-06T14:41:25.000Z</time>
      </trkpt>
      <trkpt lat="45.81433" lon="4.20941">
        <ele>347</ele>
        <time>2021-03-06T14:41:27.000Z</time>
      </trkpt>
      <trkpt lat="45.81449" lon="4.20888">
        <ele>346.39999389648</ele>
        <time>2021-03-06T14:41:31.000Z</time>
      </trkpt>
      <trkpt lat="45.81469" lon="4.20822">
        <ele>345.60000610352</ele>
        <time>2021-03-06T14:41:36.000Z</time>
      </trkpt>
      <trkpt lat="45.81484" lon="4.20772">
        <ele>345.39999389648</ele>
        <time>2021-03-06T14:41:40.000Z</time>
      </trkpt>
      <trkpt lat="45.81495" lon="4.20736">
        <ele>345.20001220703</ele>
        <time>2021-03-06T14:41:43.000Z</time>
      </trkpt>
      <trkpt lat="45.81518" lon="4.20663">
        <ele>344.79998779297</ele>
        <time>2021-03-06T14:41:49.000Z</time>
      </trkpt>
      <trkpt lat="45.81529" lon="4.20627">
        <ele>344.60000610352</ele>
        <time>2021-03-06T14:41:52.000Z</time>
      </trkpt>
      <trkpt lat="45.81551" lon="4.20555">
        <ele>344.60000610352</ele>
        <time>2021-03-06T14:41:58.000Z</time>
      </trkpt>
      <trkpt lat="45.81569" lon="4.20495">
        <ele>344.39999389648</ele>
        <time>2021-03-06T14:42:03.000Z</time>
      </trkpt>
      <trkpt lat="45.81584" lon="4.20447">
        <ele>344.20001220703</ele>
        <time>2021-03-06T14:42:07.000Z</time>
      </trkpt>
      <trkpt lat="45.81596" lon="4.20411">
        <ele>344</ele>
        <time>2021-03-06T14:42:10.000Z</time>
      </trkpt>
      <trkpt lat="45.81607" lon="4.20376">
        <ele>344</ele>
        <time>2021-03-06T14:42:13.000Z</time>
      </trkpt>
      <trkpt lat="45.81628" lon="4.20292">
        <ele>343.39999389648</ele>
        <time>2021-03-06T14:42:20.000Z</time>
      </trkpt>
      <trkpt lat="45.81631" lon="4.20281">
        <ele>343.20001220703</ele>
        <time>2021-03-06T14:42:21.000Z</time>
      </trkpt>
      <trkpt lat="45.81656" lon="4.20199">
        <ele>342.20001220703</ele>
        <time>2021-03-06T14:42:28.000Z</time>
      </trkpt>
      <trkpt lat="45.8166" lon="4.20188">
        <ele>342.20001220703</ele>
        <time>2021-03-06T14:42:29.000Z</time>
      </trkpt>
      <trkpt lat="45.8169" lon="4.2011">
        <ele>341.79998779297</ele>
        <time>2021-03-06T14:42:36.000Z</time>
      </trkpt>
      <trkpt lat="45.81698" lon="4.20088">
        <ele>341.60000610352</ele>
        <time>2021-03-06T14:42:38.000Z</time>
      </trkpt>
      <trkpt lat="45.81721" lon="4.20024">
        <ele>341.20001220703</ele>
        <time>2021-03-06T14:42:44.000Z</time>
      </trkpt>
      <trkpt lat="45.81725" lon="4.20014">
        <ele>340.79998779297</ele>
        <time>2021-03-06T14:42:45.000Z</time>
      </trkpt>
      <trkpt lat="45.81729" lon="4.20007">
        <ele>340.39999389648</ele>
        <time>2021-03-06T14:42:46.000Z</time>
      </trkpt>
      <trkpt lat="45.81733" lon="4.20002">
        <ele>340.20001220703</ele>
        <time>2021-03-06T14:42:47.000Z</time>
      </trkpt>
      <trkpt lat="45.81739" lon="4.19992">
        <ele>340.20001220703</ele>
        <time>2021-03-06T14:42:49.000Z</time>
      </trkpt>
      <trkpt lat="45.81743" lon="4.19979">
        <ele>340.20001220703</ele>
        <time>2021-03-06T14:42:51.000Z</time>
      </trkpt>
      <trkpt lat="45.81743" lon="4.1997">
        <ele>340.20001220703</ele>
        <time>2021-03-06T14:42:52.000Z</time>
      </trkpt>
      <trkpt lat="45.81743" lon="4.19961">
        <ele>340</ele>
        <time>2021-03-06T14:42:53.000Z</time>
      </trkpt>
      <trkpt lat="45.81743" lon="4.19928">
        <ele>339.60000610352</ele>
        <time>2021-03-06T14:42:56.000Z</time>
      </trkpt>
      <trkpt lat="45.8175" lon="4.19855">
        <ele>339.20001220703</ele>
        <time>2021-03-06T14:43:02.000Z</time>
      </trkpt>
      <trkpt lat="45.81751" lon="4.19842">
        <ele>339</ele>
        <time>2021-03-06T14:43:03.000Z</time>
      </trkpt>
      <trkpt lat="45.8176" lon="4.19761">
        <ele>338.60000610352</ele>
        <time>2021-03-06T14:43:09.000Z</time>
      </trkpt>
      <trkpt lat="45.8177" lon="4.19684">
        <ele>338</ele>
        <time>2021-03-06T14:43:15.000Z</time>
      </trkpt>
      <trkpt lat="45.81771" lon="4.19671">
        <ele>337.60000610352</ele>
        <time>2021-03-06T14:43:16.000Z</time>
      </trkpt>
      <trkpt lat="45.81774" lon="4.19647">
        <ele>337.39999389648</ele>
        <time>2021-03-06T14:43:18.000Z</time>
      </trkpt>
      <trkpt lat="45.81776" lon="4.19591">
        <ele>337</ele>
        <time>2021-03-06T14:43:23.000Z</time>
      </trkpt>
      <trkpt lat="45.81783" lon="4.19558">
        <ele>336.39999389648</ele>
        <time>2021-03-06T14:43:26.000Z</time>
      </trkpt>
      <trkpt lat="45.81785" lon="4.19546">
        <ele>336.20001220703</ele>
        <time>2021-03-06T14:43:27.000Z</time>
      </trkpt>
      <trkpt lat="45.81796" lon="4.19472">
        <ele>335.20001220703</ele>
        <time>2021-03-06T14:43:33.000Z</time>
      </trkpt>
      <trkpt lat="45.81801" lon="4.19447">
        <ele>334.79998779297</ele>
        <time>2021-03-06T14:43:35.000Z</time>
      </trkpt>
      <trkpt lat="45.81818" lon="4.1937">
        <ele>334.39999389648</ele>
        <time>2021-03-06T14:43:41.000Z</time>
      </trkpt>
      <trkpt lat="45.81821" lon="4.19357">
        <ele>334.20001220703</ele>
        <time>2021-03-06T14:43:42.000Z</time>
      </trkpt>
      <trkpt lat="45.81823" lon="4.19343">
        <ele>334.20001220703</ele>
        <time>2021-03-06T14:43:43.000Z</time>
      </trkpt>
      <trkpt lat="45.81837" lon="4.1928">
        <ele>333</ele>
        <time>2021-03-06T14:43:48.000Z</time>
      </trkpt>
      <trkpt lat="45.81842" lon="4.19257">
        <ele>332.39999389648</ele>
        <time>2021-03-06T14:43:50.000Z</time>
      </trkpt>
      <trkpt lat="45.81845" lon="4.19244">
        <ele>331.79998779297</ele>
        <time>2021-03-06T14:43:51.000Z</time>
      </trkpt>
      <trkpt lat="45.81856" lon="4.19198">
        <ele>330.79998779297</ele>
        <time>2021-03-06T14:43:55.000Z</time>
      </trkpt>
      <trkpt lat="45.81858" lon="4.19188">
        <ele>330.60000610352</ele>
        <time>2021-03-06T14:43:56.000Z</time>
      </trkpt>
      <trkpt lat="45.81865" lon="4.19162">
        <ele>330</ele>
        <time>2021-03-06T14:43:59.000Z</time>
      </trkpt>
      <trkpt lat="45.81879" lon="4.19111">
        <ele>329.79998779297</ele>
        <time>2021-03-06T14:44:04.000Z</time>
      </trkpt>
      <trkpt lat="45.81881" lon="4.191">
        <ele>329.79998779297</ele>
        <time>2021-03-06T14:44:05.000Z</time>
      </trkpt>
      <trkpt lat="45.81883" lon="4.19077">
        <ele>329.79998779297</ele>
        <time>2021-03-06T14:44:07.000Z</time>
      </trkpt>
      <trkpt lat="45.81877" lon="4.1903">
        <ele>330</ele>
        <time>2021-03-06T14:44:11.000Z</time>
      </trkpt>
      <trkpt lat="45.81862" lon="4.1895">
        <ele>330.60000610352</ele>
        <time>2021-03-06T14:44:18.000Z</time>
      </trkpt>
      <trkpt lat="45.8186" lon="4.18939">
        <ele>330.60000610352</ele>
        <time>2021-03-06T14:44:19.000Z</time>
      </trkpt>
      <trkpt lat="45.81846" lon="4.18869">
        <ele>330.60000610352</ele>
        <time>2021-03-06T14:44:25.000Z</time>
      </trkpt>
      <trkpt lat="45.81837" lon="4.18807">
        <ele>330</ele>
        <time>2021-03-06T14:44:31.000Z</time>
      </trkpt>
      <trkpt lat="45.81828" lon="4.18762">
        <ele>330.20001220703</ele>
        <time>2021-03-06T14:44:36.000Z</time>
      </trkpt>
      <trkpt lat="45.81812" lon="4.18678">
        <ele>330.39999389648</ele>
        <time>2021-03-06T14:44:44.000Z</time>
      </trkpt>
      <trkpt lat="45.818" lon="4.18608">
        <ele>329.60000610352</ele>
        <time>2021-03-06T14:44:50.000Z</time>
      </trkpt>
      <trkpt lat="45.81798" lon="4.18597">
        <ele>329.60000610352</ele>
        <time>2021-03-06T14:44:51.000Z</time>
      </trkpt>
      <trkpt lat="45.81787" lon="4.18544">
        <ele>328.79998779297</ele>
        <time>2021-03-06T14:44:56.000Z</time>
      </trkpt>
      <trkpt lat="45.81784" lon="4.18534">
        <ele>328.39999389648</ele>
        <time>2021-03-06T14:44:57.000Z</time>
      </trkpt>
      <trkpt lat="45.81782" lon="4.18524">
        <ele>328.20001220703</ele>
        <time>2021-03-06T14:44:58.000Z</time>
      </trkpt>
      <trkpt lat="45.81776" lon="4.18505">
        <ele>327.79998779297</ele>
        <time>2021-03-06T14:45:00.000Z</time>
      </trkpt>
      <trkpt lat="45.81767" lon="4.1849">
        <ele>327.39999389648</ele>
        <time>2021-03-06T14:45:02.000Z</time>
      </trkpt>
      <trkpt lat="45.8176" lon="4.18483">
        <ele>327.39999389648</ele>
        <time>2021-03-06T14:45:03.000Z</time>
      </trkpt>
      <trkpt lat="45.81736" lon="4.18449">
        <ele>327</ele>
        <time>2021-03-06T14:45:07.000Z</time>
      </trkpt>
      <trkpt lat="45.81723" lon="4.1843">
        <ele>326.20001220703</ele>
        <time>2021-03-06T14:45:09.000Z</time>
      </trkpt>
      <trkpt lat="45.81689" lon="4.18381">
        <ele>325.20001220703</ele>
        <time>2021-03-06T14:45:14.000Z</time>
      </trkpt>
      <trkpt lat="45.81682" lon="4.18371">
        <ele>325</ele>
        <time>2021-03-06T14:45:15.000Z</time>
      </trkpt>
      <trkpt lat="45.81651" lon="4.18331">
        <ele>324.39999389648</ele>
        <time>2021-03-06T14:45:19.000Z</time>
      </trkpt>
      <trkpt lat="45.81612" lon="4.18276">
        <ele>324.60000610352</ele>
        <time>2021-03-06T14:45:25.000Z</time>
      </trkpt>
      <trkpt lat="45.81606" lon="4.18267">
        <ele>324.79998779297</ele>
        <time>2021-03-06T14:45:26.000Z</time>
      </trkpt>
      <trkpt lat="45.81565" lon="4.18209">
        <ele>325.39999389648</ele>
        <time>2021-03-06T14:45:33.000Z</time>
      </trkpt>
      <trkpt lat="45.81559" lon="4.18201">
        <ele>325.39999389648</ele>
        <time>2021-03-06T14:45:34.000Z</time>
      </trkpt>
      <trkpt lat="45.81518" lon="4.18144">
        <ele>325.60000610352</ele>
        <time>2021-03-06T14:45:41.000Z</time>
      </trkpt>
      <trkpt lat="45.8148" lon="4.18078">
        <ele>324.39999389648</ele>
        <time>2021-03-06T14:45:48.000Z</time>
      </trkpt>
      <trkpt lat="45.81474" lon="4.18054">
        <ele>323.79998779297</ele>
        <time>2021-03-06T14:45:50.000Z</time>
      </trkpt>
      <trkpt lat="45.81472" lon="4.1804">
        <ele>323.39999389648</ele>
        <time>2021-03-06T14:45:51.000Z</time>
      </trkpt>
      <trkpt lat="45.81471" lon="4.18026">
        <ele>323.20001220703</ele>
        <time>2021-03-06T14:45:52.000Z</time>
      </trkpt>
      <trkpt lat="45.81471" lon="4.18013">
        <ele>322.79998779297</ele>
        <time>2021-03-06T14:45:53.000Z</time>
      </trkpt>
      <trkpt lat="45.81472" lon="4.17999">
        <ele>322.39999389648</ele>
        <time>2021-03-06T14:45:54.000Z</time>
      </trkpt>
      <trkpt lat="45.81473" lon="4.17985">
        <ele>322.20001220703</ele>
        <time>2021-03-06T14:45:55.000Z</time>
      </trkpt>
      <trkpt lat="45.81479" lon="4.17958">
        <ele>321.79998779297</ele>
        <time>2021-03-06T14:45:57.000Z</time>
      </trkpt>
      <trkpt lat="45.8149" lon="4.17902">
        <ele>321</ele>
        <time>2021-03-06T14:46:01.000Z</time>
      </trkpt>
      <trkpt lat="45.81493" lon="4.17874">
        <ele>320.60000610352</ele>
        <time>2021-03-06T14:46:03.000Z</time>
      </trkpt>
      <trkpt lat="45.81501" lon="4.17793">
        <ele>320</ele>
        <time>2021-03-06T14:46:09.000Z</time>
      </trkpt>
      <trkpt lat="45.81505" lon="4.17708">
        <ele>320</ele>
        <time>2021-03-06T14:46:15.000Z</time>
      </trkpt>
      <trkpt lat="45.81505" lon="4.17697">
        <ele>320</ele>
        <time>2021-03-06T14:46:16.000Z</time>
      </trkpt>
      <trkpt lat="45.81504" lon="4.17615">
        <ele>319.79998779297</ele>
        <time>2021-03-06T14:46:22.000Z</time>
      </trkpt>
      <trkpt lat="45.81503" lon="4.17599">
        <ele>319.60000610352</ele>
        <time>2021-03-06T14:46:23.000Z</time>
      </trkpt>
      <trkpt lat="45.81503" lon="4.17589">
        <ele>319.39999389648</ele>
        <time>2021-03-06T14:46:24.000Z</time>
      </trkpt>
      <trkpt lat="45.81497" lon="4.175">
        <ele>319</ele>
        <time>2021-03-06T14:46:31.000Z</time>
      </trkpt>
      <trkpt lat="45.81481" lon="4.17443">
        <ele>319.20001220703</ele>
        <time>2021-03-06T14:46:36.000Z</time>
      </trkpt>
      <trkpt lat="45.81452" lon="4.17382">
        <ele>318.79998779297</ele>
        <time>2021-03-06T14:46:42.000Z</time>
      </trkpt>
      <trkpt lat="45.81436" lon="4.17355">
        <ele>318.60000610352</ele>
        <time>2021-03-06T14:46:45.000Z</time>
      </trkpt>
      <trkpt lat="45.81398" lon="4.17292">
        <ele>317.60000610352</ele>
        <time>2021-03-06T14:46:52.000Z</time>
      </trkpt>
      <trkpt lat="45.81393" lon="4.17282">
        <ele>317.39999389648</ele>
        <time>2021-03-06T14:46:53.000Z</time>
      </trkpt>
      <trkpt lat="45.8137" lon="4.17228">
        <ele>317.39999389648</ele>
        <time>2021-03-06T14:46:58.000Z</time>
      </trkpt>
      <trkpt lat="45.81344" lon="4.17156">
        <ele>316.79998779297</ele>
        <time>2021-03-06T14:47:05.000Z</time>
      </trkpt>
      <trkpt lat="45.81318" lon="4.17083">
        <ele>317.20001220703</ele>
        <time>2021-03-06T14:47:12.000Z</time>
      </trkpt>
      <trkpt lat="45.81308" lon="4.17051">
        <ele>317.20001220703</ele>
        <time>2021-03-06T14:47:15.000Z</time>
      </trkpt>
      <trkpt lat="45.81283" lon="4.16978">
        <ele>317</ele>
        <time>2021-03-06T14:47:22.000Z</time>
      </trkpt>
      <trkpt lat="45.81268" lon="4.16935">
        <ele>316.79998779297</ele>
        <time>2021-03-06T14:47:26.000Z</time>
      </trkpt>
      <trkpt lat="45.81242" lon="4.16861">
        <ele>317</ele>
        <time>2021-03-06T14:47:33.000Z</time>
      </trkpt>
      <trkpt lat="45.81231" lon="4.1683">
        <ele>317</ele>
        <time>2021-03-06T14:47:36.000Z</time>
      </trkpt>
      <trkpt lat="45.81206" lon="4.1676">
        <ele>316.79998779297</ele>
        <time>2021-03-06T14:47:43.000Z</time>
      </trkpt>
      <trkpt lat="45.81181" lon="4.1669">
        <ele>316.79998779297</ele>
        <time>2021-03-06T14:47:50.000Z</time>
      </trkpt>
      <trkpt lat="45.81178" lon="4.1668">
        <ele>316.79998779297</ele>
        <time>2021-03-06T14:47:51.000Z</time>
      </trkpt>
      <trkpt lat="45.81153" lon="4.16609">
        <ele>316.60000610352</ele>
        <time>2021-03-06T14:47:58.000Z</time>
      </trkpt>
      <trkpt lat="45.8114" lon="4.16571">
        <ele>316.60000610352</ele>
        <time>2021-03-06T14:48:02.000Z</time>
      </trkpt>
      <trkpt lat="45.81116" lon="4.16505">
        <ele>317.20001220703</ele>
        <time>2021-03-06T14:48:09.000Z</time>
      </trkpt>
      <trkpt lat="45.81092" lon="4.16434">
        <ele>316.79998779297</ele>
        <time>2021-03-06T14:48:16.000Z</time>
      </trkpt>
      <trkpt lat="45.81077" lon="4.16393">
        <ele>316.79998779297</ele>
        <time>2021-03-06T14:48:20.000Z</time>
      </trkpt>
      <trkpt lat="45.81052" lon="4.16321">
        <ele>316.79998779297</ele>
        <time>2021-03-06T14:48:27.000Z</time>
      </trkpt>
      <trkpt lat="45.81041" lon="4.16292">
        <ele>316.79998779297</ele>
        <time>2021-03-06T14:48:30.000Z</time>
      </trkpt>
      <trkpt lat="45.81017" lon="4.16222">
        <ele>316.79998779297</ele>
        <time>2021-03-06T14:48:37.000Z</time>
      </trkpt>
      <trkpt lat="45.81014" lon="4.16212">
        <ele>317</ele>
        <time>2021-03-06T14:48:38.000Z</time>
      </trkpt>
      <trkpt lat="45.80989" lon="4.16142">
        <ele>316.79998779297</ele>
        <time>2021-03-06T14:48:45.000Z</time>
      </trkpt>
      <trkpt lat="45.80982" lon="4.16122">
        <ele>316.79998779297</ele>
        <time>2021-03-06T14:48:47.000Z</time>
      </trkpt>
      <trkpt lat="45.8096" lon="4.16074">
        <ele>316.60000610352</ele>
        <time>2021-03-06T14:48:52.000Z</time>
      </trkpt>
      <trkpt lat="45.80923" lon="4.16028">
        <ele>316.39999389648</ele>
        <time>2021-03-06T14:48:58.000Z</time>
      </trkpt>
      <trkpt lat="45.80916" lon="4.16021">
        <ele>316.20001220703</ele>
        <time>2021-03-06T14:48:59.000Z</time>
      </trkpt>
      <trkpt lat="45.80871" lon="4.1597">
        <ele>316.39999389648</ele>
        <time>2021-03-06T14:49:06.000Z</time>
      </trkpt>
      <trkpt lat="45.80826" lon="4.15921">
        <ele>317</ele>
        <time>2021-03-06T14:49:13.000Z</time>
      </trkpt>
      <trkpt lat="45.80814" lon="4.15907">
        <ele>317.39999389648</ele>
        <time>2021-03-06T14:49:15.000Z</time>
      </trkpt>
      <trkpt lat="45.80808" lon="4.15901">
        <ele>317.39999389648</ele>
        <time>2021-03-06T14:49:16.000Z</time>
      </trkpt>
      <trkpt lat="45.80764" lon="4.1585">
        <ele>318.39999389648</ele>
        <time>2021-03-06T14:49:24.000Z</time>
      </trkpt>
      <trkpt lat="45.80728" lon="4.15808">
        <ele>319.20001220703</ele>
        <time>2021-03-06T14:49:31.000Z</time>
      </trkpt>
      <trkpt lat="45.80718" lon="4.15797">
        <ele>319.39999389648</ele>
        <time>2021-03-06T14:49:33.000Z</time>
      </trkpt>
      <trkpt lat="45.8069" lon="4.15763">
        <ele>320.39999389648</ele>
        <time>2021-03-06T14:49:39.000Z</time>
      </trkpt>
      <trkpt lat="45.80673" lon="4.15738">
        <ele>321.39999389648</ele>
        <time>2021-03-06T14:49:43.000Z</time>
      </trkpt>
      <trkpt lat="45.8067" lon="4.1573">
        <ele>321.60000610352</ele>
        <time>2021-03-06T14:49:44.000Z</time>
      </trkpt>
      <trkpt lat="45.80666" lon="4.15715">
        <ele>322.20001220703</ele>
        <time>2021-03-06T14:49:46.000Z</time>
      </trkpt>
      <trkpt lat="45.80665" lon="4.15707">
        <ele>322.39999389648</ele>
        <time>2021-03-06T14:49:47.000Z</time>
      </trkpt>
      <trkpt lat="45.80663" lon="4.157">
        <ele>322.79998779297</ele>
        <time>2021-03-06T14:49:48.000Z</time>
      </trkpt>
      <trkpt lat="45.8066" lon="4.15686">
        <ele>323.60000610352</ele>
        <time>2021-03-06T14:49:50.000Z</time>
      </trkpt>
      <trkpt lat="45.80657" lon="4.1568">
        <ele>324</ele>
        <time>2021-03-06T14:49:51.000Z</time>
      </trkpt>
      <trkpt lat="45.80654" lon="4.15674">
        <ele>324.39999389648</ele>
        <time>2021-03-06T14:49:52.000Z</time>
      </trkpt>
      <trkpt lat="45.80646" lon="4.15666">
        <ele>325</ele>
        <time>2021-03-06T14:49:54.000Z</time>
      </trkpt>
      <trkpt lat="45.80642" lon="4.15662">
        <ele>325.60000610352</ele>
        <time>2021-03-06T14:49:55.000Z</time>
      </trkpt>
      <trkpt lat="45.80633" lon="4.15655">
        <ele>326.20001220703</ele>
        <time>2021-03-06T14:49:57.000Z</time>
      </trkpt>
      <trkpt lat="45.80629" lon="4.15651">
        <ele>326.60000610352</ele>
        <time>2021-03-06T14:49:58.000Z</time>
      </trkpt>
      <trkpt lat="45.80623" lon="4.15642">
        <ele>327.39999389648</ele>
        <time>2021-03-06T14:50:00.000Z</time>
      </trkpt>
      <trkpt lat="45.80617" lon="4.15635">
        <ele>328.20001220703</ele>
        <time>2021-03-06T14:50:02.000Z</time>
      </trkpt>
      <trkpt lat="45.80615" lon="4.1563">
        <ele>328.60000610352</ele>
        <time>2021-03-06T14:50:03.000Z</time>
      </trkpt>
      <trkpt lat="45.80611" lon="4.15622">
        <ele>329.20001220703</ele>
        <time>2021-03-06T14:50:05.000Z</time>
      </trkpt>
      <trkpt lat="45.80609" lon="4.15618">
        <ele>329.60000610352</ele>
        <time>2021-03-06T14:50:06.000Z</time>
      </trkpt>
      <trkpt lat="45.80605" lon="4.15602">
        <ele>330.79998779297</ele>
        <time>2021-03-06T14:50:09.000Z</time>
      </trkpt>
      <trkpt lat="45.80604" lon="4.15596">
        <ele>331</ele>
        <time>2021-03-06T14:50:10.000Z</time>
      </trkpt>
      <trkpt lat="45.80602" lon="4.15579">
        <ele>331.79998779297</ele>
        <time>2021-03-06T14:50:13.000Z</time>
      </trkpt>
      <trkpt lat="45.806" lon="4.15566">
        <ele>332.60000610352</ele>
        <time>2021-03-06T14:50:15.000Z</time>
      </trkpt>
      <trkpt lat="45.80599" lon="4.1556">
        <ele>333</ele>
        <time>2021-03-06T14:50:16.000Z</time>
      </trkpt>
      <trkpt lat="45.80597" lon="4.15542">
        <ele>334.20001220703</ele>
        <time>2021-03-06T14:50:19.000Z</time>
      </trkpt>
      <trkpt lat="45.80594" lon="4.1553">
        <ele>334.79998779297</ele>
        <time>2021-03-06T14:50:21.000Z</time>
      </trkpt>
      <trkpt lat="45.80591" lon="4.15525">
        <ele>335</ele>
        <time>2021-03-06T14:50:22.000Z</time>
      </trkpt>
      <trkpt lat="45.80588" lon="4.15519">
        <ele>335.20001220703</ele>
        <time>2021-03-06T14:50:23.000Z</time>
      </trkpt>
      <trkpt lat="45.80582" lon="4.15508">
        <ele>335.60000610352</ele>
        <time>2021-03-06T14:50:25.000Z</time>
      </trkpt>
      <trkpt lat="45.80565" lon="4.1548">
        <ele>336.39999389648</ele>
        <time>2021-03-06T14:50:30.000Z</time>
      </trkpt>
      <trkpt lat="45.80548" lon="4.15449">
        <ele>337.39999389648</ele>
        <time>2021-03-06T14:50:35.000Z</time>
      </trkpt>
      <trkpt lat="45.80545" lon="4.15443">
        <ele>337.60000610352</ele>
        <time>2021-03-06T14:50:36.000Z</time>
      </trkpt>
      <trkpt lat="45.80531" lon="4.15419">
        <ele>338.39999389648</ele>
        <time>2021-03-06T14:50:40.000Z</time>
      </trkpt>
      <trkpt lat="45.80527" lon="4.15413">
        <ele>338.79998779297</ele>
        <time>2021-03-06T14:50:41.000Z</time>
      </trkpt>
      <trkpt lat="45.80524" lon="4.15407">
        <ele>339</ele>
        <time>2021-03-06T14:50:42.000Z</time>
      </trkpt>
      <trkpt lat="45.80514" lon="4.15381">
        <ele>340</ele>
        <time>2021-03-06T14:50:46.000Z</time>
      </trkpt>
      <trkpt lat="45.80501" lon="4.15353">
        <ele>341.20001220703</ele>
        <time>2021-03-06T14:50:50.000Z</time>
      </trkpt>
      <trkpt lat="45.80489" lon="4.15326">
        <ele>342.39999389648</ele>
        <time>2021-03-06T14:50:54.000Z</time>
      </trkpt>
      <trkpt lat="45.80484" lon="4.15318">
        <ele>342.79998779297</ele>
        <time>2021-03-06T14:50:55.000Z</time>
      </trkpt>
      <trkpt lat="45.80476" lon="4.15288">
        <ele>343.60000610352</ele>
        <time>2021-03-06T14:50:59.000Z</time>
      </trkpt>
      <trkpt lat="45.80473" lon="4.15273">
        <ele>344.20001220703</ele>
        <time>2021-03-06T14:51:01.000Z</time>
      </trkpt>
      <trkpt lat="45.80469" lon="4.1525">
        <ele>344.79998779297</ele>
        <time>2021-03-06T14:51:04.000Z</time>
      </trkpt>
      <trkpt lat="45.80469" lon="4.15233">
        <ele>345.39999389648</ele>
        <time>2021-03-06T14:51:06.000Z</time>
      </trkpt>
      <trkpt lat="45.80469" lon="4.15225">
        <ele>345.60000610352</ele>
        <time>2021-03-06T14:51:07.000Z</time>
      </trkpt>
      <trkpt lat="45.80472" lon="4.15209">
        <ele>346</ele>
        <time>2021-03-06T14:51:09.000Z</time>
      </trkpt>
      <trkpt lat="45.80475" lon="4.15185">
        <ele>347</ele>
        <time>2021-03-06T14:51:12.000Z</time>
      </trkpt>
      <trkpt lat="45.80479" lon="4.15162">
        <ele>347.79998779297</ele>
        <time>2021-03-06T14:51:15.000Z</time>
      </trkpt>
      <trkpt lat="45.80481" lon="4.15147">
        <ele>348.20001220703</ele>
        <time>2021-03-06T14:51:17.000Z</time>
      </trkpt>
      <trkpt lat="45.80483" lon="4.15132">
        <ele>348.79998779297</ele>
        <time>2021-03-06T14:51:19.000Z</time>
      </trkpt>
      <trkpt lat="45.80485" lon="4.15116">
        <ele>349.39999389648</ele>
        <time>2021-03-06T14:51:21.000Z</time>
      </trkpt>
      <trkpt lat="45.80486" lon="4.15108">
        <ele>349.79998779297</ele>
        <time>2021-03-06T14:51:22.000Z</time>
      </trkpt>
      <trkpt lat="45.80486" lon="4.15093">
        <ele>350.39999389648</ele>
        <time>2021-03-06T14:51:24.000Z</time>
      </trkpt>
      <trkpt lat="45.80486" lon="4.15085">
        <ele>350.60000610352</ele>
        <time>2021-03-06T14:51:25.000Z</time>
      </trkpt>
      <trkpt lat="45.80486" lon="4.1507">
        <ele>350.79998779297</ele>
        <time>2021-03-06T14:51:27.000Z</time>
      </trkpt>
      <trkpt lat="45.80483" lon="4.15029">
        <ele>351.79998779297</ele>
        <time>2021-03-06T14:51:32.000Z</time>
      </trkpt>
      <trkpt lat="45.80482" lon="4.15005">
        <ele>352.20001220703</ele>
        <time>2021-03-06T14:51:35.000Z</time>
      </trkpt>
      <trkpt lat="45.80482" lon="4.14971">
        <ele>352.79998779297</ele>
        <time>2021-03-06T14:51:39.000Z</time>
      </trkpt>
      <trkpt lat="45.80482" lon="4.14962">
        <ele>352.79998779297</ele>
        <time>2021-03-06T14:51:40.000Z</time>
      </trkpt>
      <trkpt lat="45.80483" lon="4.14944">
        <ele>353.20001220703</ele>
        <time>2021-03-06T14:51:42.000Z</time>
      </trkpt>
      <trkpt lat="45.80492" lon="4.14885">
        <ele>353.79998779297</ele>
        <time>2021-03-06T14:51:49.000Z</time>
      </trkpt>
      <trkpt lat="45.80492" lon="4.14876">
        <ele>354</ele>
        <time>2021-03-06T14:51:50.000Z</time>
      </trkpt>
      <trkpt lat="45.80499" lon="4.14804">
        <ele>355</ele>
        <time>2021-03-06T14:51:58.000Z</time>
      </trkpt>
      <trkpt lat="45.805" lon="4.14795">
        <ele>355</ele>
        <time>2021-03-06T14:51:59.000Z</time>
      </trkpt>
      <trkpt lat="45.80509" lon="4.14726">
        <ele>356</ele>
        <time>2021-03-06T14:52:06.000Z</time>
      </trkpt>
      <trkpt lat="45.80524" lon="4.14649">
        <ele>356.79998779297</ele>
        <time>2021-03-06T14:52:14.000Z</time>
      </trkpt>
      <trkpt lat="45.80532" lon="4.14611">
        <ele>357.20001220703</ele>
        <time>2021-03-06T14:52:18.000Z</time>
      </trkpt>
      <trkpt lat="45.80538" lon="4.14582">
        <ele>358</ele>
        <time>2021-03-06T14:52:21.000Z</time>
      </trkpt>
      <trkpt lat="45.80542" lon="4.14563">
        <ele>358.20001220703</ele>
        <time>2021-03-06T14:52:23.000Z</time>
      </trkpt>
      <trkpt lat="45.80556" lon="4.14504">
        <ele>358.79998779297</ele>
        <time>2021-03-06T14:52:29.000Z</time>
      </trkpt>
      <trkpt lat="45.80563" lon="4.14474">
        <ele>359.20001220703</ele>
        <time>2021-03-06T14:52:32.000Z</time>
      </trkpt>
      <trkpt lat="45.80578" lon="4.14403">
        <ele>360</ele>
        <time>2021-03-06T14:52:39.000Z</time>
      </trkpt>
      <trkpt lat="45.80583" lon="4.14383">
        <ele>360.39999389648</ele>
        <time>2021-03-06T14:52:41.000Z</time>
      </trkpt>
      <trkpt lat="45.80596" lon="4.14321">
        <ele>361.20001220703</ele>
        <time>2021-03-06T14:52:47.000Z</time>
      </trkpt>
      <trkpt lat="45.80599" lon="4.143">
        <ele>361.39999389648</ele>
        <time>2021-03-06T14:52:49.000Z</time>
      </trkpt>
      <trkpt lat="45.80611" lon="4.14238">
        <ele>361.79998779297</ele>
        <time>2021-03-06T14:52:55.000Z</time>
      </trkpt>
      <trkpt lat="45.80629" lon="4.14155">
        <ele>362.39999389648</ele>
        <time>2021-03-06T14:53:03.000Z</time>
      </trkpt>
      <trkpt lat="45.80634" lon="4.14135">
        <ele>362.60000610352</ele>
        <time>2021-03-06T14:53:05.000Z</time>
      </trkpt>
      <trkpt lat="45.80646" lon="4.14076">
        <ele>363.60000610352</ele>
        <time>2021-03-06T14:53:11.000Z</time>
      </trkpt>
      <trkpt lat="45.80654" lon="4.14036">
        <ele>364.20001220703</ele>
        <time>2021-03-06T14:53:15.000Z</time>
      </trkpt>
      <trkpt lat="45.80661" lon="4.14007">
        <ele>364.79998779297</ele>
        <time>2021-03-06T14:53:18.000Z</time>
      </trkpt>
      <trkpt lat="45.8067" lon="4.13967">
        <ele>365</ele>
        <time>2021-03-06T14:53:22.000Z</time>
      </trkpt>
      <trkpt lat="45.80691" lon="4.13898">
        <ele>365.39999389648</ele>
        <time>2021-03-06T14:53:29.000Z</time>
      </trkpt>
      <trkpt lat="45.8071" lon="4.1386">
        <ele>365.79998779297</ele>
        <time>2021-03-06T14:53:33.000Z</time>
      </trkpt>
      <trkpt lat="45.80715" lon="4.13852">
        <ele>366</ele>
        <time>2021-03-06T14:53:34.000Z</time>
      </trkpt>
      <trkpt lat="45.80751" lon="4.13807">
        <ele>366</ele>
        <time>2021-03-06T14:53:40.000Z</time>
      </trkpt>
      <trkpt lat="45.80795" lon="4.13755">
        <ele>366</ele>
        <time>2021-03-06T14:53:47.000Z</time>
      </trkpt>
      <trkpt lat="45.80801" lon="4.13748">
        <ele>366</ele>
        <time>2021-03-06T14:53:48.000Z</time>
      </trkpt>
      <trkpt lat="45.80847" lon="4.13691">
        <ele>365.20001220703</ele>
        <time>2021-03-06T14:53:55.000Z</time>
      </trkpt>
      <trkpt lat="45.80854" lon="4.13683">
        <ele>365</ele>
        <time>2021-03-06T14:53:56.000Z</time>
      </trkpt>
      <trkpt lat="45.80868" lon="4.13668">
        <ele>364.79998779297</ele>
        <time>2021-03-06T14:53:58.000Z</time>
      </trkpt>
      <trkpt lat="45.80917" lon="4.1361">
        <ele>364.60000610352</ele>
        <time>2021-03-06T14:54:05.000Z</time>
      </trkpt>
      <trkpt lat="45.80938" lon="4.13583">
        <ele>364.39999389648</ele>
        <time>2021-03-06T14:54:08.000Z</time>
      </trkpt>
      <trkpt lat="45.80957" lon="4.13553">
        <ele>364.20001220703</ele>
        <time>2021-03-06T14:54:11.000Z</time>
      </trkpt>
      <trkpt lat="45.80971" lon="4.13518">
        <ele>363.79998779297</ele>
        <time>2021-03-06T14:54:14.000Z</time>
      </trkpt>
      <trkpt lat="45.80979" lon="4.13494">
        <ele>363.60000610352</ele>
        <time>2021-03-06T14:54:16.000Z</time>
      </trkpt>
      <trkpt lat="45.80997" lon="4.13433">
        <ele>362.79998779297</ele>
        <time>2021-03-06T14:54:21.000Z</time>
      </trkpt>
      <trkpt lat="45.81009" lon="4.13397">
        <ele>362.60000610352</ele>
        <time>2021-03-06T14:54:24.000Z</time>
      </trkpt>
      <trkpt lat="45.81029" lon="4.13323">
        <ele>361.79998779297</ele>
        <time>2021-03-06T14:54:30.000Z</time>
      </trkpt>
      <trkpt lat="45.81032" lon="4.1331">
        <ele>361.39999389648</ele>
        <time>2021-03-06T14:54:31.000Z</time>
      </trkpt>
      <trkpt lat="45.81042" lon="4.13271">
        <ele>360.60000610352</ele>
        <time>2021-03-06T14:54:34.000Z</time>
      </trkpt>
      <trkpt lat="45.81056" lon="4.13221">
        <ele>359.60000610352</ele>
        <time>2021-03-06T14:54:38.000Z</time>
      </trkpt>
      <trkpt lat="45.81059" lon="4.13209">
        <ele>359.39999389648</ele>
        <time>2021-03-06T14:54:39.000Z</time>
      </trkpt>
      <trkpt lat="45.81076" lon="4.13146">
        <ele>358.39999389648</ele>
        <time>2021-03-06T14:54:44.000Z</time>
      </trkpt>
      <trkpt lat="45.81089" lon="4.13098">
        <ele>357.39999389648</ele>
        <time>2021-03-06T14:54:48.000Z</time>
      </trkpt>
      <trkpt lat="45.81092" lon="4.13086">
        <ele>357.20001220703</ele>
        <time>2021-03-06T14:54:49.000Z</time>
      </trkpt>
      <trkpt lat="45.81108" lon="4.13025">
        <ele>356</ele>
        <time>2021-03-06T14:54:54.000Z</time>
      </trkpt>
      <trkpt lat="45.8112" lon="4.12977">
        <ele>355.39999389648</ele>
        <time>2021-03-06T14:54:58.000Z</time>
      </trkpt>
      <trkpt lat="45.81137" lon="4.12917">
        <ele>355</ele>
        <time>2021-03-06T14:55:03.000Z</time>
      </trkpt>
      <trkpt lat="45.81144" lon="4.12893">
        <ele>355</ele>
        <time>2021-03-06T14:55:05.000Z</time>
      </trkpt>
      <trkpt lat="45.8115" lon="4.12868">
        <ele>354.60000610352</ele>
        <time>2021-03-06T14:55:07.000Z</time>
      </trkpt>
      <trkpt lat="45.81168" lon="4.12805">
        <ele>354</ele>
        <time>2021-03-06T14:55:12.000Z</time>
      </trkpt>
      <trkpt lat="45.81178" lon="4.12765">
        <ele>353.39999389648</ele>
        <time>2021-03-06T14:55:15.000Z</time>
      </trkpt>
      <trkpt lat="45.81195" lon="4.12702">
        <ele>352.60000610352</ele>
        <time>2021-03-06T14:55:20.000Z</time>
      </trkpt>
      <trkpt lat="45.81213" lon="4.12639">
        <ele>351.60000610352</ele>
        <time>2021-03-06T14:55:25.000Z</time>
      </trkpt>
      <trkpt lat="45.81234" lon="4.12563">
        <ele>350.79998779297</ele>
        <time>2021-03-06T14:55:31.000Z</time>
      </trkpt>
      <trkpt lat="45.81244" lon="4.12525">
        <ele>350.60000610352</ele>
        <time>2021-03-06T14:55:34.000Z</time>
      </trkpt>
      <trkpt lat="45.81247" lon="4.12513">
        <ele>350.20001220703</ele>
        <time>2021-03-06T14:55:35.000Z</time>
      </trkpt>
      <trkpt lat="45.8126" lon="4.12464">
        <ele>349.60000610352</ele>
        <time>2021-03-06T14:55:39.000Z</time>
      </trkpt>
      <trkpt lat="45.81273" lon="4.12415">
        <ele>348.79998779297</ele>
        <time>2021-03-06T14:55:43.000Z</time>
      </trkpt>
      <trkpt lat="45.81277" lon="4.12403">
        <ele>348.60000610352</ele>
        <time>2021-03-06T14:55:44.000Z</time>
      </trkpt>
      <trkpt lat="45.81296" lon="4.12328">
        <ele>347.39999389648</ele>
        <time>2021-03-06T14:55:50.000Z</time>
      </trkpt>
      <trkpt lat="45.81299" lon="4.12315">
        <ele>347.39999389648</ele>
        <time>2021-03-06T14:55:51.000Z</time>
      </trkpt>
      <trkpt lat="45.81317" lon="4.12253">
        <ele>346.39999389648</ele>
        <time>2021-03-06T14:55:56.000Z</time>
      </trkpt>
      <trkpt lat="45.81331" lon="4.12202">
        <ele>345.60000610352</ele>
        <time>2021-03-06T14:56:00.000Z</time>
      </trkpt>
      <trkpt lat="45.81334" lon="4.12189">
        <ele>345.20001220703</ele>
        <time>2021-03-06T14:56:01.000Z</time>
      </trkpt>
      <trkpt lat="45.81348" lon="4.12139">
        <ele>344.20001220703</ele>
        <time>2021-03-06T14:56:05.000Z</time>
      </trkpt>
      <trkpt lat="45.81362" lon="4.12088">
        <ele>343.20001220703</ele>
        <time>2021-03-06T14:56:09.000Z</time>
      </trkpt>
      <trkpt lat="45.81366" lon="4.12074">
        <ele>342.79998779297</ele>
        <time>2021-03-06T14:56:10.000Z</time>
      </trkpt>
      <trkpt lat="45.81387" lon="4.11996">
        <ele>342.20001220703</ele>
        <time>2021-03-06T14:56:16.000Z</time>
      </trkpt>
      <trkpt lat="45.81391" lon="4.11983">
        <ele>342</ele>
        <time>2021-03-06T14:56:17.000Z</time>
      </trkpt>
      <trkpt lat="45.81401" lon="4.11946">
        <ele>341.79998779297</ele>
        <time>2021-03-06T14:56:20.000Z</time>
      </trkpt>
      <trkpt lat="45.81421" lon="4.11873">
        <ele>341.39999389648</ele>
        <time>2021-03-06T14:56:26.000Z</time>
      </trkpt>
      <trkpt lat="45.81424" lon="4.11861">
        <ele>341.39999389648</ele>
        <time>2021-03-06T14:56:27.000Z</time>
      </trkpt>
      <trkpt lat="45.8143" lon="4.11839">
        <ele>340.79998779297</ele>
        <time>2021-03-06T14:56:29.000Z</time>
      </trkpt>
      <trkpt lat="45.81443" lon="4.11794">
        <ele>340.60000610352</ele>
        <time>2021-03-06T14:56:33.000Z</time>
      </trkpt>
      <trkpt lat="45.81464" lon="4.11714">
        <ele>341.60000610352</ele>
        <time>2021-03-06T14:56:40.000Z</time>
      </trkpt>
      <trkpt lat="45.81467" lon="4.11703">
        <ele>341.79998779297</ele>
        <time>2021-03-06T14:56:41.000Z</time>
      </trkpt>
      <trkpt lat="45.81469" lon="4.11692">
        <ele>342</ele>
        <time>2021-03-06T14:56:42.000Z</time>
      </trkpt>
      <trkpt lat="45.81489" lon="4.11616">
        <ele>342.39999389648</ele>
        <time>2021-03-06T14:56:49.000Z</time>
      </trkpt>
      <trkpt lat="45.81495" lon="4.11594">
        <ele>342.20001220703</ele>
        <time>2021-03-06T14:56:51.000Z</time>
      </trkpt>
      <trkpt lat="45.81518" lon="4.1151">
        <ele>340.79998779297</ele>
        <time>2021-03-06T14:56:58.000Z</time>
      </trkpt>
      <trkpt lat="45.81521" lon="4.11498">
        <ele>340.39999389648</ele>
        <time>2021-03-06T14:56:59.000Z</time>
      </trkpt>
      <trkpt lat="45.81532" lon="4.1146">
        <ele>339.60000610352</ele>
        <time>2021-03-06T14:57:02.000Z</time>
      </trkpt>
      <trkpt lat="45.81541" lon="4.11425">
        <ele>338.39999389648</ele>
        <time>2021-03-06T14:57:05.000Z</time>
      </trkpt>
      <trkpt lat="45.81547" lon="4.11401">
        <ele>338</ele>
        <time>2021-03-06T14:57:07.000Z</time>
      </trkpt>
      <trkpt lat="45.81564" lon="4.11343">
        <ele>337.20001220703</ele>
        <time>2021-03-06T14:57:12.000Z</time>
      </trkpt>
      <trkpt lat="45.81567" lon="4.11332">
        <ele>337</ele>
        <time>2021-03-06T14:57:13.000Z</time>
      </trkpt>
      <trkpt lat="45.81587" lon="4.1126">
        <ele>336.20001220703</ele>
        <time>2021-03-06T14:57:19.000Z</time>
      </trkpt>
      <trkpt lat="45.816" lon="4.11212">
        <ele>335.60000610352</ele>
        <time>2021-03-06T14:57:23.000Z</time>
      </trkpt>
      <trkpt lat="45.8161" lon="4.11174">
        <ele>335</ele>
        <time>2021-03-06T14:57:26.000Z</time>
      </trkpt>
      <trkpt lat="45.8162" lon="4.11136">
        <ele>333.79998779297</ele>
        <time>2021-03-06T14:57:29.000Z</time>
      </trkpt>
      <trkpt lat="45.81629" lon="4.11112">
        <ele>332.60000610352</ele>
        <time>2021-03-06T14:57:31.000Z</time>
      </trkpt>
      <trkpt lat="45.81658" lon="4.11039">
        <ele>331.20001220703</ele>
        <time>2021-03-06T14:57:37.000Z</time>
      </trkpt>
      <trkpt lat="45.81663" lon="4.11027">
        <ele>331</ele>
        <time>2021-03-06T14:57:38.000Z</time>
      </trkpt>
      <trkpt lat="45.81692" lon="4.10961">
        <ele>331</ele>
        <time>2021-03-06T14:57:44.000Z</time>
      </trkpt>
      <trkpt lat="45.81713" lon="4.10912">
        <ele>332.39999389648</ele>
        <time>2021-03-06T14:57:49.000Z</time>
      </trkpt>
      <trkpt lat="45.81716" lon="4.10902">
        <ele>332.60000610352</ele>
        <time>2021-03-06T14:57:50.000Z</time>
      </trkpt>
      <trkpt lat="45.81726" lon="4.10872">
        <ele>333.39999389648</ele>
        <time>2021-03-06T14:57:53.000Z</time>
      </trkpt>
      <trkpt lat="45.81736" lon="4.1083">
        <ele>334.60000610352</ele>
        <time>2021-03-06T14:57:57.000Z</time>
      </trkpt>
      <trkpt lat="45.81741" lon="4.10797">
        <ele>335.60000610352</ele>
        <time>2021-03-06T14:58:00.000Z</time>
      </trkpt>
      <trkpt lat="45.81745" lon="4.10765">
        <ele>335.79998779297</ele>
        <time>2021-03-06T14:58:03.000Z</time>
      </trkpt>
      <trkpt lat="45.81745" lon="4.107">
        <ele>336.60000610352</ele>
        <time>2021-03-06T14:58:09.000Z</time>
      </trkpt>
      <trkpt lat="45.81744" lon="4.10689">
        <ele>336.60000610352</ele>
        <time>2021-03-06T14:58:10.000Z</time>
      </trkpt>
      <trkpt lat="45.81739" lon="4.10601">
        <ele>336.79998779297</ele>
        <time>2021-03-06T14:58:18.000Z</time>
      </trkpt>
      <trkpt lat="45.81739" lon="4.10591">
        <ele>336.79998779297</ele>
        <time>2021-03-06T14:58:19.000Z</time>
      </trkpt>
      <trkpt lat="45.81734" lon="4.10513">
        <ele>337</ele>
        <time>2021-03-06T14:58:26.000Z</time>
      </trkpt>
      <trkpt lat="45.81733" lon="4.1048">
        <ele>337</ele>
        <time>2021-03-06T14:58:29.000Z</time>
      </trkpt>
      <trkpt lat="45.81729" lon="4.10393">
        <ele>337.39999389648</ele>
        <time>2021-03-06T14:58:37.000Z</time>
      </trkpt>
      <trkpt lat="45.81728" lon="4.10382">
        <ele>337.60000610352</ele>
        <time>2021-03-06T14:58:38.000Z</time>
      </trkpt>
      <trkpt lat="45.81727" lon="4.10371">
        <ele>337.60000610352</ele>
        <time>2021-03-06T14:58:39.000Z</time>
      </trkpt>
      <trkpt lat="45.81723" lon="4.10295">
        <ele>337.79998779297</ele>
        <time>2021-03-06T14:58:46.000Z</time>
      </trkpt>
      <trkpt lat="45.81718" lon="4.10207">
        <ele>338</ele>
        <time>2021-03-06T14:58:54.000Z</time>
      </trkpt>
      <trkpt lat="45.81715" lon="4.10129">
        <ele>338</ele>
        <time>2021-03-06T14:59:01.000Z</time>
      </trkpt>
      <trkpt lat="45.81714" lon="4.10107">
        <ele>338</ele>
        <time>2021-03-06T14:59:03.000Z</time>
      </trkpt>
      <trkpt lat="45.81708" lon="4.10026">
        <ele>338.20001220703</ele>
        <time>2021-03-06T14:59:10.000Z</time>
      </trkpt>
      <trkpt lat="45.81705" lon="4.09981">
        <ele>338.39999389648</ele>
        <time>2021-03-06T14:59:14.000Z</time>
      </trkpt>
      <trkpt lat="45.81702" lon="4.09903">
        <ele>338.39999389648</ele>
        <time>2021-03-06T14:59:21.000Z</time>
      </trkpt>
      <trkpt lat="45.817" lon="4.0988">
        <ele>338.39999389648</ele>
        <time>2021-03-06T14:59:23.000Z</time>
      </trkpt>
      <trkpt lat="45.81696" lon="4.098">
        <ele>338.60000610352</ele>
        <time>2021-03-06T14:59:30.000Z</time>
      </trkpt>
      <trkpt lat="45.81694" lon="4.09776">
        <ele>338.60000610352</ele>
        <time>2021-03-06T14:59:32.000Z</time>
      </trkpt>
      <trkpt lat="45.81689" lon="4.09694">
        <ele>339</ele>
        <time>2021-03-06T14:59:39.000Z</time>
      </trkpt>
      <trkpt lat="45.81687" lon="4.09647">
        <ele>339.20001220703</ele>
        <time>2021-03-06T14:59:43.000Z</time>
      </trkpt>
      <trkpt lat="45.81682" lon="4.09565">
        <ele>339.20001220703</ele>
        <time>2021-03-06T14:59:50.000Z</time>
      </trkpt>
      <trkpt lat="45.8168" lon="4.09506">
        <ele>339.39999389648</ele>
        <time>2021-03-06T14:59:55.000Z</time>
      </trkpt>
      <trkpt lat="45.81676" lon="4.09424">
        <ele>339.20001220703</ele>
        <time>2021-03-06T15:00:02.000Z</time>
      </trkpt>
      <trkpt lat="45.81675" lon="4.0939">
        <ele>339.20001220703</ele>
        <time>2021-03-06T15:00:05.000Z</time>
      </trkpt>
      <trkpt lat="45.8167" lon="4.09305">
        <ele>339.39999389648</ele>
        <time>2021-03-06T15:00:12.000Z</time>
      </trkpt>
      <trkpt lat="45.81666" lon="4.09219">
        <ele>339.60000610352</ele>
        <time>2021-03-06T15:00:19.000Z</time>
      </trkpt>
      <trkpt lat="45.81665" lon="4.09194">
        <ele>339.60000610352</ele>
        <time>2021-03-06T15:00:21.000Z</time>
      </trkpt>
      <trkpt lat="45.81664" lon="4.09182">
        <ele>339.60000610352</ele>
        <time>2021-03-06T15:00:22.000Z</time>
      </trkpt>
      <trkpt lat="45.8166" lon="4.09097">
        <ele>340.20001220703</ele>
        <time>2021-03-06T15:00:29.000Z</time>
      </trkpt>
      <trkpt lat="45.81655" lon="4.09015">
        <ele>340.60000610352</ele>
        <time>2021-03-06T15:00:36.000Z</time>
      </trkpt>
      <trkpt lat="45.81653" lon="4.08981">
        <ele>340.60000610352</ele>
        <time>2021-03-06T15:00:39.000Z</time>
      </trkpt>
      <trkpt lat="45.81652" lon="4.08946">
        <ele>340.79998779297</ele>
        <time>2021-03-06T15:00:42.000Z</time>
      </trkpt>
      <trkpt lat="45.81647" lon="4.08888">
        <ele>341</ele>
        <time>2021-03-06T15:00:47.000Z</time>
      </trkpt>
      <trkpt lat="45.81643" lon="4.08808">
        <ele>341.20001220703</ele>
        <time>2021-03-06T15:00:54.000Z</time>
      </trkpt>
      <trkpt lat="45.81641" lon="4.08774">
        <ele>341.39999389648</ele>
        <time>2021-03-06T15:00:57.000Z</time>
      </trkpt>
      <trkpt lat="45.81638" lon="4.08696">
        <ele>341.39999389648</ele>
        <time>2021-03-06T15:01:04.000Z</time>
      </trkpt>
      <trkpt lat="45.81638" lon="4.08685">
        <ele>341.39999389648</ele>
        <time>2021-03-06T15:01:05.000Z</time>
      </trkpt>
      <trkpt lat="45.81632" lon="4.08605">
        <ele>341.20001220703</ele>
        <time>2021-03-06T15:01:12.000Z</time>
      </trkpt>
      <trkpt lat="45.81631" lon="4.08586">
        <ele>341.20001220703</ele>
        <time>2021-03-06T15:01:14.000Z</time>
      </trkpt>
      <trkpt lat="45.81631" lon="4.08541">
        <ele>341</ele>
        <time>2021-03-06T15:01:19.000Z</time>
      </trkpt>
      <trkpt lat="45.81626" lon="4.08531">
        <ele>340.79998779297</ele>
        <time>2021-03-06T15:01:21.000Z</time>
      </trkpt>
      <trkpt lat="45.81615" lon="4.08527">
        <ele>340.79998779297</ele>
        <time>2021-03-06T15:01:23.000Z</time>
      </trkpt>
      <trkpt lat="45.81603" lon="4.08525">
        <ele>340.60000610352</ele>
        <time>2021-03-06T15:01:25.000Z</time>
      </trkpt>
      <trkpt lat="45.81565" lon="4.08521">
        <ele>341</ele>
        <time>2021-03-06T15:01:30.000Z</time>
      </trkpt>
      <trkpt lat="45.8152" lon="4.08517">
        <ele>341.20001220703</ele>
        <time>2021-03-06T15:01:36.000Z</time>
      </trkpt>
      <trkpt lat="45.81463" lon="4.08512">
        <ele>341.39999389648</ele>
        <time>2021-03-06T15:01:43.000Z</time>
      </trkpt>
      <trkpt lat="45.81416" lon="4.08508">
        <ele>341.79998779297</ele>
        <time>2021-03-06T15:01:49.000Z</time>
      </trkpt>
      <trkpt lat="45.814" lon="4.08507">
        <ele>341.79998779297</ele>
        <time>2021-03-06T15:01:51.000Z</time>
      </trkpt>
      <trkpt lat="45.81341" lon="4.085">
        <ele>341.79998779297</ele>
        <time>2021-03-06T15:01:58.000Z</time>
      </trkpt>
      <trkpt lat="45.81325" lon="4.08499">
        <ele>341.79998779297</ele>
        <time>2021-03-06T15:02:00.000Z</time>
      </trkpt>
      <trkpt lat="45.81276" lon="4.08495">
        <ele>341.79998779297</ele>
        <time>2021-03-06T15:02:06.000Z</time>
      </trkpt>
      <trkpt lat="45.81218" lon="4.08488">
        <ele>342</ele>
        <time>2021-03-06T15:02:13.000Z</time>
      </trkpt>
      <trkpt lat="45.81201" lon="4.08486">
        <ele>341.79998779297</ele>
        <time>2021-03-06T15:02:15.000Z</time>
      </trkpt>
      <trkpt lat="45.81143" lon="4.0848">
        <ele>341.79998779297</ele>
        <time>2021-03-06T15:02:22.000Z</time>
      </trkpt>
      <trkpt lat="45.81085" lon="4.08475">
        <ele>342</ele>
        <time>2021-03-06T15:02:29.000Z</time>
      </trkpt>
      <trkpt lat="45.81062" lon="4.08473">
        <ele>342</ele>
        <time>2021-03-06T15:02:32.000Z</time>
      </trkpt>
      <trkpt lat="45.81005" lon="4.08468">
        <ele>341.79998779297</ele>
        <time>2021-03-06T15:02:39.000Z</time>
      </trkpt>
      <trkpt lat="45.80997" lon="4.08467">
        <ele>341.79998779297</ele>
        <time>2021-03-06T15:02:40.000Z</time>
      </trkpt>
      <trkpt lat="45.80939" lon="4.08461">
        <ele>341.79998779297</ele>
        <time>2021-03-06T15:02:47.000Z</time>
      </trkpt>
      <trkpt lat="45.80923" lon="4.08459">
        <ele>342</ele>
        <time>2021-03-06T15:02:49.000Z</time>
      </trkpt>
      <trkpt lat="45.80865" lon="4.08452">
        <ele>342.20001220703</ele>
        <time>2021-03-06T15:02:56.000Z</time>
      </trkpt>
      <trkpt lat="45.80841" lon="4.08449">
        <ele>342.39999389648</ele>
        <time>2021-03-06T15:02:59.000Z</time>
      </trkpt>
      <trkpt lat="45.80787" lon="4.08446">
        <ele>342.60000610352</ele>
        <time>2021-03-06T15:03:06.000Z</time>
      </trkpt>
      <trkpt lat="45.80779" lon="4.08445">
        <ele>342.60000610352</ele>
        <time>2021-03-06T15:03:07.000Z</time>
      </trkpt>
      <trkpt lat="45.80728" lon="4.08442">
        <ele>342</ele>
        <time>2021-03-06T15:03:14.000Z</time>
      </trkpt>
      <trkpt lat="45.80668" lon="4.08434">
        <ele>341.39999389648</ele>
        <time>2021-03-06T15:03:22.000Z</time>
      </trkpt>
      <trkpt lat="45.80661" lon="4.08433">
        <ele>341.39999389648</ele>
        <time>2021-03-06T15:03:23.000Z</time>
      </trkpt>
      <trkpt lat="45.80641" lon="4.0843">
        <ele>340.79998779297</ele>
        <time>2021-03-06T15:03:26.000Z</time>
      </trkpt>
      <trkpt lat="45.80617" lon="4.08428">
        <ele>340</ele>
        <time>2021-03-06T15:03:30.000Z</time>
      </trkpt>
      <trkpt lat="45.80597" lon="4.08427">
        <ele>339.39999389648</ele>
        <time>2021-03-06T15:03:33.000Z</time>
      </trkpt>
      <trkpt lat="45.80576" lon="4.08429">
        <ele>339</ele>
        <time>2021-03-06T15:03:36.000Z</time>
      </trkpt>
      <trkpt lat="45.80555" lon="4.08427">
        <ele>339</ele>
        <time>2021-03-06T15:03:39.000Z</time>
      </trkpt>
      <trkpt lat="45.80541" lon="4.08421">
        <ele>338.79998779297</ele>
        <time>2021-03-06T15:03:41.000Z</time>
      </trkpt>
      <trkpt lat="45.80498" lon="4.08399">
        <ele>338.79998779297</ele>
        <time>2021-03-06T15:03:47.000Z</time>
      </trkpt>
      <trkpt lat="45.80456" lon="4.08381">
        <ele>338.39999389648</ele>
        <time>2021-03-06T15:03:53.000Z</time>
      </trkpt>
      <trkpt lat="45.8045" lon="4.08377">
        <ele>338.39999389648</ele>
        <time>2021-03-06T15:03:54.000Z</time>
      </trkpt>
      <trkpt lat="45.80413" lon="4.08348">
        <ele>338.60000610352</ele>
        <time>2021-03-06T15:04:00.000Z</time>
      </trkpt>
      <trkpt lat="45.80387" lon="4.08318">
        <ele>338.60000610352</ele>
        <time>2021-03-06T15:04:05.000Z</time>
      </trkpt>
      <trkpt lat="45.80382" lon="4.08315">
        <ele>338.60000610352</ele>
        <time>2021-03-06T15:04:06.000Z</time>
      </trkpt>
      <trkpt lat="45.80376" lon="4.08312">
        <ele>338.60000610352</ele>
        <time>2021-03-06T15:04:07.000Z</time>
      </trkpt>
      <trkpt lat="45.80364" lon="4.08308">
        <ele>338.60000610352</ele>
        <time>2021-03-06T15:04:09.000Z</time>
      </trkpt>
      <trkpt lat="45.80358" lon="4.08307">
        <ele>338.60000610352</ele>
        <time>2021-03-06T15:04:10.000Z</time>
      </trkpt>
      <trkpt lat="45.80318" lon="4.08308">
        <ele>339.20001220703</ele>
        <time>2021-03-06T15:04:16.000Z</time>
      </trkpt>
      <trkpt lat="45.8029" lon="4.08311">
        <ele>339.39999389648</ele>
        <time>2021-03-06T15:04:20.000Z</time>
      </trkpt>
      <trkpt lat="45.80284" lon="4.0831">
        <ele>339.39999389648</ele>
        <time>2021-03-06T15:04:21.000Z</time>
      </trkpt>
      <trkpt lat="45.80267" lon="4.08313">
        <ele>339.79998779297</ele>
        <time>2021-03-06T15:04:24.000Z</time>
      </trkpt>
      <trkpt lat="45.80261" lon="4.08316">
        <ele>340</ele>
        <time>2021-03-06T15:04:25.000Z</time>
      </trkpt>
      <trkpt lat="45.80221" lon="4.08331">
        <ele>340.39999389648</ele>
        <time>2021-03-06T15:04:31.000Z</time>
      </trkpt>
      <trkpt lat="45.80198" lon="4.08337">
        <ele>340.60000610352</ele>
        <time>2021-03-06T15:04:34.000Z</time>
      </trkpt>
      <trkpt lat="45.80167" lon="4.08345">
        <ele>341</ele>
        <time>2021-03-06T15:04:38.000Z</time>
      </trkpt>
      <trkpt lat="45.80111" lon="4.08359">
        <ele>340.60000610352</ele>
        <time>2021-03-06T15:04:45.000Z</time>
      </trkpt>
      <trkpt lat="45.80057" lon="4.08373">
        <ele>341</ele>
        <time>2021-03-06T15:04:52.000Z</time>
      </trkpt>
      <trkpt lat="45.80001" lon="4.08389">
        <ele>340.79998779297</ele>
        <time>2021-03-06T15:04:59.000Z</time>
      </trkpt>
      <trkpt lat="45.79962" lon="4.08401">
        <ele>340.79998779297</ele>
        <time>2021-03-06T15:05:04.000Z</time>
      </trkpt>
      <trkpt lat="45.79908" lon="4.08415">
        <ele>340.60000610352</ele>
        <time>2021-03-06T15:05:11.000Z</time>
      </trkpt>
      <trkpt lat="45.79892" lon="4.08419">
        <ele>340.60000610352</ele>
        <time>2021-03-06T15:05:13.000Z</time>
      </trkpt>
      <trkpt lat="45.79834" lon="4.08433">
        <ele>340.39999389648</ele>
        <time>2021-03-06T15:05:20.000Z</time>
      </trkpt>
      <trkpt lat="45.79775" lon="4.08449">
        <ele>340.20001220703</ele>
        <time>2021-03-06T15:05:27.000Z</time>
      </trkpt>
      <trkpt lat="45.79757" lon="4.08453">
        <ele>340.20001220703</ele>
        <time>2021-03-06T15:05:29.000Z</time>
      </trkpt>
      <trkpt lat="45.79695" lon="4.08469">
        <ele>339.79998779297</ele>
        <time>2021-03-06T15:05:36.000Z</time>
      </trkpt>
      <trkpt lat="45.79659" lon="4.08479">
        <ele>339.39999389648</ele>
        <time>2021-03-06T15:05:40.000Z</time>
      </trkpt>
      <trkpt lat="45.79604" lon="4.08493">
        <ele>339.20001220703</ele>
        <time>2021-03-06T15:05:46.000Z</time>
      </trkpt>
      <trkpt lat="45.79567" lon="4.08503">
        <ele>338.39999389648</ele>
        <time>2021-03-06T15:05:50.000Z</time>
      </trkpt>
      <trkpt lat="45.79557" lon="4.08505">
        <ele>338.20001220703</ele>
        <time>2021-03-06T15:05:51.000Z</time>
      </trkpt>
      <trkpt lat="45.79509" lon="4.08517">
        <ele>337.39999389648</ele>
        <time>2021-03-06T15:05:56.000Z</time>
      </trkpt>
      <trkpt lat="45.79478" lon="4.08525">
        <ele>336.79998779297</ele>
        <time>2021-03-06T15:05:59.000Z</time>
      </trkpt>
      <trkpt lat="45.79441" lon="4.08534">
        <ele>336.20001220703</ele>
        <time>2021-03-06T15:06:03.000Z</time>
      </trkpt>
      <trkpt lat="45.79397" lon="4.08545">
        <ele>336.20001220703</ele>
        <time>2021-03-06T15:06:08.000Z</time>
      </trkpt>
      <trkpt lat="45.79336" lon="4.08562">
        <ele>337.20001220703</ele>
        <time>2021-03-06T15:06:15.000Z</time>
      </trkpt>
      <trkpt lat="45.79327" lon="4.08564">
        <ele>337.39999389648</ele>
        <time>2021-03-06T15:06:16.000Z</time>
      </trkpt>
      <trkpt lat="45.79267" lon="4.08578">
        <ele>338.60000610352</ele>
        <time>2021-03-06T15:06:23.000Z</time>
      </trkpt>
      <trkpt lat="45.79251" lon="4.08583">
        <ele>339</ele>
        <time>2021-03-06T15:06:25.000Z</time>
      </trkpt>
      <trkpt lat="45.79194" lon="4.08598">
        <ele>339.20001220703</ele>
        <time>2021-03-06T15:06:32.000Z</time>
      </trkpt>
      <trkpt lat="45.79147" lon="4.0861">
        <ele>339.60000610352</ele>
        <time>2021-03-06T15:06:38.000Z</time>
      </trkpt>
      <trkpt lat="45.79107" lon="4.08621">
        <ele>339.79998779297</ele>
        <time>2021-03-06T15:06:43.000Z</time>
      </trkpt>
      <trkpt lat="45.79055" lon="4.08635">
        <ele>340.60000610352</ele>
        <time>2021-03-06T15:06:50.000Z</time>
      </trkpt>
      <trkpt lat="45.79031" lon="4.08642">
        <ele>340.79998779297</ele>
        <time>2021-03-06T15:06:53.000Z</time>
      </trkpt>
      <trkpt lat="45.7897" lon="4.08657">
        <ele>341.39999389648</ele>
        <time>2021-03-06T15:07:01.000Z</time>
      </trkpt>
      <trkpt lat="45.78932" lon="4.08665">
        <ele>341.60000610352</ele>
        <time>2021-03-06T15:07:06.000Z</time>
      </trkpt>
      <trkpt lat="45.78901" lon="4.08674">
        <ele>341.79998779297</ele>
        <time>2021-03-06T15:07:10.000Z</time>
      </trkpt>
      <trkpt lat="45.78846" lon="4.08689">
        <ele>342.60000610352</ele>
        <time>2021-03-06T15:07:17.000Z</time>
      </trkpt>
      <trkpt lat="45.78838" lon="4.0869">
        <ele>342.79998779297</ele>
        <time>2021-03-06T15:07:18.000Z</time>
      </trkpt>
      <trkpt lat="45.78782" lon="4.08706">
        <ele>343</ele>
        <time>2021-03-06T15:07:25.000Z</time>
      </trkpt>
      <trkpt lat="45.78766" lon="4.0871">
        <ele>343</ele>
        <time>2021-03-06T15:07:27.000Z</time>
      </trkpt>
      <trkpt lat="45.78708" lon="4.08725">
        <ele>343.39999389648</ele>
        <time>2021-03-06T15:07:34.000Z</time>
      </trkpt>
      <trkpt lat="45.78657" lon="4.08738">
        <ele>343.79998779297</ele>
        <time>2021-03-06T15:07:40.000Z</time>
      </trkpt>
      <trkpt lat="45.78623" lon="4.08747">
        <ele>344</ele>
        <time>2021-03-06T15:07:44.000Z</time>
      </trkpt>
      <trkpt lat="45.78565" lon="4.08763">
        <ele>344.39999389648</ele>
        <time>2021-03-06T15:07:51.000Z</time>
      </trkpt>
      <trkpt lat="45.78557" lon="4.08765">
        <ele>344.39999389648</ele>
        <time>2021-03-06T15:07:52.000Z</time>
      </trkpt>
      <trkpt lat="45.78532" lon="4.08771">
        <ele>344.79998779297</ele>
        <time>2021-03-06T15:07:55.000Z</time>
      </trkpt>
      <trkpt lat="45.78476" lon="4.08787">
        <ele>345.60000610352</ele>
        <time>2021-03-06T15:08:02.000Z</time>
      </trkpt>
      <trkpt lat="45.7846" lon="4.08792">
        <ele>345.79998779297</ele>
        <time>2021-03-06T15:08:04.000Z</time>
      </trkpt>
      <trkpt lat="45.78452" lon="4.08794">
        <ele>345.79998779297</ele>
        <time>2021-03-06T15:08:05.000Z</time>
      </trkpt>
      <trkpt lat="45.78407" lon="4.08818">
        <ele>346.20001220703</ele>
        <time>2021-03-06T15:08:11.000Z</time>
      </trkpt>
      <trkpt lat="45.78376" lon="4.08836">
        <ele>347</ele>
        <time>2021-03-06T15:08:15.000Z</time>
      </trkpt>
      <trkpt lat="45.78352" lon="4.08852">
        <ele>347.20001220703</ele>
        <time>2021-03-06T15:08:18.000Z</time>
      </trkpt>
      <trkpt lat="45.78296" lon="4.08886">
        <ele>346.79998779297</ele>
        <time>2021-03-06T15:08:25.000Z</time>
      </trkpt>
      <trkpt lat="45.78263" lon="4.08905">
        <ele>346.60000610352</ele>
        <time>2021-03-06T15:08:29.000Z</time>
      </trkpt>
      <trkpt lat="45.78206" lon="4.08939">
        <ele>346.60000610352</ele>
        <time>2021-03-06T15:08:36.000Z</time>
      </trkpt>
      <trkpt lat="45.78183" lon="4.08953">
        <ele>346.79998779297</ele>
        <time>2021-03-06T15:08:39.000Z</time>
      </trkpt>
      <trkpt lat="45.78129" lon="4.08984">
        <ele>347.60000610352</ele>
        <time>2021-03-06T15:08:46.000Z</time>
      </trkpt>
      <trkpt lat="45.78114" lon="4.08993">
        <ele>347.79998779297</ele>
        <time>2021-03-06T15:08:48.000Z</time>
      </trkpt>
      <trkpt lat="45.78077" lon="4.09015">
        <ele>348</ele>
        <time>2021-03-06T15:08:53.000Z</time>
      </trkpt>
      <trkpt lat="45.78047" lon="4.09032">
        <ele>348.20001220703</ele>
        <time>2021-03-06T15:08:57.000Z</time>
      </trkpt>
      <trkpt lat="45.77996" lon="4.09063">
        <ele>348.60000610352</ele>
        <time>2021-03-06T15:09:04.000Z</time>
      </trkpt>
      <trkpt lat="45.77966" lon="4.0908">
        <ele>348.60000610352</ele>
        <time>2021-03-06T15:09:08.000Z</time>
      </trkpt>
      <trkpt lat="45.77922" lon="4.09107">
        <ele>349.20001220703</ele>
        <time>2021-03-06T15:09:14.000Z</time>
      </trkpt>
      <trkpt lat="45.77886" lon="4.0913">
        <ele>349.79998779297</ele>
        <time>2021-03-06T15:09:19.000Z</time>
      </trkpt>
      <trkpt lat="45.7783" lon="4.09164">
        <ele>350.20001220703</ele>
        <time>2021-03-06T15:09:27.000Z</time>
      </trkpt>
      <trkpt lat="45.77778" lon="4.09194">
        <ele>351</ele>
        <time>2021-03-06T15:09:34.000Z</time>
      </trkpt>
      <trkpt lat="45.77757" lon="4.09207">
        <ele>351</ele>
        <time>2021-03-06T15:09:37.000Z</time>
      </trkpt>
      <trkpt lat="45.77736" lon="4.0922">
        <ele>351.20001220703</ele>
        <time>2021-03-06T15:09:40.000Z</time>
      </trkpt>
      <trkpt lat="45.77681" lon="4.09255">
        <ele>351.60000610352</ele>
        <time>2021-03-06T15:09:48.000Z</time>
      </trkpt>
      <trkpt lat="45.77629" lon="4.09284">
        <ele>352.20001220703</ele>
        <time>2021-03-06T15:09:55.000Z</time>
      </trkpt>
      <trkpt lat="45.77622" lon="4.09289">
        <ele>352.39999389648</ele>
        <time>2021-03-06T15:09:56.000Z</time>
      </trkpt>
      <trkpt lat="45.77593" lon="4.09306">
        <ele>353.39999389648</ele>
        <time>2021-03-06T15:10:00.000Z</time>
      </trkpt>
      <trkpt lat="45.77551" lon="4.09333">
        <ele>354</ele>
        <time>2021-03-06T15:10:06.000Z</time>
      </trkpt>
      <trkpt lat="45.77524" lon="4.09349">
        <ele>354.39999389648</ele>
        <time>2021-03-06T15:10:10.000Z</time>
      </trkpt>
      <trkpt lat="45.77492" lon="4.0937">
        <ele>355</ele>
        <time>2021-03-06T15:10:15.000Z</time>
      </trkpt>
      <trkpt lat="45.77472" lon="4.09382">
        <ele>355.60000610352</ele>
        <time>2021-03-06T15:10:18.000Z</time>
      </trkpt>
      <trkpt lat="45.77417" lon="4.09414">
        <ele>356.20001220703</ele>
        <time>2021-03-06T15:10:26.000Z</time>
      </trkpt>
      <trkpt lat="45.7739" lon="4.09431">
        <ele>356.60000610352</ele>
        <time>2021-03-06T15:10:30.000Z</time>
      </trkpt>
      <trkpt lat="45.77347" lon="4.09456">
        <ele>357.39999389648</ele>
        <time>2021-03-06T15:10:36.000Z</time>
      </trkpt>
      <trkpt lat="45.77328" lon="4.09468">
        <ele>357.79998779297</ele>
        <time>2021-03-06T15:10:39.000Z</time>
      </trkpt>
      <trkpt lat="45.77301" lon="4.09484">
        <ele>358.20001220703</ele>
        <time>2021-03-06T15:10:43.000Z</time>
      </trkpt>
      <trkpt lat="45.77267" lon="4.09505">
        <ele>358.79998779297</ele>
        <time>2021-03-06T15:10:48.000Z</time>
      </trkpt>
      <trkpt lat="45.7724" lon="4.09521">
        <ele>359.20001220703</ele>
        <time>2021-03-06T15:10:52.000Z</time>
      </trkpt>
      <trkpt lat="45.77199" lon="4.09546">
        <ele>359.79998779297</ele>
        <time>2021-03-06T15:10:58.000Z</time>
      </trkpt>
      <trkpt lat="45.77185" lon="4.09554">
        <ele>360</ele>
        <time>2021-03-06T15:11:00.000Z</time>
      </trkpt>
      <trkpt lat="45.77134" lon="4.09585">
        <ele>360.39999389648</ele>
        <time>2021-03-06T15:11:08.000Z</time>
      </trkpt>
      <trkpt lat="45.7712" lon="4.09594">
        <ele>360.60000610352</ele>
        <time>2021-03-06T15:11:10.000Z</time>
      </trkpt>
      <trkpt lat="45.77081" lon="4.09618">
        <ele>361</ele>
        <time>2021-03-06T15:11:16.000Z</time>
      </trkpt>
      <trkpt lat="45.77061" lon="4.09629">
        <ele>361.20001220703</ele>
        <time>2021-03-06T15:11:19.000Z</time>
      </trkpt>
      <trkpt lat="45.77009" lon="4.09662">
        <ele>361.60000610352</ele>
        <time>2021-03-06T15:11:27.000Z</time>
      </trkpt>
      <trkpt lat="45.7697" lon="4.09686">
        <ele>362</ele>
        <time>2021-03-06T15:11:33.000Z</time>
      </trkpt>
      <trkpt lat="45.76964" lon="4.09689">
        <ele>362</ele>
        <time>2021-03-06T15:11:34.000Z</time>
      </trkpt>
      <trkpt lat="45.76913" lon="4.09721">
        <ele>362.39999389648</ele>
        <time>2021-03-06T15:11:42.000Z</time>
      </trkpt>
      <trkpt lat="45.76874" lon="4.09744">
        <ele>363</ele>
        <time>2021-03-06T15:11:48.000Z</time>
      </trkpt>
      <trkpt lat="45.7685" lon="4.09758">
        <ele>363.39999389648</ele>
        <time>2021-03-06T15:11:52.000Z</time>
      </trkpt>
      <trkpt lat="45.76809" lon="4.09782">
        <ele>363.79998779297</ele>
        <time>2021-03-06T15:11:58.000Z</time>
      </trkpt>
      <trkpt lat="45.76801" lon="4.09786">
        <ele>364</ele>
        <time>2021-03-06T15:11:59.000Z</time>
      </trkpt>
      <trkpt lat="45.76765" lon="4.09801">
        <ele>364.60000610352</ele>
        <time>2021-03-06T15:12:04.000Z</time>
      </trkpt>
      <trkpt lat="45.76706" lon="4.09816">
        <ele>364.79998779297</ele>
        <time>2021-03-06T15:12:12.000Z</time>
      </trkpt>
      <trkpt lat="45.76672" lon="4.09825">
        <ele>365</ele>
        <time>2021-03-06T15:12:17.000Z</time>
      </trkpt>
      <trkpt lat="45.76665" lon="4.09827">
        <ele>365.20001220703</ele>
        <time>2021-03-06T15:12:18.000Z</time>
      </trkpt>
      <trkpt lat="45.76606" lon="4.09841">
        <ele>365.60000610352</ele>
        <time>2021-03-06T15:12:26.000Z</time>
      </trkpt>
      <trkpt lat="45.76591" lon="4.09844">
        <ele>366</ele>
        <time>2021-03-06T15:12:28.000Z</time>
      </trkpt>
      <trkpt lat="45.76576" lon="4.09848">
        <ele>366.20001220703</ele>
        <time>2021-03-06T15:12:30.000Z</time>
      </trkpt>
      <trkpt lat="45.76517" lon="4.09862">
        <ele>367.20001220703</ele>
        <time>2021-03-06T15:12:38.000Z</time>
      </trkpt>
      <trkpt lat="45.76457" lon="4.09878">
        <ele>368</ele>
        <time>2021-03-06T15:12:46.000Z</time>
      </trkpt>
      <trkpt lat="45.7645" lon="4.0988">
        <ele>368.39999389648</ele>
        <time>2021-03-06T15:12:47.000Z</time>
      </trkpt>
      <trkpt lat="45.76394" lon="4.09893">
        <ele>369</ele>
        <time>2021-03-06T15:12:54.000Z</time>
      </trkpt>
      <trkpt lat="45.76371" lon="4.09898">
        <ele>369</ele>
        <time>2021-03-06T15:12:57.000Z</time>
      </trkpt>
      <trkpt lat="45.7634" lon="4.09907">
        <ele>369.39999389648</ele>
        <time>2021-03-06T15:13:01.000Z</time>
      </trkpt>
      <trkpt lat="45.76317" lon="4.09913">
        <ele>369.60000610352</ele>
        <time>2021-03-06T15:13:04.000Z</time>
      </trkpt>
      <trkpt lat="45.76262" lon="4.09926">
        <ele>369.79998779297</ele>
        <time>2021-03-06T15:13:11.000Z</time>
      </trkpt>
      <trkpt lat="45.76254" lon="4.09928">
        <ele>369.79998779297</ele>
        <time>2021-03-06T15:13:12.000Z</time>
      </trkpt>
      <trkpt lat="45.76219" lon="4.09938">
        <ele>370.60000610352</ele>
        <time>2021-03-06T15:13:17.000Z</time>
      </trkpt>
      <trkpt lat="45.76212" lon="4.0994">
        <ele>370.79998779297</ele>
        <time>2021-03-06T15:13:18.000Z</time>
      </trkpt>
      <trkpt lat="45.76155" lon="4.09954">
        <ele>371.60000610352</ele>
        <time>2021-03-06T15:13:26.000Z</time>
      </trkpt>
      <trkpt lat="45.76103" lon="4.09959">
        <ele>371.79998779297</ele>
        <time>2021-03-06T15:13:33.000Z</time>
      </trkpt>
      <trkpt lat="45.76049" lon="4.09945">
        <ele>372</ele>
        <time>2021-03-06T15:13:40.000Z</time>
      </trkpt>
      <trkpt lat="45.76041" lon="4.09942">
        <ele>372</ele>
        <time>2021-03-06T15:13:41.000Z</time>
      </trkpt>
      <trkpt lat="45.75985" lon="4.09925">
        <ele>372.39999389648</ele>
        <time>2021-03-06T15:13:48.000Z</time>
      </trkpt>
      <trkpt lat="45.75977" lon="4.09923">
        <ele>372.39999389648</ele>
        <time>2021-03-06T15:13:49.000Z</time>
      </trkpt>
      <trkpt lat="45.75952" lon="4.09916">
        <ele>372.39999389648</ele>
        <time>2021-03-06T15:13:52.000Z</time>
      </trkpt>
      <trkpt lat="45.75911" lon="4.09905">
        <ele>372.39999389648</ele>
        <time>2021-03-06T15:13:57.000Z</time>
      </trkpt>
      <trkpt lat="45.75878" lon="4.09896">
        <ele>372.60000610352</ele>
        <time>2021-03-06T15:14:01.000Z</time>
      </trkpt>
      <trkpt lat="45.75836" lon="4.09885">
        <ele>372.39999389648</ele>
        <time>2021-03-06T15:14:06.000Z</time>
      </trkpt>
      <trkpt lat="45.75787" lon="4.09872">
        <ele>373.20001220703</ele>
        <time>2021-03-06T15:14:12.000Z</time>
      </trkpt>
      <trkpt lat="45.75756" lon="4.09864">
        <ele>373.60000610352</ele>
        <time>2021-03-06T15:14:16.000Z</time>
      </trkpt>
      <trkpt lat="45.75719" lon="4.09854">
        <ele>374</ele>
        <time>2021-03-06T15:14:21.000Z</time>
      </trkpt>
      <trkpt lat="45.75671" lon="4.0984">
        <ele>374.20001220703</ele>
        <time>2021-03-06T15:14:27.000Z</time>
      </trkpt>
      <trkpt lat="45.75648" lon="4.09834">
        <ele>374.60000610352</ele>
        <time>2021-03-06T15:14:30.000Z</time>
      </trkpt>
      <trkpt lat="45.75602" lon="4.09821">
        <ele>375</ele>
        <time>2021-03-06T15:14:36.000Z</time>
      </trkpt>
      <trkpt lat="45.75546" lon="4.09804">
        <ele>375.60000610352</ele>
        <time>2021-03-06T15:14:43.000Z</time>
      </trkpt>
      <trkpt lat="45.75531" lon="4.098">
        <ele>375.79998779297</ele>
        <time>2021-03-06T15:14:45.000Z</time>
      </trkpt>
      <trkpt lat="45.75478" lon="4.09784">
        <ele>376.20001220703</ele>
        <time>2021-03-06T15:14:52.000Z</time>
      </trkpt>
      <trkpt lat="45.75423" lon="4.09769">
        <ele>376.39999389648</ele>
        <time>2021-03-06T15:14:59.000Z</time>
      </trkpt>
      <trkpt lat="45.75415" lon="4.09768">
        <ele>376.60000610352</ele>
        <time>2021-03-06T15:15:00.000Z</time>
      </trkpt>
      <trkpt lat="45.75392" lon="4.09762">
        <ele>376.60000610352</ele>
        <time>2021-03-06T15:15:03.000Z</time>
      </trkpt>
      <trkpt lat="45.75353" lon="4.09753">
        <ele>377</ele>
        <time>2021-03-06T15:15:08.000Z</time>
      </trkpt>
      <trkpt lat="45.75298" lon="4.09739">
        <ele>377.20001220703</ele>
        <time>2021-03-06T15:15:15.000Z</time>
      </trkpt>
      <trkpt lat="45.75266" lon="4.09732">
        <ele>377.60000610352</ele>
        <time>2021-03-06T15:15:19.000Z</time>
      </trkpt>
      <trkpt lat="45.75234" lon="4.09722">
        <ele>377.79998779297</ele>
        <time>2021-03-06T15:15:23.000Z</time>
      </trkpt>
      <trkpt lat="45.75218" lon="4.09717">
        <ele>378</ele>
        <time>2021-03-06T15:15:25.000Z</time>
      </trkpt>
      <trkpt lat="45.75161" lon="4.09701">
        <ele>378.60000610352</ele>
        <time>2021-03-06T15:15:32.000Z</time>
      </trkpt>
      <trkpt lat="45.75153" lon="4.09698">
        <ele>378.79998779297</ele>
        <time>2021-03-06T15:15:33.000Z</time>
      </trkpt>
      <trkpt lat="45.75106" lon="4.09684">
        <ele>380</ele>
        <time>2021-03-06T15:15:39.000Z</time>
      </trkpt>
      <trkpt lat="45.75091" lon="4.0968">
        <ele>380</ele>
        <time>2021-03-06T15:15:41.000Z</time>
      </trkpt>
      <trkpt lat="45.75031" lon="4.09663">
        <ele>380.79998779297</ele>
        <time>2021-03-06T15:15:49.000Z</time>
      </trkpt>
      <trkpt lat="45.75016" lon="4.09658">
        <ele>381</ele>
        <time>2021-03-06T15:15:51.000Z</time>
      </trkpt>
      <trkpt lat="45.75009" lon="4.09656">
        <ele>381</ele>
        <time>2021-03-06T15:15:52.000Z</time>
      </trkpt>
      <trkpt lat="45.7496" lon="4.09641">
        <ele>382</ele>
        <time>2021-03-06T15:15:59.000Z</time>
      </trkpt>
      <trkpt lat="45.74953" lon="4.09639">
        <ele>382.20001220703</ele>
        <time>2021-03-06T15:16:00.000Z</time>
      </trkpt>
      <trkpt lat="45.74897" lon="4.09624">
        <ele>383</ele>
        <time>2021-03-06T15:16:08.000Z</time>
      </trkpt>
      <trkpt lat="45.74884" lon="4.09619">
        <ele>383.20001220703</ele>
        <time>2021-03-06T15:16:10.000Z</time>
      </trkpt>
      <trkpt lat="45.7483" lon="4.09604">
        <ele>384</ele>
        <time>2021-03-06T15:16:18.000Z</time>
      </trkpt>
      <trkpt lat="45.74775" lon="4.09589">
        <ele>385</ele>
        <time>2021-03-06T15:16:26.000Z</time>
      </trkpt>
      <trkpt lat="45.74762" lon="4.09585">
        <ele>385.20001220703</ele>
        <time>2021-03-06T15:16:28.000Z</time>
      </trkpt>
      <trkpt lat="45.74713" lon="4.09572">
        <ele>385.79998779297</ele>
        <time>2021-03-06T15:16:35.000Z</time>
      </trkpt>
      <trkpt lat="45.74699" lon="4.09569">
        <ele>386.20001220703</ele>
        <time>2021-03-06T15:16:37.000Z</time>
      </trkpt>
      <trkpt lat="45.7465" lon="4.09555">
        <ele>386.79998779297</ele>
        <time>2021-03-06T15:16:44.000Z</time>
      </trkpt>
      <trkpt lat="45.74592" lon="4.0954">
        <ele>387</ele>
        <time>2021-03-06T15:16:52.000Z</time>
      </trkpt>
      <trkpt lat="45.74584" lon="4.09537">
        <ele>387</ele>
        <time>2021-03-06T15:16:53.000Z</time>
      </trkpt>
      <trkpt lat="45.74553" lon="4.09529">
        <ele>387.39999389648</ele>
        <time>2021-03-06T15:16:57.000Z</time>
      </trkpt>
      <trkpt lat="45.74521" lon="4.09521">
        <ele>388</ele>
        <time>2021-03-06T15:17:01.000Z</time>
      </trkpt>
      <trkpt lat="45.74466" lon="4.09507">
        <ele>388.39999389648</ele>
        <time>2021-03-06T15:17:08.000Z</time>
      </trkpt>
      <trkpt lat="45.74451" lon="4.09502">
        <ele>388.60000610352</ele>
        <time>2021-03-06T15:17:10.000Z</time>
      </trkpt>
      <trkpt lat="45.74396" lon="4.09487">
        <ele>388.79998779297</ele>
        <time>2021-03-06T15:17:17.000Z</time>
      </trkpt>
      <trkpt lat="45.7438" lon="4.09483">
        <ele>389</ele>
        <time>2021-03-06T15:17:19.000Z</time>
      </trkpt>
      <trkpt lat="45.74339" lon="4.09472">
        <ele>389.39999389648</ele>
        <time>2021-03-06T15:17:24.000Z</time>
      </trkpt>
      <trkpt lat="45.74323" lon="4.09467">
        <ele>389.39999389648</ele>
        <time>2021-03-06T15:17:26.000Z</time>
      </trkpt>
      <trkpt lat="45.74265" lon="4.09453">
        <ele>389.20001220703</ele>
        <time>2021-03-06T15:17:33.000Z</time>
      </trkpt>
      <trkpt lat="45.74208" lon="4.09438">
        <ele>389.20001220703</ele>
        <time>2021-03-06T15:17:40.000Z</time>
      </trkpt>
      <trkpt lat="45.74148" lon="4.09422">
        <ele>388.79998779297</ele>
        <time>2021-03-06T15:17:47.000Z</time>
      </trkpt>
      <trkpt lat="45.74097" lon="4.09408">
        <ele>389</ele>
        <time>2021-03-06T15:17:53.000Z</time>
      </trkpt>
      <trkpt lat="45.74039" lon="4.09393">
        <ele>388.79998779297</ele>
        <time>2021-03-06T15:18:00.000Z</time>
      </trkpt>
      <trkpt lat="45.74006" lon="4.09383">
        <ele>388.79998779297</ele>
        <time>2021-03-06T15:18:04.000Z</time>
      </trkpt>
      <trkpt lat="45.73949" lon="4.09368">
        <ele>388.79998779297</ele>
        <time>2021-03-06T15:18:11.000Z</time>
      </trkpt>
      <trkpt lat="45.73933" lon="4.09363">
        <ele>388.60000610352</ele>
        <time>2021-03-06T15:18:13.000Z</time>
      </trkpt>
      <trkpt lat="45.73909" lon="4.09359">
        <ele>388.39999389648</ele>
        <time>2021-03-06T15:18:16.000Z</time>
      </trkpt>
      <trkpt lat="45.7387" lon="4.09355">
        <ele>388.20001220703</ele>
        <time>2021-03-06T15:18:21.000Z</time>
      </trkpt>
      <trkpt lat="45.73824" lon="4.09346">
        <ele>387.39999389648</ele>
        <time>2021-03-06T15:18:28.000Z</time>
      </trkpt>
      <trkpt lat="45.7382" lon="4.09344">
        <ele>387.20001220703</ele>
        <time>2021-03-06T15:18:29.000Z</time>
      </trkpt>
      <trkpt lat="45.73816" lon="4.09343">
        <ele>387.20001220703</ele>
        <time>2021-03-06T15:18:30.000Z</time>
      </trkpt>
      <trkpt lat="45.73807" lon="4.09345">
        <ele>387.20001220703</ele>
        <time>2021-03-06T15:18:32.000Z</time>
      </trkpt>
      <trkpt lat="45.73796" lon="4.09348">
        <ele>387.20001220703</ele>
        <time>2021-03-06T15:18:34.000Z</time>
      </trkpt>
      <trkpt lat="45.73784" lon="4.09348">
        <ele>387.20001220703</ele>
        <time>2021-03-06T15:18:36.000Z</time>
      </trkpt>
      <trkpt lat="45.73771" lon="4.09341">
        <ele>387</ele>
        <time>2021-03-06T15:18:38.000Z</time>
      </trkpt>
      <trkpt lat="45.73766" lon="4.09335">
        <ele>387</ele>
        <time>2021-03-06T15:18:39.000Z</time>
      </trkpt>
      <trkpt lat="45.73761" lon="4.09327">
        <ele>387</ele>
        <time>2021-03-06T15:18:40.000Z</time>
      </trkpt>
      <trkpt lat="45.73753" lon="4.09308">
        <ele>387.20001220703</ele>
        <time>2021-03-06T15:18:42.000Z</time>
      </trkpt>
      <trkpt lat="45.73738" lon="4.09269">
        <ele>387.60000610352</ele>
        <time>2021-03-06T15:18:46.000Z</time>
      </trkpt>
      <trkpt lat="45.73733" lon="4.0926">
        <ele>387.60000610352</ele>
        <time>2021-03-06T15:18:47.000Z</time>
      </trkpt>
      <trkpt lat="45.73728" lon="4.09252">
        <ele>387.60000610352</ele>
        <time>2021-03-06T15:18:48.000Z</time>
      </trkpt>
      <trkpt lat="45.73698" lon="4.09212">
        <ele>387.79998779297</ele>
        <time>2021-03-06T15:18:53.000Z</time>
      </trkpt>
      <trkpt lat="45.73656" lon="4.09158">
        <ele>387.79998779297</ele>
        <time>2021-03-06T15:19:00.000Z</time>
      </trkpt>
      <trkpt lat="45.73615" lon="4.09101">
        <ele>387.79998779297</ele>
        <time>2021-03-06T15:19:07.000Z</time>
      </trkpt>
      <trkpt lat="45.73597" lon="4.09078">
        <ele>387.60000610352</ele>
        <time>2021-03-06T15:19:10.000Z</time>
      </trkpt>
      <trkpt lat="45.7359" lon="4.09071">
        <ele>387.60000610352</ele>
        <time>2021-03-06T15:19:11.000Z</time>
      </trkpt>
      <trkpt lat="45.73567" lon="4.09055">
        <ele>387.60000610352</ele>
        <time>2021-03-06T15:19:14.000Z</time>
      </trkpt>
      <trkpt lat="45.73516" lon="4.09028">
        <ele>386.60000610352</ele>
        <time>2021-03-06T15:19:20.000Z</time>
      </trkpt>
      <trkpt lat="45.73508" lon="4.09023">
        <ele>386</ele>
        <time>2021-03-06T15:19:21.000Z</time>
      </trkpt>
      <trkpt lat="45.73499" lon="4.09017">
        <ele>385.79998779297</ele>
        <time>2021-03-06T15:19:22.000Z</time>
      </trkpt>
      <trkpt lat="45.73457" lon="4.08992">
        <ele>384.60000610352</ele>
        <time>2021-03-06T15:19:27.000Z</time>
      </trkpt>
      <trkpt lat="45.73422" lon="4.08971">
        <ele>383.79998779297</ele>
        <time>2021-03-06T15:19:31.000Z</time>
      </trkpt>
      <trkpt lat="45.73406" lon="4.08958">
        <ele>383.39999389648</ele>
        <time>2021-03-06T15:19:33.000Z</time>
      </trkpt>
      <trkpt lat="45.73399" lon="4.0895">
        <ele>383.20001220703</ele>
        <time>2021-03-06T15:19:34.000Z</time>
      </trkpt>
      <trkpt lat="45.73392" lon="4.08941">
        <ele>383</ele>
        <time>2021-03-06T15:19:35.000Z</time>
      </trkpt>
      <trkpt lat="45.73375" lon="4.08915">
        <ele>382.20001220703</ele>
        <time>2021-03-06T15:19:38.000Z</time>
      </trkpt>
      <trkpt lat="45.73361" lon="4.089">
        <ele>381.60000610352</ele>
        <time>2021-03-06T15:19:40.000Z</time>
      </trkpt>
      <trkpt lat="45.73345" lon="4.08888">
        <ele>381</ele>
        <time>2021-03-06T15:19:42.000Z</time>
      </trkpt>
      <trkpt lat="45.73335" lon="4.08883">
        <ele>380.39999389648</ele>
        <time>2021-03-06T15:19:43.000Z</time>
      </trkpt>
      <trkpt lat="45.73325" lon="4.0888">
        <ele>379.39999389648</ele>
        <time>2021-03-06T15:19:44.000Z</time>
      </trkpt>
      <trkpt lat="45.73315" lon="4.0888">
        <ele>378.39999389648</ele>
        <time>2021-03-06T15:19:45.000Z</time>
      </trkpt>
      <trkpt lat="45.73293" lon="4.08884">
        <ele>377.20001220703</ele>
        <time>2021-03-06T15:19:47.000Z</time>
      </trkpt>
      <trkpt lat="45.73272" lon="4.08894">
        <ele>376.39999389648</ele>
        <time>2021-03-06T15:19:49.000Z</time>
      </trkpt>
      <trkpt lat="45.73262" lon="4.08901">
        <ele>375.39999389648</ele>
        <time>2021-03-06T15:19:50.000Z</time>
      </trkpt>
      <trkpt lat="45.73252" lon="4.08907">
        <ele>374.39999389648</ele>
        <time>2021-03-06T15:19:51.000Z</time>
      </trkpt>
      <trkpt lat="45.73241" lon="4.08912">
        <ele>373.60000610352</ele>
        <time>2021-03-06T15:19:52.000Z</time>
      </trkpt>
      <trkpt lat="45.7323" lon="4.08916">
        <ele>372.79998779297</ele>
        <time>2021-03-06T15:19:53.000Z</time>
      </trkpt>
      <trkpt lat="45.73219" lon="4.08916">
        <ele>372.20001220703</ele>
        <time>2021-03-06T15:19:54.000Z</time>
      </trkpt>
      <trkpt lat="45.73207" lon="4.08914">
        <ele>370.79998779297</ele>
        <time>2021-03-06T15:19:55.000Z</time>
      </trkpt>
      <trkpt lat="45.73185" lon="4.08914">
        <ele>369.20001220703</ele>
        <time>2021-03-06T15:19:57.000Z</time>
      </trkpt>
      <trkpt lat="45.73173" lon="4.08915">
        <ele>368.20001220703</ele>
        <time>2021-03-06T15:19:58.000Z</time>
      </trkpt>
      <trkpt lat="45.73162" lon="4.08918">
        <ele>367.39999389648</ele>
        <time>2021-03-06T15:19:59.000Z</time>
      </trkpt>
      <trkpt lat="45.73141" lon="4.08927">
        <ele>365.60000610352</ele>
        <time>2021-03-06T15:20:01.000Z</time>
      </trkpt>
      <trkpt lat="45.73131" lon="4.08932">
        <ele>364.39999389648</ele>
        <time>2021-03-06T15:20:02.000Z</time>
      </trkpt>
      <trkpt lat="45.73115" lon="4.08943">
        <ele>363</ele>
        <time>2021-03-06T15:20:04.000Z</time>
      </trkpt>
      <trkpt lat="45.73106" lon="4.08948">
        <ele>362.20001220703</ele>
        <time>2021-03-06T15:20:05.000Z</time>
      </trkpt>
      <trkpt lat="45.73099" lon="4.08954">
        <ele>361.60000610352</ele>
        <time>2021-03-06T15:20:06.000Z</time>
      </trkpt>
      <trkpt lat="45.73085" lon="4.08962">
        <ele>360.60000610352</ele>
        <time>2021-03-06T15:20:08.000Z</time>
      </trkpt>
      <trkpt lat="45.73074" lon="4.08968">
        <ele>359.79998779297</ele>
        <time>2021-03-06T15:20:10.000Z</time>
      </trkpt>
      <trkpt lat="45.73068" lon="4.0897">
        <ele>359.60000610352</ele>
        <time>2021-03-06T15:20:11.000Z</time>
      </trkpt>
      <trkpt lat="45.73061" lon="4.08973">
        <ele>359.20001220703</ele>
        <time>2021-03-06T15:20:12.000Z</time>
      </trkpt>
      <trkpt lat="45.73047" lon="4.08982">
        <ele>359</ele>
        <time>2021-03-06T15:20:14.000Z</time>
      </trkpt>
      <trkpt lat="45.7304" lon="4.08988">
        <ele>358.79998779297</ele>
        <time>2021-03-06T15:20:15.000Z</time>
      </trkpt>
      <trkpt lat="45.73031" lon="4.08996">
        <ele>358.39999389648</ele>
        <time>2021-03-06T15:20:16.000Z</time>
      </trkpt>
      <trkpt lat="45.72999" lon="4.0902">
        <ele>357.60000610352</ele>
        <time>2021-03-06T15:20:20.000Z</time>
      </trkpt>
      <trkpt lat="45.7299" lon="4.09026">
        <ele>357</ele>
        <time>2021-03-06T15:20:21.000Z</time>
      </trkpt>
      <trkpt lat="45.72952" lon="4.0905">
        <ele>355.39999389648</ele>
        <time>2021-03-06T15:20:25.000Z</time>
      </trkpt>
      <trkpt lat="45.72942" lon="4.09056">
        <ele>355.20001220703</ele>
        <time>2021-03-06T15:20:26.000Z</time>
      </trkpt>
      <trkpt lat="45.72898" lon="4.09077">
        <ele>354.39999389648</ele>
        <time>2021-03-06T15:20:30.000Z</time>
      </trkpt>
      <trkpt lat="45.7288" lon="4.09086">
        <ele>354.39999389648</ele>
        <time>2021-03-06T15:20:32.000Z</time>
      </trkpt>
      <trkpt lat="45.72819" lon="4.0911">
        <ele>354.20001220703</ele>
        <time>2021-03-06T15:20:38.000Z</time>
      </trkpt>
      <trkpt lat="45.72789" lon="4.09124">
        <ele>354.20001220703</ele>
        <time>2021-03-06T15:20:41.000Z</time>
      </trkpt>
      <trkpt lat="45.72732" lon="4.09148">
        <ele>354.20001220703</ele>
        <time>2021-03-06T15:20:47.000Z</time>
      </trkpt>
      <trkpt lat="45.72714" lon="4.09156">
        <ele>354.20001220703</ele>
        <time>2021-03-06T15:20:49.000Z</time>
      </trkpt>
      <trkpt lat="45.7266" lon="4.0918">
        <ele>354</ele>
        <time>2021-03-06T15:20:55.000Z</time>
      </trkpt>
      <trkpt lat="45.72651" lon="4.09184">
        <ele>354</ele>
        <time>2021-03-06T15:20:56.000Z</time>
      </trkpt>
      <trkpt lat="45.72598" lon="4.09206">
        <ele>353.79998779297</ele>
        <time>2021-03-06T15:21:02.000Z</time>
      </trkpt>
      <trkpt lat="45.72562" lon="4.09221">
        <ele>353.79998779297</ele>
        <time>2021-03-06T15:21:06.000Z</time>
      </trkpt>
      <trkpt lat="45.7251" lon="4.09243">
        <ele>353.79998779297</ele>
        <time>2021-03-06T15:21:12.000Z</time>
      </trkpt>
      <trkpt lat="45.72485" lon="4.09255">
        <ele>353.79998779297</ele>
        <time>2021-03-06T15:21:15.000Z</time>
      </trkpt>
      <trkpt lat="45.72435" lon="4.09276">
        <ele>353.39999389648</ele>
        <time>2021-03-06T15:21:21.000Z</time>
      </trkpt>
      <trkpt lat="45.72402" lon="4.0929">
        <ele>353.20001220703</ele>
        <time>2021-03-06T15:21:25.000Z</time>
      </trkpt>
      <trkpt lat="45.7237" lon="4.09303">
        <ele>352.39999389648</ele>
        <time>2021-03-06T15:21:29.000Z</time>
      </trkpt>
      <trkpt lat="45.72339" lon="4.09317">
        <ele>352.60000610352</ele>
        <time>2021-03-06T15:21:33.000Z</time>
      </trkpt>
      <trkpt lat="45.72282" lon="4.09342">
        <ele>352.60000610352</ele>
        <time>2021-03-06T15:21:40.000Z</time>
      </trkpt>
      <trkpt lat="45.72275" lon="4.09345">
        <ele>352.39999389648</ele>
        <time>2021-03-06T15:21:41.000Z</time>
      </trkpt>
      <trkpt lat="45.72236" lon="4.09363">
        <ele>352.39999389648</ele>
        <time>2021-03-06T15:21:47.000Z</time>
      </trkpt>
      <trkpt lat="45.72191" lon="4.09383">
        <ele>353</ele>
        <time>2021-03-06T15:21:54.000Z</time>
      </trkpt>
      <trkpt lat="45.7216" lon="4.09398">
        <ele>353.60000610352</ele>
        <time>2021-03-06T15:21:59.000Z</time>
      </trkpt>
      <trkpt lat="45.72138" lon="4.09408">
        <ele>354</ele>
        <time>2021-03-06T15:22:02.000Z</time>
      </trkpt>
      <trkpt lat="45.72098" lon="4.09426">
        <ele>354.60000610352</ele>
        <time>2021-03-06T15:22:07.000Z</time>
      </trkpt>
      <trkpt lat="45.72082" lon="4.09433">
        <ele>354.79998779297</ele>
        <time>2021-03-06T15:22:09.000Z</time>
      </trkpt>
      <trkpt lat="45.72023" lon="4.09457">
        <ele>355.20001220703</ele>
        <time>2021-03-06T15:22:16.000Z</time>
      </trkpt>
      <trkpt lat="45.71971" lon="4.0948">
        <ele>355.20001220703</ele>
        <time>2021-03-06T15:22:22.000Z</time>
      </trkpt>
      <trkpt lat="45.71956" lon="4.09487">
        <ele>355.20001220703</ele>
        <time>2021-03-06T15:22:24.000Z</time>
      </trkpt>
      <trkpt lat="45.71916" lon="4.09504">
        <ele>355.79998779297</ele>
        <time>2021-03-06T15:22:29.000Z</time>
      </trkpt>
      <trkpt lat="45.71892" lon="4.09513">
        <ele>356</ele>
        <time>2021-03-06T15:22:32.000Z</time>
      </trkpt>
      <trkpt lat="45.71861" lon="4.09518">
        <ele>356.79998779297</ele>
        <time>2021-03-06T15:22:36.000Z</time>
      </trkpt>
      <trkpt lat="45.71852" lon="4.09519">
        <ele>357.20001220703</ele>
        <time>2021-03-06T15:22:37.000Z</time>
      </trkpt>
      <trkpt lat="45.71837" lon="4.09518">
        <ele>358</ele>
        <time>2021-03-06T15:22:39.000Z</time>
      </trkpt>
      <trkpt lat="45.71806" lon="4.09515">
        <ele>359.20001220703</ele>
        <time>2021-03-06T15:22:43.000Z</time>
      </trkpt>
      <trkpt lat="45.71798" lon="4.09515">
        <ele>359.79998779297</ele>
        <time>2021-03-06T15:22:44.000Z</time>
      </trkpt>
      <trkpt lat="45.71791" lon="4.09514">
        <ele>360.20001220703</ele>
        <time>2021-03-06T15:22:45.000Z</time>
      </trkpt>
      <trkpt lat="45.71749" lon="4.09508">
        <ele>361.39999389648</ele>
        <time>2021-03-06T15:22:51.000Z</time>
      </trkpt>
      <trkpt lat="45.71742" lon="4.09507">
        <ele>361.60000610352</ele>
        <time>2021-03-06T15:22:52.000Z</time>
      </trkpt>
      <trkpt lat="45.71699" lon="4.09502">
        <ele>362</ele>
        <time>2021-03-06T15:22:58.000Z</time>
      </trkpt>
      <trkpt lat="45.71648" lon="4.09495">
        <ele>362.20001220703</ele>
        <time>2021-03-06T15:23:05.000Z</time>
      </trkpt>
      <trkpt lat="45.71633" lon="4.09493">
        <ele>362.39999389648</ele>
        <time>2021-03-06T15:23:07.000Z</time>
      </trkpt>
      <trkpt lat="45.71588" lon="4.09487">
        <ele>362.79998779297</ele>
        <time>2021-03-06T15:23:13.000Z</time>
      </trkpt>
      <trkpt lat="45.71534" lon="4.09476">
        <ele>363</ele>
        <time>2021-03-06T15:23:20.000Z</time>
      </trkpt>
      <trkpt lat="45.71517" lon="4.09473">
        <ele>363</ele>
        <time>2021-03-06T15:23:22.000Z</time>
      </trkpt>
      <trkpt lat="45.71459" lon="4.09462">
        <ele>363.20001220703</ele>
        <time>2021-03-06T15:23:29.000Z</time>
      </trkpt>
      <trkpt lat="45.71443" lon="4.09458">
        <ele>363.20001220703</ele>
        <time>2021-03-06T15:23:31.000Z</time>
      </trkpt>
      <trkpt lat="45.7141" lon="4.09452">
        <ele>363.39999389648</ele>
        <time>2021-03-06T15:23:35.000Z</time>
      </trkpt>
      <trkpt lat="45.71378" lon="4.09446">
        <ele>363.60000610352</ele>
        <time>2021-03-06T15:23:39.000Z</time>
      </trkpt>
      <trkpt lat="45.71321" lon="4.09436">
        <ele>363.79998779297</ele>
        <time>2021-03-06T15:23:46.000Z</time>
      </trkpt>
      <trkpt lat="45.71313" lon="4.09435">
        <ele>363.79998779297</ele>
        <time>2021-03-06T15:23:47.000Z</time>
      </trkpt>
      <trkpt lat="45.71254" lon="4.09423">
        <ele>364</ele>
        <time>2021-03-06T15:23:54.000Z</time>
      </trkpt>
      <trkpt lat="45.71229" lon="4.09418">
        <ele>364</ele>
        <time>2021-03-06T15:23:57.000Z</time>
      </trkpt>
      <trkpt lat="45.7117" lon="4.09408">
        <ele>364</ele>
        <time>2021-03-06T15:24:04.000Z</time>
      </trkpt>
      <trkpt lat="45.71127" lon="4.09399">
        <ele>364.20001220703</ele>
        <time>2021-03-06T15:24:09.000Z</time>
      </trkpt>
      <trkpt lat="45.71073" lon="4.09388">
        <ele>364.20001220703</ele>
        <time>2021-03-06T15:24:15.000Z</time>
      </trkpt>
      <trkpt lat="45.71055" lon="4.09385">
        <ele>364.20001220703</ele>
        <time>2021-03-06T15:24:17.000Z</time>
      </trkpt>
      <trkpt lat="45.71009" lon="4.09377">
        <ele>364.60000610352</ele>
        <time>2021-03-06T15:24:22.000Z</time>
      </trkpt>
      <trkpt lat="45.70956" lon="4.09367">
        <ele>364.60000610352</ele>
        <time>2021-03-06T15:24:28.000Z</time>
      </trkpt>
      <trkpt lat="45.70938" lon="4.09364">
        <ele>364.39999389648</ele>
        <time>2021-03-06T15:24:30.000Z</time>
      </trkpt>
      <trkpt lat="45.70877" lon="4.09352">
        <ele>364.60000610352</ele>
        <time>2021-03-06T15:24:37.000Z</time>
      </trkpt>
      <trkpt lat="45.7086" lon="4.09349">
        <ele>364.60000610352</ele>
        <time>2021-03-06T15:24:39.000Z</time>
      </trkpt>
      <trkpt lat="45.70801" lon="4.09339">
        <ele>364</ele>
        <time>2021-03-06T15:24:46.000Z</time>
      </trkpt>
      <trkpt lat="45.70775" lon="4.09334">
        <ele>364</ele>
        <time>2021-03-06T15:24:49.000Z</time>
      </trkpt>
      <trkpt lat="45.70715" lon="4.09323">
        <ele>364</ele>
        <time>2021-03-06T15:24:56.000Z</time>
      </trkpt>
      <trkpt lat="45.70697" lon="4.09322">
        <ele>364.20001220703</ele>
        <time>2021-03-06T15:24:58.000Z</time>
      </trkpt>
      <trkpt lat="45.70637" lon="4.09329">
        <ele>364</ele>
        <time>2021-03-06T15:25:05.000Z</time>
      </trkpt>
      <trkpt lat="45.70576" lon="4.09338">
        <ele>363.60000610352</ele>
        <time>2021-03-06T15:25:12.000Z</time>
      </trkpt>
      <trkpt lat="45.70568" lon="4.09339">
        <ele>363.39999389648</ele>
        <time>2021-03-06T15:25:13.000Z</time>
      </trkpt>
      <trkpt lat="45.70552" lon="4.09342">
        <ele>363.20001220703</ele>
        <time>2021-03-06T15:25:15.000Z</time>
      </trkpt>
      <trkpt lat="45.70494" lon="4.09351">
        <ele>363.20001220703</ele>
        <time>2021-03-06T15:25:22.000Z</time>
      </trkpt>
      <trkpt lat="45.70486" lon="4.09352">
        <ele>363.20001220703</ele>
        <time>2021-03-06T15:25:23.000Z</time>
      </trkpt>
      <trkpt lat="45.70427" lon="4.09364">
        <ele>362.60000610352</ele>
        <time>2021-03-06T15:25:30.000Z</time>
      </trkpt>
      <trkpt lat="45.70404" lon="4.0937">
        <ele>362.20001220703</ele>
        <time>2021-03-06T15:25:33.000Z</time>
      </trkpt>
      <trkpt lat="45.7039" lon="4.0937">
        <ele>361.79998779297</ele>
        <time>2021-03-06T15:25:35.000Z</time>
      </trkpt>
      <trkpt lat="45.70384" lon="4.09368">
        <ele>361.60000610352</ele>
        <time>2021-03-06T15:25:36.000Z</time>
      </trkpt>
      <trkpt lat="45.70379" lon="4.09365">
        <ele>361.39999389648</ele>
        <time>2021-03-06T15:25:37.000Z</time>
      </trkpt>
      <trkpt lat="45.70373" lon="4.09357">
        <ele>361.39999389648</ele>
        <time>2021-03-06T15:25:39.000Z</time>
      </trkpt>
      <trkpt lat="45.70362" lon="4.09351">
        <ele>361.39999389648</ele>
        <time>2021-03-06T15:25:42.000Z</time>
      </trkpt>
      <trkpt lat="45.70357" lon="4.09354">
        <ele>361.20001220703</ele>
        <time>2021-03-06T15:25:43.000Z</time>
      </trkpt>
      <trkpt lat="45.70342" lon="4.09371">
        <ele>361.39999389648</ele>
        <time>2021-03-06T15:25:46.000Z</time>
      </trkpt>
      <trkpt lat="45.70336" lon="4.09376">
        <ele>361.39999389648</ele>
        <time>2021-03-06T15:25:47.000Z</time>
      </trkpt>
      <trkpt lat="45.703" lon="4.09396">
        <ele>361.39999389648</ele>
        <time>2021-03-06T15:25:52.000Z</time>
      </trkpt>
      <trkpt lat="45.70244" lon="4.09423">
        <ele>361.39999389648</ele>
        <time>2021-03-06T15:25:59.000Z</time>
      </trkpt>
      <trkpt lat="45.70228" lon="4.0943">
        <ele>361</ele>
        <time>2021-03-06T15:26:01.000Z</time>
      </trkpt>
      <trkpt lat="45.70181" lon="4.09452">
        <ele>360.60000610352</ele>
        <time>2021-03-06T15:26:07.000Z</time>
      </trkpt>
      <trkpt lat="45.70137" lon="4.09473">
        <ele>360</ele>
        <time>2021-03-06T15:26:12.000Z</time>
      </trkpt>
      <trkpt lat="45.70128" lon="4.09478">
        <ele>359.79998779297</ele>
        <time>2021-03-06T15:26:13.000Z</time>
      </trkpt>
      <trkpt lat="45.70092" lon="4.09495">
        <ele>358.79998779297</ele>
        <time>2021-03-06T15:26:17.000Z</time>
      </trkpt>
      <trkpt lat="45.70046" lon="4.09516">
        <ele>358</ele>
        <time>2021-03-06T15:26:22.000Z</time>
      </trkpt>
      <trkpt lat="45.70037" lon="4.0952">
        <ele>357.79998779297</ele>
        <time>2021-03-06T15:26:23.000Z</time>
      </trkpt>
      <trkpt lat="45.6998" lon="4.09546">
        <ele>356.79998779297</ele>
        <time>2021-03-06T15:26:29.000Z</time>
      </trkpt>
      <trkpt lat="45.69961" lon="4.09555">
        <ele>356.39999389648</ele>
        <time>2021-03-06T15:26:31.000Z</time>
      </trkpt>
      <trkpt lat="45.69907" lon="4.09579">
        <ele>356.20001220703</ele>
        <time>2021-03-06T15:26:37.000Z</time>
      </trkpt>
      <trkpt lat="45.69899" lon="4.09583">
        <ele>356.20001220703</ele>
        <time>2021-03-06T15:26:38.000Z</time>
      </trkpt>
      <trkpt lat="45.69848" lon="4.09607">
        <ele>355.79998779297</ele>
        <time>2021-03-06T15:26:44.000Z</time>
      </trkpt>
      <trkpt lat="45.6979" lon="4.09639">
        <ele>356</ele>
        <time>2021-03-06T15:26:51.000Z</time>
      </trkpt>
      <trkpt lat="45.69765" lon="4.09653">
        <ele>356.20001220703</ele>
        <time>2021-03-06T15:26:54.000Z</time>
      </trkpt>
      <trkpt lat="45.69715" lon="4.09682">
        <ele>356.39999389648</ele>
        <time>2021-03-06T15:27:00.000Z</time>
      </trkpt>
      <trkpt lat="45.6966" lon="4.09718">
        <ele>356.20001220703</ele>
        <time>2021-03-06T15:27:07.000Z</time>
      </trkpt>
      <trkpt lat="45.69607" lon="4.09752">
        <ele>356.60000610352</ele>
        <time>2021-03-06T15:27:14.000Z</time>
      </trkpt>
      <trkpt lat="45.696" lon="4.09757">
        <ele>356.60000610352</ele>
        <time>2021-03-06T15:27:15.000Z</time>
      </trkpt>
      <trkpt lat="45.69578" lon="4.09773">
        <ele>357</ele>
        <time>2021-03-06T15:27:18.000Z</time>
      </trkpt>
      <trkpt lat="45.69548" lon="4.09792">
        <ele>357.20001220703</ele>
        <time>2021-03-06T15:27:22.000Z</time>
      </trkpt>
      <trkpt lat="45.69495" lon="4.09828">
        <ele>357</ele>
        <time>2021-03-06T15:27:29.000Z</time>
      </trkpt>
      <trkpt lat="45.69487" lon="4.09833">
        <ele>357</ele>
        <time>2021-03-06T15:27:30.000Z</time>
      </trkpt>
      <trkpt lat="45.69432" lon="4.09868">
        <ele>357</ele>
        <time>2021-03-06T15:27:37.000Z</time>
      </trkpt>
      <trkpt lat="45.69424" lon="4.09873">
        <ele>357.20001220703</ele>
        <time>2021-03-06T15:27:38.000Z</time>
      </trkpt>
      <trkpt lat="45.69373" lon="4.09906">
        <ele>356.60000610352</ele>
        <time>2021-03-06T15:27:45.000Z</time>
      </trkpt>
      <trkpt lat="45.69327" lon="4.09932">
        <ele>356</ele>
        <time>2021-03-06T15:27:51.000Z</time>
      </trkpt>
      <trkpt lat="45.69319" lon="4.09936">
        <ele>355.79998779297</ele>
        <time>2021-03-06T15:27:52.000Z</time>
      </trkpt>
      <trkpt lat="45.69278" lon="4.09949">
        <ele>356</ele>
        <time>2021-03-06T15:27:57.000Z</time>
      </trkpt>
      <trkpt lat="45.6922" lon="4.09965">
        <ele>356.20001220703</ele>
        <time>2021-03-06T15:28:04.000Z</time>
      </trkpt>
      <trkpt lat="45.69212" lon="4.09968">
        <ele>356.20001220703</ele>
        <time>2021-03-06T15:28:05.000Z</time>
      </trkpt>
      <trkpt lat="45.69154" lon="4.09993">
        <ele>356.20001220703</ele>
        <time>2021-03-06T15:28:12.000Z</time>
      </trkpt>
      <trkpt lat="45.69137" lon="4.10002">
        <ele>356.20001220703</ele>
        <time>2021-03-06T15:28:14.000Z</time>
      </trkpt>
      <trkpt lat="45.69088" lon="4.10038">
        <ele>355.60000610352</ele>
        <time>2021-03-06T15:28:20.000Z</time>
      </trkpt>
      <trkpt lat="45.6904" lon="4.10074">
        <ele>355.60000610352</ele>
        <time>2021-03-06T15:28:26.000Z</time>
      </trkpt>
      <trkpt lat="45.69025" lon="4.10085">
        <ele>355.60000610352</ele>
        <time>2021-03-06T15:28:28.000Z</time>
      </trkpt>
      <trkpt lat="45.68976" lon="4.10125">
        <ele>355.79998779297</ele>
        <time>2021-03-06T15:28:35.000Z</time>
      </trkpt>
      <trkpt lat="45.68955" lon="4.1014">
        <ele>356.20001220703</ele>
        <time>2021-03-06T15:28:38.000Z</time>
      </trkpt>
      <trkpt lat="45.68907" lon="4.1017">
        <ele>356.60000610352</ele>
        <time>2021-03-06T15:28:45.000Z</time>
      </trkpt>
      <trkpt lat="45.68865" lon="4.1019">
        <ele>356.79998779297</ele>
        <time>2021-03-06T15:28:51.000Z</time>
      </trkpt>
      <trkpt lat="45.68851" lon="4.10197">
        <ele>356.79998779297</ele>
        <time>2021-03-06T15:28:53.000Z</time>
      </trkpt>
      <trkpt lat="45.68807" lon="4.10219">
        <ele>356.79998779297</ele>
        <time>2021-03-06T15:28:59.000Z</time>
      </trkpt>
      <trkpt lat="45.68753" lon="4.10244">
        <ele>356.60000610352</ele>
        <time>2021-03-06T15:29:06.000Z</time>
      </trkpt>
      <trkpt lat="45.68745" lon="4.10247">
        <ele>356.60000610352</ele>
        <time>2021-03-06T15:29:07.000Z</time>
      </trkpt>
      <trkpt lat="45.68689" lon="4.10274">
        <ele>356.20001220703</ele>
        <time>2021-03-06T15:29:14.000Z</time>
      </trkpt>
      <trkpt lat="45.68681" lon="4.10278">
        <ele>356.20001220703</ele>
        <time>2021-03-06T15:29:15.000Z</time>
      </trkpt>
      <trkpt lat="45.68624" lon="4.10306">
        <ele>356.20001220703</ele>
        <time>2021-03-06T15:29:22.000Z</time>
      </trkpt>
      <trkpt lat="45.68616" lon="4.1031">
        <ele>356.39999389648</ele>
        <time>2021-03-06T15:29:23.000Z</time>
      </trkpt>
      <trkpt lat="45.68561" lon="4.10336">
        <ele>356.39999389648</ele>
        <time>2021-03-06T15:29:30.000Z</time>
      </trkpt>
      <trkpt lat="45.68553" lon="4.1034">
        <ele>356.60000610352</ele>
        <time>2021-03-06T15:29:31.000Z</time>
      </trkpt>
      <trkpt lat="45.685" lon="4.1037">
        <ele>357.79998779297</ele>
        <time>2021-03-06T15:29:38.000Z</time>
      </trkpt>
      <trkpt lat="45.68493" lon="4.10375">
        <ele>358</ele>
        <time>2021-03-06T15:29:39.000Z</time>
      </trkpt>
      <trkpt lat="45.68455" lon="4.10415">
        <ele>358.39999389648</ele>
        <time>2021-03-06T15:29:45.000Z</time>
      </trkpt>
      <trkpt lat="45.68417" lon="4.10473">
        <ele>358.79998779297</ele>
        <time>2021-03-06T15:29:52.000Z</time>
      </trkpt>
      <trkpt lat="45.68403" lon="4.10497">
        <ele>359</ele>
        <time>2021-03-06T15:29:55.000Z</time>
      </trkpt>
      <trkpt lat="45.68376" lon="4.10541">
        <ele>359.20001220703</ele>
        <time>2021-03-06T15:30:00.000Z</time>
      </trkpt>
      <trkpt lat="45.6834" lon="4.10601">
        <ele>359.79998779297</ele>
        <time>2021-03-06T15:30:07.000Z</time>
      </trkpt>
      <trkpt lat="45.68335" lon="4.1061">
        <ele>359.79998779297</ele>
        <time>2021-03-06T15:30:08.000Z</time>
      </trkpt>
      <trkpt lat="45.68329" lon="4.10618">
        <ele>360</ele>
        <time>2021-03-06T15:30:09.000Z</time>
      </trkpt>
      <trkpt lat="45.68294" lon="4.1068">
        <ele>360.39999389648</ele>
        <time>2021-03-06T15:30:16.000Z</time>
      </trkpt>
      <trkpt lat="45.68273" lon="4.10745">
        <ele>360.20001220703</ele>
        <time>2021-03-06T15:30:22.000Z</time>
      </trkpt>
      <trkpt lat="45.68262" lon="4.10818">
        <ele>360.20001220703</ele>
        <time>2021-03-06T15:30:28.000Z</time>
      </trkpt>
      <trkpt lat="45.68255" lon="4.10905">
        <ele>360</ele>
        <time>2021-03-06T15:30:35.000Z</time>
      </trkpt>
      <trkpt lat="45.68252" lon="4.10931">
        <ele>360</ele>
        <time>2021-03-06T15:30:37.000Z</time>
      </trkpt>
      <trkpt lat="45.68245" lon="4.11018">
        <ele>359.20001220703</ele>
        <time>2021-03-06T15:30:44.000Z</time>
      </trkpt>
      <trkpt lat="45.68241" lon="4.11055">
        <ele>358.79998779297</ele>
        <time>2021-03-06T15:30:47.000Z</time>
      </trkpt>
      <trkpt lat="45.68233" lon="4.11143">
        <ele>358.79998779297</ele>
        <time>2021-03-06T15:30:54.000Z</time>
      </trkpt>
      <trkpt lat="45.68228" lon="4.11191">
        <ele>357.79998779297</ele>
        <time>2021-03-06T15:30:58.000Z</time>
      </trkpt>
      <trkpt lat="45.68228" lon="4.11203">
        <ele>357.39999389648</ele>
        <time>2021-03-06T15:30:59.000Z</time>
      </trkpt>
      <trkpt lat="45.68222" lon="4.11258">
        <ele>358</ele>
        <time>2021-03-06T15:31:04.000Z</time>
      </trkpt>
      <trkpt lat="45.68214" lon="4.11344">
        <ele>357.79998779297</ele>
        <time>2021-03-06T15:31:11.000Z</time>
      </trkpt>
      <trkpt lat="45.68213" lon="4.11356">
        <ele>357.60000610352</ele>
        <time>2021-03-06T15:31:12.000Z</time>
      </trkpt>
      <trkpt lat="45.68206" lon="4.11433">
        <ele>357.20001220703</ele>
        <time>2021-03-06T15:31:18.000Z</time>
      </trkpt>
      <trkpt lat="45.68204" lon="4.11458">
        <ele>357.20001220703</ele>
        <time>2021-03-06T15:31:20.000Z</time>
      </trkpt>
      <trkpt lat="45.68195" lon="4.11545">
        <ele>357.39999389648</ele>
        <time>2021-03-06T15:31:27.000Z</time>
      </trkpt>
      <trkpt lat="45.68193" lon="4.11569">
        <ele>357.60000610352</ele>
        <time>2021-03-06T15:31:29.000Z</time>
      </trkpt>
      <trkpt lat="45.68184" lon="4.11655">
        <ele>357.60000610352</ele>
        <time>2021-03-06T15:31:36.000Z</time>
      </trkpt>
      <trkpt lat="45.68182" lon="4.11668">
        <ele>357.60000610352</ele>
        <time>2021-03-06T15:31:37.000Z</time>
      </trkpt>
      <trkpt lat="45.68175" lon="4.11747">
        <ele>356</ele>
        <time>2021-03-06T15:31:43.000Z</time>
      </trkpt>
      <trkpt lat="45.68171" lon="4.11788">
        <ele>355.79998779297</ele>
        <time>2021-03-06T15:31:46.000Z</time>
      </trkpt>
      <trkpt lat="45.68162" lon="4.11871">
        <ele>355.20001220703</ele>
        <time>2021-03-06T15:31:52.000Z</time>
      </trkpt>
      <trkpt lat="45.68161" lon="4.11885">
        <ele>354.79998779297</ele>
        <time>2021-03-06T15:31:53.000Z</time>
      </trkpt>
      <trkpt lat="45.68155" lon="4.11929">
        <ele>354.39999389648</ele>
        <time>2021-03-06T15:31:56.000Z</time>
      </trkpt>
      <trkpt lat="45.68151" lon="4.11971">
        <ele>353.79998779297</ele>
        <time>2021-03-06T15:31:59.000Z</time>
      </trkpt>
      <trkpt lat="45.68151" lon="4.12027">
        <ele>353.79998779297</ele>
        <time>2021-03-06T15:32:03.000Z</time>
      </trkpt>
      <trkpt lat="45.68155" lon="4.12105">
        <ele>353.60000610352</ele>
        <time>2021-03-06T15:32:09.000Z</time>
      </trkpt>
      <trkpt lat="45.68155" lon="4.12118">
        <ele>353.79998779297</ele>
        <time>2021-03-06T15:32:10.000Z</time>
      </trkpt>
      <trkpt lat="45.68155" lon="4.12203">
        <ele>353.60000610352</ele>
        <time>2021-03-06T15:32:17.000Z</time>
      </trkpt>
      <trkpt lat="45.68152" lon="4.12288">
        <ele>353.20001220703</ele>
        <time>2021-03-06T15:32:24.000Z</time>
      </trkpt>
      <trkpt lat="45.68151" lon="4.12302">
        <ele>353.20001220703</ele>
        <time>2021-03-06T15:32:25.000Z</time>
      </trkpt>
      <trkpt lat="45.6815" lon="4.12311">
        <ele>353</ele>
        <time>2021-03-06T15:32:26.000Z</time>
      </trkpt>
      <trkpt lat="45.68145" lon="4.12357">
        <ele>352.79998779297</ele>
        <time>2021-03-06T15:32:30.000Z</time>
      </trkpt>
      <trkpt lat="45.68143" lon="4.12379">
        <ele>352.60000610352</ele>
        <time>2021-03-06T15:32:32.000Z</time>
      </trkpt>
      <trkpt lat="45.68141" lon="4.12401">
        <ele>352.39999389648</ele>
        <time>2021-03-06T15:32:34.000Z</time>
      </trkpt>
      <trkpt lat="45.68134" lon="4.1242">
        <ele>351.79998779297</ele>
        <time>2021-03-06T15:32:36.000Z</time>
      </trkpt>
      <trkpt lat="45.68121" lon="4.12432">
        <ele>351.39999389648</ele>
        <time>2021-03-06T15:32:38.000Z</time>
      </trkpt>
      <trkpt lat="45.68114" lon="4.12435">
        <ele>351.20001220703</ele>
        <time>2021-03-06T15:32:39.000Z</time>
      </trkpt>
      <trkpt lat="45.68071" lon="4.12461">
        <ele>350.79998779297</ele>
        <time>2021-03-06T15:32:45.000Z</time>
      </trkpt>
      <trkpt lat="45.68057" lon="4.12469">
        <ele>350.60000610352</ele>
        <time>2021-03-06T15:32:47.000Z</time>
      </trkpt>
      <trkpt lat="45.68044" lon="4.12475">
        <ele>350.39999389648</ele>
        <time>2021-03-06T15:32:49.000Z</time>
      </trkpt>
      <trkpt lat="45.68037" lon="4.12475">
        <ele>350.20001220703</ele>
        <time>2021-03-06T15:32:50.000Z</time>
      </trkpt>
      <trkpt lat="45.67992" lon="4.12463">
        <ele>350.20001220703</ele>
        <time>2021-03-06T15:32:56.000Z</time>
      </trkpt>
      <trkpt lat="45.67947" lon="4.1245">
        <ele>350.79998779297</ele>
        <time>2021-03-06T15:33:02.000Z</time>
      </trkpt>
      <trkpt lat="45.67911" lon="4.12434">
        <ele>351.39999389648</ele>
        <time>2021-03-06T15:33:07.000Z</time>
      </trkpt>
      <trkpt lat="45.67903" lon="4.12433">
        <ele>351.60000610352</ele>
        <time>2021-03-06T15:33:08.000Z</time>
      </trkpt>
      <trkpt lat="45.67873" lon="4.1243">
        <ele>351.60000610352</ele>
        <time>2021-03-06T15:33:12.000Z</time>
      </trkpt>
      <trkpt lat="45.67865" lon="4.12427">
        <ele>351.60000610352</ele>
        <time>2021-03-06T15:33:13.000Z</time>
      </trkpt>
      <trkpt lat="45.6784" lon="4.12416">
        <ele>351.79998779297</ele>
        <time>2021-03-06T15:33:16.000Z</time>
      </trkpt>
      <trkpt lat="45.67809" lon="4.124">
        <ele>352</ele>
        <time>2021-03-06T15:33:20.000Z</time>
      </trkpt>
      <trkpt lat="45.67756" lon="4.12377">
        <ele>351.79998779297</ele>
        <time>2021-03-06T15:33:27.000Z</time>
      </trkpt>
      <trkpt lat="45.677" lon="4.12363">
        <ele>351.79998779297</ele>
        <time>2021-03-06T15:33:34.000Z</time>
      </trkpt>
      <trkpt lat="45.67691" lon="4.12362">
        <ele>351.79998779297</ele>
        <time>2021-03-06T15:33:35.000Z</time>
      </trkpt>
      <trkpt lat="45.67635" lon="4.12351">
        <ele>351.79998779297</ele>
        <time>2021-03-06T15:33:42.000Z</time>
      </trkpt>
      <trkpt lat="45.67628" lon="4.1235">
        <ele>351.79998779297</ele>
        <time>2021-03-06T15:33:43.000Z</time>
      </trkpt>
      <trkpt lat="45.67574" lon="4.12333">
        <ele>352.60000610352</ele>
        <time>2021-03-06T15:33:50.000Z</time>
      </trkpt>
      <trkpt lat="45.6756" lon="4.12327">
        <ele>352.79998779297</ele>
        <time>2021-03-06T15:33:52.000Z</time>
      </trkpt>
      <trkpt lat="45.67507" lon="4.12303">
        <ele>353</ele>
        <time>2021-03-06T15:33:59.000Z</time>
      </trkpt>
      <trkpt lat="45.67485" lon="4.12293">
        <ele>353.20001220703</ele>
        <time>2021-03-06T15:34:02.000Z</time>
      </trkpt>
      <trkpt lat="45.67427" lon="4.12269">
        <ele>353.60000610352</ele>
        <time>2021-03-06T15:34:10.000Z</time>
      </trkpt>
      <trkpt lat="45.67371" lon="4.12244">
        <ele>353.60000610352</ele>
        <time>2021-03-06T15:34:18.000Z</time>
      </trkpt>
      <trkpt lat="45.67356" lon="4.12238">
        <ele>353.79998779297</ele>
        <time>2021-03-06T15:34:20.000Z</time>
      </trkpt>
      <trkpt lat="45.67315" lon="4.1222">
        <ele>354</ele>
        <time>2021-03-06T15:34:26.000Z</time>
      </trkpt>
      <trkpt lat="45.67279" lon="4.12205">
        <ele>354.20001220703</ele>
        <time>2021-03-06T15:34:31.000Z</time>
      </trkpt>
      <trkpt lat="45.67227" lon="4.12184">
        <ele>355</ele>
        <time>2021-03-06T15:34:38.000Z</time>
      </trkpt>
      <trkpt lat="45.67213" lon="4.12178">
        <ele>355.20001220703</ele>
        <time>2021-03-06T15:34:40.000Z</time>
      </trkpt>
      <trkpt lat="45.67155" lon="4.12152">
        <ele>355.60000610352</ele>
        <time>2021-03-06T15:34:48.000Z</time>
      </trkpt>
      <trkpt lat="45.6714" lon="4.12146">
        <ele>355.79998779297</ele>
        <time>2021-03-06T15:34:50.000Z</time>
      </trkpt>
      <trkpt lat="45.67126" lon="4.1214">
        <ele>356.20001220703</ele>
        <time>2021-03-06T15:34:52.000Z</time>
      </trkpt>
      <trkpt lat="45.67067" lon="4.12116">
        <ele>356.39999389648</ele>
        <time>2021-03-06T15:35:00.000Z</time>
      </trkpt>
      <trkpt lat="45.67053" lon="4.12109">
        <ele>356.39999389648</ele>
        <time>2021-03-06T15:35:02.000Z</time>
      </trkpt>
      <trkpt lat="45.67" lon="4.12088">
        <ele>356.39999389648</ele>
        <time>2021-03-06T15:35:09.000Z</time>
      </trkpt>
      <trkpt lat="45.66977" lon="4.12078">
        <ele>356.60000610352</ele>
        <time>2021-03-06T15:35:12.000Z</time>
      </trkpt>
      <trkpt lat="45.66924" lon="4.12054">
        <ele>356.79998779297</ele>
        <time>2021-03-06T15:35:19.000Z</time>
      </trkpt>
      <trkpt lat="45.6691" lon="4.12047">
        <ele>357</ele>
        <time>2021-03-06T15:35:21.000Z</time>
      </trkpt>
      <trkpt lat="45.66895" lon="4.12041">
        <ele>357.20001220703</ele>
        <time>2021-03-06T15:35:23.000Z</time>
      </trkpt>
      <trkpt lat="45.66843" lon="4.12019">
        <ele>357.39999389648</ele>
        <time>2021-03-06T15:35:30.000Z</time>
      </trkpt>
      <trkpt lat="45.6679" lon="4.11997">
        <ele>357.60000610352</ele>
        <time>2021-03-06T15:35:37.000Z</time>
      </trkpt>
      <trkpt lat="45.66775" lon="4.11991">
        <ele>357.79998779297</ele>
        <time>2021-03-06T15:35:39.000Z</time>
      </trkpt>
      <trkpt lat="45.66723" lon="4.11968">
        <ele>357.79998779297</ele>
        <time>2021-03-06T15:35:46.000Z</time>
      </trkpt>
      <trkpt lat="45.66684" lon="4.11951">
        <ele>357.39999389648</ele>
        <time>2021-03-06T15:35:51.000Z</time>
      </trkpt>
      <trkpt lat="45.66629" lon="4.11927">
        <ele>357.20001220703</ele>
        <time>2021-03-06T15:35:58.000Z</time>
      </trkpt>
      <trkpt lat="45.66575" lon="4.11903">
        <ele>357.20001220703</ele>
        <time>2021-03-06T15:36:05.000Z</time>
      </trkpt>
      <trkpt lat="45.66552" lon="4.11893">
        <ele>357</ele>
        <time>2021-03-06T15:36:08.000Z</time>
      </trkpt>
      <trkpt lat="45.66514" lon="4.11877">
        <ele>357</ele>
        <time>2021-03-06T15:36:13.000Z</time>
      </trkpt>
      <trkpt lat="45.66461" lon="4.11854">
        <ele>357.60000610352</ele>
        <time>2021-03-06T15:36:20.000Z</time>
      </trkpt>
      <trkpt lat="45.66407" lon="4.11831">
        <ele>357.39999389648</ele>
        <time>2021-03-06T15:36:27.000Z</time>
      </trkpt>
      <trkpt lat="45.66392" lon="4.11825">
        <ele>357.39999389648</ele>
        <time>2021-03-06T15:36:29.000Z</time>
      </trkpt>
      <trkpt lat="45.66336" lon="4.118">
        <ele>357</ele>
        <time>2021-03-06T15:36:36.000Z</time>
      </trkpt>
      <trkpt lat="45.66296" lon="4.11783">
        <ele>356.79998779297</ele>
        <time>2021-03-06T15:36:41.000Z</time>
      </trkpt>
      <trkpt lat="45.66238" lon="4.11759">
        <ele>357</ele>
        <time>2021-03-06T15:36:48.000Z</time>
      </trkpt>
      <trkpt lat="45.66206" lon="4.11744">
        <ele>357.39999389648</ele>
        <time>2021-03-06T15:36:52.000Z</time>
      </trkpt>
      <trkpt lat="45.66151" lon="4.11719">
        <ele>357.60000610352</ele>
        <time>2021-03-06T15:36:59.000Z</time>
      </trkpt>
      <trkpt lat="45.66135" lon="4.11712">
        <ele>357.79998779297</ele>
        <time>2021-03-06T15:37:01.000Z</time>
      </trkpt>
      <trkpt lat="45.66111" lon="4.11702">
        <ele>358.20001220703</ele>
        <time>2021-03-06T15:37:04.000Z</time>
      </trkpt>
      <trkpt lat="45.66066" lon="4.11682">
        <ele>359</ele>
        <time>2021-03-06T15:37:10.000Z</time>
      </trkpt>
      <trkpt lat="45.66028" lon="4.11665">
        <ele>359.39999389648</ele>
        <time>2021-03-06T15:37:15.000Z</time>
      </trkpt>
      <trkpt lat="45.65999" lon="4.11653">
        <ele>359.20001220703</ele>
        <time>2021-03-06T15:37:19.000Z</time>
      </trkpt>
      <trkpt lat="45.65966" lon="4.11639">
        <ele>360</ele>
        <time>2021-03-06T15:37:24.000Z</time>
      </trkpt>
      <trkpt lat="45.65925" lon="4.11622">
        <ele>360.39999389648</ele>
        <time>2021-03-06T15:37:30.000Z</time>
      </trkpt>
      <trkpt lat="45.6591" lon="4.11616">
        <ele>360.39999389648</ele>
        <time>2021-03-06T15:37:32.000Z</time>
      </trkpt>
      <trkpt lat="45.65871" lon="4.11586">
        <ele>360.79998779297</ele>
        <time>2021-03-06T15:37:38.000Z</time>
      </trkpt>
      <trkpt lat="45.65827" lon="4.11525">
        <ele>361.20001220703</ele>
        <time>2021-03-06T15:37:46.000Z</time>
      </trkpt>
      <trkpt lat="45.6581" lon="4.11501">
        <ele>361.39999389648</ele>
        <time>2021-03-06T15:37:49.000Z</time>
      </trkpt>
      <trkpt lat="45.6577" lon="4.11446">
        <ele>361.79998779297</ele>
        <time>2021-03-06T15:37:56.000Z</time>
      </trkpt>
      <trkpt lat="45.65764" lon="4.11438">
        <ele>362</ele>
        <time>2021-03-06T15:37:57.000Z</time>
      </trkpt>
      <trkpt lat="45.65724" lon="4.11384">
        <ele>362.39999389648</ele>
        <time>2021-03-06T15:38:04.000Z</time>
      </trkpt>
      <trkpt lat="45.65712" lon="4.1137">
        <ele>362.39999389648</ele>
        <time>2021-03-06T15:38:06.000Z</time>
      </trkpt>
      <trkpt lat="45.65706" lon="4.11364">
        <ele>362.60000610352</ele>
        <time>2021-03-06T15:38:07.000Z</time>
      </trkpt>
      <trkpt lat="45.65691" lon="4.1136">
        <ele>362.79998779297</ele>
        <time>2021-03-06T15:38:09.000Z</time>
      </trkpt>
      <trkpt lat="45.65675" lon="4.11362">
        <ele>362.79998779297</ele>
        <time>2021-03-06T15:38:11.000Z</time>
      </trkpt>
      <trkpt lat="45.65667" lon="4.11365">
        <ele>362.79998779297</ele>
        <time>2021-03-06T15:38:12.000Z</time>
      </trkpt>
      <trkpt lat="45.65615" lon="4.11394">
        <ele>363</ele>
        <time>2021-03-06T15:38:19.000Z</time>
      </trkpt>
      <trkpt lat="45.65559" lon="4.11414">
        <ele>362.60000610352</ele>
        <time>2021-03-06T15:38:26.000Z</time>
      </trkpt>
      <trkpt lat="45.65504" lon="4.11421">
        <ele>362</ele>
        <time>2021-03-06T15:38:33.000Z</time>
      </trkpt>
      <trkpt lat="45.65456" lon="4.11419">
        <ele>362.39999389648</ele>
        <time>2021-03-06T15:38:39.000Z</time>
      </trkpt>
      <trkpt lat="45.65417" lon="4.11403">
        <ele>362.39999389648</ele>
        <time>2021-03-06T15:38:44.000Z</time>
      </trkpt>
      <trkpt lat="45.65368" lon="4.1137">
        <ele>362.39999389648</ele>
        <time>2021-03-06T15:38:51.000Z</time>
      </trkpt>
      <trkpt lat="45.65336" lon="4.11346">
        <ele>362.60000610352</ele>
        <time>2021-03-06T15:38:56.000Z</time>
      </trkpt>
      <trkpt lat="45.65329" lon="4.11344">
        <ele>362.60000610352</ele>
        <time>2021-03-06T15:38:57.000Z</time>
      </trkpt>
      <trkpt lat="45.65316" lon="4.1134">
        <ele>362.60000610352</ele>
        <time>2021-03-06T15:38:59.000Z</time>
      </trkpt>
      <trkpt lat="45.65302" lon="4.11331">
        <ele>362.60000610352</ele>
        <time>2021-03-06T15:39:01.000Z</time>
      </trkpt>
      <trkpt lat="45.65295" lon="4.11325">
        <ele>362.60000610352</ele>
        <time>2021-03-06T15:39:02.000Z</time>
      </trkpt>
      <trkpt lat="45.65279" lon="4.11301">
        <ele>362.60000610352</ele>
        <time>2021-03-06T15:39:05.000Z</time>
      </trkpt>
      <trkpt lat="45.65249" lon="4.11265">
        <ele>362.60000610352</ele>
        <time>2021-03-06T15:39:10.000Z</time>
      </trkpt>
      <trkpt lat="45.65202" lon="4.11228">
        <ele>363.20001220703</ele>
        <time>2021-03-06T15:39:17.000Z</time>
      </trkpt>
      <trkpt lat="45.65153" lon="4.1119">
        <ele>363.20001220703</ele>
        <time>2021-03-06T15:39:24.000Z</time>
      </trkpt>
      <trkpt lat="45.65139" lon="4.11179">
        <ele>363.20001220703</ele>
        <time>2021-03-06T15:39:26.000Z</time>
      </trkpt>
      <trkpt lat="45.65097" lon="4.11148">
        <ele>363.39999389648</ele>
        <time>2021-03-06T15:39:32.000Z</time>
      </trkpt>
      <trkpt lat="45.65062" lon="4.11121">
        <ele>363.79998779297</ele>
        <time>2021-03-06T15:39:37.000Z</time>
      </trkpt>
      <trkpt lat="45.65018" lon="4.11073">
        <ele>363.79998779297</ele>
        <time>2021-03-06T15:39:44.000Z</time>
      </trkpt>
      <trkpt lat="45.64978" lon="4.11018">
        <ele>363.60000610352</ele>
        <time>2021-03-06T15:39:51.000Z</time>
      </trkpt>
      <trkpt lat="45.64966" lon="4.11002">
        <ele>363.60000610352</ele>
        <time>2021-03-06T15:39:53.000Z</time>
      </trkpt>
      <trkpt lat="45.64924" lon="4.10944">
        <ele>363</ele>
        <time>2021-03-06T15:40:00.000Z</time>
      </trkpt>
      <trkpt lat="45.64911" lon="4.10927">
        <ele>362.79998779297</ele>
        <time>2021-03-06T15:40:02.000Z</time>
      </trkpt>
      <trkpt lat="45.64898" lon="4.10908">
        <ele>362.39999389648</ele>
        <time>2021-03-06T15:40:04.000Z</time>
      </trkpt>
      <trkpt lat="45.64864" lon="4.10862">
        <ele>361.60000610352</ele>
        <time>2021-03-06T15:40:09.000Z</time>
      </trkpt>
      <trkpt lat="45.64851" lon="4.10844">
        <ele>361.39999389648</ele>
        <time>2021-03-06T15:40:11.000Z</time>
      </trkpt>
      <trkpt lat="45.64812" lon="4.10789">
        <ele>361.20001220703</ele>
        <time>2021-03-06T15:40:17.000Z</time>
      </trkpt>
      <trkpt lat="45.6478" lon="4.10745">
        <ele>361.60000610352</ele>
        <time>2021-03-06T15:40:22.000Z</time>
      </trkpt>
      <trkpt lat="45.64737" lon="4.10686">
        <ele>361.79998779297</ele>
        <time>2021-03-06T15:40:29.000Z</time>
      </trkpt>
      <trkpt lat="45.64725" lon="4.1067">
        <ele>361.79998779297</ele>
        <time>2021-03-06T15:40:31.000Z</time>
      </trkpt>
      <trkpt lat="45.64688" lon="4.1062">
        <ele>361.39999389648</ele>
        <time>2021-03-06T15:40:37.000Z</time>
      </trkpt>
      <trkpt lat="45.64644" lon="4.1056">
        <ele>360.60000610352</ele>
        <time>2021-03-06T15:40:44.000Z</time>
      </trkpt>
      <trkpt lat="45.64631" lon="4.10543">
        <ele>360.39999389648</ele>
        <time>2021-03-06T15:40:46.000Z</time>
      </trkpt>
      <trkpt lat="45.64589" lon="4.10486">
        <ele>360.79998779297</ele>
        <time>2021-03-06T15:40:53.000Z</time>
      </trkpt>
      <trkpt lat="45.64556" lon="4.10444">
        <ele>360.20001220703</ele>
        <time>2021-03-06T15:40:58.000Z</time>
      </trkpt>
      <trkpt lat="45.64531" lon="4.10409">
        <ele>359.60000610352</ele>
        <time>2021-03-06T15:41:02.000Z</time>
      </trkpt>
      <trkpt lat="45.64488" lon="4.1035">
        <ele>360.20001220703</ele>
        <time>2021-03-06T15:41:09.000Z</time>
      </trkpt>
      <trkpt lat="45.64482" lon="4.10342">
        <ele>360.20001220703</ele>
        <time>2021-03-06T15:41:10.000Z</time>
      </trkpt>
      <trkpt lat="45.64443" lon="4.10285">
        <ele>360.79998779297</ele>
        <time>2021-03-06T15:41:17.000Z</time>
      </trkpt>
      <trkpt lat="45.64426" lon="4.10262">
        <ele>361.20001220703</ele>
        <time>2021-03-06T15:41:20.000Z</time>
      </trkpt>
      <trkpt lat="45.64421" lon="4.10254">
        <ele>361.39999389648</ele>
        <time>2021-03-06T15:41:21.000Z</time>
      </trkpt>
      <trkpt lat="45.64378" lon="4.10195">
        <ele>361.79998779297</ele>
        <time>2021-03-06T15:41:29.000Z</time>
      </trkpt>
      <trkpt lat="45.6435" lon="4.10157">
        <ele>362.39999389648</ele>
        <time>2021-03-06T15:41:34.000Z</time>
      </trkpt>
      <trkpt lat="45.64333" lon="4.10135">
        <ele>362.79998779297</ele>
        <time>2021-03-06T15:41:37.000Z</time>
      </trkpt>
      <trkpt lat="45.64309" lon="4.10108">
        <ele>363</ele>
        <time>2021-03-06T15:41:41.000Z</time>
      </trkpt>
      <trkpt lat="45.64285" lon="4.10086">
        <ele>363</ele>
        <time>2021-03-06T15:41:45.000Z</time>
      </trkpt>
      <trkpt lat="45.64235" lon="4.10056">
        <ele>363</ele>
        <time>2021-03-06T15:41:52.000Z</time>
      </trkpt>
      <trkpt lat="45.6418" lon="4.10026">
        <ele>362.79998779297</ele>
        <time>2021-03-06T15:41:59.000Z</time>
      </trkpt>
      <trkpt lat="45.64172" lon="4.10022">
        <ele>362.60000610352</ele>
        <time>2021-03-06T15:42:00.000Z</time>
      </trkpt>
      <trkpt lat="45.64113" lon="4.0999">
        <ele>362.39999389648</ele>
        <time>2021-03-06T15:42:07.000Z</time>
      </trkpt>
      <trkpt lat="45.64062" lon="4.09964">
        <ele>362.39999389648</ele>
        <time>2021-03-06T15:42:13.000Z</time>
      </trkpt>
      <trkpt lat="45.64021" lon="4.09942">
        <ele>362.20001220703</ele>
        <time>2021-03-06T15:42:18.000Z</time>
      </trkpt>
      <trkpt lat="45.63964" lon="4.09909">
        <ele>361.79998779297</ele>
        <time>2021-03-06T15:42:25.000Z</time>
      </trkpt>
      <trkpt lat="45.63932" lon="4.0989">
        <ele>361.79998779297</ele>
        <time>2021-03-06T15:42:29.000Z</time>
      </trkpt>
      <trkpt lat="45.63884" lon="4.09849">
        <ele>361.60000610352</ele>
        <time>2021-03-06T15:42:35.000Z</time>
      </trkpt>
      <trkpt lat="45.63844" lon="4.09804">
        <ele>361.79998779297</ele>
        <time>2021-03-06T15:42:41.000Z</time>
      </trkpt>
      <trkpt lat="45.63799" lon="4.09748">
        <ele>362</ele>
        <time>2021-03-06T15:42:48.000Z</time>
      </trkpt>
      <trkpt lat="45.63781" lon="4.09725">
        <ele>362.20001220703</ele>
        <time>2021-03-06T15:42:51.000Z</time>
      </trkpt>
      <trkpt lat="45.63737" lon="4.09669">
        <ele>362.39999389648</ele>
        <time>2021-03-06T15:42:58.000Z</time>
      </trkpt>
      <trkpt lat="45.63718" lon="4.09645">
        <ele>362.39999389648</ele>
        <time>2021-03-06T15:43:01.000Z</time>
      </trkpt>
      <trkpt lat="45.63673" lon="4.09588">
        <ele>362</ele>
        <time>2021-03-06T15:43:08.000Z</time>
      </trkpt>
      <trkpt lat="45.63625" lon="4.09534">
        <ele>362.20001220703</ele>
        <time>2021-03-06T15:43:15.000Z</time>
      </trkpt>
      <trkpt lat="45.63611" lon="4.09519">
        <ele>362.20001220703</ele>
        <time>2021-03-06T15:43:17.000Z</time>
      </trkpt>
      <trkpt lat="45.63565" lon="4.0947">
        <ele>362.20001220703</ele>
        <time>2021-03-06T15:43:24.000Z</time>
      </trkpt>
      <trkpt lat="45.63545" lon="4.09449">
        <ele>362.20001220703</ele>
        <time>2021-03-06T15:43:27.000Z</time>
      </trkpt>
      <trkpt lat="45.63501" lon="4.09398">
        <ele>362</ele>
        <time>2021-03-06T15:43:34.000Z</time>
      </trkpt>
      <trkpt lat="45.63483" lon="4.09374">
        <ele>362</ele>
        <time>2021-03-06T15:43:37.000Z</time>
      </trkpt>
      <trkpt lat="45.63452" lon="4.09331">
        <ele>361.60000610352</ele>
        <time>2021-03-06T15:43:43.000Z</time>
      </trkpt>
      <trkpt lat="45.63409" lon="4.09273">
        <ele>361.79998779297</ele>
        <time>2021-03-06T15:43:51.000Z</time>
      </trkpt>
      <trkpt lat="45.63403" lon="4.09266">
        <ele>361.79998779297</ele>
        <time>2021-03-06T15:43:52.000Z</time>
      </trkpt>
      <trkpt lat="45.63356" lon="4.09213">
        <ele>362</ele>
        <time>2021-03-06T15:44:00.000Z</time>
      </trkpt>
      <trkpt lat="45.63306" lon="4.09164">
        <ele>362.20001220703</ele>
        <time>2021-03-06T15:44:08.000Z</time>
      </trkpt>
      <trkpt lat="45.633" lon="4.09158">
        <ele>362.20001220703</ele>
        <time>2021-03-06T15:44:09.000Z</time>
      </trkpt>
      <trkpt lat="45.63267" lon="4.09128">
        <ele>362.20001220703</ele>
        <time>2021-03-06T15:44:14.000Z</time>
      </trkpt>
      <trkpt lat="45.63229" lon="4.09103">
        <ele>362.39999389648</ele>
        <time>2021-03-06T15:44:19.000Z</time>
      </trkpt>
      <trkpt lat="45.63172" lon="4.09078">
        <ele>363</ele>
        <time>2021-03-06T15:44:26.000Z</time>
      </trkpt>
      <trkpt lat="45.63157" lon="4.09072">
        <ele>363.20001220703</ele>
        <time>2021-03-06T15:44:28.000Z</time>
      </trkpt>
      <trkpt lat="45.63149" lon="4.09069">
        <ele>363.39999389648</ele>
        <time>2021-03-06T15:44:29.000Z</time>
      </trkpt>
      <trkpt lat="45.63097" lon="4.09047">
        <ele>364</ele>
        <time>2021-03-06T15:44:36.000Z</time>
      </trkpt>
      <trkpt lat="45.63089" lon="4.09044">
        <ele>364</ele>
        <time>2021-03-06T15:44:37.000Z</time>
      </trkpt>
      <trkpt lat="45.63034" lon="4.0902">
        <ele>363.79998779297</ele>
        <time>2021-03-06T15:44:44.000Z</time>
      </trkpt>
      <trkpt lat="45.63011" lon="4.0901">
        <ele>363.79998779297</ele>
        <time>2021-03-06T15:44:47.000Z</time>
      </trkpt>
      <trkpt lat="45.62958" lon="4.08987">
        <ele>364</ele>
        <time>2021-03-06T15:44:54.000Z</time>
      </trkpt>
      <trkpt lat="45.62942" lon="4.0898">
        <ele>364</ele>
        <time>2021-03-06T15:44:56.000Z</time>
      </trkpt>
      <trkpt lat="45.62889" lon="4.08958">
        <ele>364.20001220703</ele>
        <time>2021-03-06T15:45:03.000Z</time>
      </trkpt>
      <trkpt lat="45.62874" lon="4.08952">
        <ele>364.20001220703</ele>
        <time>2021-03-06T15:45:05.000Z</time>
      </trkpt>
      <trkpt lat="45.62829" lon="4.08929">
        <ele>364.60000610352</ele>
        <time>2021-03-06T15:45:11.000Z</time>
      </trkpt>
      <trkpt lat="45.62822" lon="4.08925">
        <ele>364.60000610352</ele>
        <time>2021-03-06T15:45:12.000Z</time>
      </trkpt>
      <trkpt lat="45.62789" lon="4.08895">
        <ele>364.79998779297</ele>
        <time>2021-03-06T15:45:17.000Z</time>
      </trkpt>
      <trkpt lat="45.6275" lon="4.08843">
        <ele>365.39999389648</ele>
        <time>2021-03-06T15:45:24.000Z</time>
      </trkpt>
      <trkpt lat="45.62745" lon="4.08835">
        <ele>365.60000610352</ele>
        <time>2021-03-06T15:45:25.000Z</time>
      </trkpt>
      <trkpt lat="45.62716" lon="4.08782">
        <ele>366</ele>
        <time>2021-03-06T15:45:31.000Z</time>
      </trkpt>
      <trkpt lat="45.62694" lon="4.08732">
        <ele>366.20001220703</ele>
        <time>2021-03-06T15:45:37.000Z</time>
      </trkpt>
      <trkpt lat="45.62682" lon="4.08704">
        <ele>366.60000610352</ele>
        <time>2021-03-06T15:45:40.000Z</time>
      </trkpt>
      <trkpt lat="45.62674" lon="4.08685">
        <ele>367.20001220703</ele>
        <time>2021-03-06T15:45:42.000Z</time>
      </trkpt>
      <trkpt lat="45.62662" lon="4.08656">
        <ele>367.60000610352</ele>
        <time>2021-03-06T15:45:45.000Z</time>
      </trkpt>
      <trkpt lat="45.62648" lon="4.08617">
        <ele>368.20001220703</ele>
        <time>2021-03-06T15:45:49.000Z</time>
      </trkpt>
      <trkpt lat="45.62624" lon="4.08549">
        <ele>368.79998779297</ele>
        <time>2021-03-06T15:45:56.000Z</time>
      </trkpt>
      <trkpt lat="45.62618" lon="4.0853">
        <ele>369</ele>
        <time>2021-03-06T15:45:58.000Z</time>
      </trkpt>
      <trkpt lat="45.62591" lon="4.08452">
        <ele>369.39999389648</ele>
        <time>2021-03-06T15:46:06.000Z</time>
      </trkpt>
      <trkpt lat="45.62581" lon="4.08423">
        <ele>369.39999389648</ele>
        <time>2021-03-06T15:46:09.000Z</time>
      </trkpt>
      <trkpt lat="45.62553" lon="4.0835">
        <ele>369.39999389648</ele>
        <time>2021-03-06T15:46:16.000Z</time>
      </trkpt>
      <trkpt lat="45.62541" lon="4.08318">
        <ele>369</ele>
        <time>2021-03-06T15:46:19.000Z</time>
      </trkpt>
      <trkpt lat="45.62513" lon="4.08245">
        <ele>369</ele>
        <time>2021-03-06T15:46:26.000Z</time>
      </trkpt>
      <trkpt lat="45.62498" lon="4.08205">
        <ele>369.39999389648</ele>
        <time>2021-03-06T15:46:30.000Z</time>
      </trkpt>
      <trkpt lat="45.62489" lon="4.08187">
        <ele>369.79998779297</ele>
        <time>2021-03-06T15:46:32.000Z</time>
      </trkpt>
      <trkpt lat="45.62472" lon="4.08162">
        <ele>370</ele>
        <time>2021-03-06T15:46:35.000Z</time>
      </trkpt>
      <trkpt lat="45.62434" lon="4.08103">
        <ele>369.79998779297</ele>
        <time>2021-03-06T15:46:42.000Z</time>
      </trkpt>
      <trkpt lat="45.6242" lon="4.08061">
        <ele>369.79998779297</ele>
        <time>2021-03-06T15:46:46.000Z</time>
      </trkpt>
      <trkpt lat="45.62412" lon="4.07989">
        <ele>369.79998779297</ele>
        <time>2021-03-06T15:46:52.000Z</time>
      </trkpt>
      <trkpt lat="45.62401" lon="4.07943">
        <ele>369.79998779297</ele>
        <time>2021-03-06T15:46:56.000Z</time>
      </trkpt>
      <trkpt lat="45.62378" lon="4.07894">
        <ele>369.79998779297</ele>
        <time>2021-03-06T15:47:01.000Z</time>
      </trkpt>
      <trkpt lat="45.62367" lon="4.07877">
        <ele>369.79998779297</ele>
        <time>2021-03-06T15:47:03.000Z</time>
      </trkpt>
      <trkpt lat="45.62348" lon="4.07859">
        <ele>370</ele>
        <time>2021-03-06T15:47:06.000Z</time>
      </trkpt>
      <trkpt lat="45.62326" lon="4.07844">
        <ele>370</ele>
        <time>2021-03-06T15:47:09.000Z</time>
      </trkpt>
      <trkpt lat="45.6231" lon="4.07837">
        <ele>370</ele>
        <time>2021-03-06T15:47:11.000Z</time>
      </trkpt>
      <trkpt lat="45.6227" lon="4.07828">
        <ele>370</ele>
        <time>2021-03-06T15:47:16.000Z</time>
      </trkpt>
      <trkpt lat="45.62212" lon="4.07817">
        <ele>370.39999389648</ele>
        <time>2021-03-06T15:47:23.000Z</time>
      </trkpt>
      <trkpt lat="45.62153" lon="4.07806">
        <ele>370.60000610352</ele>
        <time>2021-03-06T15:47:30.000Z</time>
      </trkpt>
      <trkpt lat="45.62144" lon="4.07804">
        <ele>370.60000610352</ele>
        <time>2021-03-06T15:47:31.000Z</time>
      </trkpt>
      <trkpt lat="45.62128" lon="4.07801">
        <ele>370.79998779297</ele>
        <time>2021-03-06T15:47:33.000Z</time>
      </trkpt>
      <trkpt lat="45.62081" lon="4.07791">
        <ele>371.60000610352</ele>
        <time>2021-03-06T15:47:39.000Z</time>
      </trkpt>
      <trkpt lat="45.62051" lon="4.07786">
        <ele>371.79998779297</ele>
        <time>2021-03-06T15:47:43.000Z</time>
      </trkpt>
      <trkpt lat="45.6202" lon="4.07782">
        <ele>372.20001220703</ele>
        <time>2021-03-06T15:47:47.000Z</time>
      </trkpt>
      <trkpt lat="45.61963" lon="4.07781">
        <ele>372.20001220703</ele>
        <time>2021-03-06T15:47:54.000Z</time>
      </trkpt>
      <trkpt lat="45.61955" lon="4.07781">
        <ele>372</ele>
        <time>2021-03-06T15:47:55.000Z</time>
      </trkpt>
      <trkpt lat="45.61895" lon="4.07782">
        <ele>371.60000610352</ele>
        <time>2021-03-06T15:48:02.000Z</time>
      </trkpt>
      <trkpt lat="45.61887" lon="4.07782">
        <ele>371.60000610352</ele>
        <time>2021-03-06T15:48:03.000Z</time>
      </trkpt>
      <trkpt lat="45.6183" lon="4.07788">
        <ele>372</ele>
        <time>2021-03-06T15:48:10.000Z</time>
      </trkpt>
      <trkpt lat="45.61807" lon="4.0779">
        <ele>372.60000610352</ele>
        <time>2021-03-06T15:48:13.000Z</time>
      </trkpt>
      <trkpt lat="45.61763" lon="4.07794">
        <ele>373</ele>
        <time>2021-03-06T15:48:19.000Z</time>
      </trkpt>
      <trkpt lat="45.61741" lon="4.07797">
        <ele>373.20001220703</ele>
        <time>2021-03-06T15:48:22.000Z</time>
      </trkpt>
      <trkpt lat="45.6168" lon="4.0781">
        <ele>373.60000610352</ele>
        <time>2021-03-06T15:48:30.000Z</time>
      </trkpt>
      <trkpt lat="45.61672" lon="4.07812">
        <ele>373.39999389648</ele>
        <time>2021-03-06T15:48:31.000Z</time>
      </trkpt>
      <trkpt lat="45.61618" lon="4.07826">
        <ele>373.60000610352</ele>
        <time>2021-03-06T15:48:38.000Z</time>
      </trkpt>
      <trkpt lat="45.61597" lon="4.07831">
        <ele>373.79998779297</ele>
        <time>2021-03-06T15:48:41.000Z</time>
      </trkpt>
      <trkpt lat="45.61582" lon="4.07832">
        <ele>373.60000610352</ele>
        <time>2021-03-06T15:48:43.000Z</time>
      </trkpt>
      <trkpt lat="45.61567" lon="4.07828">
        <ele>373.79998779297</ele>
        <time>2021-03-06T15:48:45.000Z</time>
      </trkpt>
      <trkpt lat="45.61546" lon="4.07816">
        <ele>374</ele>
        <time>2021-03-06T15:48:48.000Z</time>
      </trkpt>
      <trkpt lat="45.61526" lon="4.078">
        <ele>374.20001220703</ele>
        <time>2021-03-06T15:48:51.000Z</time>
      </trkpt>
      <trkpt lat="45.61482" lon="4.07756">
        <ele>374.60000610352</ele>
        <time>2021-03-06T15:48:58.000Z</time>
      </trkpt>
      <trkpt lat="45.61463" lon="4.07739">
        <ele>374.79998779297</ele>
        <time>2021-03-06T15:49:01.000Z</time>
      </trkpt>
      <trkpt lat="45.61448" lon="4.07732">
        <ele>375</ele>
        <time>2021-03-06T15:49:03.000Z</time>
      </trkpt>
      <trkpt lat="45.61441" lon="4.0773">
        <ele>375</ele>
        <time>2021-03-06T15:49:04.000Z</time>
      </trkpt>
      <trkpt lat="45.6141" lon="4.07725">
        <ele>375.39999389648</ele>
        <time>2021-03-06T15:49:08.000Z</time>
      </trkpt>
      <trkpt lat="45.61373" lon="4.07713">
        <ele>375.60000610352</ele>
        <time>2021-03-06T15:49:13.000Z</time>
      </trkpt>
      <trkpt lat="45.6136" lon="4.07702">
        <ele>375.79998779297</ele>
        <time>2021-03-06T15:49:15.000Z</time>
      </trkpt>
      <trkpt lat="45.61355" lon="4.07695">
        <ele>375.79998779297</ele>
        <time>2021-03-06T15:49:16.000Z</time>
      </trkpt>
      <trkpt lat="45.61351" lon="4.07687">
        <ele>375.79998779297</ele>
        <time>2021-03-06T15:49:17.000Z</time>
      </trkpt>
      <trkpt lat="45.61345" lon="4.07668">
        <ele>376.20001220703</ele>
        <time>2021-03-06T15:49:19.000Z</time>
      </trkpt>
      <trkpt lat="45.61342" lon="4.07659">
        <ele>376.39999389648</ele>
        <time>2021-03-06T15:49:20.000Z</time>
      </trkpt>
      <trkpt lat="45.61329" lon="4.07613">
        <ele>376.60000610352</ele>
        <time>2021-03-06T15:49:25.000Z</time>
      </trkpt>
      <trkpt lat="45.61326" lon="4.07605">
        <ele>376.60000610352</ele>
        <time>2021-03-06T15:49:26.000Z</time>
      </trkpt>
      <trkpt lat="45.61321" lon="4.07598">
        <ele>376.60000610352</ele>
        <time>2021-03-06T15:49:27.000Z</time>
      </trkpt>
      <trkpt lat="45.61301" lon="4.07572">
        <ele>377.39999389648</ele>
        <time>2021-03-06T15:49:31.000Z</time>
      </trkpt>
      <trkpt lat="45.61288" lon="4.07555">
        <ele>378</ele>
        <time>2021-03-06T15:49:34.000Z</time>
      </trkpt>
      <trkpt lat="45.61285" lon="4.07549">
        <ele>378</ele>
        <time>2021-03-06T15:49:35.000Z</time>
      </trkpt>
      <trkpt lat="45.61282" lon="4.07542">
        <ele>378</ele>
        <time>2021-03-06T15:49:36.000Z</time>
      </trkpt>
      <trkpt lat="45.61276" lon="4.07526">
        <ele>378.20001220703</ele>
        <time>2021-03-06T15:49:38.000Z</time>
      </trkpt>
      <trkpt lat="45.61272" lon="4.07518">
        <ele>378.60000610352</ele>
        <time>2021-03-06T15:49:39.000Z</time>
      </trkpt>
      <trkpt lat="45.61265" lon="4.07513">
        <ele>378.79998779297</ele>
        <time>2021-03-06T15:49:40.000Z</time>
      </trkpt>
      <trkpt lat="45.61258" lon="4.07512">
        <ele>378.79998779297</ele>
        <time>2021-03-06T15:49:41.000Z</time>
      </trkpt>
      <trkpt lat="45.61252" lon="4.07514">
        <ele>378.79998779297</ele>
        <time>2021-03-06T15:49:42.000Z</time>
      </trkpt>
      <trkpt lat="45.61246" lon="4.0752">
        <ele>378.79998779297</ele>
        <time>2021-03-06T15:49:43.000Z</time>
      </trkpt>
      <trkpt lat="45.61243" lon="4.07529">
        <ele>378.79998779297</ele>
        <time>2021-03-06T15:49:44.000Z</time>
      </trkpt>
      <trkpt lat="45.61241" lon="4.0754">
        <ele>378.60000610352</ele>
        <time>2021-03-06T15:49:45.000Z</time>
      </trkpt>
      <trkpt lat="45.61241" lon="4.07598">
        <ele>378</ele>
        <time>2021-03-06T15:49:50.000Z</time>
      </trkpt>
      <trkpt lat="45.61242" lon="4.0761">
        <ele>378</ele>
        <time>2021-03-06T15:49:51.000Z</time>
      </trkpt>
      <trkpt lat="45.61245" lon="4.07662">
        <ele>377.60000610352</ele>
        <time>2021-03-06T15:49:55.000Z</time>
      </trkpt>
      <trkpt lat="45.61254" lon="4.07744">
        <ele>376.39999389648</ele>
        <time>2021-03-06T15:50:01.000Z</time>
      </trkpt>
      <trkpt lat="45.61255" lon="4.07757">
        <ele>376.20001220703</ele>
        <time>2021-03-06T15:50:02.000Z</time>
      </trkpt>
      <trkpt lat="45.61257" lon="4.07841">
        <ele>375.39999389648</ele>
        <time>2021-03-06T15:50:08.000Z</time>
      </trkpt>
      <trkpt lat="45.61257" lon="4.07856">
        <ele>375.20001220703</ele>
        <time>2021-03-06T15:50:09.000Z</time>
      </trkpt>
      <trkpt lat="45.61248" lon="4.07925">
        <ele>374.60000610352</ele>
        <time>2021-03-06T15:50:14.000Z</time>
      </trkpt>
      <trkpt lat="45.61234" lon="4.08">
        <ele>375.20001220703</ele>
        <time>2021-03-06T15:50:20.000Z</time>
      </trkpt>
      <trkpt lat="45.61232" lon="4.08012">
        <ele>375.39999389648</ele>
        <time>2021-03-06T15:50:21.000Z</time>
      </trkpt>
      <trkpt lat="45.61226" lon="4.08068">
        <ele>376.39999389648</ele>
        <time>2021-03-06T15:50:26.000Z</time>
      </trkpt>
      <trkpt lat="45.61225" lon="4.08091">
        <ele>376.39999389648</ele>
        <time>2021-03-06T15:50:28.000Z</time>
      </trkpt>
      <trkpt lat="45.61226" lon="4.08135">
        <ele>376.39999389648</ele>
        <time>2021-03-06T15:50:32.000Z</time>
      </trkpt>
      <trkpt lat="45.61229" lon="4.08158">
        <ele>376.39999389648</ele>
        <time>2021-03-06T15:50:34.000Z</time>
      </trkpt>
      <trkpt lat="45.6124" lon="4.08218">
        <ele>376.39999389648</ele>
        <time>2021-03-06T15:50:39.000Z</time>
      </trkpt>
      <trkpt lat="45.6125" lon="4.08255">
        <ele>375.20001220703</ele>
        <time>2021-03-06T15:50:42.000Z</time>
      </trkpt>
      <trkpt lat="45.61261" lon="4.08307">
        <ele>374.79998779297</ele>
        <time>2021-03-06T15:50:46.000Z</time>
      </trkpt>
      <trkpt lat="45.61265" lon="4.0837">
        <ele>374.60000610352</ele>
        <time>2021-03-06T15:50:51.000Z</time>
      </trkpt>
      <trkpt lat="45.61261" lon="4.08432">
        <ele>374.60000610352</ele>
        <time>2021-03-06T15:50:56.000Z</time>
      </trkpt>
      <trkpt lat="45.61248" lon="4.08488">
        <ele>375</ele>
        <time>2021-03-06T15:51:01.000Z</time>
      </trkpt>
      <trkpt lat="45.6122" lon="4.0856">
        <ele>375.39999389648</ele>
        <time>2021-03-06T15:51:08.000Z</time>
      </trkpt>
      <trkpt lat="45.61212" lon="4.08582">
        <ele>375.79998779297</ele>
        <time>2021-03-06T15:51:10.000Z</time>
      </trkpt>
      <trkpt lat="45.61201" lon="4.08613">
        <ele>376.20001220703</ele>
        <time>2021-03-06T15:51:13.000Z</time>
      </trkpt>
      <trkpt lat="45.61196" lon="4.08623">
        <ele>376.39999389648</ele>
        <time>2021-03-06T15:51:14.000Z</time>
      </trkpt>
      <trkpt lat="45.61167" lon="4.08693">
        <ele>377</ele>
        <time>2021-03-06T15:51:21.000Z</time>
      </trkpt>
      <trkpt lat="45.61152" lon="4.08721">
        <ele>377.39999389648</ele>
        <time>2021-03-06T15:51:24.000Z</time>
      </trkpt>
      <trkpt lat="45.61131" lon="4.08757">
        <ele>377.60000610352</ele>
        <time>2021-03-06T15:51:28.000Z</time>
      </trkpt>
      <trkpt lat="45.61105" lon="4.08802">
        <ele>378.39999389648</ele>
        <time>2021-03-06T15:51:33.000Z</time>
      </trkpt>
      <trkpt lat="45.61082" lon="4.0885">
        <ele>378.39999389648</ele>
        <time>2021-03-06T15:51:38.000Z</time>
      </trkpt>
      <trkpt lat="45.61059" lon="4.08927">
        <ele>378.60000610352</ele>
        <time>2021-03-06T15:51:45.000Z</time>
      </trkpt>
      <trkpt lat="45.61047" lon="4.08999">
        <ele>378.60000610352</ele>
        <time>2021-03-06T15:51:51.000Z</time>
      </trkpt>
      <trkpt lat="45.61042" lon="4.09088">
        <ele>378.20001220703</ele>
        <time>2021-03-06T15:51:58.000Z</time>
      </trkpt>
      <trkpt lat="45.61042" lon="4.09101">
        <ele>378</ele>
        <time>2021-03-06T15:51:59.000Z</time>
      </trkpt>
      <trkpt lat="45.61047" lon="4.09187">
        <ele>378</ele>
        <time>2021-03-06T15:52:06.000Z</time>
      </trkpt>
      <trkpt lat="45.61057" lon="4.09272">
        <ele>378.39999389648</ele>
        <time>2021-03-06T15:52:13.000Z</time>
      </trkpt>
      <trkpt lat="45.61061" lon="4.09308">
        <ele>378.60000610352</ele>
        <time>2021-03-06T15:52:16.000Z</time>
      </trkpt>
      <trkpt lat="45.61066" lon="4.09387">
        <ele>379.39999389648</ele>
        <time>2021-03-06T15:52:23.000Z</time>
      </trkpt>
      <trkpt lat="45.61066" lon="4.09409">
        <ele>379.79998779297</ele>
        <time>2021-03-06T15:52:25.000Z</time>
      </trkpt>
      <trkpt lat="45.61061" lon="4.09475">
        <ele>380.20001220703</ele>
        <time>2021-03-06T15:52:31.000Z</time>
      </trkpt>
      <trkpt lat="45.61047" lon="4.09529">
        <ele>380.39999389648</ele>
        <time>2021-03-06T15:52:36.000Z</time>
      </trkpt>
      <trkpt lat="45.61035" lon="4.09558">
        <ele>380.20001220703</ele>
        <time>2021-03-06T15:52:39.000Z</time>
      </trkpt>
      <trkpt lat="45.6103" lon="4.09564">
        <ele>380.20001220703</ele>
        <time>2021-03-06T15:52:40.000Z</time>
      </trkpt>
      <trkpt lat="45.61025" lon="4.09568">
        <ele>380</ele>
        <time>2021-03-06T15:52:41.000Z</time>
      </trkpt>
      <trkpt lat="45.61015" lon="4.09574">
        <ele>380</ele>
        <time>2021-03-06T15:52:43.000Z</time>
      </trkpt>
      <trkpt lat="45.6101" lon="4.09576">
        <ele>379.79998779297</ele>
        <time>2021-03-06T15:52:44.000Z</time>
      </trkpt>
      <trkpt lat="45.61004" lon="4.09578">
        <ele>379.79998779297</ele>
        <time>2021-03-06T15:52:45.000Z</time>
      </trkpt>
      <trkpt lat="45.60993" lon="4.09588">
        <ele>379.60000610352</ele>
        <time>2021-03-06T15:52:47.000Z</time>
      </trkpt>
      <trkpt lat="45.60986" lon="4.09604">
        <ele>379.60000610352</ele>
        <time>2021-03-06T15:52:49.000Z</time>
      </trkpt>
      <trkpt lat="45.60982" lon="4.09613">
        <ele>379.60000610352</ele>
        <time>2021-03-06T15:52:50.000Z</time>
      </trkpt>
      <trkpt lat="45.60977" lon="4.09621">
        <ele>379.60000610352</ele>
        <time>2021-03-06T15:52:51.000Z</time>
      </trkpt>
      <trkpt lat="45.60959" lon="4.09641">
        <ele>379.60000610352</ele>
        <time>2021-03-06T15:52:54.000Z</time>
      </trkpt>
      <trkpt lat="45.60918" lon="4.09677">
        <ele>379.39999389648</ele>
        <time>2021-03-06T15:53:00.000Z</time>
      </trkpt>
      <trkpt lat="45.60872" lon="4.09708">
        <ele>379.60000610352</ele>
        <time>2021-03-06T15:53:06.000Z</time>
      </trkpt>
      <trkpt lat="45.60815" lon="4.09738">
        <ele>380</ele>
        <time>2021-03-06T15:53:13.000Z</time>
      </trkpt>
      <trkpt lat="45.60784" lon="4.09754">
        <ele>380.20001220703</ele>
        <time>2021-03-06T15:53:17.000Z</time>
      </trkpt>
      <trkpt lat="45.60769" lon="4.09762">
        <ele>380.39999389648</ele>
        <time>2021-03-06T15:53:19.000Z</time>
      </trkpt>
      <trkpt lat="45.60717" lon="4.09788">
        <ele>380.79998779297</ele>
        <time>2021-03-06T15:53:26.000Z</time>
      </trkpt>
      <trkpt lat="45.6071" lon="4.09792">
        <ele>381</ele>
        <time>2021-03-06T15:53:27.000Z</time>
      </trkpt>
      <trkpt lat="45.60661" lon="4.09814">
        <ele>381</ele>
        <time>2021-03-06T15:53:34.000Z</time>
      </trkpt>
      <trkpt lat="45.60642" lon="4.09811">
        <ele>381.39999389648</ele>
        <time>2021-03-06T15:53:37.000Z</time>
      </trkpt>
      <trkpt lat="45.60633" lon="4.09811">
        <ele>381.60000610352</ele>
        <time>2021-03-06T15:53:38.000Z</time>
      </trkpt>
      <trkpt lat="45.60627" lon="4.09814">
        <ele>381.60000610352</ele>
        <time>2021-03-06T15:53:39.000Z</time>
      </trkpt>
      <trkpt lat="45.60614" lon="4.09825">
        <ele>381.79998779297</ele>
        <time>2021-03-06T15:53:41.000Z</time>
      </trkpt>
      <trkpt lat="45.60607" lon="4.09831">
        <ele>381.79998779297</ele>
        <time>2021-03-06T15:53:42.000Z</time>
      </trkpt>
      <trkpt lat="45.60591" lon="4.09837">
        <ele>381.79998779297</ele>
        <time>2021-03-06T15:53:44.000Z</time>
      </trkpt>
      <trkpt lat="45.60548" lon="4.09836">
        <ele>381.79998779297</ele>
        <time>2021-03-06T15:53:49.000Z</time>
      </trkpt>
      <trkpt lat="45.60489" lon="4.0982">
        <ele>382</ele>
        <time>2021-03-06T15:53:56.000Z</time>
      </trkpt>
      <trkpt lat="45.60435" lon="4.09788">
        <ele>382.39999389648</ele>
        <time>2021-03-06T15:54:03.000Z</time>
      </trkpt>
      <trkpt lat="45.60415" lon="4.09769">
        <ele>382.60000610352</ele>
        <time>2021-03-06T15:54:06.000Z</time>
      </trkpt>
      <trkpt lat="45.60396" lon="4.09748">
        <ele>383</ele>
        <time>2021-03-06T15:54:09.000Z</time>
      </trkpt>
      <trkpt lat="45.60355" lon="4.09693">
        <ele>383.39999389648</ele>
        <time>2021-03-06T15:54:16.000Z</time>
      </trkpt>
      <trkpt lat="45.60343" lon="4.09677">
        <ele>383.60000610352</ele>
        <time>2021-03-06T15:54:18.000Z</time>
      </trkpt>
      <trkpt lat="45.60304" lon="4.09622">
        <ele>384.20001220703</ele>
        <time>2021-03-06T15:54:25.000Z</time>
      </trkpt>
      <trkpt lat="45.60276" lon="4.09584">
        <ele>384.60000610352</ele>
        <time>2021-03-06T15:54:30.000Z</time>
      </trkpt>
      <trkpt lat="45.60261" lon="4.09563">
        <ele>384.79998779297</ele>
        <time>2021-03-06T15:54:33.000Z</time>
      </trkpt>
      <trkpt lat="45.60229" lon="4.09518">
        <ele>384.79998779297</ele>
        <time>2021-03-06T15:54:39.000Z</time>
      </trkpt>
      <trkpt lat="45.60222" lon="4.09508">
        <ele>384.79998779297</ele>
        <time>2021-03-06T15:54:40.000Z</time>
      </trkpt>
      <trkpt lat="45.60202" lon="4.0947">
        <ele>385.20001220703</ele>
        <time>2021-03-06T15:54:44.000Z</time>
      </trkpt>
      <trkpt lat="45.60175" lon="4.09403">
        <ele>385.60000610352</ele>
        <time>2021-03-06T15:54:51.000Z</time>
      </trkpt>
      <trkpt lat="45.60171" lon="4.09394">
        <ele>385.79998779297</ele>
        <time>2021-03-06T15:54:52.000Z</time>
      </trkpt>
      <trkpt lat="45.60166" lon="4.09385">
        <ele>385.79998779297</ele>
        <time>2021-03-06T15:54:53.000Z</time>
      </trkpt>
      <trkpt lat="45.60145" lon="4.09347">
        <ele>386</ele>
        <time>2021-03-06T15:54:58.000Z</time>
      </trkpt>
      <trkpt lat="45.6013" lon="4.09321">
        <ele>386</ele>
        <time>2021-03-06T15:55:01.000Z</time>
      </trkpt>
      <trkpt lat="45.60128" lon="4.09311">
        <ele>385.79998779297</ele>
        <time>2021-03-06T15:55:02.000Z</time>
      </trkpt>
      <trkpt lat="45.60121" lon="4.09284">
        <ele>385.79998779297</ele>
        <time>2021-03-06T15:55:05.000Z</time>
      </trkpt>
      <trkpt lat="45.60111" lon="4.0927">
        <ele>386</ele>
        <time>2021-03-06T15:55:07.000Z</time>
      </trkpt>
      <trkpt lat="45.60097" lon="4.09272">
        <ele>386</ele>
        <time>2021-03-06T15:55:09.000Z</time>
      </trkpt>
      <trkpt lat="45.60088" lon="4.09288">
        <ele>386</ele>
        <time>2021-03-06T15:55:11.000Z</time>
      </trkpt>
      <trkpt lat="45.60088" lon="4.0931">
        <ele>385.79998779297</ele>
        <time>2021-03-06T15:55:13.000Z</time>
      </trkpt>
      <trkpt lat="45.60093" lon="4.09333">
        <ele>385.60000610352</ele>
        <time>2021-03-06T15:55:15.000Z</time>
      </trkpt>
      <trkpt lat="45.60093" lon="4.09356">
        <ele>385.60000610352</ele>
        <time>2021-03-06T15:55:17.000Z</time>
      </trkpt>
      <trkpt lat="45.60077" lon="4.09413">
        <ele>385</ele>
        <time>2021-03-06T15:55:22.000Z</time>
      </trkpt>
      <trkpt lat="45.60062" lon="4.09458">
        <ele>384.79998779297</ele>
        <time>2021-03-06T15:55:26.000Z</time>
      </trkpt>
      <trkpt lat="45.60045" lon="4.09517">
        <ele>384.39999389648</ele>
        <time>2021-03-06T15:55:31.000Z</time>
      </trkpt>
      <trkpt lat="45.60033" lon="4.09579">
        <ele>384</ele>
        <time>2021-03-06T15:55:36.000Z</time>
      </trkpt>
      <trkpt lat="45.60028" lon="4.09631">
        <ele>383.60000610352</ele>
        <time>2021-03-06T15:55:40.000Z</time>
      </trkpt>
      <trkpt lat="45.60022" lon="4.09677">
        <ele>383</ele>
        <time>2021-03-06T15:55:44.000Z</time>
      </trkpt>
      <trkpt lat="45.60019" lon="4.09703">
        <ele>382.60000610352</ele>
        <time>2021-03-06T15:55:46.000Z</time>
      </trkpt>
      <trkpt lat="45.60007" lon="4.09792">
        <ele>381.79998779297</ele>
        <time>2021-03-06T15:55:53.000Z</time>
      </trkpt>
      <trkpt lat="45.60005" lon="4.09805">
        <ele>381.60000610352</ele>
        <time>2021-03-06T15:55:54.000Z</time>
      </trkpt>
      <trkpt lat="45.59995" lon="4.09872">
        <ele>380.20001220703</ele>
        <time>2021-03-06T15:55:59.000Z</time>
      </trkpt>
      <trkpt lat="45.59992" lon="4.09905">
        <ele>379.39999389648</ele>
        <time>2021-03-06T15:56:01.000Z</time>
      </trkpt>
      <trkpt lat="45.5999" lon="4.09919">
        <ele>379</ele>
        <time>2021-03-06T15:56:02.000Z</time>
      </trkpt>
      <trkpt lat="45.59981" lon="4.09993">
        <ele>377.79998779297</ele>
        <time>2021-03-06T15:56:07.000Z</time>
      </trkpt>
      <trkpt lat="45.59977" lon="4.10022">
        <ele>377.20001220703</ele>
        <time>2021-03-06T15:56:09.000Z</time>
      </trkpt>
      <trkpt lat="45.59972" lon="4.10051">
        <ele>376.60000610352</ele>
        <time>2021-03-06T15:56:11.000Z</time>
      </trkpt>
      <trkpt lat="45.59959" lon="4.10104">
        <ele>376</ele>
        <time>2021-03-06T15:56:15.000Z</time>
      </trkpt>
      <trkpt lat="45.59938" lon="4.10176">
        <ele>376</ele>
        <time>2021-03-06T15:56:21.000Z</time>
      </trkpt>
      <trkpt lat="45.59934" lon="4.10187">
        <ele>376</ele>
        <time>2021-03-06T15:56:22.000Z</time>
      </trkpt>
      <trkpt lat="45.59912" lon="4.10266">
        <ele>375.79998779297</ele>
        <time>2021-03-06T15:56:29.000Z</time>
      </trkpt>
      <trkpt lat="45.59906" lon="4.1029">
        <ele>376</ele>
        <time>2021-03-06T15:56:31.000Z</time>
      </trkpt>
      <trkpt lat="45.59899" lon="4.10348">
        <ele>376.20001220703</ele>
        <time>2021-03-06T15:56:36.000Z</time>
      </trkpt>
      <trkpt lat="45.599" lon="4.10423">
        <ele>376</ele>
        <time>2021-03-06T15:56:42.000Z</time>
      </trkpt>
      <trkpt lat="45.59892" lon="4.10485">
        <ele>375.79998779297</ele>
        <time>2021-03-06T15:56:47.000Z</time>
      </trkpt>
      <trkpt lat="45.59888" lon="4.10496">
        <ele>375.79998779297</ele>
        <time>2021-03-06T15:56:48.000Z</time>
      </trkpt>
      <trkpt lat="45.59879" lon="4.10518">
        <ele>375.79998779297</ele>
        <time>2021-03-06T15:56:50.000Z</time>
      </trkpt>
      <trkpt lat="45.59873" lon="4.10527">
        <ele>375.79998779297</ele>
        <time>2021-03-06T15:56:51.000Z</time>
      </trkpt>
      <trkpt lat="45.59867" lon="4.10536">
        <ele>375.79998779297</ele>
        <time>2021-03-06T15:56:52.000Z</time>
      </trkpt>
      <trkpt lat="45.59853" lon="4.10549">
        <ele>375.79998779297</ele>
        <time>2021-03-06T15:56:54.000Z</time>
      </trkpt>
      <trkpt lat="45.59843" lon="4.10555">
        <ele>375.60000610352</ele>
        <time>2021-03-06T15:56:55.000Z</time>
      </trkpt>
      <trkpt lat="45.59835" lon="4.1056">
        <ele>375.60000610352</ele>
        <time>2021-03-06T15:56:56.000Z</time>
      </trkpt>
      <trkpt lat="45.59798" lon="4.10587">
        <ele>375.60000610352</ele>
        <time>2021-03-06T15:57:01.000Z</time>
      </trkpt>
      <trkpt lat="45.59751" lon="4.10636">
        <ele>375.79998779297</ele>
        <time>2021-03-06T15:57:08.000Z</time>
      </trkpt>
      <trkpt lat="45.59737" lon="4.10649">
        <ele>375.79998779297</ele>
        <time>2021-03-06T15:57:10.000Z</time>
      </trkpt>
      <trkpt lat="45.597" lon="4.10676">
        <ele>375.79998779297</ele>
        <time>2021-03-06T15:57:15.000Z</time>
      </trkpt>
      <trkpt lat="45.59685" lon="4.10684">
        <ele>375.79998779297</ele>
        <time>2021-03-06T15:57:17.000Z</time>
      </trkpt>
      <trkpt lat="45.5963" lon="4.10706">
        <ele>376.39999389648</ele>
        <time>2021-03-06T15:57:24.000Z</time>
      </trkpt>
      <trkpt lat="45.59583" lon="4.10724">
        <ele>376.60000610352</ele>
        <time>2021-03-06T15:57:30.000Z</time>
      </trkpt>
      <trkpt lat="45.59568" lon="4.10731">
        <ele>376.60000610352</ele>
        <time>2021-03-06T15:57:32.000Z</time>
      </trkpt>
      <trkpt lat="45.59521" lon="4.10762">
        <ele>377</ele>
        <time>2021-03-06T15:57:39.000Z</time>
      </trkpt>
      <trkpt lat="45.59483" lon="4.10799">
        <ele>377.60000610352</ele>
        <time>2021-03-06T15:57:45.000Z</time>
      </trkpt>
      <trkpt lat="45.59475" lon="4.10808">
        <ele>377.79998779297</ele>
        <time>2021-03-06T15:57:46.000Z</time>
      </trkpt>
      <trkpt lat="45.5943" lon="4.10864">
        <ele>378.39999389648</ele>
        <time>2021-03-06T15:57:54.000Z</time>
      </trkpt>
      <trkpt lat="45.59402" lon="4.10901">
        <ele>378.79998779297</ele>
        <time>2021-03-06T15:57:59.000Z</time>
      </trkpt>
      <trkpt lat="45.59389" lon="4.10918">
        <ele>379.39999389648</ele>
        <time>2021-03-06T15:58:01.000Z</time>
      </trkpt>
      <trkpt lat="45.59374" lon="4.10942">
        <ele>380</ele>
        <time>2021-03-06T15:58:04.000Z</time>
      </trkpt>
      <trkpt lat="45.59345" lon="4.10992">
        <ele>380.60000610352</ele>
        <time>2021-03-06T15:58:10.000Z</time>
      </trkpt>
      <trkpt lat="45.59319" lon="4.11047">
        <ele>381.20001220703</ele>
        <time>2021-03-06T15:58:16.000Z</time>
      </trkpt>
      <trkpt lat="45.59307" lon="4.111">
        <ele>381.60000610352</ele>
        <time>2021-03-06T15:58:21.000Z</time>
      </trkpt>
      <trkpt lat="45.59304" lon="4.11178">
        <ele>381.79998779297</ele>
        <time>2021-03-06T15:58:28.000Z</time>
      </trkpt>
      <trkpt lat="45.59302" lon="4.11212">
        <ele>381.79998779297</ele>
        <time>2021-03-06T15:58:31.000Z</time>
      </trkpt>
      <trkpt lat="45.59297" lon="4.11234">
        <ele>381.79998779297</ele>
        <time>2021-03-06T15:58:33.000Z</time>
      </trkpt>
      <trkpt lat="45.59289" lon="4.11266">
        <ele>382.20001220703</ele>
        <time>2021-03-06T15:58:36.000Z</time>
      </trkpt>
      <trkpt lat="45.59281" lon="4.11296">
        <ele>382.39999389648</ele>
        <time>2021-03-06T15:58:39.000Z</time>
      </trkpt>
      <trkpt lat="45.59261" lon="4.11377">
        <ele>383.20001220703</ele>
        <time>2021-03-06T15:58:46.000Z</time>
      </trkpt>
      <trkpt lat="45.59258" lon="4.11388">
        <ele>383.20001220703</ele>
        <time>2021-03-06T15:58:47.000Z</time>
      </trkpt>
      <trkpt lat="45.59235" lon="4.11471">
        <ele>383.79998779297</ele>
        <time>2021-03-06T15:58:55.000Z</time>
      </trkpt>
      <trkpt lat="45.59232" lon="4.11482">
        <ele>383.79998779297</ele>
        <time>2021-03-06T15:58:56.000Z</time>
      </trkpt>
      <trkpt lat="45.59218" lon="4.11533">
        <ele>384.39999389648</ele>
        <time>2021-03-06T15:59:01.000Z</time>
      </trkpt>
      <trkpt lat="45.59209" lon="4.11563">
        <ele>384.39999389648</ele>
        <time>2021-03-06T15:59:04.000Z</time>
      </trkpt>
      <trkpt lat="45.59192" lon="4.11639">
        <ele>384.79998779297</ele>
        <time>2021-03-06T15:59:11.000Z</time>
      </trkpt>
      <trkpt lat="45.59189" lon="4.1165">
        <ele>384.79998779297</ele>
        <time>2021-03-06T15:59:12.000Z</time>
      </trkpt>
      <trkpt lat="45.59173" lon="4.11729">
        <ele>385</ele>
        <time>2021-03-06T15:59:19.000Z</time>
      </trkpt>
      <trkpt lat="45.5917" lon="4.1174">
        <ele>385</ele>
        <time>2021-03-06T15:59:20.000Z</time>
      </trkpt>
      <trkpt lat="45.59158" lon="4.11797">
        <ele>385.39999389648</ele>
        <time>2021-03-06T15:59:25.000Z</time>
      </trkpt>
      <trkpt lat="45.59145" lon="4.1186">
        <ele>386.39999389648</ele>
        <time>2021-03-06T15:59:31.000Z</time>
      </trkpt>
      <trkpt lat="45.59143" lon="4.11871">
        <ele>386.39999389648</ele>
        <time>2021-03-06T15:59:32.000Z</time>
      </trkpt>
      <trkpt lat="45.59133" lon="4.11921">
        <ele>387.60000610352</ele>
        <time>2021-03-06T15:59:37.000Z</time>
      </trkpt>
      <trkpt lat="45.59128" lon="4.11941">
        <ele>387.79998779297</ele>
        <time>2021-03-06T15:59:39.000Z</time>
      </trkpt>
      <trkpt lat="45.59116" lon="4.12016">
        <ele>387.20001220703</ele>
        <time>2021-03-06T15:59:46.000Z</time>
      </trkpt>
      <trkpt lat="45.59115" lon="4.12028">
        <ele>387.20001220703</ele>
        <time>2021-03-06T15:59:47.000Z</time>
      </trkpt>
      <trkpt lat="45.59109" lon="4.12114">
        <ele>386.60000610352</ele>
        <time>2021-03-06T15:59:54.000Z</time>
      </trkpt>
      <trkpt lat="45.59109" lon="4.12126">
        <ele>386.39999389648</ele>
        <time>2021-03-06T15:59:55.000Z</time>
      </trkpt>
      <trkpt lat="45.59104" lon="4.12204">
        <ele>386.20001220703</ele>
        <time>2021-03-06T16:00:01.000Z</time>
      </trkpt>
      <trkpt lat="45.59101" lon="4.12256">
        <ele>385.79998779297</ele>
        <time>2021-03-06T16:00:05.000Z</time>
      </trkpt>
      <trkpt lat="45.591" lon="4.12281">
        <ele>385.39999389648</ele>
        <time>2021-03-06T16:00:07.000Z</time>
      </trkpt>
      <trkpt lat="45.59095" lon="4.1236">
        <ele>385</ele>
        <time>2021-03-06T16:00:13.000Z</time>
      </trkpt>
      <trkpt lat="45.59094" lon="4.124">
        <ele>384.60000610352</ele>
        <time>2021-03-06T16:00:16.000Z</time>
      </trkpt>
      <trkpt lat="45.59092" lon="4.12453">
        <ele>384.39999389648</ele>
        <time>2021-03-06T16:00:20.000Z</time>
      </trkpt>
      <trkpt lat="45.59091" lon="4.1249">
        <ele>384.20001220703</ele>
        <time>2021-03-06T16:00:23.000Z</time>
      </trkpt>
      <trkpt lat="45.59088" lon="4.12572">
        <ele>383.39999389648</ele>
        <time>2021-03-06T16:00:29.000Z</time>
      </trkpt>
      <trkpt lat="45.59087" lon="4.126">
        <ele>383.20001220703</ele>
        <time>2021-03-06T16:00:31.000Z</time>
      </trkpt>
      <trkpt lat="45.59084" lon="4.12682">
        <ele>382.79998779297</ele>
        <time>2021-03-06T16:00:37.000Z</time>
      </trkpt>
      <trkpt lat="45.59082" lon="4.12724">
        <ele>382.79998779297</ele>
        <time>2021-03-06T16:00:40.000Z</time>
      </trkpt>
      <trkpt lat="45.59078" lon="4.12796">
        <ele>382.20001220703</ele>
        <time>2021-03-06T16:00:45.000Z</time>
      </trkpt>
      <trkpt lat="45.59075" lon="4.12838">
        <ele>381.79998779297</ele>
        <time>2021-03-06T16:00:48.000Z</time>
      </trkpt>
      <trkpt lat="45.59072" lon="4.12923">
        <ele>381.79998779297</ele>
        <time>2021-03-06T16:00:54.000Z</time>
      </trkpt>
      <trkpt lat="45.5907" lon="4.12978">
        <ele>381.39999389648</ele>
        <time>2021-03-06T16:00:58.000Z</time>
      </trkpt>
      <trkpt lat="45.59068" lon="4.13033">
        <ele>381.20001220703</ele>
        <time>2021-03-06T16:01:02.000Z</time>
      </trkpt>
      <trkpt lat="45.59066" lon="4.13088">
        <ele>381</ele>
        <time>2021-03-06T16:01:06.000Z</time>
      </trkpt>
      <trkpt lat="45.59062" lon="4.13169">
        <ele>380.39999389648</ele>
        <time>2021-03-06T16:01:12.000Z</time>
      </trkpt>
      <trkpt lat="45.5906" lon="4.13197">
        <ele>380</ele>
        <time>2021-03-06T16:01:14.000Z</time>
      </trkpt>
      <trkpt lat="45.59057" lon="4.13282">
        <ele>379.39999389648</ele>
        <time>2021-03-06T16:01:20.000Z</time>
      </trkpt>
      <trkpt lat="45.59055" lon="4.13339">
        <ele>379</ele>
        <time>2021-03-06T16:01:24.000Z</time>
      </trkpt>
      <trkpt lat="45.59055" lon="4.13353">
        <ele>379</ele>
        <time>2021-03-06T16:01:25.000Z</time>
      </trkpt>
      <trkpt lat="45.59052" lon="4.1344">
        <ele>377.79998779297</ele>
        <time>2021-03-06T16:01:31.000Z</time>
      </trkpt>
      <trkpt lat="45.59051" lon="4.13468">
        <ele>377.60000610352</ele>
        <time>2021-03-06T16:01:33.000Z</time>
      </trkpt>
      <trkpt lat="45.59048" lon="4.1355">
        <ele>376.79998779297</ele>
        <time>2021-03-06T16:01:39.000Z</time>
      </trkpt>
      <trkpt lat="45.59048" lon="4.13578">
        <ele>376.60000610352</ele>
        <time>2021-03-06T16:01:41.000Z</time>
      </trkpt>
      <trkpt lat="45.59045" lon="4.1366">
        <ele>375.79998779297</ele>
        <time>2021-03-06T16:01:47.000Z</time>
      </trkpt>
      <trkpt lat="45.59044" lon="4.13674">
        <ele>375.79998779297</ele>
        <time>2021-03-06T16:01:48.000Z</time>
      </trkpt>
      <trkpt lat="45.59043" lon="4.13729">
        <ele>375.60000610352</ele>
        <time>2021-03-06T16:01:52.000Z</time>
      </trkpt>
      <trkpt lat="45.5904" lon="4.13813">
        <ele>374.79998779297</ele>
        <time>2021-03-06T16:01:58.000Z</time>
      </trkpt>
      <trkpt lat="45.59039" lon="4.13854">
        <ele>374.39999389648</ele>
        <time>2021-03-06T16:02:01.000Z</time>
      </trkpt>
      <trkpt lat="45.59045" lon="4.13924">
        <ele>373.79998779297</ele>
        <time>2021-03-06T16:02:06.000Z</time>
      </trkpt>
      <trkpt lat="45.59047" lon="4.13938">
        <ele>373.60000610352</ele>
        <time>2021-03-06T16:02:07.000Z</time>
      </trkpt>
      <trkpt lat="45.59048" lon="4.14005">
        <ele>373.60000610352</ele>
        <time>2021-03-06T16:02:12.000Z</time>
      </trkpt>
      <trkpt lat="45.59048" lon="4.14084">
        <ele>373.39999389648</ele>
        <time>2021-03-06T16:02:18.000Z</time>
      </trkpt>
      <trkpt lat="45.59049" lon="4.14097">
        <ele>373.20001220703</ele>
        <time>2021-03-06T16:02:19.000Z</time>
      </trkpt>
      <trkpt lat="45.59056" lon="4.14161">
        <ele>372.60000610352</ele>
        <time>2021-03-06T16:02:24.000Z</time>
      </trkpt>
      <trkpt lat="45.59058" lon="4.14173">
        <ele>372.39999389648</ele>
        <time>2021-03-06T16:02:25.000Z</time>
      </trkpt>
      <trkpt lat="45.59068" lon="4.14227">
        <ele>372.39999389648</ele>
        <time>2021-03-06T16:02:30.000Z</time>
      </trkpt>
      <trkpt lat="45.59077" lon="4.14308">
        <ele>372.39999389648</ele>
        <time>2021-03-06T16:02:37.000Z</time>
      </trkpt>
      <trkpt lat="45.59078" lon="4.14332">
        <ele>372.20001220703</ele>
        <time>2021-03-06T16:02:39.000Z</time>
      </trkpt>
      <trkpt lat="45.59074" lon="4.14369">
        <ele>372</ele>
        <time>2021-03-06T16:02:42.000Z</time>
      </trkpt>
      <trkpt lat="45.59072" lon="4.14381">
        <ele>372</ele>
        <time>2021-03-06T16:02:43.000Z</time>
      </trkpt>
      <trkpt lat="45.59062" lon="4.14416">
        <ele>371.79998779297</ele>
        <time>2021-03-06T16:02:46.000Z</time>
      </trkpt>
      <trkpt lat="45.5904" lon="4.14471">
        <ele>371.79998779297</ele>
        <time>2021-03-06T16:02:51.000Z</time>
      </trkpt>
      <trkpt lat="45.59001" lon="4.1454">
        <ele>371.60000610352</ele>
        <time>2021-03-06T16:02:58.000Z</time>
      </trkpt>
      <trkpt lat="45.58996" lon="4.1455">
        <ele>371.60000610352</ele>
        <time>2021-03-06T16:02:59.000Z</time>
      </trkpt>
      <trkpt lat="45.58964" lon="4.14613">
        <ele>371.79998779297</ele>
        <time>2021-03-06T16:03:05.000Z</time>
      </trkpt>
      <trkpt lat="45.5896" lon="4.14624">
        <ele>372</ele>
        <time>2021-03-06T16:03:06.000Z</time>
      </trkpt>
      <trkpt lat="45.58945" lon="4.14684">
        <ele>372.20001220703</ele>
        <time>2021-03-06T16:03:11.000Z</time>
      </trkpt>
      <trkpt lat="45.58939" lon="4.14757">
        <ele>371.79998779297</ele>
        <time>2021-03-06T16:03:17.000Z</time>
      </trkpt>
      <trkpt lat="45.58935" lon="4.14841">
        <ele>371.39999389648</ele>
        <time>2021-03-06T16:03:24.000Z</time>
      </trkpt>
      <trkpt lat="45.58923" lon="4.14925">
        <ele>370.79998779297</ele>
        <time>2021-03-06T16:03:31.000Z</time>
      </trkpt>
      <trkpt lat="45.58921" lon="4.14937">
        <ele>370.60000610352</ele>
        <time>2021-03-06T16:03:32.000Z</time>
      </trkpt>
      <trkpt lat="45.58908" lon="4.15017">
        <ele>370.20001220703</ele>
        <time>2021-03-06T16:03:39.000Z</time>
      </trkpt>
      <trkpt lat="45.58897" lon="4.15083">
        <ele>369.60000610352</ele>
        <time>2021-03-06T16:03:45.000Z</time>
      </trkpt>
      <trkpt lat="45.58896" lon="4.15094">
        <ele>369.60000610352</ele>
        <time>2021-03-06T16:03:46.000Z</time>
      </trkpt>
      <trkpt lat="45.58887" lon="4.15172">
        <ele>369.39999389648</ele>
        <time>2021-03-06T16:03:53.000Z</time>
      </trkpt>
      <trkpt lat="45.58885" lon="4.15195">
        <ele>369.39999389648</ele>
        <time>2021-03-06T16:03:55.000Z</time>
      </trkpt>
      <trkpt lat="45.58885" lon="4.1525">
        <ele>369.39999389648</ele>
        <time>2021-03-06T16:04:00.000Z</time>
      </trkpt>
      <trkpt lat="45.58895" lon="4.1533">
        <ele>369.20001220703</ele>
        <time>2021-03-06T16:04:07.000Z</time>
      </trkpt>
      <trkpt lat="45.58899" lon="4.1541">
        <ele>369.39999389648</ele>
        <time>2021-03-06T16:04:14.000Z</time>
      </trkpt>
      <trkpt lat="45.589" lon="4.15443">
        <ele>369.39999389648</ele>
        <time>2021-03-06T16:04:17.000Z</time>
      </trkpt>
      <trkpt lat="45.58907" lon="4.15523">
        <ele>369.60000610352</ele>
        <time>2021-03-06T16:04:24.000Z</time>
      </trkpt>
      <trkpt lat="45.58909" lon="4.15534">
        <ele>369.60000610352</ele>
        <time>2021-03-06T16:04:25.000Z</time>
      </trkpt>
      <trkpt lat="45.58924" lon="4.156">
        <ele>370</ele>
        <time>2021-03-06T16:04:31.000Z</time>
      </trkpt>
      <trkpt lat="45.58942" lon="4.15681">
        <ele>370.39999389648</ele>
        <time>2021-03-06T16:04:38.000Z</time>
      </trkpt>
      <trkpt lat="45.58947" lon="4.15704">
        <ele>370.60000610352</ele>
        <time>2021-03-06T16:04:40.000Z</time>
      </trkpt>
      <trkpt lat="45.58957" lon="4.15739">
        <ele>370.60000610352</ele>
        <time>2021-03-06T16:04:43.000Z</time>
      </trkpt>
      <trkpt lat="45.58977" lon="4.15821">
        <ele>370.39999389648</ele>
        <time>2021-03-06T16:04:50.000Z</time>
      </trkpt>
      <trkpt lat="45.58995" lon="4.15901">
        <ele>371.20001220703</ele>
        <time>2021-03-06T16:04:57.000Z</time>
      </trkpt>
      <trkpt lat="45.59" lon="4.15924">
        <ele>371.39999389648</ele>
        <time>2021-03-06T16:04:59.000Z</time>
      </trkpt>
      <trkpt lat="45.59019" lon="4.16009">
        <ele>371.39999389648</ele>
        <time>2021-03-06T16:05:06.000Z</time>
      </trkpt>
      <trkpt lat="45.59035" lon="4.16085">
        <ele>370.79998779297</ele>
        <time>2021-03-06T16:05:12.000Z</time>
      </trkpt>
      <trkpt lat="45.59043" lon="4.16124">
        <ele>370.60000610352</ele>
        <time>2021-03-06T16:05:15.000Z</time>
      </trkpt>
      <trkpt lat="45.59061" lon="4.16201">
        <ele>370.20001220703</ele>
        <time>2021-03-06T16:05:21.000Z</time>
      </trkpt>
      <trkpt lat="45.59078" lon="4.16277">
        <ele>370</ele>
        <time>2021-03-06T16:05:27.000Z</time>
      </trkpt>
      <trkpt lat="45.59094" lon="4.16352">
        <ele>369.60000610352</ele>
        <time>2021-03-06T16:05:33.000Z</time>
      </trkpt>
      <trkpt lat="45.59105" lon="4.16402">
        <ele>369.39999389648</ele>
        <time>2021-03-06T16:05:37.000Z</time>
      </trkpt>
      <trkpt lat="45.59114" lon="4.16441">
        <ele>368.60000610352</ele>
        <time>2021-03-06T16:05:40.000Z</time>
      </trkpt>
      <trkpt lat="45.5913" lon="4.16518">
        <ele>367.60000610352</ele>
        <time>2021-03-06T16:05:46.000Z</time>
      </trkpt>
      <trkpt lat="45.59138" lon="4.16556">
        <ele>367.39999389648</ele>
        <time>2021-03-06T16:05:49.000Z</time>
      </trkpt>
      <trkpt lat="45.5915" lon="4.16633">
        <ele>367.20001220703</ele>
        <time>2021-03-06T16:05:55.000Z</time>
      </trkpt>
      <trkpt lat="45.59156" lon="4.16672">
        <ele>367.20001220703</ele>
        <time>2021-03-06T16:05:58.000Z</time>
      </trkpt>
      <trkpt lat="45.59166" lon="4.1675">
        <ele>367</ele>
        <time>2021-03-06T16:06:04.000Z</time>
      </trkpt>
      <trkpt lat="45.59168" lon="4.16789">
        <ele>366.79998779297</ele>
        <time>2021-03-06T16:06:07.000Z</time>
      </trkpt>
      <trkpt lat="45.59163" lon="4.16853">
        <ele>366.79998779297</ele>
        <time>2021-03-06T16:06:12.000Z</time>
      </trkpt>
      <trkpt lat="45.59149" lon="4.16936">
        <ele>367.39999389648</ele>
        <time>2021-03-06T16:06:19.000Z</time>
      </trkpt>
      <trkpt lat="45.59145" lon="4.16971">
        <ele>367.60000610352</ele>
        <time>2021-03-06T16:06:22.000Z</time>
      </trkpt>
      <trkpt lat="45.59141" lon="4.17053">
        <ele>368.20001220703</ele>
        <time>2021-03-06T16:06:29.000Z</time>
      </trkpt>
      <trkpt lat="45.59141" lon="4.17064">
        <ele>368</ele>
        <time>2021-03-06T16:06:30.000Z</time>
      </trkpt>
      <trkpt lat="45.59145" lon="4.17147">
        <ele>367.79998779297</ele>
        <time>2021-03-06T16:06:37.000Z</time>
      </trkpt>
      <trkpt lat="45.59153" lon="4.17233">
        <ele>367.79998779297</ele>
        <time>2021-03-06T16:06:44.000Z</time>
      </trkpt>
      <trkpt lat="45.59155" lon="4.17258">
        <ele>367.79998779297</ele>
        <time>2021-03-06T16:06:46.000Z</time>
      </trkpt>
      <trkpt lat="45.59163" lon="4.17347">
        <ele>368</ele>
        <time>2021-03-06T16:06:53.000Z</time>
      </trkpt>
      <trkpt lat="45.59167" lon="4.17383">
        <ele>367.60000610352</ele>
        <time>2021-03-06T16:06:56.000Z</time>
      </trkpt>
      <trkpt lat="45.5918" lon="4.17468">
        <ele>367.60000610352</ele>
        <time>2021-03-06T16:07:03.000Z</time>
      </trkpt>
      <trkpt lat="45.59199" lon="4.1755">
        <ele>367.79998779297</ele>
        <time>2021-03-06T16:07:10.000Z</time>
      </trkpt>
      <trkpt lat="45.59208" lon="4.17584">
        <ele>367.39999389648</ele>
        <time>2021-03-06T16:07:13.000Z</time>
      </trkpt>
      <trkpt lat="45.59226" lon="4.17665">
        <ele>367</ele>
        <time>2021-03-06T16:07:20.000Z</time>
      </trkpt>
      <trkpt lat="45.59239" lon="4.17725">
        <ele>366.60000610352</ele>
        <time>2021-03-06T16:07:25.000Z</time>
      </trkpt>
      <trkpt lat="45.59256" lon="4.17809">
        <ele>366.20001220703</ele>
        <time>2021-03-06T16:07:32.000Z</time>
      </trkpt>
      <trkpt lat="45.59263" lon="4.17846">
        <ele>366</ele>
        <time>2021-03-06T16:07:35.000Z</time>
      </trkpt>
      <trkpt lat="45.59268" lon="4.1787">
        <ele>365.39999389648</ele>
        <time>2021-03-06T16:07:37.000Z</time>
      </trkpt>
      <trkpt lat="45.59281" lon="4.17927">
        <ele>364.79998779297</ele>
        <time>2021-03-06T16:07:42.000Z</time>
      </trkpt>
      <trkpt lat="45.59299" lon="4.18009">
        <ele>365.79998779297</ele>
        <time>2021-03-06T16:07:49.000Z</time>
      </trkpt>
      <trkpt lat="45.59309" lon="4.18054">
        <ele>366</ele>
        <time>2021-03-06T16:07:53.000Z</time>
      </trkpt>
      <trkpt lat="45.59327" lon="4.18131">
        <ele>366</ele>
        <time>2021-03-06T16:08:00.000Z</time>
      </trkpt>
      <trkpt lat="45.59338" lon="4.18176">
        <ele>365.79998779297</ele>
        <time>2021-03-06T16:08:04.000Z</time>
      </trkpt>
      <trkpt lat="45.59357" lon="4.18256">
        <ele>365.20001220703</ele>
        <time>2021-03-06T16:08:11.000Z</time>
      </trkpt>
      <trkpt lat="45.59367" lon="4.1829">
        <ele>365.20001220703</ele>
        <time>2021-03-06T16:08:14.000Z</time>
      </trkpt>
      <trkpt lat="45.59394" lon="4.18364">
        <ele>365</ele>
        <time>2021-03-06T16:08:21.000Z</time>
      </trkpt>
      <trkpt lat="45.59398" lon="4.18375">
        <ele>365</ele>
        <time>2021-03-06T16:08:22.000Z</time>
      </trkpt>
      <trkpt lat="45.59429" lon="4.18449">
        <ele>365</ele>
        <time>2021-03-06T16:08:29.000Z</time>
      </trkpt>
      <trkpt lat="45.59433" lon="4.1846">
        <ele>365</ele>
        <time>2021-03-06T16:08:30.000Z</time>
      </trkpt>
      <trkpt lat="45.59462" lon="4.18535">
        <ele>364.79998779297</ele>
        <time>2021-03-06T16:08:37.000Z</time>
      </trkpt>
      <trkpt lat="45.59466" lon="4.18546">
        <ele>364.60000610352</ele>
        <time>2021-03-06T16:08:38.000Z</time>
      </trkpt>
      <trkpt lat="45.59475" lon="4.18594">
        <ele>364.20001220703</ele>
        <time>2021-03-06T16:08:42.000Z</time>
      </trkpt>
      <trkpt lat="45.59476" lon="4.18607">
        <ele>364.20001220703</ele>
        <time>2021-03-06T16:08:43.000Z</time>
      </trkpt>
      <trkpt lat="45.59483" lon="4.18691">
        <ele>364.20001220703</ele>
        <time>2021-03-06T16:08:50.000Z</time>
      </trkpt>
      <trkpt lat="45.59485" lon="4.18704">
        <ele>364</ele>
        <time>2021-03-06T16:08:51.000Z</time>
      </trkpt>
      <trkpt lat="45.59494" lon="4.18792">
        <ele>364.20001220703</ele>
        <time>2021-03-06T16:08:58.000Z</time>
      </trkpt>
      <trkpt lat="45.59498" lon="4.18816">
        <ele>364.20001220703</ele>
        <time>2021-03-06T16:09:00.000Z</time>
      </trkpt>
      <trkpt lat="45.59511" lon="4.18897">
        <ele>364</ele>
        <time>2021-03-06T16:09:07.000Z</time>
      </trkpt>
      <trkpt lat="45.59523" lon="4.18977">
        <ele>363.79998779297</ele>
        <time>2021-03-06T16:09:14.000Z</time>
      </trkpt>
      <trkpt lat="45.59526" lon="4.18999">
        <ele>364</ele>
        <time>2021-03-06T16:09:16.000Z</time>
      </trkpt>
      <trkpt lat="45.59526" lon="4.19067">
        <ele>363.60000610352</ele>
        <time>2021-03-06T16:09:22.000Z</time>
      </trkpt>
      <trkpt lat="45.5952" lon="4.19113">
        <ele>363</ele>
        <time>2021-03-06T16:09:26.000Z</time>
      </trkpt>
      <trkpt lat="45.59514" lon="4.19149">
        <ele>362.39999389648</ele>
        <time>2021-03-06T16:09:29.000Z</time>
      </trkpt>
      <trkpt lat="45.59509" lon="4.19187">
        <ele>362</ele>
        <time>2021-03-06T16:09:32.000Z</time>
      </trkpt>
      <trkpt lat="45.59498" lon="4.19252">
        <ele>360.60000610352</ele>
        <time>2021-03-06T16:09:37.000Z</time>
      </trkpt>
      <trkpt lat="45.59488" lon="4.19292">
        <ele>359.39999389648</ele>
        <time>2021-03-06T16:09:40.000Z</time>
      </trkpt>
      <trkpt lat="45.59474" lon="4.19331">
        <ele>358.60000610352</ele>
        <time>2021-03-06T16:09:43.000Z</time>
      </trkpt>
      <trkpt lat="45.59469" lon="4.19343">
        <ele>358.39999389648</ele>
        <time>2021-03-06T16:09:44.000Z</time>
      </trkpt>
      <trkpt lat="45.59459" lon="4.19367">
        <ele>357.79998779297</ele>
        <time>2021-03-06T16:09:46.000Z</time>
      </trkpt>
      <trkpt lat="45.59438" lon="4.19413">
        <ele>357.60000610352</ele>
        <time>2021-03-06T16:09:50.000Z</time>
      </trkpt>
      <trkpt lat="45.59405" lon="4.19485">
        <ele>358.20001220703</ele>
        <time>2021-03-06T16:09:57.000Z</time>
      </trkpt>
      <trkpt lat="45.59386" lon="4.19528">
        <ele>359.20001220703</ele>
        <time>2021-03-06T16:10:02.000Z</time>
      </trkpt>
      <trkpt lat="45.59383" lon="4.19534">
        <ele>359.39999389648</ele>
        <time>2021-03-06T16:10:03.000Z</time>
      </trkpt>
      <trkpt lat="45.59369" lon="4.19572">
        <ele>360.60000610352</ele>
        <time>2021-03-06T16:10:07.000Z</time>
      </trkpt>
      <trkpt lat="45.59366" lon="4.19581">
        <ele>361</ele>
        <time>2021-03-06T16:10:08.000Z</time>
      </trkpt>
      <trkpt lat="45.59361" lon="4.196">
        <ele>361.60000610352</ele>
        <time>2021-03-06T16:10:10.000Z</time>
      </trkpt>
      <trkpt lat="45.59354" lon="4.19628">
        <ele>362.60000610352</ele>
        <time>2021-03-06T16:10:13.000Z</time>
      </trkpt>
      <trkpt lat="45.5935" lon="4.19645">
        <ele>363</ele>
        <time>2021-03-06T16:10:15.000Z</time>
      </trkpt>
      <trkpt lat="45.59345" lon="4.1967">
        <ele>363.79998779297</ele>
        <time>2021-03-06T16:10:18.000Z</time>
      </trkpt>
      <trkpt lat="45.59341" lon="4.19687">
        <ele>364.20001220703</ele>
        <time>2021-03-06T16:10:20.000Z</time>
      </trkpt>
      <trkpt lat="45.59326" lon="4.1975">
        <ele>364.79998779297</ele>
        <time>2021-03-06T16:10:28.000Z</time>
      </trkpt>
      <trkpt lat="45.59321" lon="4.19765">
        <ele>364.79998779297</ele>
        <time>2021-03-06T16:10:30.000Z</time>
      </trkpt>
      <trkpt lat="45.59316" lon="4.19781">
        <ele>364.79998779297</ele>
        <time>2021-03-06T16:10:32.000Z</time>
      </trkpt>
      <trkpt lat="45.59312" lon="4.19789">
        <ele>365</ele>
        <time>2021-03-06T16:10:33.000Z</time>
      </trkpt>
      <trkpt lat="45.59295" lon="4.19816">
        <ele>365</ele>
        <time>2021-03-06T16:10:37.000Z</time>
      </trkpt>
      <trkpt lat="45.59292" lon="4.19824">
        <ele>365</ele>
        <time>2021-03-06T16:10:38.000Z</time>
      </trkpt>
      <trkpt lat="45.59278" lon="4.19881">
        <ele>365</ele>
        <time>2021-03-06T16:10:44.000Z</time>
      </trkpt>
      <trkpt lat="45.5926" lon="4.19962">
        <ele>364.79998779297</ele>
        <time>2021-03-06T16:10:52.000Z</time>
      </trkpt>
      <trkpt lat="45.59248" lon="4.20027">
        <ele>364.79998779297</ele>
        <time>2021-03-06T16:10:58.000Z</time>
      </trkpt>
      <trkpt lat="45.59234" lon="4.20106">
        <ele>364.60000610352</ele>
        <time>2021-03-06T16:11:05.000Z</time>
      </trkpt>
      <trkpt lat="45.59227" lon="4.20178">
        <ele>364.20001220703</ele>
        <time>2021-03-06T16:11:11.000Z</time>
      </trkpt>
      <trkpt lat="45.59225" lon="4.20252">
        <ele>363.79998779297</ele>
        <time>2021-03-06T16:11:17.000Z</time>
      </trkpt>
      <trkpt lat="45.59224" lon="4.20265">
        <ele>363.79998779297</ele>
        <time>2021-03-06T16:11:18.000Z</time>
      </trkpt>
      <trkpt lat="45.59221" lon="4.20331">
        <ele>363</ele>
        <time>2021-03-06T16:11:24.000Z</time>
      </trkpt>
      <trkpt lat="45.59219" lon="4.20413">
        <ele>363.20001220703</ele>
        <time>2021-03-06T16:11:31.000Z</time>
      </trkpt>
      <trkpt lat="45.5922" lon="4.20436">
        <ele>363</ele>
        <time>2021-03-06T16:11:33.000Z</time>
      </trkpt>
      <trkpt lat="45.59224" lon="4.20519">
        <ele>362.79998779297</ele>
        <time>2021-03-06T16:11:40.000Z</time>
      </trkpt>
      <trkpt lat="45.59224" lon="4.20543">
        <ele>363</ele>
        <time>2021-03-06T16:11:42.000Z</time>
      </trkpt>
      <trkpt lat="45.59219" lon="4.20614">
        <ele>363</ele>
        <time>2021-03-06T16:11:48.000Z</time>
      </trkpt>
      <trkpt lat="45.59208" lon="4.20697">
        <ele>363.20001220703</ele>
        <time>2021-03-06T16:11:55.000Z</time>
      </trkpt>
      <trkpt lat="45.59204" lon="4.20721">
        <ele>363.20001220703</ele>
        <time>2021-03-06T16:11:57.000Z</time>
      </trkpt>
      <trkpt lat="45.59192" lon="4.20807">
        <ele>363</ele>
        <time>2021-03-06T16:12:04.000Z</time>
      </trkpt>
      <trkpt lat="45.5919" lon="4.20832">
        <ele>362.79998779297</ele>
        <time>2021-03-06T16:12:06.000Z</time>
      </trkpt>
      <trkpt lat="45.59185" lon="4.20904">
        <ele>362.79998779297</ele>
        <time>2021-03-06T16:12:12.000Z</time>
      </trkpt>
      <trkpt lat="45.59177" lon="4.20969">
        <ele>364</ele>
        <time>2021-03-06T16:12:18.000Z</time>
      </trkpt>
      <trkpt lat="45.59167" lon="4.21016">
        <ele>365.20001220703</ele>
        <time>2021-03-06T16:12:23.000Z</time>
      </trkpt>
      <trkpt lat="45.59166" lon="4.21025">
        <ele>365.20001220703</ele>
        <time>2021-03-06T16:12:24.000Z</time>
      </trkpt>
      <trkpt lat="45.5916" lon="4.21051">
        <ele>366.20001220703</ele>
        <time>2021-03-06T16:12:27.000Z</time>
      </trkpt>
      <trkpt lat="45.59152" lon="4.21083">
        <ele>367.20001220703</ele>
        <time>2021-03-06T16:12:31.000Z</time>
      </trkpt>
      <trkpt lat="45.5915" lon="4.21091">
        <ele>367.60000610352</ele>
        <time>2021-03-06T16:12:32.000Z</time>
      </trkpt>
      <trkpt lat="45.59138" lon="4.21132">
        <ele>368</ele>
        <time>2021-03-06T16:12:37.000Z</time>
      </trkpt>
      <trkpt lat="45.59123" lon="4.21189">
        <ele>367.79998779297</ele>
        <time>2021-03-06T16:12:43.000Z</time>
      </trkpt>
      <trkpt lat="45.59101" lon="4.21256">
        <ele>365.79998779297</ele>
        <time>2021-03-06T16:12:49.000Z</time>
      </trkpt>
      <trkpt lat="45.59092" lon="4.21278">
        <ele>364.60000610352</ele>
        <time>2021-03-06T16:12:51.000Z</time>
      </trkpt>
      <trkpt lat="45.59071" lon="4.21325">
        <ele>363.79998779297</ele>
        <time>2021-03-06T16:12:55.000Z</time>
      </trkpt>
      <trkpt lat="45.59056" lon="4.21362">
        <ele>363.39999389648</ele>
        <time>2021-03-06T16:12:58.000Z</time>
      </trkpt>
      <trkpt lat="45.59043" lon="4.21399">
        <ele>362.79998779297</ele>
        <time>2021-03-06T16:13:01.000Z</time>
      </trkpt>
      <trkpt lat="45.59023" lon="4.21476">
        <ele>362.20001220703</ele>
        <time>2021-03-06T16:13:07.000Z</time>
      </trkpt>
      <trkpt lat="45.59017" lon="4.215">
        <ele>362.20001220703</ele>
        <time>2021-03-06T16:13:09.000Z</time>
      </trkpt>
      <trkpt lat="45.59002" lon="4.21575">
        <ele>362.20001220703</ele>
        <time>2021-03-06T16:13:15.000Z</time>
      </trkpt>
      <trkpt lat="45.58996" lon="4.21599">
        <ele>362.39999389648</ele>
        <time>2021-03-06T16:13:17.000Z</time>
      </trkpt>
      <trkpt lat="45.5898" lon="4.21656">
        <ele>362.20001220703</ele>
        <time>2021-03-06T16:13:22.000Z</time>
      </trkpt>
      <trkpt lat="45.58976" lon="4.21667">
        <ele>362.20001220703</ele>
        <time>2021-03-06T16:13:23.000Z</time>
      </trkpt>
      <trkpt lat="45.58942" lon="4.21726">
        <ele>362</ele>
        <time>2021-03-06T16:13:29.000Z</time>
      </trkpt>
      <trkpt lat="45.58917" lon="4.21766">
        <ele>361.20001220703</ele>
        <time>2021-03-06T16:13:33.000Z</time>
      </trkpt>
      <trkpt lat="45.58891" lon="4.21806">
        <ele>360.39999389648</ele>
        <time>2021-03-06T16:13:37.000Z</time>
      </trkpt>
      <trkpt lat="45.58853" lon="4.21865">
        <ele>360.39999389648</ele>
        <time>2021-03-06T16:13:43.000Z</time>
      </trkpt>
      <trkpt lat="45.58837" lon="4.21894">
        <ele>360.39999389648</ele>
        <time>2021-03-06T16:13:46.000Z</time>
      </trkpt>
      <trkpt lat="45.58822" lon="4.21937">
        <ele>360.39999389648</ele>
        <time>2021-03-06T16:13:50.000Z</time>
      </trkpt>
      <trkpt lat="45.58816" lon="4.21995">
        <ele>360.60000610352</ele>
        <time>2021-03-06T16:13:55.000Z</time>
      </trkpt>
      <trkpt lat="45.58812" lon="4.22078">
        <ele>360.20001220703</ele>
        <time>2021-03-06T16:14:02.000Z</time>
      </trkpt>
      <trkpt lat="45.5881" lon="4.2209">
        <ele>360</ele>
        <time>2021-03-06T16:14:03.000Z</time>
      </trkpt>
      <trkpt lat="45.58798" lon="4.22135">
        <ele>359.79998779297</ele>
        <time>2021-03-06T16:14:07.000Z</time>
      </trkpt>
      <trkpt lat="45.58769" lon="4.22195">
        <ele>359.60000610352</ele>
        <time>2021-03-06T16:14:13.000Z</time>
      </trkpt>
      <trkpt lat="45.58732" lon="4.22267">
        <ele>359.60000610352</ele>
        <time>2021-03-06T16:14:20.000Z</time>
      </trkpt>
      <trkpt lat="45.58711" lon="4.22308">
        <ele>359.39999389648</ele>
        <time>2021-03-06T16:14:24.000Z</time>
      </trkpt>
      <trkpt lat="45.58677" lon="4.22381">
        <ele>359.79998779297</ele>
        <time>2021-03-06T16:14:31.000Z</time>
      </trkpt>
      <trkpt lat="45.5867" lon="4.22403">
        <ele>360</ele>
        <time>2021-03-06T16:14:33.000Z</time>
      </trkpt>
      <trkpt lat="45.58667" lon="4.22426">
        <ele>360.20001220703</ele>
        <time>2021-03-06T16:14:35.000Z</time>
      </trkpt>
      <trkpt lat="45.58669" lon="4.22462">
        <ele>360.20001220703</ele>
        <time>2021-03-06T16:14:38.000Z</time>
      </trkpt>
      <trkpt lat="45.58672" lon="4.22473">
        <ele>360.20001220703</ele>
        <time>2021-03-06T16:14:39.000Z</time>
      </trkpt>
      <trkpt lat="45.58677" lon="4.22496">
        <ele>359.79998779297</ele>
        <time>2021-03-06T16:14:41.000Z</time>
      </trkpt>
      <trkpt lat="45.58689" lon="4.2255">
        <ele>359.60000610352</ele>
        <time>2021-03-06T16:14:46.000Z</time>
      </trkpt>
      <trkpt lat="45.5869" lon="4.22561">
        <ele>359.60000610352</ele>
        <time>2021-03-06T16:14:47.000Z</time>
      </trkpt>
      <trkpt lat="45.58694" lon="4.22607">
        <ele>359.60000610352</ele>
        <time>2021-03-06T16:14:51.000Z</time>
      </trkpt>
      <trkpt lat="45.58694" lon="4.22618">
        <ele>359.60000610352</ele>
        <time>2021-03-06T16:14:52.000Z</time>
      </trkpt>
      <trkpt lat="45.5869" lon="4.22663">
        <ele>359.60000610352</ele>
        <time>2021-03-06T16:14:56.000Z</time>
      </trkpt>
      <trkpt lat="45.58683" lon="4.22743">
        <ele>359.60000610352</ele>
        <time>2021-03-06T16:15:03.000Z</time>
      </trkpt>
      <trkpt lat="45.58677" lon="4.22778">
        <ele>359.20001220703</ele>
        <time>2021-03-06T16:15:06.000Z</time>
      </trkpt>
      <trkpt lat="45.58672" lon="4.22799">
        <ele>359</ele>
        <time>2021-03-06T16:15:08.000Z</time>
      </trkpt>
      <trkpt lat="45.58658" lon="4.22839">
        <ele>358.79998779297</ele>
        <time>2021-03-06T16:15:12.000Z</time>
      </trkpt>
      <trkpt lat="45.58644" lon="4.22893">
        <ele>359.60000610352</ele>
        <time>2021-03-06T16:15:17.000Z</time>
      </trkpt>
      <trkpt lat="45.58635" lon="4.2297">
        <ele>360</ele>
        <time>2021-03-06T16:15:24.000Z</time>
      </trkpt>
      <trkpt lat="45.58628" lon="4.23013">
        <ele>359.79998779297</ele>
        <time>2021-03-06T16:15:28.000Z</time>
      </trkpt>
      <trkpt lat="45.58624" lon="4.23023">
        <ele>359.60000610352</ele>
        <time>2021-03-06T16:15:29.000Z</time>
      </trkpt>
      <trkpt lat="45.58619" lon="4.23032">
        <ele>359.39999389648</ele>
        <time>2021-03-06T16:15:30.000Z</time>
      </trkpt>
      <trkpt lat="45.58612" lon="4.23039">
        <ele>359.39999389648</ele>
        <time>2021-03-06T16:15:31.000Z</time>
      </trkpt>
      <trkpt lat="45.58605" lon="4.23046">
        <ele>359.39999389648</ele>
        <time>2021-03-06T16:15:32.000Z</time>
      </trkpt>
      <trkpt lat="45.58582" lon="4.23057">
        <ele>359.20001220703</ele>
        <time>2021-03-06T16:15:35.000Z</time>
      </trkpt>
      <trkpt lat="45.58574" lon="4.23059">
        <ele>359.20001220703</ele>
        <time>2021-03-06T16:15:36.000Z</time>
      </trkpt>
      <trkpt lat="45.58516" lon="4.23072">
        <ele>358.79998779297</ele>
        <time>2021-03-06T16:15:43.000Z</time>
      </trkpt>
      <trkpt lat="45.58484" lon="4.23078">
        <ele>358.79998779297</ele>
        <time>2021-03-06T16:15:47.000Z</time>
      </trkpt>
      <trkpt lat="45.58476" lon="4.23076">
        <ele>358.79998779297</ele>
        <time>2021-03-06T16:15:48.000Z</time>
      </trkpt>
      <trkpt lat="45.58469" lon="4.2307">
        <ele>358.79998779297</ele>
        <time>2021-03-06T16:15:49.000Z</time>
      </trkpt>
      <trkpt lat="45.58455" lon="4.23058">
        <ele>359</ele>
        <time>2021-03-06T16:15:51.000Z</time>
      </trkpt>
      <trkpt lat="45.58404" lon="4.23024">
        <ele>359.20001220703</ele>
        <time>2021-03-06T16:15:58.000Z</time>
      </trkpt>
      <trkpt lat="45.58396" lon="4.2302">
        <ele>359.39999389648</ele>
        <time>2021-03-06T16:15:59.000Z</time>
      </trkpt>
      <trkpt lat="45.58343" lon="4.22991">
        <ele>359.20001220703</ele>
        <time>2021-03-06T16:16:06.000Z</time>
      </trkpt>
      <trkpt lat="45.58328" lon="4.22981">
        <ele>359.39999389648</ele>
        <time>2021-03-06T16:16:08.000Z</time>
      </trkpt>
      <trkpt lat="45.58274" lon="4.22949">
        <ele>359.39999389648</ele>
        <time>2021-03-06T16:16:15.000Z</time>
      </trkpt>
      <trkpt lat="45.58257" lon="4.2294">
        <ele>359.20001220703</ele>
        <time>2021-03-06T16:16:17.000Z</time>
      </trkpt>
      <trkpt lat="45.58218" lon="4.22912">
        <ele>359.20001220703</ele>
        <time>2021-03-06T16:16:22.000Z</time>
      </trkpt>
      <trkpt lat="45.58183" lon="4.22883">
        <ele>359</ele>
        <time>2021-03-06T16:16:27.000Z</time>
      </trkpt>
      <trkpt lat="45.5817" lon="4.22872">
        <ele>359</ele>
        <time>2021-03-06T16:16:29.000Z</time>
      </trkpt>
      <trkpt lat="45.5816" lon="4.2286">
        <ele>359</ele>
        <time>2021-03-06T16:16:31.000Z</time>
      </trkpt>
      <trkpt lat="45.58152" lon="4.22859">
        <ele>359</ele>
        <time>2021-03-06T16:16:33.000Z</time>
      </trkpt>
      <trkpt lat="45.58152" lon="4.22873">
        <ele>359.20001220703</ele>
        <time>2021-03-06T16:16:35.000Z</time>
      </trkpt>
      <trkpt lat="45.58153" lon="4.22889">
        <ele>359.39999389648</ele>
        <time>2021-03-06T16:16:37.000Z</time>
      </trkpt>
      <trkpt lat="45.58152" lon="4.22906">
        <ele>359.60000610352</ele>
        <time>2021-03-06T16:16:39.000Z</time>
      </trkpt>
      <trkpt lat="45.58146" lon="4.22954">
        <ele>359.79998779297</ele>
        <time>2021-03-06T16:16:44.000Z</time>
      </trkpt>
      <trkpt lat="45.58137" lon="4.23023">
        <ele>359.60000610352</ele>
        <time>2021-03-06T16:16:50.000Z</time>
      </trkpt>
      <trkpt lat="45.58137" lon="4.23035">
        <ele>359.60000610352</ele>
        <time>2021-03-06T16:16:51.000Z</time>
      </trkpt>
      <trkpt lat="45.58139" lon="4.23072">
        <ele>359.39999389648</ele>
        <time>2021-03-06T16:16:54.000Z</time>
      </trkpt>
      <trkpt lat="45.58143" lon="4.23149">
        <ele>359</ele>
        <time>2021-03-06T16:17:01.000Z</time>
      </trkpt>
      <trkpt lat="45.58146" lon="4.23207">
        <ele>358</ele>
        <time>2021-03-06T16:17:07.000Z</time>
      </trkpt>
      <trkpt lat="45.58146" lon="4.23217">
        <ele>357.79998779297</ele>
        <time>2021-03-06T16:17:08.000Z</time>
      </trkpt>
      <trkpt lat="45.58147" lon="4.23299">
        <ele>357.20001220703</ele>
        <time>2021-03-06T16:17:16.000Z</time>
      </trkpt>
      <trkpt lat="45.58147" lon="4.2331">
        <ele>357.20001220703</ele>
        <time>2021-03-06T16:17:17.000Z</time>
      </trkpt>
      <trkpt lat="45.58151" lon="4.23396">
        <ele>357.39999389648</ele>
        <time>2021-03-06T16:17:24.000Z</time>
      </trkpt>
      <trkpt lat="45.58152" lon="4.23406">
        <ele>357.39999389648</ele>
        <time>2021-03-06T16:17:25.000Z</time>
      </trkpt>
      <trkpt lat="45.5816" lon="4.23489">
        <ele>357</ele>
        <time>2021-03-06T16:17:32.000Z</time>
      </trkpt>
      <trkpt lat="45.58162" lon="4.23512">
        <ele>357</ele>
        <time>2021-03-06T16:17:34.000Z</time>
      </trkpt>
      <trkpt lat="45.58167" lon="4.23541">
        <ele>356.39999389648</ele>
        <time>2021-03-06T16:17:37.000Z</time>
      </trkpt>
      <trkpt lat="45.5817" lon="4.23548">
        <ele>356.20001220703</ele>
        <time>2021-03-06T16:17:38.000Z</time>
      </trkpt>
      <trkpt lat="45.58179" lon="4.23557">
        <ele>356</ele>
        <time>2021-03-06T16:17:40.000Z</time>
      </trkpt>
      <trkpt lat="45.58185" lon="4.23559">
        <ele>356</ele>
        <time>2021-03-06T16:17:41.000Z</time>
      </trkpt>
      <trkpt lat="45.58191" lon="4.23563">
        <ele>355.79998779297</ele>
        <time>2021-03-06T16:17:42.000Z</time>
      </trkpt>
      <trkpt lat="45.58196" lon="4.2357">
        <ele>355.60000610352</ele>
        <time>2021-03-06T16:17:43.000Z</time>
      </trkpt>
      <trkpt lat="45.58199" lon="4.23578">
        <ele>355.20001220703</ele>
        <time>2021-03-06T16:17:44.000Z</time>
      </trkpt>
      <trkpt lat="45.58202" lon="4.23599">
        <ele>354.60000610352</ele>
        <time>2021-03-06T16:17:46.000Z</time>
      </trkpt>
      <trkpt lat="45.58205" lon="4.2364">
        <ele>353.39999389648</ele>
        <time>2021-03-06T16:17:49.000Z</time>
      </trkpt>
      <trkpt lat="45.58205" lon="4.23654">
        <ele>353</ele>
        <time>2021-03-06T16:17:50.000Z</time>
      </trkpt>
      <trkpt lat="45.58206" lon="4.23669">
        <ele>352.39999389648</ele>
        <time>2021-03-06T16:17:51.000Z</time>
      </trkpt>
      <trkpt lat="45.58209" lon="4.23713">
        <ele>351.20001220703</ele>
        <time>2021-03-06T16:17:54.000Z</time>
      </trkpt>
      <trkpt lat="45.58211" lon="4.23742">
        <ele>350.79998779297</ele>
        <time>2021-03-06T16:17:56.000Z</time>
      </trkpt>
      <trkpt lat="45.58217" lon="4.2382">
        <ele>350.79998779297</ele>
        <time>2021-03-06T16:18:02.000Z</time>
      </trkpt>
      <trkpt lat="45.58223" lon="4.23906">
        <ele>351</ele>
        <time>2021-03-06T16:18:09.000Z</time>
      </trkpt>
      <trkpt lat="45.58229" lon="4.23989">
        <ele>351</ele>
        <time>2021-03-06T16:18:16.000Z</time>
      </trkpt>
      <trkpt lat="45.5823" lon="4.24013">
        <ele>351</ele>
        <time>2021-03-06T16:18:18.000Z</time>
      </trkpt>
      <trkpt lat="45.58237" lon="4.24097">
        <ele>351.20001220703</ele>
        <time>2021-03-06T16:18:25.000Z</time>
      </trkpt>
      <trkpt lat="45.58238" lon="4.24121">
        <ele>351.20001220703</ele>
        <time>2021-03-06T16:18:27.000Z</time>
      </trkpt>
      <trkpt lat="45.58244" lon="4.24204">
        <ele>350.79998779297</ele>
        <time>2021-03-06T16:18:34.000Z</time>
      </trkpt>
      <trkpt lat="45.58246" lon="4.24227">
        <ele>350.79998779297</ele>
        <time>2021-03-06T16:18:36.000Z</time>
      </trkpt>
      <trkpt lat="45.58252" lon="4.24288">
        <ele>350</ele>
        <time>2021-03-06T16:18:41.000Z</time>
      </trkpt>
      <trkpt lat="45.5826" lon="4.24336">
        <ele>349.60000610352</ele>
        <time>2021-03-06T16:18:45.000Z</time>
      </trkpt>
      <trkpt lat="45.58275" lon="4.24374">
        <ele>349.60000610352</ele>
        <time>2021-03-06T16:18:49.000Z</time>
      </trkpt>
      <trkpt lat="45.58297" lon="4.24402">
        <ele>350.39999389648</ele>
        <time>2021-03-06T16:18:53.000Z</time>
      </trkpt>
      <trkpt lat="45.58311" lon="4.24411">
        <ele>351</ele>
        <time>2021-03-06T16:18:55.000Z</time>
      </trkpt>
      <trkpt lat="45.58317" lon="4.24415">
        <ele>351.39999389648</ele>
        <time>2021-03-06T16:18:56.000Z</time>
      </trkpt>
      <trkpt lat="45.5833" lon="4.24423">
        <ele>351.79998779297</ele>
        <time>2021-03-06T16:18:58.000Z</time>
      </trkpt>
      <trkpt lat="45.58344" lon="4.24432">
        <ele>352.39999389648</ele>
        <time>2021-03-06T16:19:00.000Z</time>
      </trkpt>
      <trkpt lat="45.58357" lon="4.2444">
        <ele>353.39999389648</ele>
        <time>2021-03-06T16:19:02.000Z</time>
      </trkpt>
      <trkpt lat="45.58376" lon="4.24452">
        <ele>354.60000610352</ele>
        <time>2021-03-06T16:19:05.000Z</time>
      </trkpt>
      <trkpt lat="45.58418" lon="4.24479">
        <ele>355.39999389648</ele>
        <time>2021-03-06T16:19:12.000Z</time>
      </trkpt>
      <trkpt lat="45.5847" lon="4.24512">
        <ele>354.79998779297</ele>
        <time>2021-03-06T16:19:20.000Z</time>
      </trkpt>
      <trkpt lat="45.58477" lon="4.24517">
        <ele>354.39999389648</ele>
        <time>2021-03-06T16:19:21.000Z</time>
      </trkpt>
      <trkpt lat="45.58484" lon="4.24523">
        <ele>354.20001220703</ele>
        <time>2021-03-06T16:19:22.000Z</time>
      </trkpt>
      <trkpt lat="45.58504" lon="4.24547">
        <ele>353.39999389648</ele>
        <time>2021-03-06T16:19:25.000Z</time>
      </trkpt>
      <trkpt lat="45.58515" lon="4.24568">
        <ele>352.20001220703</ele>
        <time>2021-03-06T16:19:27.000Z</time>
      </trkpt>
      <trkpt lat="45.58523" lon="4.24593">
        <ele>351.39999389648</ele>
        <time>2021-03-06T16:19:29.000Z</time>
      </trkpt>
      <trkpt lat="45.58527" lon="4.24605">
        <ele>351</ele>
        <time>2021-03-06T16:19:30.000Z</time>
      </trkpt>
      <trkpt lat="45.58545" lon="4.2465">
        <ele>350.20001220703</ele>
        <time>2021-03-06T16:19:34.000Z</time>
      </trkpt>
      <trkpt lat="45.58564" lon="4.247">
        <ele>350.60000610352</ele>
        <time>2021-03-06T16:19:39.000Z</time>
      </trkpt>
      <trkpt lat="45.58586" lon="4.24754">
        <ele>351</ele>
        <time>2021-03-06T16:19:45.000Z</time>
      </trkpt>
      <trkpt lat="45.58602" lon="4.24792">
        <ele>351</ele>
        <time>2021-03-06T16:19:49.000Z</time>
      </trkpt>
      <trkpt lat="45.58608" lon="4.24801">
        <ele>351.20001220703</ele>
        <time>2021-03-06T16:19:50.000Z</time>
      </trkpt>
      <trkpt lat="45.58613" lon="4.24806">
        <ele>351</ele>
        <time>2021-03-06T16:19:51.000Z</time>
      </trkpt>
      <trkpt lat="45.58636" lon="4.24818">
        <ele>351</ele>
        <time>2021-03-06T16:19:54.000Z</time>
      </trkpt>
      <trkpt lat="45.58658" lon="4.2483">
        <ele>350.79998779297</ele>
        <time>2021-03-06T16:19:57.000Z</time>
      </trkpt>
      <trkpt lat="45.5867" lon="4.24843">
        <ele>350.60000610352</ele>
        <time>2021-03-06T16:19:59.000Z</time>
      </trkpt>
      <trkpt lat="45.58678" lon="4.24862">
        <ele>350.39999389648</ele>
        <time>2021-03-06T16:20:01.000Z</time>
      </trkpt>
      <trkpt lat="45.5868" lon="4.24873">
        <ele>350.39999389648</ele>
        <time>2021-03-06T16:20:02.000Z</time>
      </trkpt>
      <trkpt lat="45.58688" lon="4.2494">
        <ele>350.39999389648</ele>
        <time>2021-03-06T16:20:08.000Z</time>
      </trkpt>
      <trkpt lat="45.58697" lon="4.25018">
        <ele>350.79998779297</ele>
        <time>2021-03-06T16:20:15.000Z</time>
      </trkpt>
      <trkpt lat="45.58698" lon="4.25029">
        <ele>350.79998779297</ele>
        <time>2021-03-06T16:20:16.000Z</time>
      </trkpt>
      <trkpt lat="45.58704" lon="4.25108">
        <ele>351.20001220703</ele>
        <time>2021-03-06T16:20:23.000Z</time>
      </trkpt>
      <trkpt lat="45.58708" lon="4.25165">
        <ele>351</ele>
        <time>2021-03-06T16:20:28.000Z</time>
      </trkpt>
      <trkpt lat="45.5871" lon="4.25247">
        <ele>350.39999389648</ele>
        <time>2021-03-06T16:20:35.000Z</time>
      </trkpt>
      <trkpt lat="45.58711" lon="4.25259">
        <ele>350.39999389648</ele>
        <time>2021-03-06T16:20:36.000Z</time>
      </trkpt>
      <trkpt lat="45.58722" lon="4.25337">
        <ele>350.60000610352</ele>
        <time>2021-03-06T16:20:43.000Z</time>
      </trkpt>
      <trkpt lat="45.58723" lon="4.25348">
        <ele>350.60000610352</ele>
        <time>2021-03-06T16:20:44.000Z</time>
      </trkpt>
      <trkpt lat="45.5873" lon="4.25433">
        <ele>351</ele>
        <time>2021-03-06T16:20:52.000Z</time>
      </trkpt>
      <trkpt lat="45.58732" lon="4.25454">
        <ele>350.79998779297</ele>
        <time>2021-03-06T16:20:54.000Z</time>
      </trkpt>
      <trkpt lat="45.58738" lon="4.25539">
        <ele>351.39999389648</ele>
        <time>2021-03-06T16:21:02.000Z</time>
      </trkpt>
      <trkpt lat="45.5874" lon="4.25571">
        <ele>351.39999389648</ele>
        <time>2021-03-06T16:21:05.000Z</time>
      </trkpt>
      <trkpt lat="45.58743" lon="4.25656">
        <ele>351.60000610352</ele>
        <time>2021-03-06T16:21:13.000Z</time>
      </trkpt>
      <trkpt lat="45.58743" lon="4.25678">
        <ele>351.60000610352</ele>
        <time>2021-03-06T16:21:15.000Z</time>
      </trkpt>
      <trkpt lat="45.58746" lon="4.25755">
        <ele>351.60000610352</ele>
        <time>2021-03-06T16:21:22.000Z</time>
      </trkpt>
      <trkpt lat="45.5875" lon="4.25834">
        <ele>351.39999389648</ele>
        <time>2021-03-06T16:21:29.000Z</time>
      </trkpt>
      <trkpt lat="45.58752" lon="4.25856">
        <ele>351.39999389648</ele>
        <time>2021-03-06T16:21:31.000Z</time>
      </trkpt>
      <trkpt lat="45.58759" lon="4.25933">
        <ele>351.60000610352</ele>
        <time>2021-03-06T16:21:38.000Z</time>
      </trkpt>
      <trkpt lat="45.58761" lon="4.25956">
        <ele>351.60000610352</ele>
        <time>2021-03-06T16:21:40.000Z</time>
      </trkpt>
      <trkpt lat="45.58768" lon="4.26033">
        <ele>351.60000610352</ele>
        <time>2021-03-06T16:21:47.000Z</time>
      </trkpt>
      <trkpt lat="45.58773" lon="4.26078">
        <ele>351.39999389648</ele>
        <time>2021-03-06T16:21:51.000Z</time>
      </trkpt>
      <trkpt lat="45.58778" lon="4.26145">
        <ele>351.79998779297</ele>
        <time>2021-03-06T16:21:57.000Z</time>
      </trkpt>
      <trkpt lat="45.58783" lon="4.262">
        <ele>352</ele>
        <time>2021-03-06T16:22:02.000Z</time>
      </trkpt>
      <trkpt lat="45.58784" lon="4.26221">
        <ele>352.20001220703</ele>
        <time>2021-03-06T16:22:04.000Z</time>
      </trkpt>
      <trkpt lat="45.58787" lon="4.26282">
        <ele>353</ele>
        <time>2021-03-06T16:22:10.000Z</time>
      </trkpt>
      <trkpt lat="45.58786" lon="4.26291">
        <ele>353.39999389648</ele>
        <time>2021-03-06T16:22:11.000Z</time>
      </trkpt>
      <trkpt lat="45.58782" lon="4.26329">
        <ele>354.39999389648</ele>
        <time>2021-03-06T16:22:16.000Z</time>
      </trkpt>
      <trkpt lat="45.5878" lon="4.26336">
        <ele>354.60000610352</ele>
        <time>2021-03-06T16:22:17.000Z</time>
      </trkpt>
      <trkpt lat="45.58772" lon="4.26362">
        <ele>355.60000610352</ele>
        <time>2021-03-06T16:22:21.000Z</time>
      </trkpt>
      <trkpt lat="45.5877" lon="4.26368">
        <ele>356.39999389648</ele>
        <time>2021-03-06T16:22:22.000Z</time>
      </trkpt>
      <trkpt lat="45.58767" lon="4.26374">
        <ele>356.60000610352</ele>
        <time>2021-03-06T16:22:23.000Z</time>
      </trkpt>
      <trkpt lat="45.58762" lon="4.26384">
        <ele>357.79998779297</ele>
        <time>2021-03-06T16:22:25.000Z</time>
      </trkpt>
      <trkpt lat="45.5875" lon="4.26404">
        <ele>358.79998779297</ele>
        <time>2021-03-06T16:22:29.000Z</time>
      </trkpt>
      <trkpt lat="45.58747" lon="4.26408">
        <ele>359</ele>
        <time>2021-03-06T16:22:30.000Z</time>
      </trkpt>
      <trkpt lat="45.58737" lon="4.2642">
        <ele>360</ele>
        <time>2021-03-06T16:22:33.000Z</time>
      </trkpt>
      <trkpt lat="45.58727" lon="4.26431">
        <ele>361</ele>
        <time>2021-03-06T16:22:36.000Z</time>
      </trkpt>
      <trkpt lat="45.5872" lon="4.26438">
        <ele>361.60000610352</ele>
        <time>2021-03-06T16:22:38.000Z</time>
      </trkpt>
      <trkpt lat="45.58712" lon="4.26444">
        <ele>362.20001220703</ele>
        <time>2021-03-06T16:22:40.000Z</time>
      </trkpt>
      <trkpt lat="45.58691" lon="4.26457">
        <ele>363.39999389648</ele>
        <time>2021-03-06T16:22:45.000Z</time>
      </trkpt>
      <trkpt lat="45.58679" lon="4.26463">
        <ele>364.39999389648</ele>
        <time>2021-03-06T16:22:48.000Z</time>
      </trkpt>
      <trkpt lat="45.58675" lon="4.26465">
        <ele>364.60000610352</ele>
        <time>2021-03-06T16:22:49.000Z</time>
      </trkpt>
      <trkpt lat="45.58658" lon="4.26474">
        <ele>365.79998779297</ele>
        <time>2021-03-06T16:22:53.000Z</time>
      </trkpt>
      <trkpt lat="45.58638" lon="4.26483">
        <ele>367</ele>
        <time>2021-03-06T16:22:58.000Z</time>
      </trkpt>
      <trkpt lat="45.58622" lon="4.26492">
        <ele>368.20001220703</ele>
        <time>2021-03-06T16:23:02.000Z</time>
      </trkpt>
      <trkpt lat="45.58606" lon="4.26502">
        <ele>369.20001220703</ele>
        <time>2021-03-06T16:23:06.000Z</time>
      </trkpt>
      <trkpt lat="45.58589" lon="4.26511">
        <ele>370.39999389648</ele>
        <time>2021-03-06T16:23:10.000Z</time>
      </trkpt>
      <trkpt lat="45.58573" lon="4.2652">
        <ele>371.39999389648</ele>
        <time>2021-03-06T16:23:14.000Z</time>
      </trkpt>
      <trkpt lat="45.58556" lon="4.2653">
        <ele>372.60000610352</ele>
        <time>2021-03-06T16:23:18.000Z</time>
      </trkpt>
      <trkpt lat="45.58541" lon="4.26537">
        <ele>373.39999389648</ele>
        <time>2021-03-06T16:23:21.000Z</time>
      </trkpt>
      <trkpt lat="45.58537" lon="4.26539">
        <ele>373.60000610352</ele>
        <time>2021-03-06T16:23:22.000Z</time>
      </trkpt>
      <trkpt lat="45.58521" lon="4.26549">
        <ele>375</ele>
        <time>2021-03-06T16:23:26.000Z</time>
      </trkpt>
      <trkpt lat="45.58508" lon="4.2656">
        <ele>375.60000610352</ele>
        <time>2021-03-06T16:23:29.000Z</time>
      </trkpt>
      <trkpt lat="45.58505" lon="4.26563">
        <ele>376</ele>
        <time>2021-03-06T16:23:30.000Z</time>
      </trkpt>
      <trkpt lat="45.58488" lon="4.26585">
        <ele>377.20001220703</ele>
        <time>2021-03-06T16:23:35.000Z</time>
      </trkpt>
      <trkpt lat="45.58484" lon="4.26589">
        <ele>377.39999389648</ele>
        <time>2021-03-06T16:23:36.000Z</time>
      </trkpt>
      <trkpt lat="45.58468" lon="4.26616">
        <ele>378.20001220703</ele>
        <time>2021-03-06T16:23:41.000Z</time>
      </trkpt>
      <trkpt lat="45.58458" lon="4.26636">
        <ele>379</ele>
        <time>2021-03-06T16:23:44.000Z</time>
      </trkpt>
      <trkpt lat="45.5845" lon="4.26657">
        <ele>379.20001220703</ele>
        <time>2021-03-06T16:23:47.000Z</time>
      </trkpt>
      <trkpt lat="45.58441" lon="4.26689">
        <ele>379.39999389648</ele>
        <time>2021-03-06T16:23:51.000Z</time>
      </trkpt>
      <trkpt lat="45.58433" lon="4.26737">
        <ele>379.60000610352</ele>
        <time>2021-03-06T16:23:56.000Z</time>
      </trkpt>
      <trkpt lat="45.58421" lon="4.26822">
        <ele>379.39999389648</ele>
        <time>2021-03-06T16:24:04.000Z</time>
      </trkpt>
      <trkpt lat="45.58407" lon="4.26904">
        <ele>379.20001220703</ele>
        <time>2021-03-06T16:24:12.000Z</time>
      </trkpt>
      <trkpt lat="45.58391" lon="4.26951">
        <ele>379.20001220703</ele>
        <time>2021-03-06T16:24:17.000Z</time>
      </trkpt>
      <trkpt lat="45.5838" lon="4.26989">
        <ele>379.39999389648</ele>
        <time>2021-03-06T16:24:21.000Z</time>
      </trkpt>
      <trkpt lat="45.58378" lon="4.27009">
        <ele>379.60000610352</ele>
        <time>2021-03-06T16:24:23.000Z</time>
      </trkpt>
      <trkpt lat="45.58384" lon="4.2703">
        <ele>379.79998779297</ele>
        <time>2021-03-06T16:24:25.000Z</time>
      </trkpt>
      <trkpt lat="45.58387" lon="4.27037">
        <ele>379.79998779297</ele>
        <time>2021-03-06T16:24:26.000Z</time>
      </trkpt>
      <trkpt lat="45.58389" lon="4.27047">
        <ele>379.79998779297</ele>
        <time>2021-03-06T16:24:27.000Z</time>
      </trkpt>
      <trkpt lat="45.58391" lon="4.27068">
        <ele>379.60000610352</ele>
        <time>2021-03-06T16:24:29.000Z</time>
      </trkpt>
      <trkpt lat="45.58379" lon="4.27135">
        <ele>379.60000610352</ele>
        <time>2021-03-06T16:24:35.000Z</time>
      </trkpt>
      <trkpt lat="45.58367" lon="4.27214">
        <ele>379.20001220703</ele>
        <time>2021-03-06T16:24:42.000Z</time>
      </trkpt>
      <trkpt lat="45.58363" lon="4.27238">
        <ele>379</ele>
        <time>2021-03-06T16:24:44.000Z</time>
      </trkpt>
      <trkpt lat="45.58354" lon="4.27317">
        <ele>379.20001220703</ele>
        <time>2021-03-06T16:24:51.000Z</time>
      </trkpt>
      <trkpt lat="45.58353" lon="4.27339">
        <ele>379.20001220703</ele>
        <time>2021-03-06T16:24:53.000Z</time>
      </trkpt>
      <trkpt lat="45.58351" lon="4.27416">
        <ele>379</ele>
        <time>2021-03-06T16:25:00.000Z</time>
      </trkpt>
      <trkpt lat="45.5835" lon="4.27427">
        <ele>379</ele>
        <time>2021-03-06T16:25:01.000Z</time>
      </trkpt>
      <trkpt lat="45.5835" lon="4.27505">
        <ele>379.20001220703</ele>
        <time>2021-03-06T16:25:08.000Z</time>
      </trkpt>
      <trkpt lat="45.58351" lon="4.27548">
        <ele>379.20001220703</ele>
        <time>2021-03-06T16:25:12.000Z</time>
      </trkpt>
      <trkpt lat="45.58357" lon="4.27627">
        <ele>378.60000610352</ele>
        <time>2021-03-06T16:25:19.000Z</time>
      </trkpt>
      <trkpt lat="45.58359" lon="4.27661">
        <ele>378.60000610352</ele>
        <time>2021-03-06T16:25:22.000Z</time>
      </trkpt>
      <trkpt lat="45.58365" lon="4.27741">
        <ele>378.79998779297</ele>
        <time>2021-03-06T16:25:29.000Z</time>
      </trkpt>
      <trkpt lat="45.58367" lon="4.27763">
        <ele>378.60000610352</ele>
        <time>2021-03-06T16:25:31.000Z</time>
      </trkpt>
      <trkpt lat="45.58371" lon="4.27817">
        <ele>378.60000610352</ele>
        <time>2021-03-06T16:25:36.000Z</time>
      </trkpt>
      <trkpt lat="45.58377" lon="4.27898">
        <ele>378.79998779297</ele>
        <time>2021-03-06T16:25:43.000Z</time>
      </trkpt>
      <trkpt lat="45.58378" lon="4.2791">
        <ele>378.60000610352</ele>
        <time>2021-03-06T16:25:44.000Z</time>
      </trkpt>
      <trkpt lat="45.58382" lon="4.27953">
        <ele>378.20001220703</ele>
        <time>2021-03-06T16:25:48.000Z</time>
      </trkpt>
      <trkpt lat="45.58383" lon="4.27974">
        <ele>378</ele>
        <time>2021-03-06T16:25:50.000Z</time>
      </trkpt>
      <trkpt lat="45.58389" lon="4.28048">
        <ele>378.79998779297</ele>
        <time>2021-03-06T16:25:57.000Z</time>
      </trkpt>
      <trkpt lat="45.58395" lon="4.28125">
        <ele>378.79998779297</ele>
        <time>2021-03-06T16:26:04.000Z</time>
      </trkpt>
      <trkpt lat="45.58398" lon="4.28161">
        <ele>379</ele>
        <time>2021-03-06T16:26:07.000Z</time>
      </trkpt>
      <trkpt lat="45.584" lon="4.28192">
        <ele>379.20001220703</ele>
        <time>2021-03-06T16:26:10.000Z</time>
      </trkpt>
      <trkpt lat="45.58405" lon="4.28246">
        <ele>379.20001220703</ele>
        <time>2021-03-06T16:26:15.000Z</time>
      </trkpt>
      <trkpt lat="45.5841" lon="4.28326">
        <ele>379.20001220703</ele>
        <time>2021-03-06T16:26:22.000Z</time>
      </trkpt>
      <trkpt lat="45.58413" lon="4.28357">
        <ele>379.20001220703</ele>
        <time>2021-03-06T16:26:25.000Z</time>
      </trkpt>
      <trkpt lat="45.58419" lon="4.28436">
        <ele>379</ele>
        <time>2021-03-06T16:26:32.000Z</time>
      </trkpt>
      <trkpt lat="45.58424" lon="4.28493">
        <ele>378.79998779297</ele>
        <time>2021-03-06T16:26:37.000Z</time>
      </trkpt>
      <trkpt lat="45.58426" lon="4.28528">
        <ele>377.79998779297</ele>
        <time>2021-03-06T16:26:40.000Z</time>
      </trkpt>
      <trkpt lat="45.5843" lon="4.28576">
        <ele>376.60000610352</ele>
        <time>2021-03-06T16:26:44.000Z</time>
      </trkpt>
      <trkpt lat="45.58432" lon="4.286">
        <ele>375.60000610352</ele>
        <time>2021-03-06T16:26:46.000Z</time>
      </trkpt>
      <trkpt lat="45.58433" lon="4.28612">
        <ele>375.20001220703</ele>
        <time>2021-03-06T16:26:47.000Z</time>
      </trkpt>
      <trkpt lat="45.58436" lon="4.28661">
        <ele>374.39999389648</ele>
        <time>2021-03-06T16:26:51.000Z</time>
      </trkpt>
      <trkpt lat="45.58437" lon="4.28674">
        <ele>374</ele>
        <time>2021-03-06T16:26:52.000Z</time>
      </trkpt>
      <trkpt lat="45.58439" lon="4.287">
        <ele>373</ele>
        <time>2021-03-06T16:26:54.000Z</time>
      </trkpt>
      <trkpt lat="45.58442" lon="4.28727">
        <ele>372</ele>
        <time>2021-03-06T16:26:56.000Z</time>
      </trkpt>
      <trkpt lat="45.58446" lon="4.28783">
        <ele>370.60000610352</ele>
        <time>2021-03-06T16:27:00.000Z</time>
      </trkpt>
      <trkpt lat="45.58448" lon="4.28811">
        <ele>369.79998779297</ele>
        <time>2021-03-06T16:27:02.000Z</time>
      </trkpt>
      <trkpt lat="45.58451" lon="4.28838">
        <ele>369.20001220703</ele>
        <time>2021-03-06T16:27:04.000Z</time>
      </trkpt>
      <trkpt lat="45.58457" lon="4.28915">
        <ele>368.79998779297</ele>
        <time>2021-03-06T16:27:10.000Z</time>
      </trkpt>
      <trkpt lat="45.58461" lon="4.28979">
        <ele>369.79998779297</ele>
        <time>2021-03-06T16:27:16.000Z</time>
      </trkpt>
      <trkpt lat="45.58462" lon="4.28997">
        <ele>370.39999389648</ele>
        <time>2021-03-06T16:27:18.000Z</time>
      </trkpt>
      <trkpt lat="45.58464" lon="4.29023">
        <ele>372</ele>
        <time>2021-03-06T16:27:21.000Z</time>
      </trkpt>
      <trkpt lat="45.58465" lon="4.29031">
        <ele>372.20001220703</ele>
        <time>2021-03-06T16:27:22.000Z</time>
      </trkpt>
      <trkpt lat="45.58468" lon="4.29055">
        <ele>373.20001220703</ele>
        <time>2021-03-06T16:27:25.000Z</time>
      </trkpt>
      <trkpt lat="45.58472" lon="4.29097">
        <ele>374.60000610352</ele>
        <time>2021-03-06T16:27:30.000Z</time>
      </trkpt>
      <trkpt lat="45.58474" lon="4.29122">
        <ele>375.79998779297</ele>
        <time>2021-03-06T16:27:33.000Z</time>
      </trkpt>
      <trkpt lat="45.58476" lon="4.29155">
        <ele>376.79998779297</ele>
        <time>2021-03-06T16:27:37.000Z</time>
      </trkpt>
      <trkpt lat="45.58482" lon="4.29241">
        <ele>377.79998779297</ele>
        <time>2021-03-06T16:27:47.000Z</time>
      </trkpt>
      <trkpt lat="45.58483" lon="4.2925">
        <ele>377.79998779297</ele>
        <time>2021-03-06T16:27:48.000Z</time>
      </trkpt>
      <trkpt lat="45.58486" lon="4.29327">
        <ele>378</ele>
        <time>2021-03-06T16:27:56.000Z</time>
      </trkpt>
      <trkpt lat="45.58486" lon="4.29337">
        <ele>378.20001220703</ele>
        <time>2021-03-06T16:27:57.000Z</time>
      </trkpt>
      <trkpt lat="45.58477" lon="4.29418">
        <ele>378.60000610352</ele>
        <time>2021-03-06T16:28:05.000Z</time>
      </trkpt>
      <trkpt lat="45.58466" lon="4.29487">
        <ele>378.60000610352</ele>
        <time>2021-03-06T16:28:12.000Z</time>
      </trkpt>
      <trkpt lat="45.5846" lon="4.29538">
        <ele>378.79998779297</ele>
        <time>2021-03-06T16:28:17.000Z</time>
      </trkpt>
      <trkpt lat="45.58451" lon="4.296">
        <ele>379.20001220703</ele>
        <time>2021-03-06T16:28:23.000Z</time>
      </trkpt>
      <trkpt lat="45.58441" lon="4.29678">
        <ele>379.79998779297</ele>
        <time>2021-03-06T16:28:31.000Z</time>
      </trkpt>
      <trkpt lat="45.5844" lon="4.29687">
        <ele>379.79998779297</ele>
        <time>2021-03-06T16:28:32.000Z</time>
      </trkpt>
      <trkpt lat="45.58437" lon="4.29705">
        <ele>380</ele>
        <time>2021-03-06T16:28:34.000Z</time>
      </trkpt>
      <trkpt lat="45.58434" lon="4.29752">
        <ele>380.39999389648</ele>
        <time>2021-03-06T16:28:39.000Z</time>
      </trkpt>
      <trkpt lat="45.58437" lon="4.29781">
        <ele>380.39999389648</ele>
        <time>2021-03-06T16:28:42.000Z</time>
      </trkpt>
      <trkpt lat="45.5844" lon="4.29791">
        <ele>380.39999389648</ele>
        <time>2021-03-06T16:28:43.000Z</time>
      </trkpt>
      <trkpt lat="45.58462" lon="4.29844">
        <ele>380.60000610352</ele>
        <time>2021-03-06T16:28:49.000Z</time>
      </trkpt>
      <trkpt lat="45.58474" lon="4.29869">
        <ele>381</ele>
        <time>2021-03-06T16:28:52.000Z</time>
      </trkpt>
      <trkpt lat="45.58497" lon="4.2992">
        <ele>381.20001220703</ele>
        <time>2021-03-06T16:28:58.000Z</time>
      </trkpt>
      <trkpt lat="45.58508" lon="4.29948">
        <ele>381.20001220703</ele>
        <time>2021-03-06T16:29:01.000Z</time>
      </trkpt>
      <trkpt lat="45.58511" lon="4.29969">
        <ele>381.39999389648</ele>
        <time>2021-03-06T16:29:03.000Z</time>
      </trkpt>
      <trkpt lat="45.58512" lon="4.29979">
        <ele>381.39999389648</ele>
        <time>2021-03-06T16:29:04.000Z</time>
      </trkpt>
      <trkpt lat="45.58512" lon="4.30001">
        <ele>381.39999389648</ele>
        <time>2021-03-06T16:29:06.000Z</time>
      </trkpt>
      <trkpt lat="45.58511" lon="4.30011">
        <ele>381.39999389648</ele>
        <time>2021-03-06T16:29:07.000Z</time>
      </trkpt>
      <trkpt lat="45.58507" lon="4.30032">
        <ele>381.39999389648</ele>
        <time>2021-03-06T16:29:09.000Z</time>
      </trkpt>
      <trkpt lat="45.585" lon="4.30051">
        <ele>381.39999389648</ele>
        <time>2021-03-06T16:29:11.000Z</time>
      </trkpt>
      <trkpt lat="45.58474" lon="4.30127">
        <ele>381.79998779297</ele>
        <time>2021-03-06T16:29:19.000Z</time>
      </trkpt>
      <trkpt lat="45.58467" lon="4.30146">
        <ele>381.79998779297</ele>
        <time>2021-03-06T16:29:21.000Z</time>
      </trkpt>
      <trkpt lat="45.5846" lon="4.30166">
        <ele>382</ele>
        <time>2021-03-06T16:29:23.000Z</time>
      </trkpt>
      <trkpt lat="45.58437" lon="4.30232">
        <ele>382.39999389648</ele>
        <time>2021-03-06T16:29:30.000Z</time>
      </trkpt>
      <trkpt lat="45.58411" lon="4.30303">
        <ele>382.39999389648</ele>
        <time>2021-03-06T16:29:38.000Z</time>
      </trkpt>
      <trkpt lat="45.58407" lon="4.30312">
        <ele>382.39999389648</ele>
        <time>2021-03-06T16:29:39.000Z</time>
      </trkpt>
      <trkpt lat="45.58382" lon="4.30384">
        <ele>382.60000610352</ele>
        <time>2021-03-06T16:29:47.000Z</time>
      </trkpt>
      <trkpt lat="45.58378" lon="4.30395">
        <ele>382.60000610352</ele>
        <time>2021-03-06T16:29:48.000Z</time>
      </trkpt>
      <trkpt lat="45.58359" lon="4.30461">
        <ele>382.60000610352</ele>
        <time>2021-03-06T16:29:55.000Z</time>
      </trkpt>
      <trkpt lat="45.58348" lon="4.30518">
        <ele>382.20001220703</ele>
        <time>2021-03-06T16:30:01.000Z</time>
      </trkpt>
      <trkpt lat="45.58346" lon="4.30568">
        <ele>382.20001220703</ele>
        <time>2021-03-06T16:30:07.000Z</time>
      </trkpt>
      <trkpt lat="45.58347" lon="4.30598">
        <ele>382.20001220703</ele>
        <time>2021-03-06T16:30:12.000Z</time>
      </trkpt>
      <trkpt lat="45.5835" lon="4.30625">
        <ele>382.39999389648</ele>
        <time>2021-03-06T16:30:17.000Z</time>
      </trkpt>
      <trkpt lat="45.58356" lon="4.30668">
        <ele>382.60000610352</ele>
        <time>2021-03-06T16:30:23.000Z</time>
      </trkpt>
      <trkpt lat="45.58356" lon="4.3069">
        <ele>382.79998779297</ele>
        <time>2021-03-06T16:30:26.000Z</time>
      </trkpt>
      <trkpt lat="45.58349" lon="4.30703">
        <ele>382.79998779297</ele>
        <time>2021-03-06T16:30:28.000Z</time>
      </trkpt>
      <trkpt lat="45.58332" lon="4.30715">
        <ele>382.79998779297</ele>
        <time>2021-03-06T16:30:31.000Z</time>
      </trkpt>
      <trkpt lat="45.58327" lon="4.30719">
        <ele>382.79998779297</ele>
        <time>2021-03-06T16:30:32.000Z</time>
      </trkpt>
      <trkpt lat="45.58323" lon="4.30726">
        <ele>382.79998779297</ele>
        <time>2021-03-06T16:30:33.000Z</time>
      </trkpt>
      <trkpt lat="45.58321" lon="4.30744">
        <ele>383</ele>
        <time>2021-03-06T16:30:35.000Z</time>
      </trkpt>
      <trkpt lat="45.58327" lon="4.3076">
        <ele>382.79998779297</ele>
        <time>2021-03-06T16:30:37.000Z</time>
      </trkpt>
      <trkpt lat="45.58332" lon="4.30764">
        <ele>382.79998779297</ele>
        <time>2021-03-06T16:30:38.000Z</time>
      </trkpt>
      <trkpt lat="45.58343" lon="4.30772">
        <ele>382.79998779297</ele>
        <time>2021-03-06T16:30:40.000Z</time>
      </trkpt>
      <trkpt lat="45.58352" lon="4.30783">
        <ele>382.60000610352</ele>
        <time>2021-03-06T16:30:42.000Z</time>
      </trkpt>
      <trkpt lat="45.58365" lon="4.30822">
        <ele>382.39999389648</ele>
        <time>2021-03-06T16:30:47.000Z</time>
      </trkpt>
      <trkpt lat="45.58382" lon="4.30866">
        <ele>382.60000610352</ele>
        <time>2021-03-06T16:30:52.000Z</time>
      </trkpt>
      <trkpt lat="45.58389" lon="4.30885">
        <ele>382.79998779297</ele>
        <time>2021-03-06T16:30:54.000Z</time>
      </trkpt>
      <trkpt lat="45.58392" lon="4.30904">
        <ele>382.60000610352</ele>
        <time>2021-03-06T16:30:56.000Z</time>
      </trkpt>
      <trkpt lat="45.58387" lon="4.30923">
        <ele>382.60000610352</ele>
        <time>2021-03-06T16:30:58.000Z</time>
      </trkpt>
      <trkpt lat="45.58383" lon="4.30931">
        <ele>382.60000610352</ele>
        <time>2021-03-06T16:30:59.000Z</time>
      </trkpt>
      <trkpt lat="45.5838" lon="4.3094">
        <ele>382.60000610352</ele>
        <time>2021-03-06T16:31:00.000Z</time>
      </trkpt>
      <trkpt lat="45.58377" lon="4.3096">
        <ele>382.60000610352</ele>
        <time>2021-03-06T16:31:02.000Z</time>
      </trkpt>
      <trkpt lat="45.5837" lon="4.31047">
        <ele>382.39999389648</ele>
        <time>2021-03-06T16:31:10.000Z</time>
      </trkpt>
      <trkpt lat="45.58368" lon="4.31069">
        <ele>382.39999389648</ele>
        <time>2021-03-06T16:31:12.000Z</time>
      </trkpt>
      <trkpt lat="45.58355" lon="4.31135">
        <ele>382.39999389648</ele>
        <time>2021-03-06T16:31:18.000Z</time>
      </trkpt>
      <trkpt lat="45.58332" lon="4.31202">
        <ele>382.39999389648</ele>
        <time>2021-03-06T16:31:25.000Z</time>
      </trkpt>
      <trkpt lat="45.58304" lon="4.31277">
        <ele>383.20001220703</ele>
        <time>2021-03-06T16:31:33.000Z</time>
      </trkpt>
      <trkpt lat="45.58301" lon="4.31286">
        <ele>383.20001220703</ele>
        <time>2021-03-06T16:31:34.000Z</time>
      </trkpt>
      <trkpt lat="45.58281" lon="4.31349">
        <ele>384</ele>
        <time>2021-03-06T16:31:41.000Z</time>
      </trkpt>
      <trkpt lat="45.58276" lon="4.31367">
        <ele>384.20001220703</ele>
        <time>2021-03-06T16:31:43.000Z</time>
      </trkpt>
      <trkpt lat="45.58274" lon="4.31374">
        <ele>384.39999389648</ele>
        <time>2021-03-06T16:31:44.000Z</time>
      </trkpt>
      <trkpt lat="45.58262" lon="4.314">
        <ele>384.79998779297</ele>
        <time>2021-03-06T16:31:47.000Z</time>
      </trkpt>
      <trkpt lat="45.58245" lon="4.31443">
        <ele>385.20001220703</ele>
        <time>2021-03-06T16:31:52.000Z</time>
      </trkpt>
      <trkpt lat="45.58235" lon="4.31469">
        <ele>385.60000610352</ele>
        <time>2021-03-06T16:31:55.000Z</time>
      </trkpt>
      <trkpt lat="45.58211" lon="4.31525">
        <ele>386.39999389648</ele>
        <time>2021-03-06T16:32:02.000Z</time>
      </trkpt>
      <trkpt lat="45.582" lon="4.31547">
        <ele>387</ele>
        <time>2021-03-06T16:32:05.000Z</time>
      </trkpt>
      <trkpt lat="45.58193" lon="4.31559">
        <ele>387.39999389648</ele>
        <time>2021-03-06T16:32:07.000Z</time>
      </trkpt>
      <trkpt lat="45.58177" lon="4.31584">
        <ele>388.39999389648</ele>
        <time>2021-03-06T16:32:11.000Z</time>
      </trkpt>
      <trkpt lat="45.58174" lon="4.31588">
        <ele>388.79998779297</ele>
        <time>2021-03-06T16:32:12.000Z</time>
      </trkpt>
      <trkpt lat="45.58159" lon="4.31612">
        <ele>389.60000610352</ele>
        <time>2021-03-06T16:32:16.000Z</time>
      </trkpt>
      <trkpt lat="45.58149" lon="4.31628">
        <ele>390.60000610352</ele>
        <time>2021-03-06T16:32:19.000Z</time>
      </trkpt>
      <trkpt lat="45.58146" lon="4.31634">
        <ele>391.20001220703</ele>
        <time>2021-03-06T16:32:20.000Z</time>
      </trkpt>
      <trkpt lat="45.58132" lon="4.31655">
        <ele>392</ele>
        <time>2021-03-06T16:32:24.000Z</time>
      </trkpt>
      <trkpt lat="45.58114" lon="4.31683">
        <ele>393.20001220703</ele>
        <time>2021-03-06T16:32:29.000Z</time>
      </trkpt>
      <trkpt lat="45.58096" lon="4.31711">
        <ele>394.20001220703</ele>
        <time>2021-03-06T16:32:34.000Z</time>
      </trkpt>
      <trkpt lat="45.58089" lon="4.31721">
        <ele>395</ele>
        <time>2021-03-06T16:32:36.000Z</time>
      </trkpt>
      <trkpt lat="45.58081" lon="4.31734">
        <ele>395.20001220703</ele>
        <time>2021-03-06T16:32:38.000Z</time>
      </trkpt>
      <trkpt lat="45.58059" lon="4.31768">
        <ele>396.39999389648</ele>
        <time>2021-03-06T16:32:44.000Z</time>
      </trkpt>
      <trkpt lat="45.58037" lon="4.31793">
        <ele>397.39999389648</ele>
        <time>2021-03-06T16:32:49.000Z</time>
      </trkpt>
      <trkpt lat="45.58026" lon="4.31807">
        <ele>398</ele>
        <time>2021-03-06T16:32:52.000Z</time>
      </trkpt>
      <trkpt lat="45.58015" lon="4.31824">
        <ele>398.79998779297</ele>
        <time>2021-03-06T16:32:55.000Z</time>
      </trkpt>
      <trkpt lat="45.58002" lon="4.3185">
        <ele>399.79998779297</ele>
        <time>2021-03-06T16:32:59.000Z</time>
      </trkpt>
      <trkpt lat="45.57997" lon="4.31861">
        <ele>400.20001220703</ele>
        <time>2021-03-06T16:33:01.000Z</time>
      </trkpt>
      <trkpt lat="45.57986" lon="4.31886">
        <ele>401</ele>
        <time>2021-03-06T16:33:05.000Z</time>
      </trkpt>
      <trkpt lat="45.57979" lon="4.31903">
        <ele>401.60000610352</ele>
        <time>2021-03-06T16:33:08.000Z</time>
      </trkpt>
      <trkpt lat="45.57976" lon="4.31915">
        <ele>402</ele>
        <time>2021-03-06T16:33:10.000Z</time>
      </trkpt>
      <trkpt lat="45.57967" lon="4.31945">
        <ele>403.20001220703</ele>
        <time>2021-03-06T16:33:15.000Z</time>
      </trkpt>
      <trkpt lat="45.57965" lon="4.3195">
        <ele>403.39999389648</ele>
        <time>2021-03-06T16:33:16.000Z</time>
      </trkpt>
      <trkpt lat="45.5796" lon="4.31967">
        <ele>404.20001220703</ele>
        <time>2021-03-06T16:33:19.000Z</time>
      </trkpt>
      <trkpt lat="45.57957" lon="4.31973">
        <ele>404.39999389648</ele>
        <time>2021-03-06T16:33:20.000Z</time>
      </trkpt>
      <trkpt lat="45.57951" lon="4.31988">
        <ele>405.20001220703</ele>
        <time>2021-03-06T16:33:23.000Z</time>
      </trkpt>
      <trkpt lat="45.57949" lon="4.31992">
        <ele>405.60000610352</ele>
        <time>2021-03-06T16:33:24.000Z</time>
      </trkpt>
      <trkpt lat="45.57944" lon="4.32">
        <ele>406.20001220703</ele>
        <time>2021-03-06T16:33:26.000Z</time>
      </trkpt>
      <trkpt lat="45.57938" lon="4.32006">
        <ele>407</ele>
        <time>2021-03-06T16:33:28.000Z</time>
      </trkpt>
      <trkpt lat="45.57935" lon="4.32009">
        <ele>407.39999389648</ele>
        <time>2021-03-06T16:33:29.000Z</time>
      </trkpt>
      <trkpt lat="45.57928" lon="4.32013">
        <ele>408.20001220703</ele>
        <time>2021-03-06T16:33:31.000Z</time>
      </trkpt>
      <trkpt lat="45.57918" lon="4.32018">
        <ele>409.60000610352</ele>
        <time>2021-03-06T16:33:34.000Z</time>
      </trkpt>
      <trkpt lat="45.5791" lon="4.32021">
        <ele>410.39999389648</ele>
        <time>2021-03-06T16:33:36.000Z</time>
      </trkpt>
      <trkpt lat="45.57907" lon="4.32022">
        <ele>410.79998779297</ele>
        <time>2021-03-06T16:33:37.000Z</time>
      </trkpt>
      <trkpt lat="45.57898" lon="4.32025">
        <ele>412.20001220703</ele>
        <time>2021-03-06T16:33:40.000Z</time>
      </trkpt>
      <trkpt lat="45.57886" lon="4.32029">
        <ele>413.39999389648</ele>
        <time>2021-03-06T16:33:44.000Z</time>
      </trkpt>
      <trkpt lat="45.57872" lon="4.32033">
        <ele>414.60000610352</ele>
        <time>2021-03-06T16:33:48.000Z</time>
      </trkpt>
      <trkpt lat="45.57859" lon="4.32036">
        <ele>415.79998779297</ele>
        <time>2021-03-06T16:33:52.000Z</time>
      </trkpt>
      <trkpt lat="45.57853" lon="4.32038">
        <ele>416.60000610352</ele>
        <time>2021-03-06T16:33:54.000Z</time>
      </trkpt>
      <trkpt lat="45.57847" lon="4.3204">
        <ele>417</ele>
        <time>2021-03-06T16:33:56.000Z</time>
      </trkpt>
      <trkpt lat="45.57834" lon="4.32043">
        <ele>418.20001220703</ele>
        <time>2021-03-06T16:34:00.000Z</time>
      </trkpt>
      <trkpt lat="45.57821" lon="4.32045">
        <ele>419.39999389648</ele>
        <time>2021-03-06T16:34:04.000Z</time>
      </trkpt>
      <trkpt lat="45.57808" lon="4.32048">
        <ele>420.60000610352</ele>
        <time>2021-03-06T16:34:08.000Z</time>
      </trkpt>
      <trkpt lat="45.57805" lon="4.32048">
        <ele>420.79998779297</ele>
        <time>2021-03-06T16:34:09.000Z</time>
      </trkpt>
      <trkpt lat="45.57794" lon="4.32053">
        <ele>421.60000610352</ele>
        <time>2021-03-06T16:34:12.000Z</time>
      </trkpt>
      <trkpt lat="45.57781" lon="4.32055">
        <ele>422.79998779297</ele>
        <time>2021-03-06T16:34:16.000Z</time>
      </trkpt>
      <trkpt lat="45.57768" lon="4.32057">
        <ele>424</ele>
        <time>2021-03-06T16:34:20.000Z</time>
      </trkpt>
      <trkpt lat="45.57755" lon="4.32058">
        <ele>425.20001220703</ele>
        <time>2021-03-06T16:34:24.000Z</time>
      </trkpt>
      <trkpt lat="45.57751" lon="4.32058">
        <ele>425.39999389648</ele>
        <time>2021-03-06T16:34:25.000Z</time>
      </trkpt>
      <trkpt lat="45.57735" lon="4.32058">
        <ele>426.39999389648</ele>
        <time>2021-03-06T16:34:29.000Z</time>
      </trkpt>
      <trkpt lat="45.57727" lon="4.32058">
        <ele>426.79998779297</ele>
        <time>2021-03-06T16:34:31.000Z</time>
      </trkpt>
      <trkpt lat="45.57716" lon="4.32058">
        <ele>427.60000610352</ele>
        <time>2021-03-06T16:34:34.000Z</time>
      </trkpt>
      <trkpt lat="45.57701" lon="4.32056">
        <ele>428.39999389648</ele>
        <time>2021-03-06T16:34:38.000Z</time>
      </trkpt>
      <trkpt lat="45.57697" lon="4.32055">
        <ele>428.60000610352</ele>
        <time>2021-03-06T16:34:39.000Z</time>
      </trkpt>
      <trkpt lat="45.57676" lon="4.3205">
        <ele>429.39999389648</ele>
        <time>2021-03-06T16:34:44.000Z</time>
      </trkpt>
      <trkpt lat="45.57667" lon="4.32049">
        <ele>429.60000610352</ele>
        <time>2021-03-06T16:34:46.000Z</time>
      </trkpt>
      <trkpt lat="45.57658" lon="4.3205">
        <ele>429.79998779297</ele>
        <time>2021-03-06T16:34:48.000Z</time>
      </trkpt>
      <trkpt lat="45.57649" lon="4.32056">
        <ele>430</ele>
        <time>2021-03-06T16:34:50.000Z</time>
      </trkpt>
      <trkpt lat="45.57645" lon="4.32068">
        <ele>430</ele>
        <time>2021-03-06T16:34:52.000Z</time>
      </trkpt>
      <trkpt lat="45.57645" lon="4.32074">
        <ele>430</ele>
        <time>2021-03-06T16:34:53.000Z</time>
      </trkpt>
      <trkpt lat="45.57646" lon="4.32081">
        <ele>430.20001220703</ele>
        <time>2021-03-06T16:34:54.000Z</time>
      </trkpt>
      <trkpt lat="45.57651" lon="4.32122">
        <ele>430.20001220703</ele>
        <time>2021-03-06T16:34:59.000Z</time>
      </trkpt>
      <trkpt lat="45.57653" lon="4.32162">
        <ele>429</ele>
        <time>2021-03-06T16:35:03.000Z</time>
      </trkpt>
      <trkpt lat="45.57653" lon="4.32172">
        <ele>428.39999389648</ele>
        <time>2021-03-06T16:35:04.000Z</time>
      </trkpt>
      <trkpt lat="45.57652" lon="4.32182">
        <ele>428</ele>
        <time>2021-03-06T16:35:05.000Z</time>
      </trkpt>
      <trkpt lat="45.5765" lon="4.32201">
        <ele>427.79998779297</ele>
        <time>2021-03-06T16:35:07.000Z</time>
      </trkpt>
      <trkpt lat="45.57642" lon="4.3223">
        <ele>428.20001220703</ele>
        <time>2021-03-06T16:35:10.000Z</time>
      </trkpt>
      <trkpt lat="45.5764" lon="4.32239">
        <ele>428.20001220703</ele>
        <time>2021-03-06T16:35:11.000Z</time>
      </trkpt>
      <trkpt lat="45.57628" lon="4.32273">
        <ele>428.79998779297</ele>
        <time>2021-03-06T16:35:15.000Z</time>
      </trkpt>
      <trkpt lat="45.57615" lon="4.32305">
        <ele>429.39999389648</ele>
        <time>2021-03-06T16:35:19.000Z</time>
      </trkpt>
      <trkpt lat="45.57601" lon="4.32335">
        <ele>430.60000610352</ele>
        <time>2021-03-06T16:35:23.000Z</time>
      </trkpt>
      <trkpt lat="45.57598" lon="4.32341">
        <ele>431.20001220703</ele>
        <time>2021-03-06T16:35:24.000Z</time>
      </trkpt>
      <trkpt lat="45.57589" lon="4.32357">
        <ele>432</ele>
        <time>2021-03-06T16:35:27.000Z</time>
      </trkpt>
      <trkpt lat="45.57583" lon="4.32367">
        <ele>432.60000610352</ele>
        <time>2021-03-06T16:35:29.000Z</time>
      </trkpt>
      <trkpt lat="45.57578" lon="4.32375">
        <ele>433.39999389648</ele>
        <time>2021-03-06T16:35:31.000Z</time>
      </trkpt>
      <trkpt lat="45.57569" lon="4.32389">
        <ele>434.39999389648</ele>
        <time>2021-03-06T16:35:34.000Z</time>
      </trkpt>
      <trkpt lat="45.57559" lon="4.32407">
        <ele>435.60000610352</ele>
        <time>2021-03-06T16:35:38.000Z</time>
      </trkpt>
      <trkpt lat="45.57547" lon="4.32425">
        <ele>436.60000610352</ele>
        <time>2021-03-06T16:35:42.000Z</time>
      </trkpt>
      <trkpt lat="45.57538" lon="4.32445">
        <ele>437.79998779297</ele>
        <time>2021-03-06T16:35:46.000Z</time>
      </trkpt>
      <trkpt lat="45.57532" lon="4.32458">
        <ele>438.79998779297</ele>
        <time>2021-03-06T16:35:49.000Z</time>
      </trkpt>
      <trkpt lat="45.57521" lon="4.32482">
        <ele>440.20001220703</ele>
        <time>2021-03-06T16:35:54.000Z</time>
      </trkpt>
      <trkpt lat="45.5751" lon="4.32504">
        <ele>441.20001220703</ele>
        <time>2021-03-06T16:35:59.000Z</time>
      </trkpt>
      <trkpt lat="45.57503" lon="4.32518">
        <ele>442</ele>
        <time>2021-03-06T16:36:02.000Z</time>
      </trkpt>
      <trkpt lat="45.57499" lon="4.32526">
        <ele>442.60000610352</ele>
        <time>2021-03-06T16:36:04.000Z</time>
      </trkpt>
      <trkpt lat="45.57491" lon="4.32545">
        <ele>443.60000610352</ele>
        <time>2021-03-06T16:36:08.000Z</time>
      </trkpt>
      <trkpt lat="45.57484" lon="4.32558">
        <ele>444.60000610352</ele>
        <time>2021-03-06T16:36:11.000Z</time>
      </trkpt>
      <trkpt lat="45.5748" lon="4.32567">
        <ele>445</ele>
        <time>2021-03-06T16:36:13.000Z</time>
      </trkpt>
      <trkpt lat="45.57469" lon="4.32591">
        <ele>446.39999389648</ele>
        <time>2021-03-06T16:36:18.000Z</time>
      </trkpt>
      <trkpt lat="45.57467" lon="4.32596">
        <ele>446.79998779297</ele>
        <time>2021-03-06T16:36:19.000Z</time>
      </trkpt>
      <trkpt lat="45.57462" lon="4.32612">
        <ele>447.39999389648</ele>
        <time>2021-03-06T16:36:22.000Z</time>
      </trkpt>
      <trkpt lat="45.57456" lon="4.3264">
        <ele>448.60000610352</ele>
        <time>2021-03-06T16:36:27.000Z</time>
      </trkpt>
      <trkpt lat="45.57456" lon="4.32646">
        <ele>448.79998779297</ele>
        <time>2021-03-06T16:36:28.000Z</time>
      </trkpt>
      <trkpt lat="45.57454" lon="4.32664">
        <ele>449.79998779297</ele>
        <time>2021-03-06T16:36:31.000Z</time>
      </trkpt>
      <trkpt lat="45.57453" lon="4.32677">
        <ele>450.39999389648</ele>
        <time>2021-03-06T16:36:33.000Z</time>
      </trkpt>
      <trkpt lat="45.57452" lon="4.32689">
        <ele>451</ele>
        <time>2021-03-06T16:36:35.000Z</time>
      </trkpt>
      <trkpt lat="45.57452" lon="4.32695">
        <ele>451.20001220703</ele>
        <time>2021-03-06T16:36:36.000Z</time>
      </trkpt>
      <trkpt lat="45.57454" lon="4.32712">
        <ele>452.20001220703</ele>
        <time>2021-03-06T16:36:39.000Z</time>
      </trkpt>
      <trkpt lat="45.57458" lon="4.32732">
        <ele>453.39999389648</ele>
        <time>2021-03-06T16:36:43.000Z</time>
      </trkpt>
      <trkpt lat="45.57459" lon="4.32738">
        <ele>453.39999389648</ele>
        <time>2021-03-06T16:36:44.000Z</time>
      </trkpt>
      <trkpt lat="45.57463" lon="4.32761">
        <ele>454.39999389648</ele>
        <time>2021-03-06T16:36:48.000Z</time>
      </trkpt>
      <trkpt lat="45.57464" lon="4.32777">
        <ele>455.20001220703</ele>
        <time>2021-03-06T16:36:51.000Z</time>
      </trkpt>
      <trkpt lat="45.57463" lon="4.32782">
        <ele>455.60000610352</ele>
        <time>2021-03-06T16:36:52.000Z</time>
      </trkpt>
      <trkpt lat="45.5746" lon="4.32804">
        <ele>456.60000610352</ele>
        <time>2021-03-06T16:36:56.000Z</time>
      </trkpt>
      <trkpt lat="45.57458" lon="4.32809">
        <ele>456.79998779297</ele>
        <time>2021-03-06T16:36:57.000Z</time>
      </trkpt>
      <trkpt lat="45.57453" lon="4.32822">
        <ele>457.79998779297</ele>
        <time>2021-03-06T16:37:00.000Z</time>
      </trkpt>
      <trkpt lat="45.57447" lon="4.32834">
        <ele>458.79998779297</ele>
        <time>2021-03-06T16:37:03.000Z</time>
      </trkpt>
      <trkpt lat="45.57445" lon="4.32837">
        <ele>459.20001220703</ele>
        <time>2021-03-06T16:37:04.000Z</time>
      </trkpt>
      <trkpt lat="45.57437" lon="4.32848">
        <ele>460</ele>
        <time>2021-03-06T16:37:07.000Z</time>
      </trkpt>
      <trkpt lat="45.57425" lon="4.32862">
        <ele>461.20001220703</ele>
        <time>2021-03-06T16:37:11.000Z</time>
      </trkpt>
      <trkpt lat="45.57415" lon="4.32876">
        <ele>462.20001220703</ele>
        <time>2021-03-06T16:37:15.000Z</time>
      </trkpt>
      <trkpt lat="45.57411" lon="4.32884">
        <ele>462.79998779297</ele>
        <time>2021-03-06T16:37:17.000Z</time>
      </trkpt>
      <trkpt lat="45.57405" lon="4.32898">
        <ele>463.60000610352</ele>
        <time>2021-03-06T16:37:20.000Z</time>
      </trkpt>
      <trkpt lat="45.57401" lon="4.32912">
        <ele>464.20001220703</ele>
        <time>2021-03-06T16:37:23.000Z</time>
      </trkpt>
      <trkpt lat="45.574" lon="4.32923">
        <ele>465</ele>
        <time>2021-03-06T16:37:25.000Z</time>
      </trkpt>
      <trkpt lat="45.57398" lon="4.32944">
        <ele>466.20001220703</ele>
        <time>2021-03-06T16:37:29.000Z</time>
      </trkpt>
      <trkpt lat="45.57399" lon="4.32965">
        <ele>467.39999389648</ele>
        <time>2021-03-06T16:37:33.000Z</time>
      </trkpt>
      <trkpt lat="45.57402" lon="4.32985">
        <ele>468.60000610352</ele>
        <time>2021-03-06T16:37:37.000Z</time>
      </trkpt>
      <trkpt lat="45.57408" lon="4.33005">
        <ele>469.60000610352</ele>
        <time>2021-03-06T16:37:41.000Z</time>
      </trkpt>
      <trkpt lat="45.57409" lon="4.3301">
        <ele>469.79998779297</ele>
        <time>2021-03-06T16:37:42.000Z</time>
      </trkpt>
      <trkpt lat="45.57414" lon="4.3303">
        <ele>470.60000610352</ele>
        <time>2021-03-06T16:37:46.000Z</time>
      </trkpt>
      <trkpt lat="45.57418" lon="4.33047">
        <ele>471</ele>
        <time>2021-03-06T16:37:49.000Z</time>
      </trkpt>
      <trkpt lat="45.5742" lon="4.33057">
        <ele>471.60000610352</ele>
        <time>2021-03-06T16:37:51.000Z</time>
      </trkpt>
      <trkpt lat="45.57427" lon="4.33083">
        <ele>472.60000610352</ele>
        <time>2021-03-06T16:37:56.000Z</time>
      </trkpt>
      <trkpt lat="45.5743" lon="4.33094">
        <ele>473</ele>
        <time>2021-03-06T16:37:58.000Z</time>
      </trkpt>
      <trkpt lat="45.57434" lon="4.3312">
        <ele>473.60000610352</ele>
        <time>2021-03-06T16:38:02.000Z</time>
      </trkpt>
      <trkpt lat="45.57436" lon="4.33134">
        <ele>474</ele>
        <time>2021-03-06T16:38:04.000Z</time>
      </trkpt>
      <trkpt lat="45.57437" lon="4.33141">
        <ele>474</ele>
        <time>2021-03-06T16:38:05.000Z</time>
      </trkpt>
      <trkpt lat="45.57436" lon="4.33174">
        <ele>474.79998779297</ele>
        <time>2021-03-06T16:38:10.000Z</time>
      </trkpt>
      <trkpt lat="45.57432" lon="4.33207">
        <ele>476</ele>
        <time>2021-03-06T16:38:16.000Z</time>
      </trkpt>
      <trkpt lat="45.57429" lon="4.33229">
        <ele>477.39999389648</ele>
        <time>2021-03-06T16:38:20.000Z</time>
      </trkpt>
      <trkpt lat="45.57423" lon="4.33251">
        <ele>478.39999389648</ele>
        <time>2021-03-06T16:38:24.000Z</time>
      </trkpt>
      <trkpt lat="45.57417" lon="4.33269">
        <ele>479.39999389648</ele>
        <time>2021-03-06T16:38:28.000Z</time>
      </trkpt>
      <trkpt lat="45.57413" lon="4.3328">
        <ele>480</ele>
        <time>2021-03-06T16:38:30.000Z</time>
      </trkpt>
      <trkpt lat="45.57409" lon="4.33288">
        <ele>480.60000610352</ele>
        <time>2021-03-06T16:38:32.000Z</time>
      </trkpt>
      <trkpt lat="45.57396" lon="4.33312">
        <ele>481.79998779297</ele>
        <time>2021-03-06T16:38:37.000Z</time>
      </trkpt>
      <trkpt lat="45.57391" lon="4.33322">
        <ele>482.39999389648</ele>
        <time>2021-03-06T16:38:39.000Z</time>
      </trkpt>
      <trkpt lat="45.57386" lon="4.33329">
        <ele>483</ele>
        <time>2021-03-06T16:38:41.000Z</time>
      </trkpt>
      <trkpt lat="45.57376" lon="4.33345">
        <ele>484.39999389648</ele>
        <time>2021-03-06T16:38:45.000Z</time>
      </trkpt>
      <trkpt lat="45.57369" lon="4.33357">
        <ele>485.20001220703</ele>
        <time>2021-03-06T16:38:48.000Z</time>
      </trkpt>
      <trkpt lat="45.57367" lon="4.33361">
        <ele>485.60000610352</ele>
        <time>2021-03-06T16:38:49.000Z</time>
      </trkpt>
      <trkpt lat="45.57358" lon="4.33376">
        <ele>487</ele>
        <time>2021-03-06T16:38:53.000Z</time>
      </trkpt>
      <trkpt lat="45.57351" lon="4.33388">
        <ele>488</ele>
        <time>2021-03-06T16:38:56.000Z</time>
      </trkpt>
      <trkpt lat="45.57342" lon="4.33401">
        <ele>489.39999389648</ele>
        <time>2021-03-06T16:39:00.000Z</time>
      </trkpt>
      <trkpt lat="45.57338" lon="4.33408">
        <ele>490</ele>
        <time>2021-03-06T16:39:02.000Z</time>
      </trkpt>
      <trkpt lat="45.57334" lon="4.33417">
        <ele>490.60000610352</ele>
        <time>2021-03-06T16:39:04.000Z</time>
      </trkpt>
      <trkpt lat="45.57329" lon="4.33427">
        <ele>491.60000610352</ele>
        <time>2021-03-06T16:39:07.000Z</time>
      </trkpt>
      <trkpt lat="45.57324" lon="4.33441">
        <ele>492.20001220703</ele>
        <time>2021-03-06T16:39:10.000Z</time>
      </trkpt>
      <trkpt lat="45.57322" lon="4.33447">
        <ele>492.79998779297</ele>
        <time>2021-03-06T16:39:11.000Z</time>
      </trkpt>
      <trkpt lat="45.57319" lon="4.33456">
        <ele>493.79998779297</ele>
        <time>2021-03-06T16:39:13.000Z</time>
      </trkpt>
      <trkpt lat="45.57315" lon="4.33472">
        <ele>494.79998779297</ele>
        <time>2021-03-06T16:39:17.000Z</time>
      </trkpt>
      <trkpt lat="45.5731" lon="4.33489">
        <ele>496</ele>
        <time>2021-03-06T16:39:21.000Z</time>
      </trkpt>
      <trkpt lat="45.57306" lon="4.33502">
        <ele>496.79998779297</ele>
        <time>2021-03-06T16:39:24.000Z</time>
      </trkpt>
      <trkpt lat="45.57305" lon="4.33506">
        <ele>497.39999389648</ele>
        <time>2021-03-06T16:39:25.000Z</time>
      </trkpt>
      <trkpt lat="45.57301" lon="4.33524">
        <ele>498.39999389648</ele>
        <time>2021-03-06T16:39:29.000Z</time>
      </trkpt>
      <trkpt lat="45.573" lon="4.33528">
        <ele>498.79998779297</ele>
        <time>2021-03-06T16:39:30.000Z</time>
      </trkpt>
      <trkpt lat="45.57296" lon="4.33546">
        <ele>499.60000610352</ele>
        <time>2021-03-06T16:39:34.000Z</time>
      </trkpt>
      <trkpt lat="45.5729" lon="4.33567">
        <ele>500.20001220703</ele>
        <time>2021-03-06T16:39:38.000Z</time>
      </trkpt>
      <trkpt lat="45.57281" lon="4.33608">
        <ele>500.60000610352</ele>
        <time>2021-03-06T16:39:44.000Z</time>
      </trkpt>
      <trkpt lat="45.5727" lon="4.33669">
        <ele>500.60000610352</ele>
        <time>2021-03-06T16:39:51.000Z</time>
      </trkpt>
      <trkpt lat="45.57265" lon="4.33694">
        <ele>499.20001220703</ele>
        <time>2021-03-06T16:39:54.000Z</time>
      </trkpt>
      <trkpt lat="45.5726" lon="4.33718">
        <ele>499.20001220703</ele>
        <time>2021-03-06T16:39:57.000Z</time>
      </trkpt>
      <trkpt lat="45.57258" lon="4.33727">
        <ele>499.39999389648</ele>
        <time>2021-03-06T16:39:58.000Z</time>
      </trkpt>
      <trkpt lat="45.57244" lon="4.33802">
        <ele>499.60000610352</ele>
        <time>2021-03-06T16:40:06.000Z</time>
      </trkpt>
      <trkpt lat="45.57227" lon="4.33885">
        <ele>498.39999389648</ele>
        <time>2021-03-06T16:40:14.000Z</time>
      </trkpt>
      <trkpt lat="45.57223" lon="4.33898">
        <ele>498</ele>
        <time>2021-03-06T16:40:15.000Z</time>
      </trkpt>
      <trkpt lat="45.57211" lon="4.3393">
        <ele>497</ele>
        <time>2021-03-06T16:40:18.000Z</time>
      </trkpt>
      <trkpt lat="45.57206" lon="4.33941">
        <ele>496.60000610352</ele>
        <time>2021-03-06T16:40:19.000Z</time>
      </trkpt>
      <trkpt lat="45.5719" lon="4.33972">
        <ele>495.79998779297</ele>
        <time>2021-03-06T16:40:22.000Z</time>
      </trkpt>
      <trkpt lat="45.57172" lon="4.34003">
        <ele>495.20001220703</ele>
        <time>2021-03-06T16:40:25.000Z</time>
      </trkpt>
      <trkpt lat="45.57161" lon="4.34024">
        <ele>494.60000610352</ele>
        <time>2021-03-06T16:40:27.000Z</time>
      </trkpt>
      <trkpt lat="45.57153" lon="4.34047">
        <ele>494.39999389648</ele>
        <time>2021-03-06T16:40:29.000Z</time>
      </trkpt>
      <trkpt lat="45.5715" lon="4.34058">
        <ele>494.39999389648</ele>
        <time>2021-03-06T16:40:30.000Z</time>
      </trkpt>
      <trkpt lat="45.57144" lon="4.34106">
        <ele>494.60000610352</ele>
        <time>2021-03-06T16:40:34.000Z</time>
      </trkpt>
      <trkpt lat="45.57144" lon="4.34116">
        <ele>494.60000610352</ele>
        <time>2021-03-06T16:40:35.000Z</time>
      </trkpt>
      <trkpt lat="45.57146" lon="4.34144">
        <ele>495.60000610352</ele>
        <time>2021-03-06T16:40:38.000Z</time>
      </trkpt>
      <trkpt lat="45.57147" lon="4.34152">
        <ele>495.79998779297</ele>
        <time>2021-03-06T16:40:39.000Z</time>
      </trkpt>
      <trkpt lat="45.57151" lon="4.34181">
        <ele>497</ele>
        <time>2021-03-06T16:40:43.000Z</time>
      </trkpt>
      <trkpt lat="45.57154" lon="4.34201">
        <ele>498.20001220703</ele>
        <time>2021-03-06T16:40:46.000Z</time>
      </trkpt>
      <trkpt lat="45.57155" lon="4.34215">
        <ele>498.79998779297</ele>
        <time>2021-03-06T16:40:48.000Z</time>
      </trkpt>
      <trkpt lat="45.57155" lon="4.34221">
        <ele>499.20001220703</ele>
        <time>2021-03-06T16:40:49.000Z</time>
      </trkpt>
      <trkpt lat="45.57155" lon="4.34228">
        <ele>499.39999389648</ele>
        <time>2021-03-06T16:40:50.000Z</time>
      </trkpt>
      <trkpt lat="45.57154" lon="4.34255">
        <ele>500.79998779297</ele>
        <time>2021-03-06T16:40:54.000Z</time>
      </trkpt>
      <trkpt lat="45.57153" lon="4.34274">
        <ele>502.20001220703</ele>
        <time>2021-03-06T16:40:57.000Z</time>
      </trkpt>
      <trkpt lat="45.57152" lon="4.34285">
        <ele>503</ele>
        <time>2021-03-06T16:40:59.000Z</time>
      </trkpt>
      <trkpt lat="45.57151" lon="4.34291">
        <ele>503.20001220703</ele>
        <time>2021-03-06T16:41:00.000Z</time>
      </trkpt>
      <trkpt lat="45.57149" lon="4.34313">
        <ele>504.39999389648</ele>
        <time>2021-03-06T16:41:04.000Z</time>
      </trkpt>
      <trkpt lat="45.57147" lon="4.34323">
        <ele>505</ele>
        <time>2021-03-06T16:41:06.000Z</time>
      </trkpt>
      <trkpt lat="45.57145" lon="4.34332">
        <ele>505.79998779297</ele>
        <time>2021-03-06T16:41:08.000Z</time>
      </trkpt>
      <trkpt lat="45.57142" lon="4.34346">
        <ele>506.60000610352</ele>
        <time>2021-03-06T16:41:11.000Z</time>
      </trkpt>
      <trkpt lat="45.57139" lon="4.34355">
        <ele>507</ele>
        <time>2021-03-06T16:41:13.000Z</time>
      </trkpt>
      <trkpt lat="45.57131" lon="4.34378">
        <ele>508</ele>
        <time>2021-03-06T16:41:18.000Z</time>
      </trkpt>
      <trkpt lat="45.57125" lon="4.34391">
        <ele>508.79998779297</ele>
        <time>2021-03-06T16:41:21.000Z</time>
      </trkpt>
      <trkpt lat="45.57121" lon="4.34401">
        <ele>509.20001220703</ele>
        <time>2021-03-06T16:41:23.000Z</time>
      </trkpt>
      <trkpt lat="45.57111" lon="4.34424">
        <ele>510.20001220703</ele>
        <time>2021-03-06T16:41:28.000Z</time>
      </trkpt>
      <trkpt lat="45.57107" lon="4.34433">
        <ele>510.79998779297</ele>
        <time>2021-03-06T16:41:30.000Z</time>
      </trkpt>
      <trkpt lat="45.57101" lon="4.34447">
        <ele>511.39999389648</ele>
        <time>2021-03-06T16:41:33.000Z</time>
      </trkpt>
      <trkpt lat="45.57093" lon="4.34465">
        <ele>512.40002441406</ele>
        <time>2021-03-06T16:41:37.000Z</time>
      </trkpt>
      <trkpt lat="45.57091" lon="4.3447">
        <ele>512.59997558594</ele>
        <time>2021-03-06T16:41:38.000Z</time>
      </trkpt>
      <trkpt lat="45.5708" lon="4.34494">
        <ele>513.59997558594</ele>
        <time>2021-03-06T16:41:43.000Z</time>
      </trkpt>
      <trkpt lat="45.57075" lon="4.34503">
        <ele>514</ele>
        <time>2021-03-06T16:41:45.000Z</time>
      </trkpt>
      <trkpt lat="45.57069" lon="4.34518">
        <ele>514.79998779297</ele>
        <time>2021-03-06T16:41:48.000Z</time>
      </trkpt>
      <trkpt lat="45.57066" lon="4.34523">
        <ele>515.20001220703</ele>
        <time>2021-03-06T16:41:49.000Z</time>
      </trkpt>
      <trkpt lat="45.57057" lon="4.34544">
        <ele>515.79998779297</ele>
        <time>2021-03-06T16:41:53.000Z</time>
      </trkpt>
      <trkpt lat="45.57046" lon="4.3457">
        <ele>516.79998779297</ele>
        <time>2021-03-06T16:41:58.000Z</time>
      </trkpt>
      <trkpt lat="45.57041" lon="4.34585">
        <ele>517.59997558594</ele>
        <time>2021-03-06T16:42:01.000Z</time>
      </trkpt>
      <trkpt lat="45.57039" lon="4.34591">
        <ele>517.79998779297</ele>
        <time>2021-03-06T16:42:02.000Z</time>
      </trkpt>
      <trkpt lat="45.57035" lon="4.34602">
        <ele>518</ele>
        <time>2021-03-06T16:42:04.000Z</time>
      </trkpt>
      <trkpt lat="45.57033" lon="4.34614">
        <ele>518.59997558594</ele>
        <time>2021-03-06T16:42:06.000Z</time>
      </trkpt>
      <trkpt lat="45.57033" lon="4.34626">
        <ele>519</ele>
        <time>2021-03-06T16:42:08.000Z</time>
      </trkpt>
      <trkpt lat="45.57033" lon="4.34632">
        <ele>519.20001220703</ele>
        <time>2021-03-06T16:42:09.000Z</time>
      </trkpt>
      <trkpt lat="45.57036" lon="4.34645">
        <ele>519.40002441406</ele>
        <time>2021-03-06T16:42:11.000Z</time>
      </trkpt>
      <trkpt lat="45.5704" lon="4.34658">
        <ele>519.59997558594</ele>
        <time>2021-03-06T16:42:13.000Z</time>
      </trkpt>
      <trkpt lat="45.57046" lon="4.34669">
        <ele>519.79998779297</ele>
        <time>2021-03-06T16:42:15.000Z</time>
      </trkpt>
      <trkpt lat="45.57052" lon="4.34678">
        <ele>520.20001220703</ele>
        <time>2021-03-06T16:42:17.000Z</time>
      </trkpt>
      <trkpt lat="45.57056" lon="4.34681">
        <ele>520.20001220703</ele>
        <time>2021-03-06T16:42:18.000Z</time>
      </trkpt>
      <trkpt lat="45.57061" lon="4.34684">
        <ele>520.40002441406</ele>
        <time>2021-03-06T16:42:19.000Z</time>
      </trkpt>
      <trkpt lat="45.57074" lon="4.34691">
        <ele>521</ele>
        <time>2021-03-06T16:42:22.000Z</time>
      </trkpt>
      <trkpt lat="45.57084" lon="4.34694">
        <ele>521.20001220703</ele>
        <time>2021-03-06T16:42:24.000Z</time>
      </trkpt>
      <trkpt lat="45.57088" lon="4.34695">
        <ele>521.40002441406</ele>
        <time>2021-03-06T16:42:25.000Z</time>
      </trkpt>
      <trkpt lat="45.57093" lon="4.34697">
        <ele>521.79998779297</ele>
        <time>2021-03-06T16:42:26.000Z</time>
      </trkpt>
      <trkpt lat="45.57107" lon="4.347">
        <ele>522.59997558594</ele>
        <time>2021-03-06T16:42:29.000Z</time>
      </trkpt>
      <trkpt lat="45.57117" lon="4.34702">
        <ele>523</ele>
        <time>2021-03-06T16:42:31.000Z</time>
      </trkpt>
      <trkpt lat="45.5713" lon="4.34706">
        <ele>523.59997558594</ele>
        <time>2021-03-06T16:42:34.000Z</time>
      </trkpt>
      <trkpt lat="45.57148" lon="4.34712">
        <ele>524.79998779297</ele>
        <time>2021-03-06T16:42:38.000Z</time>
      </trkpt>
      <trkpt lat="45.5717" lon="4.34723">
        <ele>526</ele>
        <time>2021-03-06T16:42:43.000Z</time>
      </trkpt>
      <trkpt lat="45.57183" lon="4.34732">
        <ele>526.59997558594</ele>
        <time>2021-03-06T16:42:46.000Z</time>
      </trkpt>
      <trkpt lat="45.57191" lon="4.34739">
        <ele>527</ele>
        <time>2021-03-06T16:42:48.000Z</time>
      </trkpt>
      <trkpt lat="45.5721" lon="4.34757">
        <ele>527.79998779297</ele>
        <time>2021-03-06T16:42:53.000Z</time>
      </trkpt>
      <trkpt lat="45.57214" lon="4.34761">
        <ele>528</ele>
        <time>2021-03-06T16:42:54.000Z</time>
      </trkpt>
      <trkpt lat="45.57241" lon="4.34786">
        <ele>529</ele>
        <time>2021-03-06T16:43:01.000Z</time>
      </trkpt>
      <trkpt lat="45.57262" lon="4.34806">
        <ele>529.59997558594</ele>
        <time>2021-03-06T16:43:06.000Z</time>
      </trkpt>
      <trkpt lat="45.57273" lon="4.34822">
        <ele>529.79998779297</ele>
        <time>2021-03-06T16:43:09.000Z</time>
      </trkpt>
      <trkpt lat="45.57279" lon="4.34836">
        <ele>529.59997558594</ele>
        <time>2021-03-06T16:43:11.000Z</time>
      </trkpt>
      <trkpt lat="45.57285" lon="4.34875">
        <ele>530</ele>
        <time>2021-03-06T16:43:16.000Z</time>
      </trkpt>
      <trkpt lat="45.57286" lon="4.34883">
        <ele>530</ele>
        <time>2021-03-06T16:43:17.000Z</time>
      </trkpt>
      <trkpt lat="45.57287" lon="4.34898">
        <ele>530.59997558594</ele>
        <time>2021-03-06T16:43:19.000Z</time>
      </trkpt>
      <trkpt lat="45.57289" lon="4.34912">
        <ele>531.20001220703</ele>
        <time>2021-03-06T16:43:21.000Z</time>
      </trkpt>
      <trkpt lat="45.57292" lon="4.34931">
        <ele>532.20001220703</ele>
        <time>2021-03-06T16:43:24.000Z</time>
      </trkpt>
      <trkpt lat="45.57294" lon="4.34943">
        <ele>532.79998779297</ele>
        <time>2021-03-06T16:43:26.000Z</time>
      </trkpt>
      <trkpt lat="45.57296" lon="4.34954">
        <ele>533.59997558594</ele>
        <time>2021-03-06T16:43:28.000Z</time>
      </trkpt>
      <trkpt lat="45.57303" lon="4.34982">
        <ele>534.59997558594</ele>
        <time>2021-03-06T16:43:33.000Z</time>
      </trkpt>
      <trkpt lat="45.57305" lon="4.34987">
        <ele>535</ele>
        <time>2021-03-06T16:43:34.000Z</time>
      </trkpt>
      <trkpt lat="45.57308" lon="4.35003">
        <ele>535.79998779297</ele>
        <time>2021-03-06T16:43:37.000Z</time>
      </trkpt>
      <trkpt lat="45.57312" lon="4.35018">
        <ele>536.79998779297</ele>
        <time>2021-03-06T16:43:40.000Z</time>
      </trkpt>
      <trkpt lat="45.57314" lon="4.35029">
        <ele>537.40002441406</ele>
        <time>2021-03-06T16:43:42.000Z</time>
      </trkpt>
      <trkpt lat="45.57316" lon="4.35039">
        <ele>537.79998779297</ele>
        <time>2021-03-06T16:43:44.000Z</time>
      </trkpt>
      <trkpt lat="45.57319" lon="4.35055">
        <ele>539</ele>
        <time>2021-03-06T16:43:47.000Z</time>
      </trkpt>
      <trkpt lat="45.5732" lon="4.3507">
        <ele>539.79998779297</ele>
        <time>2021-03-06T16:43:50.000Z</time>
      </trkpt>
      <trkpt lat="45.5732" lon="4.3508">
        <ele>540.20001220703</ele>
        <time>2021-03-06T16:43:52.000Z</time>
      </trkpt>
      <trkpt lat="45.57319" lon="4.35104">
        <ele>541.40002441406</ele>
        <time>2021-03-06T16:43:57.000Z</time>
      </trkpt>
      <trkpt lat="45.57318" lon="4.35109">
        <ele>541.59997558594</ele>
        <time>2021-03-06T16:43:58.000Z</time>
      </trkpt>
      <trkpt lat="45.57316" lon="4.35129">
        <ele>542.40002441406</ele>
        <time>2021-03-06T16:44:02.000Z</time>
      </trkpt>
      <trkpt lat="45.57314" lon="4.35149">
        <ele>543.20001220703</ele>
        <time>2021-03-06T16:44:06.000Z</time>
      </trkpt>
      <trkpt lat="45.57312" lon="4.3516">
        <ele>543.59997558594</ele>
        <time>2021-03-06T16:44:08.000Z</time>
      </trkpt>
      <trkpt lat="45.57309" lon="4.35191">
        <ele>544.59997558594</ele>
        <time>2021-03-06T16:44:14.000Z</time>
      </trkpt>
      <trkpt lat="45.57308" lon="4.35196">
        <ele>544.79998779297</ele>
        <time>2021-03-06T16:44:15.000Z</time>
      </trkpt>
      <trkpt lat="45.57305" lon="4.35222">
        <ele>545.79998779297</ele>
        <time>2021-03-06T16:44:20.000Z</time>
      </trkpt>
      <trkpt lat="45.573" lon="4.35251">
        <ele>546.59997558594</ele>
        <time>2021-03-06T16:44:25.000Z</time>
      </trkpt>
      <trkpt lat="45.57299" lon="4.35256">
        <ele>546.79998779297</ele>
        <time>2021-03-06T16:44:26.000Z</time>
      </trkpt>
      <trkpt lat="45.57296" lon="4.35278">
        <ele>548</ele>
        <time>2021-03-06T16:44:30.000Z</time>
      </trkpt>
      <trkpt lat="45.57293" lon="4.35305">
        <ele>549</ele>
        <time>2021-03-06T16:44:35.000Z</time>
      </trkpt>
      <trkpt lat="45.57292" lon="4.3531">
        <ele>549.20001220703</ele>
        <time>2021-03-06T16:44:36.000Z</time>
      </trkpt>
      <trkpt lat="45.57295" lon="4.3533">
        <ele>550.40002441406</ele>
        <time>2021-03-06T16:44:40.000Z</time>
      </trkpt>
      <trkpt lat="45.57296" lon="4.35335">
        <ele>550.59997558594</ele>
        <time>2021-03-06T16:44:41.000Z</time>
      </trkpt>
      <trkpt lat="45.57301" lon="4.35355">
        <ele>551.40002441406</ele>
        <time>2021-03-06T16:44:45.000Z</time>
      </trkpt>
      <trkpt lat="45.57303" lon="4.3536">
        <ele>551.59997558594</ele>
        <time>2021-03-06T16:44:46.000Z</time>
      </trkpt>
      <trkpt lat="45.57309" lon="4.35375">
        <ele>552.59997558594</ele>
        <time>2021-03-06T16:44:49.000Z</time>
      </trkpt>
      <trkpt lat="45.57317" lon="4.35401">
        <ele>553.79998779297</ele>
        <time>2021-03-06T16:44:54.000Z</time>
      </trkpt>
      <trkpt lat="45.57318" lon="4.35406">
        <ele>554</ele>
        <time>2021-03-06T16:44:55.000Z</time>
      </trkpt>
      <trkpt lat="45.57323" lon="4.35426">
        <ele>555</ele>
        <time>2021-03-06T16:44:59.000Z</time>
      </trkpt>
      <trkpt lat="45.57328" lon="4.35446">
        <ele>556</ele>
        <time>2021-03-06T16:45:03.000Z</time>
      </trkpt>
      <trkpt lat="45.57329" lon="4.35452">
        <ele>556.20001220703</ele>
        <time>2021-03-06T16:45:04.000Z</time>
      </trkpt>
      <trkpt lat="45.57334" lon="4.35477">
        <ele>557.40002441406</ele>
        <time>2021-03-06T16:45:09.000Z</time>
      </trkpt>
      <trkpt lat="45.57337" lon="4.35492">
        <ele>558</ele>
        <time>2021-03-06T16:45:12.000Z</time>
      </trkpt>
      <trkpt lat="45.5734" lon="4.35502">
        <ele>558.40002441406</ele>
        <time>2021-03-06T16:45:14.000Z</time>
      </trkpt>
      <trkpt lat="45.57344" lon="4.35522">
        <ele>559.40002441406</ele>
        <time>2021-03-06T16:45:18.000Z</time>
      </trkpt>
      <trkpt lat="45.5735" lon="4.35546">
        <ele>560.59997558594</ele>
        <time>2021-03-06T16:45:23.000Z</time>
      </trkpt>
      <trkpt lat="45.57355" lon="4.35571">
        <ele>561.59997558594</ele>
        <time>2021-03-06T16:45:28.000Z</time>
      </trkpt>
      <trkpt lat="45.57362" lon="4.35603">
        <ele>562.79998779297</ele>
        <time>2021-03-06T16:45:34.000Z</time>
      </trkpt>
      <trkpt lat="45.57369" lon="4.35636">
        <ele>564</ele>
        <time>2021-03-06T16:45:40.000Z</time>
      </trkpt>
      <trkpt lat="45.57374" lon="4.35662">
        <ele>565</ele>
        <time>2021-03-06T16:45:45.000Z</time>
      </trkpt>
      <trkpt lat="45.57375" lon="4.35667">
        <ele>565.20001220703</ele>
        <time>2021-03-06T16:45:46.000Z</time>
      </trkpt>
      <trkpt lat="45.57378" lon="4.35687">
        <ele>566.20001220703</ele>
        <time>2021-03-06T16:45:50.000Z</time>
      </trkpt>
      <trkpt lat="45.57381" lon="4.35701">
        <ele>567.40002441406</ele>
        <time>2021-03-06T16:45:53.000Z</time>
      </trkpt>
      <trkpt lat="45.57382" lon="4.3571">
        <ele>568.20001220703</ele>
        <time>2021-03-06T16:45:55.000Z</time>
      </trkpt>
      <trkpt lat="45.57384" lon="4.3572">
        <ele>569</ele>
        <time>2021-03-06T16:45:57.000Z</time>
      </trkpt>
      <trkpt lat="45.57385" lon="4.35729">
        <ele>570</ele>
        <time>2021-03-06T16:45:59.000Z</time>
      </trkpt>
      <trkpt lat="45.57387" lon="4.35741">
        <ele>571.20001220703</ele>
        <time>2021-03-06T16:46:02.000Z</time>
      </trkpt>
      <trkpt lat="45.5739" lon="4.35757">
        <ele>572.40002441406</ele>
        <time>2021-03-06T16:46:06.000Z</time>
      </trkpt>
      <trkpt lat="45.57393" lon="4.35767">
        <ele>573.59997558594</ele>
        <time>2021-03-06T16:46:09.000Z</time>
      </trkpt>
      <trkpt lat="45.57394" lon="4.3577">
        <ele>573.79998779297</ele>
        <time>2021-03-06T16:46:10.000Z</time>
      </trkpt>
      <trkpt lat="45.57396" lon="4.3578">
        <ele>574.79998779297</ele>
        <time>2021-03-06T16:46:13.000Z</time>
      </trkpt>
      <trkpt lat="45.574" lon="4.35793">
        <ele>576</ele>
        <time>2021-03-06T16:46:17.000Z</time>
      </trkpt>
      <trkpt lat="45.57403" lon="4.35803">
        <ele>577.20001220703</ele>
        <time>2021-03-06T16:46:20.000Z</time>
      </trkpt>
      <trkpt lat="45.57407" lon="4.35816">
        <ele>578.20001220703</ele>
        <time>2021-03-06T16:46:24.000Z</time>
      </trkpt>
      <trkpt lat="45.57412" lon="4.35827">
        <ele>579.20001220703</ele>
        <time>2021-03-06T16:46:27.000Z</time>
      </trkpt>
      <trkpt lat="45.57415" lon="4.35836">
        <ele>580.40002441406</ele>
        <time>2021-03-06T16:46:30.000Z</time>
      </trkpt>
      <trkpt lat="45.5742" lon="4.35849">
        <ele>581.79998779297</ele>
        <time>2021-03-06T16:46:34.000Z</time>
      </trkpt>
      <trkpt lat="45.57423" lon="4.35862">
        <ele>583</ele>
        <time>2021-03-06T16:46:38.000Z</time>
      </trkpt>
      <trkpt lat="45.57424" lon="4.35869">
        <ele>583.79998779297</ele>
        <time>2021-03-06T16:46:40.000Z</time>
      </trkpt>
      <trkpt lat="45.57424" lon="4.35877">
        <ele>584.40002441406</ele>
        <time>2021-03-06T16:46:42.000Z</time>
      </trkpt>
      <trkpt lat="45.57424" lon="4.35894">
        <ele>585.40002441406</ele>
        <time>2021-03-06T16:46:46.000Z</time>
      </trkpt>
      <trkpt lat="45.57424" lon="4.35898">
        <ele>585.59997558594</ele>
        <time>2021-03-06T16:46:47.000Z</time>
      </trkpt>
      <trkpt lat="45.57421" lon="4.35922">
        <ele>586.59997558594</ele>
        <time>2021-03-06T16:46:53.000Z</time>
      </trkpt>
      <trkpt lat="45.5742" lon="4.35931">
        <ele>587</ele>
        <time>2021-03-06T16:46:55.000Z</time>
      </trkpt>
      <trkpt lat="45.57415" lon="4.35974">
        <ele>587.59997558594</ele>
        <time>2021-03-06T16:47:03.000Z</time>
      </trkpt>
      <trkpt lat="45.57411" lon="4.36005">
        <ele>588</ele>
        <time>2021-03-06T16:47:08.000Z</time>
      </trkpt>
      <trkpt lat="45.5741" lon="4.36056">
        <ele>588.20001220703</ele>
        <time>2021-03-06T16:47:15.000Z</time>
      </trkpt>
      <trkpt lat="45.5741" lon="4.36094">
        <ele>588.40002441406</ele>
        <time>2021-03-06T16:47:20.000Z</time>
      </trkpt>
      <trkpt lat="45.5741" lon="4.36109">
        <ele>588.59997558594</ele>
        <time>2021-03-06T16:47:22.000Z</time>
      </trkpt>
      <trkpt lat="45.5741" lon="4.36117">
        <ele>588.79998779297</ele>
        <time>2021-03-06T16:47:23.000Z</time>
      </trkpt>
      <trkpt lat="45.5741" lon="4.36158">
        <ele>589</ele>
        <time>2021-03-06T16:47:28.000Z</time>
      </trkpt>
      <trkpt lat="45.57411" lon="4.36234">
        <ele>588</ele>
        <time>2021-03-06T16:47:37.000Z</time>
      </trkpt>
      <trkpt lat="45.57413" lon="4.36292">
        <ele>587.79998779297</ele>
        <time>2021-03-06T16:47:43.000Z</time>
      </trkpt>
      <trkpt lat="45.57413" lon="4.36312">
        <ele>587.59997558594</ele>
        <time>2021-03-06T16:47:45.000Z</time>
      </trkpt>
      <trkpt lat="45.57418" lon="4.36391">
        <ele>588</ele>
        <time>2021-03-06T16:47:53.000Z</time>
      </trkpt>
      <trkpt lat="45.57422" lon="4.36434">
        <ele>589</ele>
        <time>2021-03-06T16:47:58.000Z</time>
      </trkpt>
      <trkpt lat="45.57422" lon="4.36442">
        <ele>589.40002441406</ele>
        <time>2021-03-06T16:47:59.000Z</time>
      </trkpt>
      <trkpt lat="45.57424" lon="4.36458">
        <ele>589.79998779297</ele>
        <time>2021-03-06T16:48:01.000Z</time>
      </trkpt>
      <trkpt lat="45.57427" lon="4.36472">
        <ele>590.20001220703</ele>
        <time>2021-03-06T16:48:03.000Z</time>
      </trkpt>
      <trkpt lat="45.57429" lon="4.36479">
        <ele>590.59997558594</ele>
        <time>2021-03-06T16:48:04.000Z</time>
      </trkpt>
      <trkpt lat="45.57432" lon="4.36486">
        <ele>591</ele>
        <time>2021-03-06T16:48:05.000Z</time>
      </trkpt>
      <trkpt lat="45.57438" lon="4.365">
        <ele>591.40002441406</ele>
        <time>2021-03-06T16:48:07.000Z</time>
      </trkpt>
      <trkpt lat="45.57443" lon="4.36513">
        <ele>592</ele>
        <time>2021-03-06T16:48:09.000Z</time>
      </trkpt>
      <trkpt lat="45.57446" lon="4.3652">
        <ele>592.40002441406</ele>
        <time>2021-03-06T16:48:10.000Z</time>
      </trkpt>
      <trkpt lat="45.57448" lon="4.36527">
        <ele>593.20001220703</ele>
        <time>2021-03-06T16:48:11.000Z</time>
      </trkpt>
      <trkpt lat="45.57454" lon="4.36548">
        <ele>594.40002441406</ele>
        <time>2021-03-06T16:48:14.000Z</time>
      </trkpt>
      <trkpt lat="45.57458" lon="4.36562">
        <ele>594.79998779297</ele>
        <time>2021-03-06T16:48:16.000Z</time>
      </trkpt>
      <trkpt lat="45.57463" lon="4.36584">
        <ele>595.20001220703</ele>
        <time>2021-03-06T16:48:19.000Z</time>
      </trkpt>
      <trkpt lat="45.57465" lon="4.36592">
        <ele>595.40002441406</ele>
        <time>2021-03-06T16:48:20.000Z</time>
      </trkpt>
      <trkpt lat="45.5747" lon="4.36636">
        <ele>596.59997558594</ele>
        <time>2021-03-06T16:48:26.000Z</time>
      </trkpt>
      <trkpt lat="45.57474" lon="4.36677">
        <ele>597.59997558594</ele>
        <time>2021-03-06T16:48:32.000Z</time>
      </trkpt>
      <trkpt lat="45.57476" lon="4.36705">
        <ele>598.79998779297</ele>
        <time>2021-03-06T16:48:36.000Z</time>
      </trkpt>
      <trkpt lat="45.57476" lon="4.3673">
        <ele>600</ele>
        <time>2021-03-06T16:48:40.000Z</time>
      </trkpt>
      <trkpt lat="45.57477" lon="4.36755">
        <ele>601.40002441406</ele>
        <time>2021-03-06T16:48:44.000Z</time>
      </trkpt>
      <trkpt lat="45.57477" lon="4.36773">
        <ele>602.40002441406</ele>
        <time>2021-03-06T16:48:47.000Z</time>
      </trkpt>
      <trkpt lat="45.57477" lon="4.3678">
        <ele>602.40002441406</ele>
        <time>2021-03-06T16:48:48.000Z</time>
      </trkpt>
      <trkpt lat="45.57476" lon="4.36803">
        <ele>603.40002441406</ele>
        <time>2021-03-06T16:48:52.000Z</time>
      </trkpt>
      <trkpt lat="45.57475" lon="4.36819">
        <ele>604.40002441406</ele>
        <time>2021-03-06T16:48:55.000Z</time>
      </trkpt>
      <trkpt lat="45.57474" lon="4.3683">
        <ele>605</ele>
        <time>2021-03-06T16:48:57.000Z</time>
      </trkpt>
      <trkpt lat="45.57474" lon="4.3684">
        <ele>605.59997558594</ele>
        <time>2021-03-06T16:48:59.000Z</time>
      </trkpt>
      <trkpt lat="45.57473" lon="4.36856">
        <ele>606.40002441406</ele>
        <time>2021-03-06T16:49:02.000Z</time>
      </trkpt>
      <trkpt lat="45.57473" lon="4.36867">
        <ele>606.79998779297</ele>
        <time>2021-03-06T16:49:04.000Z</time>
      </trkpt>
      <trkpt lat="45.57471" lon="4.36892">
        <ele>608</ele>
        <time>2021-03-06T16:49:09.000Z</time>
      </trkpt>
      <trkpt lat="45.57471" lon="4.36903">
        <ele>608.40002441406</ele>
        <time>2021-03-06T16:49:11.000Z</time>
      </trkpt>
      <trkpt lat="45.5747" lon="4.36912">
        <ele>609</ele>
        <time>2021-03-06T16:49:13.000Z</time>
      </trkpt>
      <trkpt lat="45.57468" lon="4.36936">
        <ele>610.20001220703</ele>
        <time>2021-03-06T16:49:18.000Z</time>
      </trkpt>
      <trkpt lat="45.57467" lon="4.36959">
        <ele>611.20001220703</ele>
        <time>2021-03-06T16:49:23.000Z</time>
      </trkpt>
      <trkpt lat="45.57466" lon="4.36979">
        <ele>612.20001220703</ele>
        <time>2021-03-06T16:49:27.000Z</time>
      </trkpt>
      <trkpt lat="45.57465" lon="4.36997">
        <ele>613.20001220703</ele>
        <time>2021-03-06T16:49:31.000Z</time>
      </trkpt>
      <trkpt lat="45.57465" lon="4.37019">
        <ele>614</ele>
        <time>2021-03-06T16:49:35.000Z</time>
      </trkpt>
      <trkpt lat="45.57465" lon="4.37025">
        <ele>614.40002441406</ele>
        <time>2021-03-06T16:49:36.000Z</time>
      </trkpt>
      <trkpt lat="45.57465" lon="4.3706">
        <ele>615.40002441406</ele>
        <time>2021-03-06T16:49:42.000Z</time>
      </trkpt>
      <trkpt lat="45.57465" lon="4.37072">
        <ele>615.79998779297</ele>
        <time>2021-03-06T16:49:44.000Z</time>
      </trkpt>
      <trkpt lat="45.57464" lon="4.37095">
        <ele>616.40002441406</ele>
        <time>2021-03-06T16:49:48.000Z</time>
      </trkpt>
      <trkpt lat="45.57463" lon="4.371">
        <ele>616.59997558594</ele>
        <time>2021-03-06T16:49:49.000Z</time>
      </trkpt>
      <trkpt lat="45.57467" lon="4.3712">
        <ele>617.40002441406</ele>
        <time>2021-03-06T16:49:53.000Z</time>
      </trkpt>
      <trkpt lat="45.57475" lon="4.37127">
        <ele>617.40002441406</ele>
        <time>2021-03-06T16:49:55.000Z</time>
      </trkpt>
      <trkpt lat="45.57489" lon="4.37139">
        <ele>617.59997558594</ele>
        <time>2021-03-06T16:49:58.000Z</time>
      </trkpt>
      <trkpt lat="45.57517" lon="4.37172">
        <ele>617.40002441406</ele>
        <time>2021-03-06T16:50:04.000Z</time>
      </trkpt>
      <trkpt lat="45.57527" lon="4.37183">
        <ele>616.40002441406</ele>
        <time>2021-03-06T16:50:06.000Z</time>
      </trkpt>
      <trkpt lat="45.57537" lon="4.37194">
        <ele>615.40002441406</ele>
        <time>2021-03-06T16:50:08.000Z</time>
      </trkpt>
      <trkpt lat="45.57563" lon="4.37223">
        <ele>615.59997558594</ele>
        <time>2021-03-06T16:50:13.000Z</time>
      </trkpt>
      <trkpt lat="45.57598" lon="4.37263">
        <ele>615</ele>
        <time>2021-03-06T16:50:19.000Z</time>
      </trkpt>
      <trkpt lat="45.57623" lon="4.37288">
        <ele>614.20001220703</ele>
        <time>2021-03-06T16:50:23.000Z</time>
      </trkpt>
      <trkpt lat="45.57643" lon="4.37302">
        <ele>613.79998779297</ele>
        <time>2021-03-06T16:50:26.000Z</time>
      </trkpt>
      <trkpt lat="45.57667" lon="4.37315">
        <ele>613.20001220703</ele>
        <time>2021-03-06T16:50:29.000Z</time>
      </trkpt>
      <trkpt lat="45.57698" lon="4.3733">
        <ele>612.59997558594</ele>
        <time>2021-03-06T16:50:33.000Z</time>
      </trkpt>
      <trkpt lat="45.57731" lon="4.3734">
        <ele>612</ele>
        <time>2021-03-06T16:50:37.000Z</time>
      </trkpt>
      <trkpt lat="45.57746" lon="4.37347">
        <ele>611.79998779297</ele>
        <time>2021-03-06T16:50:39.000Z</time>
      </trkpt>
      <trkpt lat="45.57778" lon="4.37365">
        <ele>612.79998779297</ele>
        <time>2021-03-06T16:50:44.000Z</time>
      </trkpt>
      <trkpt lat="45.57788" lon="4.37372">
        <ele>613.20001220703</ele>
        <time>2021-03-06T16:50:46.000Z</time>
      </trkpt>
      <trkpt lat="45.57808" lon="4.37385">
        <ele>614</ele>
        <time>2021-03-06T16:50:50.000Z</time>
      </trkpt>
      <trkpt lat="45.57818" lon="4.37392">
        <ele>614.40002441406</ele>
        <time>2021-03-06T16:50:52.000Z</time>
      </trkpt>
      <trkpt lat="45.57823" lon="4.37396">
        <ele>614.59997558594</ele>
        <time>2021-03-06T16:50:53.000Z</time>
      </trkpt>
      <trkpt lat="45.57847" lon="4.37411">
        <ele>615.59997558594</ele>
        <time>2021-03-06T16:50:58.000Z</time>
      </trkpt>
      <trkpt lat="45.57851" lon="4.37414">
        <ele>615.79998779297</ele>
        <time>2021-03-06T16:50:59.000Z</time>
      </trkpt>
      <trkpt lat="45.57864" lon="4.37422">
        <ele>616.79998779297</ele>
        <time>2021-03-06T16:51:02.000Z</time>
      </trkpt>
      <trkpt lat="45.5789" lon="4.3744">
        <ele>617.59997558594</ele>
        <time>2021-03-06T16:51:08.000Z</time>
      </trkpt>
      <trkpt lat="45.57895" lon="4.37444">
        <ele>617.79998779297</ele>
        <time>2021-03-06T16:51:09.000Z</time>
      </trkpt>
      <trkpt lat="45.57899" lon="4.37448">
        <ele>617.79998779297</ele>
        <time>2021-03-06T16:51:10.000Z</time>
      </trkpt>
      <trkpt lat="45.5791" lon="4.37465">
        <ele>618</ele>
        <time>2021-03-06T16:51:13.000Z</time>
      </trkpt>
      <trkpt lat="45.57934" lon="4.37516">
        <ele>618.59997558594</ele>
        <time>2021-03-06T16:51:21.000Z</time>
      </trkpt>
      <trkpt lat="45.57945" lon="4.37542">
        <ele>618.79998779297</ele>
        <time>2021-03-06T16:51:25.000Z</time>
      </trkpt>
      <trkpt lat="45.57953" lon="4.37569">
        <ele>619.40002441406</ele>
        <time>2021-03-06T16:51:29.000Z</time>
      </trkpt>
      <trkpt lat="45.57956" lon="4.37584">
        <ele>619.40002441406</ele>
        <time>2021-03-06T16:51:31.000Z</time>
      </trkpt>
      <trkpt lat="45.57955" lon="4.37598">
        <ele>619.40002441406</ele>
        <time>2021-03-06T16:51:33.000Z</time>
      </trkpt>
      <trkpt lat="45.57949" lon="4.3761">
        <ele>619.40002441406</ele>
        <time>2021-03-06T16:51:35.000Z</time>
      </trkpt>
      <trkpt lat="45.57944" lon="4.37614">
        <ele>619.40002441406</ele>
        <time>2021-03-06T16:51:36.000Z</time>
      </trkpt>
      <trkpt lat="45.57934" lon="4.37621">
        <ele>619.79998779297</ele>
        <time>2021-03-06T16:51:38.000Z</time>
      </trkpt>
      <trkpt lat="45.57915" lon="4.37633">
        <ele>621</ele>
        <time>2021-03-06T16:51:42.000Z</time>
      </trkpt>
      <trkpt lat="45.57898" lon="4.37645">
        <ele>622.20001220703</ele>
        <time>2021-03-06T16:51:46.000Z</time>
      </trkpt>
      <trkpt lat="45.57875" lon="4.37662">
        <ele>623.59997558594</ele>
        <time>2021-03-06T16:51:51.000Z</time>
      </trkpt>
      <trkpt lat="45.57863" lon="4.37672">
        <ele>624.40002441406</ele>
        <time>2021-03-06T16:51:54.000Z</time>
      </trkpt>
      <trkpt lat="45.57859" lon="4.37676">
        <ele>624.59997558594</ele>
        <time>2021-03-06T16:51:55.000Z</time>
      </trkpt>
      <trkpt lat="45.57855" lon="4.3768">
        <ele>624.79998779297</ele>
        <time>2021-03-06T16:51:56.000Z</time>
      </trkpt>
      <trkpt lat="45.57842" lon="4.37698">
        <ele>625.79998779297</ele>
        <time>2021-03-06T16:52:00.000Z</time>
      </trkpt>
      <trkpt lat="45.57831" lon="4.37718">
        <ele>627.20001220703</ele>
        <time>2021-03-06T16:52:04.000Z</time>
      </trkpt>
      <trkpt lat="45.57821" lon="4.37737">
        <ele>628.40002441406</ele>
        <time>2021-03-06T16:52:08.000Z</time>
      </trkpt>
      <trkpt lat="45.57819" lon="4.37742">
        <ele>628.59997558594</ele>
        <time>2021-03-06T16:52:09.000Z</time>
      </trkpt>
      <trkpt lat="45.57809" lon="4.37764">
        <ele>629.40002441406</ele>
        <time>2021-03-06T16:52:13.000Z</time>
      </trkpt>
      <trkpt lat="45.57802" lon="4.3778">
        <ele>630.59997558594</ele>
        <time>2021-03-06T16:52:16.000Z</time>
      </trkpt>
      <trkpt lat="45.57799" lon="4.37785">
        <ele>631</ele>
        <time>2021-03-06T16:52:17.000Z</time>
      </trkpt>
      <trkpt lat="45.57791" lon="4.378">
        <ele>631.79998779297</ele>
        <time>2021-03-06T16:52:20.000Z</time>
      </trkpt>
      <trkpt lat="45.57783" lon="4.37813">
        <ele>632.40002441406</ele>
        <time>2021-03-06T16:52:23.000Z</time>
      </trkpt>
      <trkpt lat="45.57781" lon="4.37818">
        <ele>632.79998779297</ele>
        <time>2021-03-06T16:52:24.000Z</time>
      </trkpt>
      <trkpt lat="45.57779" lon="4.37822">
        <ele>633</ele>
        <time>2021-03-06T16:52:25.000Z</time>
      </trkpt>
      <trkpt lat="45.57772" lon="4.37833">
        <ele>634</ele>
        <time>2021-03-06T16:52:28.000Z</time>
      </trkpt>
      <trkpt lat="45.5777" lon="4.37837">
        <ele>634.20001220703</ele>
        <time>2021-03-06T16:52:29.000Z</time>
      </trkpt>
      <trkpt lat="45.57762" lon="4.37854">
        <ele>635</ele>
        <time>2021-03-06T16:52:33.000Z</time>
      </trkpt>
      <trkpt lat="45.57758" lon="4.37867">
        <ele>636.59997558594</ele>
        <time>2021-03-06T16:52:36.000Z</time>
      </trkpt>
      <trkpt lat="45.57754" lon="4.3788">
        <ele>637.79998779297</ele>
        <time>2021-03-06T16:52:39.000Z</time>
      </trkpt>
      <trkpt lat="45.57751" lon="4.37897">
        <ele>638.79998779297</ele>
        <time>2021-03-06T16:52:43.000Z</time>
      </trkpt>
      <trkpt lat="45.5775" lon="4.37921">
        <ele>639.79998779297</ele>
        <time>2021-03-06T16:52:48.000Z</time>
      </trkpt>
      <trkpt lat="45.57749" lon="4.37931">
        <ele>640.40002441406</ele>
        <time>2021-03-06T16:52:50.000Z</time>
      </trkpt>
      <trkpt lat="45.57749" lon="4.37956">
        <ele>641</ele>
        <time>2021-03-06T16:52:55.000Z</time>
      </trkpt>
      <trkpt lat="45.57749" lon="4.3797">
        <ele>641.79998779297</ele>
        <time>2021-03-06T16:52:58.000Z</time>
      </trkpt>
      <trkpt lat="45.57748" lon="4.37974">
        <ele>642</ele>
        <time>2021-03-06T16:52:59.000Z</time>
      </trkpt>
      <trkpt lat="45.57746" lon="4.37982">
        <ele>643</ele>
        <time>2021-03-06T16:53:02.000Z</time>
      </trkpt>
      <trkpt lat="45.57746" lon="4.37982">
        <ele>643.20001220703</ele>
        <time>2021-03-06T16:53:04.000Z</time>
      </trkpt>
    </trkseg>
  </trk>
</gpx>